<?xml version="1.0" encoding="UTF-8" standalone="no" ?>
<gpx xmlns="http://www.topografix.com/GPX/1/1" xmlns:xsi="http://www.w3.org/2001/XMLSchema-instance" xsi:schemaLocation="http://www.topografix.com/GPX/1/1 http://www.topografix.com/GPX/1/1/gpx.xsd" version="1.1" creator="VisuGPX - https://www.visugpx.com">
  <metadata>
    <name>Ailefroide et barre des écrins</name>
  </metadata>
  <trk>
    <name><![CDATA[Ailefroide J1 20.07.20]]></name>
    <trkseg>
      <trkpt lat="44.88423" lon="6.44554">
        <ele>1501.24</ele>
        <time>2020-07-20T11:15:05Z</time>
      </trkpt>
      <trkpt lat="44.88421" lon="6.44551">
        <ele>1498.83</ele>
        <time>2020-07-20T11:15:07Z</time>
      </trkpt>
      <trkpt lat="44.88418" lon="6.44539">
        <ele>1503.16</ele>
        <time>2020-07-20T11:15:16Z</time>
      </trkpt>
      <trkpt lat="44.88383" lon="6.44357">
        <ele>1509.41</ele>
        <time>2020-07-20T11:17:23Z</time>
      </trkpt>
      <trkpt lat="44.88382" lon="6.44352">
        <ele>1509.89</ele>
        <time>2020-07-20T11:17:27Z</time>
      </trkpt>
      <trkpt lat="44.88382" lon="6.44338">
        <ele>1510.37</ele>
        <time>2020-07-20T11:17:35Z</time>
      </trkpt>
      <trkpt lat="44.88364" lon="6.44317">
        <ele>1512.29</ele>
        <time>2020-07-20T11:17:56Z</time>
      </trkpt>
      <trkpt lat="44.8835" lon="6.443">
        <ele>1514.69</ele>
        <time>2020-07-20T11:18:13Z</time>
      </trkpt>
      <trkpt lat="44.88338" lon="6.4425">
        <ele>1519.5</ele>
        <time>2020-07-20T11:18:50Z</time>
      </trkpt>
      <trkpt lat="44.88333" lon="6.44227">
        <ele>1522.87</ele>
        <time>2020-07-20T11:19:14Z</time>
      </trkpt>
      <trkpt lat="44.88331" lon="6.44226">
        <ele>1522.87</ele>
        <time>2020-07-20T11:19:16Z</time>
      </trkpt>
      <trkpt lat="44.88314" lon="6.44211">
        <ele>1526.71</ele>
        <time>2020-07-20T11:19:44Z</time>
      </trkpt>
      <trkpt lat="44.88267" lon="6.44184">
        <ele>1531.52</ele>
        <time>2020-07-20T11:20:37Z</time>
      </trkpt>
      <trkpt lat="44.88245" lon="6.44153">
        <ele>1535.36</ele>
        <time>2020-07-20T11:21:14Z</time>
      </trkpt>
      <trkpt lat="44.8822" lon="6.44132">
        <ele>1537.77</ele>
        <time>2020-07-20T11:21:50Z</time>
      </trkpt>
      <trkpt lat="44.87993" lon="6.43788">
        <ele>1535.84</ele>
        <time>2020-07-20T11:27:45Z</time>
      </trkpt>
      <trkpt lat="44.87984" lon="6.43783">
        <ele>1535.84</ele>
        <time>2020-07-20T11:27:54Z</time>
      </trkpt>
      <trkpt lat="44.87841" lon="6.43372">
        <ele>1542.57</ele>
        <time>2020-07-20T11:34:11Z</time>
      </trkpt>
      <trkpt lat="44.87833" lon="6.43332">
        <ele>1545.94</ele>
        <time>2020-07-20T11:34:46Z</time>
      </trkpt>
      <trkpt lat="44.87625" lon="6.42849">
        <ele>1547.38</ele>
        <time>2020-07-20T11:42:23Z</time>
      </trkpt>
      <trkpt lat="44.87598" lon="6.4277">
        <ele>1551.71</ele>
        <time>2020-07-20T11:43:44Z</time>
      </trkpt>
      <trkpt lat="44.87599" lon="6.42746">
        <ele>1555.07</ele>
        <time>2020-07-20T11:44:22Z</time>
      </trkpt>
      <trkpt lat="44.8758" lon="6.42716">
        <ele>1559.4</ele>
        <time>2020-07-20T11:45:06Z</time>
      </trkpt>
      <trkpt lat="44.87552" lon="6.42692">
        <ele>1563.24</ele>
        <time>2020-07-20T11:45:46Z</time>
      </trkpt>
      <trkpt lat="44.87543" lon="6.42654">
        <ele>1567.57</ele>
        <time>2020-07-20T11:46:27Z</time>
      </trkpt>
      <trkpt lat="44.87524" lon="6.4261">
        <ele>1571.89</ele>
        <time>2020-07-20T11:47:25Z</time>
      </trkpt>
      <trkpt lat="44.87512" lon="6.42578">
        <ele>1575.74</ele>
        <time>2020-07-20T11:48:02Z</time>
      </trkpt>
      <trkpt lat="44.87502" lon="6.4254">
        <ele>1579.58</ele>
        <time>2020-07-20T11:48:40Z</time>
      </trkpt>
      <trkpt lat="44.87484" lon="6.42515">
        <ele>1583.43</ele>
        <time>2020-07-20T11:49:14Z</time>
      </trkpt>
      <trkpt lat="44.87465" lon="6.42493">
        <ele>1586.79</ele>
        <time>2020-07-20T11:49:48Z</time>
      </trkpt>
      <trkpt lat="44.8746" lon="6.42468">
        <ele>1591.6</ele>
        <time>2020-07-20T11:50:24Z</time>
      </trkpt>
      <trkpt lat="44.8744" lon="6.42475">
        <ele>1595.93</ele>
        <time>2020-07-20T11:51:03Z</time>
      </trkpt>
      <trkpt lat="44.8742" lon="6.42452">
        <ele>1600.25</ele>
        <time>2020-07-20T11:51:39Z</time>
      </trkpt>
      <trkpt lat="44.87399" lon="6.42432">
        <ele>1605.54</ele>
        <time>2020-07-20T11:52:19Z</time>
      </trkpt>
      <trkpt lat="44.87391" lon="6.42399">
        <ele>1609.86</ele>
        <time>2020-07-20T11:52:59Z</time>
      </trkpt>
      <trkpt lat="44.87383" lon="6.42347">
        <ele>1614.67</ele>
        <time>2020-07-20T11:53:41Z</time>
      </trkpt>
      <trkpt lat="44.87373" lon="6.42303">
        <ele>1619.48</ele>
        <time>2020-07-20T11:54:17Z</time>
      </trkpt>
      <trkpt lat="44.87371" lon="6.423">
        <ele>1619.48</ele>
        <time>2020-07-20T11:54:21Z</time>
      </trkpt>
      <trkpt lat="44.87368" lon="6.42275">
        <ele>1623.8</ele>
        <time>2020-07-20T11:54:53Z</time>
      </trkpt>
      <trkpt lat="44.87364" lon="6.42245">
        <ele>1628.61</ele>
        <time>2020-07-20T11:55:29Z</time>
      </trkpt>
      <trkpt lat="44.87347" lon="6.42199">
        <ele>1633.9</ele>
        <time>2020-07-20T11:56:17Z</time>
      </trkpt>
      <trkpt lat="44.87334" lon="6.42096">
        <ele>1639.19</ele>
        <time>2020-07-20T11:57:41Z</time>
      </trkpt>
      <trkpt lat="44.87317" lon="6.42062">
        <ele>1643.99</ele>
        <time>2020-07-20T11:58:14Z</time>
      </trkpt>
      <trkpt lat="44.87303" lon="6.4203">
        <ele>1648.8</ele>
        <time>2020-07-20T11:58:48Z</time>
      </trkpt>
      <trkpt lat="44.87295" lon="6.42013">
        <ele>1652.16</ele>
        <time>2020-07-20T11:59:06Z</time>
      </trkpt>
      <trkpt lat="44.8728" lon="6.41983">
        <ele>1656.01</ele>
        <time>2020-07-20T11:59:41Z</time>
      </trkpt>
      <trkpt lat="44.87275" lon="6.41968">
        <ele>1659.37</ele>
        <time>2020-07-20T11:59:57Z</time>
      </trkpt>
      <trkpt lat="44.87251" lon="6.41928">
        <ele>1666.1</ele>
        <time>2020-07-20T12:00:50Z</time>
      </trkpt>
      <trkpt lat="44.87252" lon="6.41894">
        <ele>1671.87</ele>
        <time>2020-07-20T12:01:26Z</time>
      </trkpt>
      <trkpt lat="44.87253" lon="6.41864">
        <ele>1677.64</ele>
        <time>2020-07-20T12:02:02Z</time>
      </trkpt>
      <trkpt lat="44.87252" lon="6.41832">
        <ele>1683.89</ele>
        <time>2020-07-20T12:02:40Z</time>
      </trkpt>
      <trkpt lat="44.87276" lon="6.4182">
        <ele>1688.21</ele>
        <time>2020-07-20T12:03:13Z</time>
      </trkpt>
      <trkpt lat="44.87293" lon="6.41813">
        <ele>1693.5</ele>
        <time>2020-07-20T12:03:44Z</time>
      </trkpt>
      <trkpt lat="44.87274" lon="6.41781">
        <ele>1699.27</ele>
        <time>2020-07-20T12:04:23Z</time>
      </trkpt>
      <trkpt lat="44.87273" lon="6.41756">
        <ele>1704.07</ele>
        <time>2020-07-20T12:04:54Z</time>
      </trkpt>
      <trkpt lat="44.87264" lon="6.41722">
        <ele>1707.92</ele>
        <time>2020-07-20T12:05:31Z</time>
      </trkpt>
      <trkpt lat="44.87266" lon="6.41688">
        <ele>1712.73</ele>
        <time>2020-07-20T12:06:06Z</time>
      </trkpt>
      <trkpt lat="44.87253" lon="6.41653">
        <ele>1717.53</ele>
        <time>2020-07-20T12:06:42Z</time>
      </trkpt>
      <trkpt lat="44.87253" lon="6.41616">
        <ele>1722.82</ele>
        <time>2020-07-20T12:07:21Z</time>
      </trkpt>
      <trkpt lat="44.87261" lon="6.41605">
        <ele>1726.18</ele>
        <time>2020-07-20T12:07:39Z</time>
      </trkpt>
      <trkpt lat="44.87276" lon="6.41582">
        <ele>1732.43</ele>
        <time>2020-07-20T12:08:19Z</time>
      </trkpt>
      <trkpt lat="44.87288" lon="6.41565">
        <ele>1737.72</ele>
        <time>2020-07-20T12:08:55Z</time>
      </trkpt>
      <trkpt lat="44.87287" lon="6.41533">
        <ele>1742.05</ele>
        <time>2020-07-20T12:09:29Z</time>
      </trkpt>
      <trkpt lat="44.87288" lon="6.41499">
        <ele>1746.37</ele>
        <time>2020-07-20T12:10:09Z</time>
      </trkpt>
      <trkpt lat="44.87307" lon="6.41474">
        <ele>1751.66</ele>
        <time>2020-07-20T12:10:49Z</time>
      </trkpt>
      <trkpt lat="44.87317" lon="6.4144">
        <ele>1757.43</ele>
        <time>2020-07-20T12:11:29Z</time>
      </trkpt>
      <trkpt lat="44.87301" lon="6.41435">
        <ele>1762.23</ele>
        <time>2020-07-20T12:12:04Z</time>
      </trkpt>
      <trkpt lat="44.87275" lon="6.41414">
        <ele>1768.48</ele>
        <time>2020-07-20T12:12:44Z</time>
      </trkpt>
      <trkpt lat="44.87285" lon="6.41389">
        <ele>1773.77</ele>
        <time>2020-07-20T12:13:23Z</time>
      </trkpt>
      <trkpt lat="44.87292" lon="6.41365">
        <ele>1781.46</ele>
        <time>2020-07-20T12:14:20Z</time>
      </trkpt>
      <trkpt lat="44.87314" lon="6.41363">
        <ele>1786.75</ele>
        <time>2020-07-20T12:14:54Z</time>
      </trkpt>
      <trkpt lat="44.87307" lon="6.41337">
        <ele>1791.07</ele>
        <time>2020-07-20T12:15:26Z</time>
      </trkpt>
      <trkpt lat="44.87289" lon="6.41312">
        <ele>1796.36</ele>
        <time>2020-07-20T12:16:07Z</time>
      </trkpt>
      <trkpt lat="44.8731" lon="6.41298">
        <ele>1801.17</ele>
        <time>2020-07-20T12:16:41Z</time>
      </trkpt>
      <trkpt lat="44.87321" lon="6.41308">
        <ele>1804.53</ele>
        <time>2020-07-20T12:17:13Z</time>
      </trkpt>
      <trkpt lat="44.87319" lon="6.41278">
        <ele>1809.82</ele>
        <time>2020-07-20T12:17:58Z</time>
      </trkpt>
      <trkpt lat="44.87306" lon="6.41254">
        <ele>1814.63</ele>
        <time>2020-07-20T12:18:34Z</time>
      </trkpt>
      <trkpt lat="44.87323" lon="6.41238">
        <ele>1818.95</ele>
        <time>2020-07-20T12:19:13Z</time>
      </trkpt>
      <trkpt lat="44.87319" lon="6.41219">
        <ele>1823.76</ele>
        <time>2020-07-20T12:19:48Z</time>
      </trkpt>
      <trkpt lat="44.87336" lon="6.41223">
        <ele>1827.6</ele>
        <time>2020-07-20T12:20:23Z</time>
      </trkpt>
      <trkpt lat="44.8732" lon="6.41192">
        <ele>1832.89</ele>
        <time>2020-07-20T12:21:03Z</time>
      </trkpt>
      <trkpt lat="44.87321" lon="6.4119">
        <ele>1832.89</ele>
        <time>2020-07-20T12:21:05Z</time>
      </trkpt>
      <trkpt lat="44.87344" lon="6.41182">
        <ele>1838.66</ele>
        <time>2020-07-20T12:21:47Z</time>
      </trkpt>
      <trkpt lat="44.87336" lon="6.41166">
        <ele>1842.5</ele>
        <time>2020-07-20T12:22:08Z</time>
      </trkpt>
      <trkpt lat="44.87344" lon="6.41148">
        <ele>1846.83</ele>
        <time>2020-07-20T12:22:45Z</time>
      </trkpt>
      <trkpt lat="44.87327" lon="6.41136">
        <ele>1851.64</ele>
        <time>2020-07-20T12:23:23Z</time>
      </trkpt>
      <trkpt lat="44.87334" lon="6.41118">
        <ele>1856.92</ele>
        <time>2020-07-20T12:24:00Z</time>
      </trkpt>
      <trkpt lat="44.87356" lon="6.4111">
        <ele>1861.25</ele>
        <time>2020-07-20T12:24:33Z</time>
      </trkpt>
      <trkpt lat="44.87374" lon="6.41149">
        <ele>1866.54</ele>
        <time>2020-07-20T12:25:22Z</time>
      </trkpt>
      <trkpt lat="44.8737" lon="6.41161">
        <ele>1869.9</ele>
        <time>2020-07-20T12:27:37Z</time>
      </trkpt>
      <trkpt lat="44.87371" lon="6.4116">
        <ele>1873.75</ele>
        <time>2020-07-20T12:29:45Z</time>
      </trkpt>
      <trkpt lat="44.87381" lon="6.41173">
        <ele>1877.59</ele>
        <time>2020-07-20T12:30:33Z</time>
      </trkpt>
      <trkpt lat="44.87392" lon="6.41189">
        <ele>1883.36</ele>
        <time>2020-07-20T12:31:11Z</time>
      </trkpt>
      <trkpt lat="44.87395" lon="6.41161">
        <ele>1887.21</ele>
        <time>2020-07-20T12:31:48Z</time>
      </trkpt>
      <trkpt lat="44.87392" lon="6.41127">
        <ele>1892.49</ele>
        <time>2020-07-20T12:32:27Z</time>
      </trkpt>
      <trkpt lat="44.874" lon="6.41097">
        <ele>1896.82</ele>
        <time>2020-07-20T12:33:05Z</time>
      </trkpt>
      <trkpt lat="44.87406" lon="6.41064">
        <ele>1901.63</ele>
        <time>2020-07-20T12:33:46Z</time>
      </trkpt>
      <trkpt lat="44.87408" lon="6.41037">
        <ele>1905.95</ele>
        <time>2020-07-20T12:34:24Z</time>
      </trkpt>
      <trkpt lat="44.87405" lon="6.4101">
        <ele>1910.28</ele>
        <time>2020-07-20T12:34:56Z</time>
      </trkpt>
      <trkpt lat="44.87416" lon="6.41015">
        <ele>1914.12</ele>
        <time>2020-07-20T12:35:33Z</time>
      </trkpt>
      <trkpt lat="44.87432" lon="6.41042">
        <ele>1920.37</ele>
        <time>2020-07-20T12:36:10Z</time>
      </trkpt>
      <trkpt lat="44.87443" lon="6.41078">
        <ele>1925.18</ele>
        <time>2020-07-20T12:36:51Z</time>
      </trkpt>
      <trkpt lat="44.87452" lon="6.41116">
        <ele>1930.95</ele>
        <time>2020-07-20T12:37:33Z</time>
      </trkpt>
      <trkpt lat="44.87453" lon="6.41117">
        <ele>1930.95</ele>
        <time>2020-07-20T12:37:35Z</time>
      </trkpt>
      <trkpt lat="44.87457" lon="6.41118">
        <ele>1936.23</ele>
        <time>2020-07-20T12:38:14Z</time>
      </trkpt>
      <trkpt lat="44.87465" lon="6.41085">
        <ele>1942</ele>
        <time>2020-07-20T12:38:51Z</time>
      </trkpt>
      <trkpt lat="44.87475" lon="6.4105">
        <ele>1946.81</ele>
        <time>2020-07-20T12:39:35Z</time>
      </trkpt>
      <trkpt lat="44.87476" lon="6.41014">
        <ele>1951.61</ele>
        <time>2020-07-20T12:40:14Z</time>
      </trkpt>
      <trkpt lat="44.87478" lon="6.40983">
        <ele>1956.42</ele>
        <time>2020-07-20T12:40:52Z</time>
      </trkpt>
      <trkpt lat="44.87481" lon="6.4097">
        <ele>1959.78</ele>
        <time>2020-07-20T12:41:10Z</time>
      </trkpt>
      <trkpt lat="44.87476" lon="6.4094">
        <ele>1963.63</ele>
        <time>2020-07-20T12:41:47Z</time>
      </trkpt>
      <trkpt lat="44.87471" lon="6.4091">
        <ele>1968.44</ele>
        <time>2020-07-20T12:42:25Z</time>
      </trkpt>
      <trkpt lat="44.87462" lon="6.40882">
        <ele>1974.2</ele>
        <time>2020-07-20T12:43:02Z</time>
      </trkpt>
      <trkpt lat="44.87463" lon="6.40869">
        <ele>1977.57</ele>
        <time>2020-07-20T12:43:21Z</time>
      </trkpt>
      <trkpt lat="44.87467" lon="6.40842">
        <ele>1981.9</ele>
        <time>2020-07-20T12:43:55Z</time>
      </trkpt>
      <trkpt lat="44.87475" lon="6.40807">
        <ele>1988.14</ele>
        <time>2020-07-20T12:44:36Z</time>
      </trkpt>
      <trkpt lat="44.87479" lon="6.40782">
        <ele>1992.47</ele>
        <time>2020-07-20T12:45:13Z</time>
      </trkpt>
      <trkpt lat="44.87443" lon="6.40743">
        <ele>1998.24</ele>
        <time>2020-07-20T12:46:46Z</time>
      </trkpt>
      <trkpt lat="44.87436" lon="6.40727">
        <ele>2002.08</ele>
        <time>2020-07-20T12:47:03Z</time>
      </trkpt>
      <trkpt lat="44.87449" lon="6.40723">
        <ele>2006.41</ele>
        <time>2020-07-20T12:47:41Z</time>
      </trkpt>
      <trkpt lat="44.87453" lon="6.40696">
        <ele>2011.7</ele>
        <time>2020-07-20T12:48:17Z</time>
      </trkpt>
      <trkpt lat="44.8746" lon="6.40666">
        <ele>2017.94</ele>
        <time>2020-07-20T12:48:57Z</time>
      </trkpt>
      <trkpt lat="44.87459" lon="6.40631">
        <ele>2021.31</ele>
        <time>2020-07-20T12:49:32Z</time>
      </trkpt>
      <trkpt lat="44.87459" lon="6.40591">
        <ele>2026.6</ele>
        <time>2020-07-20T12:50:13Z</time>
      </trkpt>
      <trkpt lat="44.87459" lon="6.40554">
        <ele>2031.88</ele>
        <time>2020-07-20T12:50:53Z</time>
      </trkpt>
      <trkpt lat="44.87462" lon="6.40526">
        <ele>2037.65</ele>
        <time>2020-07-20T12:51:28Z</time>
      </trkpt>
      <trkpt lat="44.87464" lon="6.40502">
        <ele>2042.94</ele>
        <time>2020-07-20T12:52:01Z</time>
      </trkpt>
      <trkpt lat="44.87459" lon="6.40472">
        <ele>2047.75</ele>
        <time>2020-07-20T12:52:38Z</time>
      </trkpt>
      <trkpt lat="44.87473" lon="6.40466">
        <ele>2053.51</ele>
        <time>2020-07-20T12:53:17Z</time>
      </trkpt>
      <trkpt lat="44.87487" lon="6.40487">
        <ele>2058.8</ele>
        <time>2020-07-20T12:53:52Z</time>
      </trkpt>
      <trkpt lat="44.87495" lon="6.40509">
        <ele>2063.13</ele>
        <time>2020-07-20T12:54:20Z</time>
      </trkpt>
      <trkpt lat="44.87506" lon="6.40545">
        <ele>2067.93</ele>
        <time>2020-07-20T12:54:59Z</time>
      </trkpt>
      <trkpt lat="44.87519" lon="6.40535">
        <ele>2076.59</ele>
        <time>2020-07-20T12:56:02Z</time>
      </trkpt>
      <trkpt lat="44.87524" lon="6.40499">
        <ele>2081.87</ele>
        <time>2020-07-20T12:56:41Z</time>
      </trkpt>
      <trkpt lat="44.87533" lon="6.4047">
        <ele>2086.2</ele>
        <time>2020-07-20T12:57:15Z</time>
      </trkpt>
      <trkpt lat="44.87535" lon="6.40441">
        <ele>2090.52</ele>
        <time>2020-07-20T12:57:49Z</time>
      </trkpt>
      <trkpt lat="44.87533" lon="6.40409">
        <ele>2094.85</ele>
        <time>2020-07-20T12:58:25Z</time>
      </trkpt>
      <trkpt lat="44.87521" lon="6.40374">
        <ele>2099.66</ele>
        <time>2020-07-20T12:59:03Z</time>
      </trkpt>
      <trkpt lat="44.87512" lon="6.40343">
        <ele>2103.98</ele>
        <time>2020-07-20T12:59:39Z</time>
      </trkpt>
      <trkpt lat="44.87504" lon="6.40318">
        <ele>2109.75</ele>
        <time>2020-07-20T13:00:15Z</time>
      </trkpt>
      <trkpt lat="44.87483" lon="6.40283">
        <ele>2114.08</ele>
        <time>2020-07-20T13:01:03Z</time>
      </trkpt>
      <trkpt lat="44.8748" lon="6.40268">
        <ele>2117.44</ele>
        <time>2020-07-20T13:01:22Z</time>
      </trkpt>
      <trkpt lat="44.87469" lon="6.40235">
        <ele>2121.77</ele>
        <time>2020-07-20T13:01:58Z</time>
      </trkpt>
      <trkpt lat="44.87455" lon="6.40203">
        <ele>2125.61</ele>
        <time>2020-07-20T13:02:34Z</time>
      </trkpt>
      <trkpt lat="44.87445" lon="6.40171">
        <ele>2130.42</ele>
        <time>2020-07-20T13:03:10Z</time>
      </trkpt>
      <trkpt lat="44.8743" lon="6.40141">
        <ele>2134.74</ele>
        <time>2020-07-20T13:03:45Z</time>
      </trkpt>
      <trkpt lat="44.8742" lon="6.40108">
        <ele>2139.07</ele>
        <time>2020-07-20T13:04:20Z</time>
      </trkpt>
      <trkpt lat="44.87407" lon="6.40075">
        <ele>2142.44</ele>
        <time>2020-07-20T13:04:53Z</time>
      </trkpt>
      <trkpt lat="44.87399" lon="6.40032">
        <ele>2145.8</ele>
        <time>2020-07-20T13:05:30Z</time>
      </trkpt>
      <trkpt lat="44.87375" lon="6.39948">
        <ele>2148.68</ele>
        <time>2020-07-20T13:06:35Z</time>
      </trkpt>
      <trkpt lat="44.87337" lon="6.39829">
        <ele>2152.53</ele>
        <time>2020-07-20T13:09:08Z</time>
      </trkpt>
      <trkpt lat="44.87327" lon="6.3977">
        <ele>2155.89</ele>
        <time>2020-07-20T13:10:51Z</time>
      </trkpt>
      <trkpt lat="44.87309" lon="6.39749">
        <ele>2163.1</ele>
        <time>2020-07-20T13:20:12Z</time>
      </trkpt>
      <trkpt lat="44.87309" lon="6.39726">
        <ele>2169.35</ele>
        <time>2020-07-20T13:20:47Z</time>
      </trkpt>
      <trkpt lat="44.87313" lon="6.39713">
        <ele>2173.2</ele>
        <time>2020-07-20T13:21:15Z</time>
      </trkpt>
      <trkpt lat="44.87308" lon="6.39684">
        <ele>2176.56</ele>
        <time>2020-07-20T13:21:54Z</time>
      </trkpt>
      <trkpt lat="44.87305" lon="6.39659">
        <ele>2181.85</ele>
        <time>2020-07-20T13:22:25Z</time>
      </trkpt>
      <trkpt lat="44.87289" lon="6.3963">
        <ele>2185.21</ele>
        <time>2020-07-20T13:23:04Z</time>
      </trkpt>
      <trkpt lat="44.87283" lon="6.39602">
        <ele>2188.58</ele>
        <time>2020-07-20T13:23:39Z</time>
      </trkpt>
      <trkpt lat="44.87279" lon="6.39572">
        <ele>2192.9</ele>
        <time>2020-07-20T13:24:13Z</time>
      </trkpt>
      <trkpt lat="44.87277" lon="6.39546">
        <ele>2196.75</ele>
        <time>2020-07-20T13:24:52Z</time>
      </trkpt>
      <trkpt lat="44.8726" lon="6.39482">
        <ele>2203</ele>
        <time>2020-07-20T13:26:00Z</time>
      </trkpt>
      <trkpt lat="44.87253" lon="6.39451">
        <ele>2206.84</ele>
        <time>2020-07-20T13:26:37Z</time>
      </trkpt>
      <trkpt lat="44.87249" lon="6.39421">
        <ele>2212.13</ele>
        <time>2020-07-20T13:27:12Z</time>
      </trkpt>
      <trkpt lat="44.87255" lon="6.39409">
        <ele>2216.94</ele>
        <time>2020-07-20T13:27:46Z</time>
      </trkpt>
      <trkpt lat="44.87271" lon="6.39399">
        <ele>2222.22</ele>
        <time>2020-07-20T13:28:23Z</time>
      </trkpt>
      <trkpt lat="44.87265" lon="6.39388">
        <ele>2225.59</ele>
        <time>2020-07-20T13:28:39Z</time>
      </trkpt>
      <trkpt lat="44.87257" lon="6.39381">
        <ele>2229.92</ele>
        <time>2020-07-20T13:28:56Z</time>
      </trkpt>
      <trkpt lat="44.87255" lon="6.39378">
        <ele>2229.92</ele>
        <time>2020-07-20T13:29:03Z</time>
      </trkpt>
      <trkpt lat="44.87236" lon="6.39377">
        <ele>2234.24</ele>
        <time>2020-07-20T13:29:33Z</time>
      </trkpt>
      <trkpt lat="44.87226" lon="6.39374">
        <ele>2240.01</ele>
        <time>2020-07-20T13:30:01Z</time>
      </trkpt>
      <trkpt lat="44.87214" lon="6.39375">
        <ele>2245.78</ele>
        <time>2020-07-20T13:30:33Z</time>
      </trkpt>
      <trkpt lat="44.87206" lon="6.39366">
        <ele>2250.58</ele>
        <time>2020-07-20T13:31:00Z</time>
      </trkpt>
      <trkpt lat="44.87227" lon="6.39343">
        <ele>2256.83</ele>
        <time>2020-07-20T13:31:40Z</time>
      </trkpt>
      <trkpt lat="44.87232" lon="6.3934">
        <ele>2260.2</ele>
        <time>2020-07-20T13:31:53Z</time>
      </trkpt>
      <trkpt lat="44.8725" lon="6.39352">
        <ele>2265</ele>
        <time>2020-07-20T13:32:29Z</time>
      </trkpt>
      <trkpt lat="44.87248" lon="6.39349">
        <ele>2270.77</ele>
        <time>2020-07-20T13:32:49Z</time>
      </trkpt>
      <trkpt lat="44.87251" lon="6.39343">
        <ele>2274.14</ele>
        <time>2020-07-20T13:33:04Z</time>
      </trkpt>
      <trkpt lat="44.87251" lon="6.39343">
        <ele>2273.66</ele>
        <time>2020-07-20T13:33:05Z</time>
      </trkpt>
      <trkpt lat="44.87255" lon="6.39336">
        <ele>2279.9</ele>
        <time>2020-07-20T13:33:27Z</time>
      </trkpt>
      <trkpt lat="44.87255" lon="6.39336">
        <ele>2276.54</ele>
        <time>2020-07-20T13:33:28Z</time>
      </trkpt>
      <trkpt lat="44.87263" lon="6.3933">
        <ele>2281.35</ele>
        <time>2020-07-20T13:33:48Z</time>
      </trkpt>
      <trkpt lat="44.87266" lon="6.39329">
        <ele>2284.71</ele>
        <time>2020-07-20T13:34:07Z</time>
      </trkpt>
      <trkpt lat="44.87272" lon="6.39325">
        <ele>2288.56</ele>
        <time>2020-07-20T13:34:42Z</time>
      </trkpt>
      <trkpt lat="44.87276" lon="6.39321">
        <ele>2291.92</ele>
        <time>2020-07-20T13:34:59Z</time>
      </trkpt>
      <trkpt lat="44.87285" lon="6.39323">
        <ele>2295.28</ele>
        <time>2020-07-20T13:35:16Z</time>
      </trkpt>
      <trkpt lat="44.87299" lon="6.39324">
        <ele>2299.13</ele>
        <time>2020-07-20T13:35:43Z</time>
      </trkpt>
      <trkpt lat="44.87315" lon="6.39323">
        <ele>2304.42</ele>
        <time>2020-07-20T13:36:20Z</time>
      </trkpt>
      <trkpt lat="44.87319" lon="6.3932">
        <ele>2307.78</ele>
        <time>2020-07-20T13:36:30Z</time>
      </trkpt>
      <trkpt lat="44.87326" lon="6.39316">
        <ele>2311.15</ele>
        <time>2020-07-20T13:36:46Z</time>
      </trkpt>
      <trkpt lat="44.87321" lon="6.39305">
        <ele>2315.47</ele>
        <time>2020-07-20T13:37:35Z</time>
      </trkpt>
      <trkpt lat="44.87321" lon="6.39294">
        <ele>2318.84</ele>
        <time>2020-07-20T13:38:14Z</time>
      </trkpt>
      <trkpt lat="44.87323" lon="6.3929">
        <ele>2322.2</ele>
        <time>2020-07-20T13:38:33Z</time>
      </trkpt>
      <trkpt lat="44.87327" lon="6.39283">
        <ele>2325.57</ele>
        <time>2020-07-20T13:38:52Z</time>
      </trkpt>
      <trkpt lat="44.87331" lon="6.39275">
        <ele>2331.81</ele>
        <time>2020-07-20T13:39:28Z</time>
      </trkpt>
      <trkpt lat="44.87325" lon="6.39267">
        <ele>2335.18</ele>
        <time>2020-07-20T13:39:42Z</time>
      </trkpt>
      <trkpt lat="44.87323" lon="6.39256">
        <ele>2338.54</ele>
        <time>2020-07-20T13:39:59Z</time>
      </trkpt>
      <trkpt lat="44.87316" lon="6.39249">
        <ele>2342.87</ele>
        <time>2020-07-20T13:40:27Z</time>
      </trkpt>
      <trkpt lat="44.87301" lon="6.3926">
        <ele>2346.72</ele>
        <time>2020-07-20T13:40:51Z</time>
      </trkpt>
      <trkpt lat="44.87298" lon="6.3926">
        <ele>2346.72</ele>
        <time>2020-07-20T13:40:55Z</time>
      </trkpt>
      <trkpt lat="44.87278" lon="6.39237">
        <ele>2350.56</ele>
        <time>2020-07-20T13:41:29Z</time>
      </trkpt>
      <trkpt lat="44.87271" lon="6.39237">
        <ele>2353.93</ele>
        <time>2020-07-20T13:41:44Z</time>
      </trkpt>
      <trkpt lat="44.8726" lon="6.39235">
        <ele>2359.69</ele>
        <time>2020-07-20T13:42:12Z</time>
      </trkpt>
      <trkpt lat="44.87244" lon="6.39236">
        <ele>2363.06</ele>
        <time>2020-07-20T13:42:43Z</time>
      </trkpt>
      <trkpt lat="44.8723" lon="6.3924">
        <ele>2366.9</ele>
        <time>2020-07-20T13:43:17Z</time>
      </trkpt>
      <trkpt lat="44.87233" lon="6.39237">
        <ele>2371.71</ele>
        <time>2020-07-20T13:43:48Z</time>
      </trkpt>
      <trkpt lat="44.87237" lon="6.39223">
        <ele>2377.96</ele>
        <time>2020-07-20T13:44:25Z</time>
      </trkpt>
      <trkpt lat="44.87238" lon="6.39211">
        <ele>2381.32</ele>
        <time>2020-07-20T13:44:42Z</time>
      </trkpt>
      <trkpt lat="44.87232" lon="6.39196">
        <ele>2387.09</ele>
        <time>2020-07-20T13:45:23Z</time>
      </trkpt>
      <trkpt lat="44.87229" lon="6.39177">
        <ele>2392.38</ele>
        <time>2020-07-20T13:45:56Z</time>
      </trkpt>
      <trkpt lat="44.87234" lon="6.39159">
        <ele>2397.67</ele>
        <time>2020-07-20T13:46:25Z</time>
      </trkpt>
      <trkpt lat="44.87237" lon="6.39115">
        <ele>2402.95</ele>
        <time>2020-07-20T13:47:21Z</time>
      </trkpt>
      <trkpt lat="44.8724" lon="6.39086">
        <ele>2408.24</ele>
        <time>2020-07-20T13:47:51Z</time>
      </trkpt>
      <trkpt lat="44.87244" lon="6.39047">
        <ele>2410.64</ele>
        <time>2020-07-20T13:48:22Z</time>
      </trkpt>
      <trkpt lat="44.87242" lon="6.38978">
        <ele>2414.01</ele>
        <time>2020-07-20T13:49:04Z</time>
      </trkpt>
      <trkpt lat="44.87245" lon="6.38946">
        <ele>2409.68</ele>
        <time>2020-07-20T13:49:28Z</time>
      </trkpt>
      <trkpt lat="44.87253" lon="6.38914">
        <ele>2413.05</ele>
        <time>2020-07-20T13:50:03Z</time>
      </trkpt>
      <trkpt lat="44.87266" lon="6.38859">
        <ele>2416.89</ele>
        <time>2020-07-20T13:50:54Z</time>
      </trkpt>
      <trkpt lat="44.87277" lon="6.38831">
        <ele>2421.22</ele>
        <time>2020-07-20T13:51:25Z</time>
      </trkpt>
      <trkpt lat="44.87282" lon="6.38858">
        <ele>2426.5</ele>
        <time>2020-07-20T13:51:55Z</time>
      </trkpt>
      <trkpt lat="44.87293" lon="6.3887">
        <ele>2432.75</ele>
        <time>2020-07-20T13:52:23Z</time>
      </trkpt>
      <trkpt lat="44.87298" lon="6.38881">
        <ele>2436.6</ele>
        <time>2020-07-20T13:52:38Z</time>
      </trkpt>
      <trkpt lat="44.87301" lon="6.38896">
        <ele>2441.41</ele>
        <time>2020-07-20T13:53:02Z</time>
      </trkpt>
      <trkpt lat="44.87308" lon="6.38916">
        <ele>2447.65</ele>
        <time>2020-07-20T13:53:34Z</time>
      </trkpt>
      <trkpt lat="44.87326" lon="6.38906">
        <ele>2452.46</ele>
        <time>2020-07-20T13:54:08Z</time>
      </trkpt>
      <trkpt lat="44.87332" lon="6.38894">
        <ele>2455.82</ele>
        <time>2020-07-20T13:54:25Z</time>
      </trkpt>
      <trkpt lat="44.87335" lon="6.38921">
        <ele>2460.63</ele>
        <time>2020-07-20T13:54:48Z</time>
      </trkpt>
      <trkpt lat="44.87334" lon="6.38933">
        <ele>2464</ele>
        <time>2020-07-20T13:55:02Z</time>
      </trkpt>
      <trkpt lat="44.8734" lon="6.38937">
        <ele>2469.76</ele>
        <time>2020-07-20T13:55:32Z</time>
      </trkpt>
      <trkpt lat="44.87341" lon="6.38944">
        <ele>2473.13</ele>
        <time>2020-07-20T13:55:44Z</time>
      </trkpt>
      <trkpt lat="44.87339" lon="6.38954">
        <ele>2476.01</ele>
        <time>2020-07-20T13:55:53Z</time>
      </trkpt>
      <trkpt lat="44.87332" lon="6.38985">
        <ele>2474.09</ele>
        <time>2020-07-20T13:56:15Z</time>
      </trkpt>
      <trkpt lat="44.87333" lon="6.38998">
        <ele>2477.45</ele>
        <time>2020-07-20T13:56:26Z</time>
      </trkpt>
      <trkpt lat="44.87329" lon="6.39034">
        <ele>2477.94</ele>
        <time>2020-07-20T13:56:45Z</time>
      </trkpt>
    </trkseg>
  </trk>
  <trk>
    <name><![CDATA[Ailefroide J2 21.07.20]]></name>
    <trkseg>
      <trkpt lat="44.87332" lon="6.3904">
        <ele>2500.05</ele>
        <time>2020-07-21T02:01:59Z</time>
      </trkpt>
      <trkpt lat="44.87334" lon="6.39039">
        <ele>2500.05</ele>
        <time>2020-07-21T02:02:06Z</time>
      </trkpt>
      <trkpt lat="44.87323" lon="6.38977">
        <ele>2494.28</ele>
        <time>2020-07-21T02:06:12Z</time>
      </trkpt>
      <trkpt lat="44.87322" lon="6.38958">
        <ele>2490.43</ele>
        <time>2020-07-21T02:06:29Z</time>
      </trkpt>
      <trkpt lat="44.87326" lon="6.38923">
        <ele>2485.15</ele>
        <time>2020-07-21T02:07:00Z</time>
      </trkpt>
      <trkpt lat="44.87326" lon="6.38901">
        <ele>2481.3</ele>
        <time>2020-07-21T02:07:17Z</time>
      </trkpt>
      <trkpt lat="44.87322" lon="6.38906">
        <ele>2476.97</ele>
        <time>2020-07-21T02:07:35Z</time>
      </trkpt>
      <trkpt lat="44.8731" lon="6.38915">
        <ele>2472.65</ele>
        <time>2020-07-21T02:08:28Z</time>
      </trkpt>
      <trkpt lat="44.87308" lon="6.38898">
        <ele>2468.8</ele>
        <time>2020-07-21T02:08:45Z</time>
      </trkpt>
      <trkpt lat="44.87293" lon="6.38883">
        <ele>2462.55</ele>
        <time>2020-07-21T02:09:29Z</time>
      </trkpt>
      <trkpt lat="44.87284" lon="6.38864">
        <ele>2456.31</ele>
        <time>2020-07-21T02:09:56Z</time>
      </trkpt>
      <trkpt lat="44.87276" lon="6.38859">
        <ele>2451.98</ele>
        <time>2020-07-21T02:10:23Z</time>
      </trkpt>
      <trkpt lat="44.87269" lon="6.38822">
        <ele>2447.17</ele>
        <time>2020-07-21T02:10:55Z</time>
      </trkpt>
      <trkpt lat="44.87265" lon="6.38784">
        <ele>2451.02</ele>
        <time>2020-07-21T02:11:43Z</time>
      </trkpt>
      <trkpt lat="44.87236" lon="6.38622">
        <ele>2457.27</ele>
        <time>2020-07-21T02:14:29Z</time>
      </trkpt>
      <trkpt lat="44.87234" lon="6.38539">
        <ele>2462.07</ele>
        <time>2020-07-21T02:15:52Z</time>
      </trkpt>
      <trkpt lat="44.87227" lon="6.38486">
        <ele>2465.92</ele>
        <time>2020-07-21T02:16:55Z</time>
      </trkpt>
      <trkpt lat="44.87226" lon="6.38434">
        <ele>2469.76</ele>
        <time>2020-07-21T02:18:01Z</time>
      </trkpt>
      <trkpt lat="44.87244" lon="6.3835">
        <ele>2476.49</ele>
        <time>2020-07-21T02:19:47Z</time>
      </trkpt>
      <trkpt lat="44.87224" lon="6.38238">
        <ele>2482.26</ele>
        <time>2020-07-21T02:21:43Z</time>
      </trkpt>
      <trkpt lat="44.87214" lon="6.38156">
        <ele>2486.59</ele>
        <time>2020-07-21T02:23:06Z</time>
      </trkpt>
      <trkpt lat="44.87222" lon="6.38135">
        <ele>2490.43</ele>
        <time>2020-07-21T02:23:39Z</time>
      </trkpt>
      <trkpt lat="44.87225" lon="6.38102">
        <ele>2494.28</ele>
        <time>2020-07-21T02:24:27Z</time>
      </trkpt>
      <trkpt lat="44.87232" lon="6.38074">
        <ele>2498.6</ele>
        <time>2020-07-21T02:25:05Z</time>
      </trkpt>
      <trkpt lat="44.87231" lon="6.38052">
        <ele>2501.97</ele>
        <time>2020-07-21T02:25:37Z</time>
      </trkpt>
      <trkpt lat="44.87239" lon="6.38023">
        <ele>2505.33</ele>
        <time>2020-07-21T02:26:19Z</time>
      </trkpt>
      <trkpt lat="44.87239" lon="6.38022">
        <ele>2505.33</ele>
        <time>2020-07-21T02:26:42Z</time>
      </trkpt>
      <trkpt lat="44.87251" lon="6.38008">
        <ele>2509.18</ele>
        <time>2020-07-21T02:27:36Z</time>
      </trkpt>
      <trkpt lat="44.8726" lon="6.37983">
        <ele>2513.5</ele>
        <time>2020-07-21T02:28:29Z</time>
      </trkpt>
      <trkpt lat="44.87272" lon="6.37966">
        <ele>2517.35</ele>
        <time>2020-07-21T02:29:01Z</time>
      </trkpt>
      <trkpt lat="44.87275" lon="6.37928">
        <ele>2520.71</ele>
        <time>2020-07-21T02:29:55Z</time>
      </trkpt>
      <trkpt lat="44.87283" lon="6.37916">
        <ele>2524.08</ele>
        <time>2020-07-21T02:31:15Z</time>
      </trkpt>
      <trkpt lat="44.87287" lon="6.37915">
        <ele>2524.08</ele>
        <time>2020-07-21T02:33:01Z</time>
      </trkpt>
      <trkpt lat="44.87293" lon="6.37903">
        <ele>2527.44</ele>
        <time>2020-07-21T02:34:03Z</time>
      </trkpt>
      <trkpt lat="44.87293" lon="6.379">
        <ele>2527.44</ele>
        <time>2020-07-21T02:34:10Z</time>
      </trkpt>
      <trkpt lat="44.87309" lon="6.37869">
        <ele>2531.29</ele>
        <time>2020-07-21T02:35:00Z</time>
      </trkpt>
      <trkpt lat="44.87345" lon="6.37785">
        <ele>2538.02</ele>
        <time>2020-07-21T02:36:56Z</time>
      </trkpt>
      <trkpt lat="44.87377" lon="6.37699">
        <ele>2545.23</ele>
        <time>2020-07-21T02:39:21Z</time>
      </trkpt>
      <trkpt lat="44.87384" lon="6.37682">
        <ele>2549.07</ele>
        <time>2020-07-21T02:39:54Z</time>
      </trkpt>
      <trkpt lat="44.87357" lon="6.37558">
        <ele>2544.75</ele>
        <time>2020-07-21T02:44:03Z</time>
      </trkpt>
      <trkpt lat="44.87281" lon="6.37417">
        <ele>2539.94</ele>
        <time>2020-07-21T02:48:57Z</time>
      </trkpt>
      <trkpt lat="44.87278" lon="6.37406">
        <ele>2540.42</ele>
        <time>2020-07-21T02:49:12Z</time>
      </trkpt>
      <trkpt lat="44.87264" lon="6.37343">
        <ele>2545.71</ele>
        <time>2020-07-21T02:51:14Z</time>
      </trkpt>
      <trkpt lat="44.87262" lon="6.3732">
        <ele>2549.55</ele>
        <time>2020-07-21T02:51:49Z</time>
      </trkpt>
      <trkpt lat="44.87261" lon="6.37299">
        <ele>2553.88</ele>
        <time>2020-07-21T02:52:23Z</time>
      </trkpt>
      <trkpt lat="44.87263" lon="6.3728">
        <ele>2558.69</ele>
        <time>2020-07-21T02:53:00Z</time>
      </trkpt>
      <trkpt lat="44.87264" lon="6.37266">
        <ele>2562.05</ele>
        <time>2020-07-21T02:53:31Z</time>
      </trkpt>
      <trkpt lat="44.87266" lon="6.37248">
        <ele>2566.86</ele>
        <time>2020-07-21T02:54:20Z</time>
      </trkpt>
      <trkpt lat="44.87261" lon="6.37226">
        <ele>2571.66</ele>
        <time>2020-07-21T02:55:11Z</time>
      </trkpt>
      <trkpt lat="44.87256" lon="6.37209">
        <ele>2575.99</ele>
        <time>2020-07-21T02:55:56Z</time>
      </trkpt>
      <trkpt lat="44.87255" lon="6.37207">
        <ele>2575.99</ele>
        <time>2020-07-21T02:56:02Z</time>
      </trkpt>
      <trkpt lat="44.87254" lon="6.37184">
        <ele>2580.8</ele>
        <time>2020-07-21T02:56:54Z</time>
      </trkpt>
      <trkpt lat="44.87253" lon="6.37172">
        <ele>2585.12</ele>
        <time>2020-07-21T02:57:37Z</time>
      </trkpt>
      <trkpt lat="44.87248" lon="6.37162">
        <ele>2588.49</ele>
        <time>2020-07-21T02:58:11Z</time>
      </trkpt>
      <trkpt lat="44.8725" lon="6.3715">
        <ele>2592.33</ele>
        <time>2020-07-21T02:58:39Z</time>
      </trkpt>
      <trkpt lat="44.8726" lon="6.37145">
        <ele>2595.7</ele>
        <time>2020-07-21T02:59:06Z</time>
      </trkpt>
      <trkpt lat="44.87263" lon="6.37142">
        <ele>2600.02</ele>
        <time>2020-07-21T02:59:36Z</time>
      </trkpt>
      <trkpt lat="44.87268" lon="6.37131">
        <ele>2605.31</ele>
        <time>2020-07-21T03:00:11Z</time>
      </trkpt>
      <trkpt lat="44.87268" lon="6.3713">
        <ele>2605.31</ele>
        <time>2020-07-21T03:00:13Z</time>
      </trkpt>
      <trkpt lat="44.8727" lon="6.37119">
        <ele>2608.67</ele>
        <time>2020-07-21T03:00:41Z</time>
      </trkpt>
      <trkpt lat="44.87271" lon="6.37107">
        <ele>2613.48</ele>
        <time>2020-07-21T03:01:14Z</time>
      </trkpt>
      <trkpt lat="44.87276" lon="6.37092">
        <ele>2618.77</ele>
        <time>2020-07-21T03:01:59Z</time>
      </trkpt>
      <trkpt lat="44.87281" lon="6.37085">
        <ele>2623.09</ele>
        <time>2020-07-21T03:02:31Z</time>
      </trkpt>
      <trkpt lat="44.87285" lon="6.37081">
        <ele>2626.94</ele>
        <time>2020-07-21T03:03:02Z</time>
      </trkpt>
      <trkpt lat="44.87291" lon="6.37074">
        <ele>2630.3</ele>
        <time>2020-07-21T03:04:11Z</time>
      </trkpt>
      <trkpt lat="44.87296" lon="6.37078">
        <ele>2633.67</ele>
        <time>2020-07-21T03:05:18Z</time>
      </trkpt>
      <trkpt lat="44.87298" lon="6.37082">
        <ele>2637.99</ele>
        <time>2020-07-21T03:05:52Z</time>
      </trkpt>
      <trkpt lat="44.87302" lon="6.37085">
        <ele>2641.36</ele>
        <time>2020-07-21T03:06:00Z</time>
      </trkpt>
      <trkpt lat="44.87305" lon="6.37086">
        <ele>2641.36</ele>
        <time>2020-07-21T03:06:26Z</time>
      </trkpt>
      <trkpt lat="44.87309" lon="6.37083">
        <ele>2645.21</ele>
        <time>2020-07-21T03:07:27Z</time>
      </trkpt>
      <trkpt lat="44.87319" lon="6.37088">
        <ele>2650.49</ele>
        <time>2020-07-21T03:08:03Z</time>
      </trkpt>
      <trkpt lat="44.87329" lon="6.37087">
        <ele>2654.34</ele>
        <time>2020-07-21T03:08:36Z</time>
      </trkpt>
      <trkpt lat="44.87335" lon="6.37086">
        <ele>2658.18</ele>
        <time>2020-07-21T03:09:05Z</time>
      </trkpt>
      <trkpt lat="44.8734" lon="6.3708">
        <ele>2662.51</ele>
        <time>2020-07-21T03:09:38Z</time>
      </trkpt>
      <trkpt lat="44.87341" lon="6.37068">
        <ele>2665.87</ele>
        <time>2020-07-21T03:10:04Z</time>
      </trkpt>
      <trkpt lat="44.87342" lon="6.37057">
        <ele>2670.68</ele>
        <time>2020-07-21T03:10:39Z</time>
      </trkpt>
      <trkpt lat="44.87348" lon="6.37053">
        <ele>2675.01</ele>
        <time>2020-07-21T03:11:13Z</time>
      </trkpt>
      <trkpt lat="44.87352" lon="6.37045">
        <ele>2679.81</ele>
        <time>2020-07-21T03:11:48Z</time>
      </trkpt>
      <trkpt lat="44.87362" lon="6.37044">
        <ele>2685.1</ele>
        <time>2020-07-21T03:12:22Z</time>
      </trkpt>
      <trkpt lat="44.87368" lon="6.37042">
        <ele>2688.46</ele>
        <time>2020-07-21T03:13:00Z</time>
      </trkpt>
      <trkpt lat="44.87376" lon="6.37043">
        <ele>2693.75</ele>
        <time>2020-07-21T03:13:33Z</time>
      </trkpt>
      <trkpt lat="44.87384" lon="6.37045">
        <ele>2698.08</ele>
        <time>2020-07-21T03:14:05Z</time>
      </trkpt>
      <trkpt lat="44.87392" lon="6.37046">
        <ele>2702.88</ele>
        <time>2020-07-21T03:14:37Z</time>
      </trkpt>
      <trkpt lat="44.87398" lon="6.37041">
        <ele>2707.21</ele>
        <time>2020-07-21T03:15:08Z</time>
      </trkpt>
      <trkpt lat="44.87402" lon="6.37033">
        <ele>2711.06</ele>
        <time>2020-07-21T03:15:37Z</time>
      </trkpt>
      <trkpt lat="44.87405" lon="6.37028">
        <ele>2714.42</ele>
        <time>2020-07-21T03:15:53Z</time>
      </trkpt>
      <trkpt lat="44.87412" lon="6.3703">
        <ele>2718.75</ele>
        <time>2020-07-21T03:16:25Z</time>
      </trkpt>
      <trkpt lat="44.87419" lon="6.37024">
        <ele>2724.03</ele>
        <time>2020-07-21T03:17:12Z</time>
      </trkpt>
      <trkpt lat="44.87423" lon="6.37023">
        <ele>2727.4</ele>
        <time>2020-07-21T03:17:28Z</time>
      </trkpt>
      <trkpt lat="44.87428" lon="6.37024">
        <ele>2731.72</ele>
        <time>2020-07-21T03:17:58Z</time>
      </trkpt>
      <trkpt lat="44.87429" lon="6.37025">
        <ele>2731.72</ele>
        <time>2020-07-21T03:18:30Z</time>
      </trkpt>
      <trkpt lat="44.87432" lon="6.37018">
        <ele>2735.09</ele>
        <time>2020-07-21T03:22:11Z</time>
      </trkpt>
      <trkpt lat="44.87436" lon="6.36986">
        <ele>2739.41</ele>
        <time>2020-07-21T03:23:55Z</time>
      </trkpt>
      <trkpt lat="44.87444" lon="6.36955">
        <ele>2745.18</ele>
        <time>2020-07-21T03:26:33Z</time>
      </trkpt>
      <trkpt lat="44.87445" lon="6.36947">
        <ele>2749.03</ele>
        <time>2020-07-21T03:27:03Z</time>
      </trkpt>
      <trkpt lat="44.8745" lon="6.36944">
        <ele>2749.03</ele>
        <time>2020-07-21T03:27:25Z</time>
      </trkpt>
      <trkpt lat="44.87446" lon="6.3692">
        <ele>2752.39</ele>
        <time>2020-07-21T03:28:42Z</time>
      </trkpt>
      <trkpt lat="44.87445" lon="6.3691">
        <ele>2752.39</ele>
        <time>2020-07-21T03:29:00Z</time>
      </trkpt>
      <trkpt lat="44.87444" lon="6.36876">
        <ele>2757.68</ele>
        <time>2020-07-21T03:29:46Z</time>
      </trkpt>
      <trkpt lat="44.8745" lon="6.36856">
        <ele>2762.49</ele>
        <time>2020-07-21T03:30:28Z</time>
      </trkpt>
      <trkpt lat="44.87452" lon="6.36835">
        <ele>2767.29</ele>
        <time>2020-07-21T03:31:00Z</time>
      </trkpt>
      <trkpt lat="44.87453" lon="6.36822">
        <ele>2771.62</ele>
        <time>2020-07-21T03:31:32Z</time>
      </trkpt>
      <trkpt lat="44.87459" lon="6.36815">
        <ele>2776.42</ele>
        <time>2020-07-21T03:32:05Z</time>
      </trkpt>
      <trkpt lat="44.87463" lon="6.36805">
        <ele>2780.75</ele>
        <time>2020-07-21T03:32:31Z</time>
      </trkpt>
      <trkpt lat="44.87464" lon="6.36784">
        <ele>2784.12</ele>
        <time>2020-07-21T03:33:04Z</time>
      </trkpt>
      <trkpt lat="44.87469" lon="6.36769">
        <ele>2788.44</ele>
        <time>2020-07-21T03:33:43Z</time>
      </trkpt>
      <trkpt lat="44.87477" lon="6.36756">
        <ele>2792.29</ele>
        <time>2020-07-21T03:34:13Z</time>
      </trkpt>
      <trkpt lat="44.87481" lon="6.36721">
        <ele>2797.09</ele>
        <time>2020-07-21T03:35:46Z</time>
      </trkpt>
      <trkpt lat="44.87483" lon="6.36713">
        <ele>2801.42</ele>
        <time>2020-07-21T03:37:24Z</time>
      </trkpt>
      <trkpt lat="44.87488" lon="6.36696">
        <ele>2808.15</ele>
        <time>2020-07-21T03:37:59Z</time>
      </trkpt>
      <trkpt lat="44.87494" lon="6.36692">
        <ele>2813.92</ele>
        <time>2020-07-21T03:38:43Z</time>
      </trkpt>
      <trkpt lat="44.87493" lon="6.36681">
        <ele>2817.28</ele>
        <time>2020-07-21T03:38:57Z</time>
      </trkpt>
      <trkpt lat="44.87489" lon="6.36671">
        <ele>2820.65</ele>
        <time>2020-07-21T03:39:22Z</time>
      </trkpt>
      <trkpt lat="44.87466" lon="6.36625">
        <ele>2826.41</ele>
        <time>2020-07-21T03:40:33Z</time>
      </trkpt>
      <trkpt lat="44.8746" lon="6.36596">
        <ele>2829.78</ele>
        <time>2020-07-21T03:41:08Z</time>
      </trkpt>
      <trkpt lat="44.8746" lon="6.36586">
        <ele>2834.58</ele>
        <time>2020-07-21T03:41:37Z</time>
      </trkpt>
      <trkpt lat="44.8746" lon="6.3658">
        <ele>2834.58</ele>
        <time>2020-07-21T03:42:09Z</time>
      </trkpt>
      <trkpt lat="44.87465" lon="6.36556">
        <ele>2839.39</ele>
        <time>2020-07-21T03:42:46Z</time>
      </trkpt>
      <trkpt lat="44.87476" lon="6.3651">
        <ele>2844.2</ele>
        <time>2020-07-21T03:43:43Z</time>
      </trkpt>
      <trkpt lat="44.87479" lon="6.36473">
        <ele>2849</ele>
        <time>2020-07-21T03:57:15Z</time>
      </trkpt>
      <trkpt lat="44.87489" lon="6.36452">
        <ele>2853.81</ele>
        <time>2020-07-21T03:57:55Z</time>
      </trkpt>
      <trkpt lat="44.87499" lon="6.3644">
        <ele>2858.14</ele>
        <time>2020-07-21T03:58:42Z</time>
      </trkpt>
      <trkpt lat="44.87505" lon="6.36433">
        <ele>2861.5</ele>
        <time>2020-07-21T03:58:59Z</time>
      </trkpt>
      <trkpt lat="44.87512" lon="6.36416">
        <ele>2866.31</ele>
        <time>2020-07-21T03:59:33Z</time>
      </trkpt>
      <trkpt lat="44.8752" lon="6.36396">
        <ele>2870.63</ele>
        <time>2020-07-21T04:00:11Z</time>
      </trkpt>
      <trkpt lat="44.8753" lon="6.36362">
        <ele>2874</ele>
        <time>2020-07-21T04:01:02Z</time>
      </trkpt>
      <trkpt lat="44.87541" lon="6.36342">
        <ele>2879.29</ele>
        <time>2020-07-21T04:01:41Z</time>
      </trkpt>
      <trkpt lat="44.87554" lon="6.36318">
        <ele>2885.05</ele>
        <time>2020-07-21T04:02:27Z</time>
      </trkpt>
      <trkpt lat="44.8757" lon="6.36336">
        <ele>2891.3</ele>
        <time>2020-07-21T04:03:09Z</time>
      </trkpt>
      <trkpt lat="44.87581" lon="6.36337">
        <ele>2897.07</ele>
        <time>2020-07-21T04:03:48Z</time>
      </trkpt>
      <trkpt lat="44.87591" lon="6.36318">
        <ele>2903.32</ele>
        <time>2020-07-21T04:04:33Z</time>
      </trkpt>
      <trkpt lat="44.87595" lon="6.36314">
        <ele>2906.68</ele>
        <time>2020-07-21T04:04:54Z</time>
      </trkpt>
      <trkpt lat="44.87604" lon="6.36337">
        <ele>2910.05</ele>
        <time>2020-07-21T04:05:33Z</time>
      </trkpt>
      <trkpt lat="44.87608" lon="6.36331">
        <ele>2913.41</ele>
        <time>2020-07-21T04:05:54Z</time>
      </trkpt>
      <trkpt lat="44.87618" lon="6.36323">
        <ele>2918.7</ele>
        <time>2020-07-21T04:06:34Z</time>
      </trkpt>
      <trkpt lat="44.87626" lon="6.36322">
        <ele>2923.99</ele>
        <time>2020-07-21T04:07:11Z</time>
      </trkpt>
      <trkpt lat="44.87628" lon="6.36317">
        <ele>2927.35</ele>
        <time>2020-07-21T04:07:27Z</time>
      </trkpt>
      <trkpt lat="44.87629" lon="6.36315">
        <ele>2927.35</ele>
        <time>2020-07-21T04:07:29Z</time>
      </trkpt>
      <trkpt lat="44.87639" lon="6.36318">
        <ele>2930.72</ele>
        <time>2020-07-21T04:08:05Z</time>
      </trkpt>
      <trkpt lat="44.87642" lon="6.36305">
        <ele>2934.08</ele>
        <time>2020-07-21T04:08:26Z</time>
      </trkpt>
      <trkpt lat="44.87652" lon="6.36311">
        <ele>2939.85</ele>
        <time>2020-07-21T04:09:05Z</time>
      </trkpt>
      <trkpt lat="44.87654" lon="6.36288">
        <ele>2944.66</ele>
        <time>2020-07-21T04:09:42Z</time>
      </trkpt>
      <trkpt lat="44.87665" lon="6.36297">
        <ele>2948.98</ele>
        <time>2020-07-21T04:10:21Z</time>
      </trkpt>
      <trkpt lat="44.87667" lon="6.36278">
        <ele>2954.27</ele>
        <time>2020-07-21T04:10:59Z</time>
      </trkpt>
      <trkpt lat="44.87678" lon="6.36284">
        <ele>2959.08</ele>
        <time>2020-07-21T04:11:37Z</time>
      </trkpt>
      <trkpt lat="44.87681" lon="6.36274">
        <ele>2963.4</ele>
        <time>2020-07-21T04:12:17Z</time>
      </trkpt>
      <trkpt lat="44.87689" lon="6.36266">
        <ele>2969.65</ele>
        <time>2020-07-21T04:13:02Z</time>
      </trkpt>
      <trkpt lat="44.87703" lon="6.36288">
        <ele>2974.94</ele>
        <time>2020-07-21T04:13:45Z</time>
      </trkpt>
      <trkpt lat="44.87703" lon="6.36266">
        <ele>2980.22</ele>
        <time>2020-07-21T04:14:32Z</time>
      </trkpt>
      <trkpt lat="44.87707" lon="6.36243">
        <ele>2985.99</ele>
        <time>2020-07-21T04:15:14Z</time>
      </trkpt>
      <trkpt lat="44.87715" lon="6.36236">
        <ele>2991.76</ele>
        <time>2020-07-21T04:15:54Z</time>
      </trkpt>
      <trkpt lat="44.87721" lon="6.36238">
        <ele>2995.12</ele>
        <time>2020-07-21T04:16:13Z</time>
      </trkpt>
      <trkpt lat="44.87725" lon="6.36217">
        <ele>3001.37</ele>
        <time>2020-07-21T04:16:53Z</time>
      </trkpt>
      <trkpt lat="44.8773" lon="6.36199">
        <ele>3007.14</ele>
        <time>2020-07-21T04:17:35Z</time>
      </trkpt>
      <trkpt lat="44.87733" lon="6.36187">
        <ele>3010.51</ele>
        <time>2020-07-21T04:17:55Z</time>
      </trkpt>
      <trkpt lat="44.8774" lon="6.36167">
        <ele>3015.79</ele>
        <time>2020-07-21T04:18:37Z</time>
      </trkpt>
      <trkpt lat="44.87749" lon="6.36144">
        <ele>3021.56</ele>
        <time>2020-07-21T04:19:25Z</time>
      </trkpt>
      <trkpt lat="44.87758" lon="6.36132">
        <ele>3027.33</ele>
        <time>2020-07-21T04:20:06Z</time>
      </trkpt>
      <trkpt lat="44.87766" lon="6.36114">
        <ele>3032.14</ele>
        <time>2020-07-21T04:20:45Z</time>
      </trkpt>
      <trkpt lat="44.87769" lon="6.36106">
        <ele>3035.5</ele>
        <time>2020-07-21T04:21:07Z</time>
      </trkpt>
      <trkpt lat="44.87777" lon="6.36084">
        <ele>3041.75</ele>
        <time>2020-07-21T04:21:55Z</time>
      </trkpt>
      <trkpt lat="44.87779" lon="6.36064">
        <ele>3045.59</ele>
        <time>2020-07-21T04:22:41Z</time>
      </trkpt>
      <trkpt lat="44.87782" lon="6.36053">
        <ele>3048.96</ele>
        <time>2020-07-21T04:24:05Z</time>
      </trkpt>
      <trkpt lat="44.87786" lon="6.36047">
        <ele>3054.25</ele>
        <time>2020-07-21T04:26:59Z</time>
      </trkpt>
      <trkpt lat="44.87788" lon="6.36044">
        <ele>3058.09</ele>
        <time>2020-07-21T04:28:10Z</time>
      </trkpt>
      <trkpt lat="44.87792" lon="6.36032">
        <ele>3063.86</ele>
        <time>2020-07-21T04:28:51Z</time>
      </trkpt>
      <trkpt lat="44.87795" lon="6.36028">
        <ele>3068.67</ele>
        <time>2020-07-21T04:30:26Z</time>
      </trkpt>
      <trkpt lat="44.87799" lon="6.36026">
        <ele>3073.95</ele>
        <time>2020-07-21T04:31:35Z</time>
      </trkpt>
      <trkpt lat="44.87793" lon="6.36011">
        <ele>3079.72</ele>
        <time>2020-07-21T04:41:20Z</time>
      </trkpt>
      <trkpt lat="44.87809" lon="6.36022">
        <ele>3087.41</ele>
        <time>2020-07-21T04:45:59Z</time>
      </trkpt>
      <trkpt lat="44.87813" lon="6.36037">
        <ele>3092.7</ele>
        <time>2020-07-21T04:47:28Z</time>
      </trkpt>
      <trkpt lat="44.87817" lon="6.36052">
        <ele>3096.54</ele>
        <time>2020-07-21T04:48:25Z</time>
      </trkpt>
      <trkpt lat="44.87815" lon="6.36082">
        <ele>3105.2</ele>
        <time>2020-07-21T04:50:20Z</time>
      </trkpt>
      <trkpt lat="44.87817" lon="6.36091">
        <ele>3109.04</ele>
        <time>2020-07-21T04:50:54Z</time>
      </trkpt>
      <trkpt lat="44.87822" lon="6.36109">
        <ele>3113.85</ele>
        <time>2020-07-21T04:51:43Z</time>
      </trkpt>
      <trkpt lat="44.8782" lon="6.36129">
        <ele>3118.65</ele>
        <time>2020-07-21T04:52:21Z</time>
      </trkpt>
      <trkpt lat="44.87823" lon="6.36138">
        <ele>3123.46</ele>
        <time>2020-07-21T04:52:55Z</time>
      </trkpt>
      <trkpt lat="44.87821" lon="6.36146">
        <ele>3126.83</ele>
        <time>2020-07-21T04:53:13Z</time>
      </trkpt>
      <trkpt lat="44.8782" lon="6.36157">
        <ele>3131.15</ele>
        <time>2020-07-21T04:53:51Z</time>
      </trkpt>
      <trkpt lat="44.87819" lon="6.36162">
        <ele>3129.71</ele>
        <time>2020-07-21T04:53:57Z</time>
      </trkpt>
      <trkpt lat="44.87822" lon="6.36183">
        <ele>3133.55</ele>
        <time>2020-07-21T04:55:02Z</time>
      </trkpt>
      <trkpt lat="44.8782" lon="6.36191">
        <ele>3138.36</ele>
        <time>2020-07-21T04:55:35Z</time>
      </trkpt>
      <trkpt lat="44.87822" lon="6.36204">
        <ele>3143.65</ele>
        <time>2020-07-21T04:56:07Z</time>
      </trkpt>
      <trkpt lat="44.87822" lon="6.36219">
        <ele>3147.49</ele>
        <time>2020-07-21T04:56:41Z</time>
      </trkpt>
      <trkpt lat="44.8783" lon="6.36252">
        <ele>3152.3</ele>
        <time>2020-07-21T04:58:49Z</time>
      </trkpt>
      <trkpt lat="44.8783" lon="6.3626">
        <ele>3156.63</ele>
        <time>2020-07-21T04:59:22Z</time>
      </trkpt>
      <trkpt lat="44.87828" lon="6.36268">
        <ele>3160.95</ele>
        <time>2020-07-21T04:59:55Z</time>
      </trkpt>
      <trkpt lat="44.87827" lon="6.36281">
        <ele>3164.8</ele>
        <time>2020-07-21T05:00:21Z</time>
      </trkpt>
      <trkpt lat="44.87827" lon="6.36286">
        <ele>3164.8</ele>
        <time>2020-07-21T05:00:27Z</time>
      </trkpt>
      <trkpt lat="44.87832" lon="6.36298">
        <ele>3178.26</ele>
        <time>2020-07-21T05:13:57Z</time>
      </trkpt>
      <trkpt lat="44.87834" lon="6.36293">
        <ele>3183.06</ele>
        <time>2020-07-21T05:14:53Z</time>
      </trkpt>
      <trkpt lat="44.87838" lon="6.36288">
        <ele>3186.91</ele>
        <time>2020-07-21T05:15:32Z</time>
      </trkpt>
      <trkpt lat="44.87841" lon="6.36287">
        <ele>3191.71</ele>
        <time>2020-07-21T05:16:03Z</time>
      </trkpt>
      <trkpt lat="44.87844" lon="6.3628">
        <ele>3196.04</ele>
        <time>2020-07-21T05:16:39Z</time>
      </trkpt>
      <trkpt lat="44.87847" lon="6.36279">
        <ele>3199.89</ele>
        <time>2020-07-21T05:17:05Z</time>
      </trkpt>
      <trkpt lat="44.8785" lon="6.36277">
        <ele>3204.69</ele>
        <time>2020-07-21T05:17:39Z</time>
      </trkpt>
      <trkpt lat="44.87854" lon="6.36277">
        <ele>3208.06</ele>
        <time>2020-07-21T05:18:12Z</time>
      </trkpt>
      <trkpt lat="44.87858" lon="6.36278">
        <ele>3211.9</ele>
        <time>2020-07-21T05:18:43Z</time>
      </trkpt>
      <trkpt lat="44.87862" lon="6.36279">
        <ele>3215.27</ele>
        <time>2020-07-21T05:19:55Z</time>
      </trkpt>
      <trkpt lat="44.87866" lon="6.36279">
        <ele>3219.11</ele>
        <time>2020-07-21T05:20:32Z</time>
      </trkpt>
      <trkpt lat="44.87872" lon="6.36278">
        <ele>3224.4</ele>
        <time>2020-07-21T05:21:20Z</time>
      </trkpt>
      <trkpt lat="44.87877" lon="6.36278">
        <ele>3227.76</ele>
        <time>2020-07-21T05:21:53Z</time>
      </trkpt>
      <trkpt lat="44.87878" lon="6.36273">
        <ele>3232.09</ele>
        <time>2020-07-21T05:22:08Z</time>
      </trkpt>
      <trkpt lat="44.87879" lon="6.36275">
        <ele>3232.09</ele>
        <time>2020-07-21T05:22:11Z</time>
      </trkpt>
      <trkpt lat="44.87886" lon="6.36275">
        <ele>3235.45</ele>
        <time>2020-07-21T05:22:52Z</time>
      </trkpt>
      <trkpt lat="44.87887" lon="6.36275">
        <ele>3239.78</ele>
        <time>2020-07-21T05:23:44Z</time>
      </trkpt>
      <trkpt lat="44.8789" lon="6.36277">
        <ele>3243.63</ele>
        <time>2020-07-21T05:24:18Z</time>
      </trkpt>
      <trkpt lat="44.87891" lon="6.36271">
        <ele>3246.99</ele>
        <time>2020-07-21T05:25:11Z</time>
      </trkpt>
      <trkpt lat="44.87894" lon="6.36277">
        <ele>3251.8</ele>
        <time>2020-07-21T05:25:39Z</time>
      </trkpt>
      <trkpt lat="44.87897" lon="6.36283">
        <ele>3255.16</ele>
        <time>2020-07-21T05:25:58Z</time>
      </trkpt>
      <trkpt lat="44.879" lon="6.36293">
        <ele>3261.89</ele>
        <time>2020-07-21T05:26:57Z</time>
      </trkpt>
      <trkpt lat="44.87902" lon="6.363">
        <ele>3266.22</ele>
        <time>2020-07-21T05:27:28Z</time>
      </trkpt>
      <trkpt lat="44.87905" lon="6.36302">
        <ele>3269.58</ele>
        <time>2020-07-21T05:28:03Z</time>
      </trkpt>
      <trkpt lat="44.87906" lon="6.36301">
        <ele>3269.58</ele>
        <time>2020-07-21T05:28:09Z</time>
      </trkpt>
      <trkpt lat="44.8791" lon="6.36299">
        <ele>3274.87</ele>
        <time>2020-07-21T05:28:54Z</time>
      </trkpt>
      <trkpt lat="44.87915" lon="6.36299">
        <ele>3278.71</ele>
        <time>2020-07-21T05:29:37Z</time>
      </trkpt>
      <trkpt lat="44.8792" lon="6.363">
        <ele>3284</ele>
        <time>2020-07-21T05:30:39Z</time>
      </trkpt>
      <trkpt lat="44.87921" lon="6.36304">
        <ele>3287.37</ele>
        <time>2020-07-21T05:31:13Z</time>
      </trkpt>
      <trkpt lat="44.87924" lon="6.36306">
        <ele>3291.21</ele>
        <time>2020-07-21T05:31:49Z</time>
      </trkpt>
      <trkpt lat="44.87925" lon="6.36302">
        <ele>3295.54</ele>
        <time>2020-07-21T05:32:27Z</time>
      </trkpt>
      <trkpt lat="44.87932" lon="6.36299">
        <ele>3299.86</ele>
        <time>2020-07-21T05:32:58Z</time>
      </trkpt>
      <trkpt lat="44.8794" lon="6.36293">
        <ele>3303.71</ele>
        <time>2020-07-21T05:33:25Z</time>
      </trkpt>
      <trkpt lat="44.87949" lon="6.36279">
        <ele>3307.07</ele>
        <time>2020-07-21T05:34:16Z</time>
      </trkpt>
      <trkpt lat="44.87965" lon="6.36251">
        <ele>3310.92</ele>
        <time>2020-07-21T05:35:46Z</time>
      </trkpt>
      <trkpt lat="44.87977" lon="6.36239">
        <ele>3315.24</ele>
        <time>2020-07-21T05:37:14Z</time>
      </trkpt>
      <trkpt lat="44.87979" lon="6.36244">
        <ele>3318.61</ele>
        <time>2020-07-21T05:38:32Z</time>
      </trkpt>
      <trkpt lat="44.87983" lon="6.36241">
        <ele>3322.45</ele>
        <time>2020-07-21T05:39:06Z</time>
      </trkpt>
      <trkpt lat="44.87986" lon="6.36235">
        <ele>3326.78</ele>
        <time>2020-07-21T05:39:47Z</time>
      </trkpt>
      <trkpt lat="44.8799" lon="6.3623">
        <ele>3330.62</ele>
        <time>2020-07-21T05:40:22Z</time>
      </trkpt>
      <trkpt lat="44.87991" lon="6.36224">
        <ele>3334.95</ele>
        <time>2020-07-21T05:41:04Z</time>
      </trkpt>
      <trkpt lat="44.87991" lon="6.3622">
        <ele>3338.32</ele>
        <time>2020-07-21T05:41:40Z</time>
      </trkpt>
      <trkpt lat="44.87995" lon="6.36214">
        <ele>3344.56</ele>
        <time>2020-07-21T05:42:34Z</time>
      </trkpt>
      <trkpt lat="44.87997" lon="6.36221">
        <ele>3347.93</ele>
        <time>2020-07-21T05:43:29Z</time>
      </trkpt>
      <trkpt lat="44.88" lon="6.36217">
        <ele>3352.74</ele>
        <time>2020-07-21T05:44:00Z</time>
      </trkpt>
      <trkpt lat="44.87997" lon="6.3621">
        <ele>3356.58</ele>
        <time>2020-07-21T05:44:52Z</time>
      </trkpt>
      <trkpt lat="44.88" lon="6.36205">
        <ele>3360.43</ele>
        <time>2020-07-21T05:45:33Z</time>
      </trkpt>
      <trkpt lat="44.88002" lon="6.36199">
        <ele>3364.27</ele>
        <time>2020-07-21T05:46:12Z</time>
      </trkpt>
      <trkpt lat="44.88007" lon="6.36191">
        <ele>3367.64</ele>
        <time>2020-07-21T05:46:43Z</time>
      </trkpt>
      <trkpt lat="44.88013" lon="6.36185">
        <ele>3372.44</ele>
        <time>2020-07-21T05:47:34Z</time>
      </trkpt>
      <trkpt lat="44.88016" lon="6.36182">
        <ele>3376.77</ele>
        <time>2020-07-21T05:48:20Z</time>
      </trkpt>
      <trkpt lat="44.88019" lon="6.36177">
        <ele>3380.61</ele>
        <time>2020-07-21T05:48:52Z</time>
      </trkpt>
      <trkpt lat="44.8802" lon="6.36174">
        <ele>3384.46</ele>
        <time>2020-07-21T05:49:29Z</time>
      </trkpt>
      <trkpt lat="44.88026" lon="6.36169">
        <ele>3390.23</ele>
        <time>2020-07-21T05:50:36Z</time>
      </trkpt>
      <trkpt lat="44.88027" lon="6.36166">
        <ele>3395.03</ele>
        <time>2020-07-21T05:51:26Z</time>
      </trkpt>
      <trkpt lat="44.88029" lon="6.36161">
        <ele>3398.4</ele>
        <time>2020-07-21T05:52:03Z</time>
      </trkpt>
      <trkpt lat="44.8803" lon="6.36159">
        <ele>3402.24</ele>
        <time>2020-07-21T05:52:43Z</time>
      </trkpt>
      <trkpt lat="44.88031" lon="6.36154">
        <ele>3405.61</ele>
        <time>2020-07-21T05:53:01Z</time>
      </trkpt>
      <trkpt lat="44.88034" lon="6.36146">
        <ele>3409.93</ele>
        <time>2020-07-21T05:53:32Z</time>
      </trkpt>
      <trkpt lat="44.88035" lon="6.36139">
        <ele>3414.74</ele>
        <time>2020-07-21T05:54:20Z</time>
      </trkpt>
      <trkpt lat="44.88039" lon="6.36138">
        <ele>3418.59</ele>
        <time>2020-07-21T05:54:50Z</time>
      </trkpt>
      <trkpt lat="44.88042" lon="6.36127">
        <ele>3426.28</ele>
        <time>2020-07-21T06:05:13Z</time>
      </trkpt>
      <trkpt lat="44.8805" lon="6.3612">
        <ele>3430.12</ele>
        <time>2020-07-21T06:05:45Z</time>
      </trkpt>
      <trkpt lat="44.88058" lon="6.36113">
        <ele>3433.97</ele>
        <time>2020-07-21T06:06:20Z</time>
      </trkpt>
      <trkpt lat="44.88068" lon="6.36111">
        <ele>3437.81</ele>
        <time>2020-07-21T06:07:08Z</time>
      </trkpt>
      <trkpt lat="44.88075" lon="6.36103">
        <ele>3442.14</ele>
        <time>2020-07-21T06:07:46Z</time>
      </trkpt>
      <trkpt lat="44.88079" lon="6.36085">
        <ele>3449.35</ele>
        <time>2020-07-21T06:09:57Z</time>
      </trkpt>
      <trkpt lat="44.8808" lon="6.36077">
        <ele>3454.64</ele>
        <time>2020-07-21T06:10:27Z</time>
      </trkpt>
      <trkpt lat="44.88075" lon="6.36069">
        <ele>3458.96</ele>
        <time>2020-07-21T06:11:04Z</time>
      </trkpt>
      <trkpt lat="44.88077" lon="6.36065">
        <ele>3462.33</ele>
        <time>2020-07-21T06:11:35Z</time>
      </trkpt>
      <trkpt lat="44.8808" lon="6.36062">
        <ele>3466.17</ele>
        <time>2020-07-21T06:12:12Z</time>
      </trkpt>
      <trkpt lat="44.8808" lon="6.36062">
        <ele>3466.17</ele>
        <time>2020-07-21T06:12:13Z</time>
      </trkpt>
      <trkpt lat="44.88082" lon="6.36054">
        <ele>3470.98</ele>
        <time>2020-07-21T06:12:46Z</time>
      </trkpt>
      <trkpt lat="44.88087" lon="6.36047">
        <ele>3476.75</ele>
        <time>2020-07-21T06:13:41Z</time>
      </trkpt>
      <trkpt lat="44.88091" lon="6.36044">
        <ele>3480.11</ele>
        <time>2020-07-21T06:14:41Z</time>
      </trkpt>
      <trkpt lat="44.88097" lon="6.36039">
        <ele>3483.96</ele>
        <time>2020-07-21T06:15:13Z</time>
      </trkpt>
      <trkpt lat="44.88096" lon="6.36038">
        <ele>3487.32</ele>
        <time>2020-07-21T06:16:27Z</time>
      </trkpt>
      <trkpt lat="44.88097" lon="6.36031">
        <ele>3490.68</ele>
        <time>2020-07-21T06:17:59Z</time>
      </trkpt>
      <trkpt lat="44.88097" lon="6.36028">
        <ele>3495.01</ele>
        <time>2020-07-21T06:18:35Z</time>
      </trkpt>
      <trkpt lat="44.88102" lon="6.36009">
        <ele>3507.99</ele>
        <time>2020-07-21T06:20:20Z</time>
      </trkpt>
      <trkpt lat="44.8811" lon="6.35994">
        <ele>3521.45</ele>
        <time>2020-07-21T06:28:44Z</time>
      </trkpt>
      <trkpt lat="44.88113" lon="6.3599">
        <ele>3520.97</ele>
        <time>2020-07-21T06:29:21Z</time>
      </trkpt>
      <trkpt lat="44.88111" lon="6.35985">
        <ele>3530.1</ele>
        <time>2020-07-21T06:31:03Z</time>
      </trkpt>
      <trkpt lat="44.88112" lon="6.35981">
        <ele>3534.9</ele>
        <time>2020-07-21T06:33:59Z</time>
      </trkpt>
      <trkpt lat="44.88117" lon="6.35974">
        <ele>3538.75</ele>
        <time>2020-07-21T06:37:44Z</time>
      </trkpt>
      <trkpt lat="44.88115" lon="6.35972">
        <ele>3542.6</ele>
        <time>2020-07-21T06:38:29Z</time>
      </trkpt>
      <trkpt lat="44.88116" lon="6.35972">
        <ele>3542.6</ele>
        <time>2020-07-21T06:38:55Z</time>
      </trkpt>
      <trkpt lat="44.8812" lon="6.35963">
        <ele>3547.4</ele>
        <time>2020-07-21T06:39:57Z</time>
      </trkpt>
      <trkpt lat="44.88121" lon="6.35959">
        <ele>3552.21</ele>
        <time>2020-07-21T06:40:44Z</time>
      </trkpt>
      <trkpt lat="44.88122" lon="6.35959">
        <ele>3555.57</ele>
        <time>2020-07-21T06:41:21Z</time>
      </trkpt>
      <trkpt lat="44.88125" lon="6.35956">
        <ele>3558.94</ele>
        <time>2020-07-21T06:41:55Z</time>
      </trkpt>
      <trkpt lat="44.88127" lon="6.35951">
        <ele>3563.26</ele>
        <time>2020-07-21T06:42:32Z</time>
      </trkpt>
      <trkpt lat="44.8813" lon="6.35948">
        <ele>3567.11</ele>
        <time>2020-07-21T06:43:06Z</time>
      </trkpt>
      <trkpt lat="44.88134" lon="6.35944">
        <ele>3571.92</ele>
        <time>2020-07-21T06:43:41Z</time>
      </trkpt>
      <trkpt lat="44.88137" lon="6.35938">
        <ele>3578.16</ele>
        <time>2020-07-21T06:44:45Z</time>
      </trkpt>
      <trkpt lat="44.88141" lon="6.35932">
        <ele>3582.49</ele>
        <time>2020-07-21T06:45:17Z</time>
      </trkpt>
      <trkpt lat="44.88151" lon="6.35915">
        <ele>3594.99</ele>
        <time>2020-07-21T06:47:30Z</time>
      </trkpt>
      <trkpt lat="44.88151" lon="6.35906">
        <ele>3600.27</ele>
        <time>2020-07-21T06:48:17Z</time>
      </trkpt>
      <trkpt lat="44.88156" lon="6.35903">
        <ele>3608.45</ele>
        <time>2020-07-21T07:03:03Z</time>
      </trkpt>
      <trkpt lat="44.88171" lon="6.35899">
        <ele>3613.73</ele>
        <time>2020-07-21T07:03:45Z</time>
      </trkpt>
      <trkpt lat="44.88184" lon="6.35893">
        <ele>3619.02</ele>
        <time>2020-07-21T07:04:30Z</time>
      </trkpt>
      <trkpt lat="44.88193" lon="6.35889">
        <ele>3623.35</ele>
        <time>2020-07-21T07:05:10Z</time>
      </trkpt>
      <trkpt lat="44.882" lon="6.35883">
        <ele>3626.71</ele>
        <time>2020-07-21T07:05:47Z</time>
      </trkpt>
      <trkpt lat="44.88214" lon="6.35876">
        <ele>3631.04</ele>
        <time>2020-07-21T07:06:25Z</time>
      </trkpt>
      <trkpt lat="44.88228" lon="6.35873">
        <ele>3635.84</ele>
        <time>2020-07-21T07:07:03Z</time>
      </trkpt>
      <trkpt lat="44.88241" lon="6.3588">
        <ele>3640.65</ele>
        <time>2020-07-21T07:07:41Z</time>
      </trkpt>
      <trkpt lat="44.88249" lon="6.35862">
        <ele>3644.98</ele>
        <time>2020-07-21T07:08:19Z</time>
      </trkpt>
      <trkpt lat="44.88258" lon="6.35847">
        <ele>3650.26</ele>
        <time>2020-07-21T07:09:11Z</time>
      </trkpt>
      <trkpt lat="44.88261" lon="6.35841">
        <ele>3653.63</ele>
        <time>2020-07-21T07:09:44Z</time>
      </trkpt>
      <trkpt lat="44.88263" lon="6.35837">
        <ele>3656.99</ele>
        <time>2020-07-21T07:10:15Z</time>
      </trkpt>
      <trkpt lat="44.88264" lon="6.35832">
        <ele>3660.36</ele>
        <time>2020-07-21T07:11:06Z</time>
      </trkpt>
      <trkpt lat="44.88268" lon="6.35823">
        <ele>3664.68</ele>
        <time>2020-07-21T07:11:51Z</time>
      </trkpt>
      <trkpt lat="44.88271" lon="6.35812">
        <ele>3669.01</ele>
        <time>2020-07-21T07:12:41Z</time>
      </trkpt>
      <trkpt lat="44.88275" lon="6.35803">
        <ele>3674.3</ele>
        <time>2020-07-21T07:13:47Z</time>
      </trkpt>
      <trkpt lat="44.8828" lon="6.35791">
        <ele>3679.1</ele>
        <time>2020-07-21T07:14:29Z</time>
      </trkpt>
      <trkpt lat="44.88281" lon="6.35785">
        <ele>3682.47</ele>
        <time>2020-07-21T07:15:06Z</time>
      </trkpt>
      <trkpt lat="44.88284" lon="6.35779">
        <ele>3686.79</ele>
        <time>2020-07-21T07:16:11Z</time>
      </trkpt>
      <trkpt lat="44.88286" lon="6.35775">
        <ele>3690.64</ele>
        <time>2020-07-21T07:17:05Z</time>
      </trkpt>
      <trkpt lat="44.88287" lon="6.35771">
        <ele>3694</ele>
        <time>2020-07-21T07:17:42Z</time>
      </trkpt>
      <trkpt lat="44.88291" lon="6.35769">
        <ele>3698.33</ele>
        <time>2020-07-21T07:18:42Z</time>
      </trkpt>
      <trkpt lat="44.88295" lon="6.35762">
        <ele>3702.66</ele>
        <time>2020-07-21T07:19:35Z</time>
      </trkpt>
      <trkpt lat="44.88299" lon="6.3576">
        <ele>3707.46</ele>
        <time>2020-07-21T07:20:39Z</time>
      </trkpt>
      <trkpt lat="44.88299" lon="6.35761">
        <ele>3711.31</ele>
        <time>2020-07-21T07:21:20Z</time>
      </trkpt>
      <trkpt lat="44.88301" lon="6.35761">
        <ele>3714.67</ele>
        <time>2020-07-21T07:21:56Z</time>
      </trkpt>
      <trkpt lat="44.883" lon="6.35758">
        <ele>3719.96</ele>
        <time>2020-07-21T07:22:56Z</time>
      </trkpt>
      <trkpt lat="44.88306" lon="6.35749">
        <ele>3724.77</ele>
        <time>2020-07-21T07:23:57Z</time>
      </trkpt>
      <trkpt lat="44.88311" lon="6.35746">
        <ele>3729.57</ele>
        <time>2020-07-21T07:25:37Z</time>
      </trkpt>
      <trkpt lat="44.88316" lon="6.35738">
        <ele>3738.22</ele>
        <time>2020-07-21T07:28:10Z</time>
      </trkpt>
      <trkpt lat="44.88315" lon="6.35734">
        <ele>3734.38</ele>
        <time>2020-07-21T07:29:26Z</time>
      </trkpt>
      <trkpt lat="44.88325" lon="6.35741">
        <ele>3748.8</ele>
        <time>2020-07-21T07:46:17Z</time>
      </trkpt>
      <trkpt lat="44.8833" lon="6.35744">
        <ele>3752.16</ele>
        <time>2020-07-21T07:46:53Z</time>
      </trkpt>
      <trkpt lat="44.88331" lon="6.35739">
        <ele>3756.01</ele>
        <time>2020-07-21T07:47:29Z</time>
      </trkpt>
      <trkpt lat="44.88331" lon="6.35726">
        <ele>3761.3</ele>
        <time>2020-07-21T07:48:36Z</time>
      </trkpt>
      <trkpt lat="44.88333" lon="6.35722">
        <ele>3764.66</ele>
        <time>2020-07-21T07:49:21Z</time>
      </trkpt>
      <trkpt lat="44.88336" lon="6.35709">
        <ele>3762.26</ele>
        <time>2020-07-21T07:51:32Z</time>
      </trkpt>
      <trkpt lat="44.88338" lon="6.35706">
        <ele>3765.62</ele>
        <time>2020-07-21T07:52:10Z</time>
      </trkpt>
      <trkpt lat="44.88338" lon="6.35702">
        <ele>3768.99</ele>
        <time>2020-07-21T07:52:26Z</time>
      </trkpt>
      <trkpt lat="44.88339" lon="6.35693">
        <ele>3772.35</ele>
        <time>2020-07-21T07:52:52Z</time>
      </trkpt>
      <trkpt lat="44.88341" lon="6.35683">
        <ele>3776.2</ele>
        <time>2020-07-21T07:53:48Z</time>
      </trkpt>
      <trkpt lat="44.88342" lon="6.35678">
        <ele>3780.04</ele>
        <time>2020-07-21T07:54:23Z</time>
      </trkpt>
      <trkpt lat="44.88344" lon="6.35667">
        <ele>3783.41</ele>
        <time>2020-07-21T07:55:17Z</time>
      </trkpt>
      <trkpt lat="44.88343" lon="6.3566">
        <ele>3788.69</ele>
        <time>2020-07-21T07:56:13Z</time>
      </trkpt>
      <trkpt lat="44.88345" lon="6.35654">
        <ele>3792.54</ele>
        <time>2020-07-21T07:57:49Z</time>
      </trkpt>
      <trkpt lat="44.88349" lon="6.35652">
        <ele>3796.86</ele>
        <time>2020-07-21T07:58:51Z</time>
      </trkpt>
      <trkpt lat="44.88349" lon="6.35652">
        <ele>3796.86</ele>
        <time>2020-07-21T07:58:52Z</time>
      </trkpt>
      <trkpt lat="44.88353" lon="6.35655">
        <ele>3800.71</ele>
        <time>2020-07-21T07:59:30Z</time>
      </trkpt>
      <trkpt lat="44.88355" lon="6.3565">
        <ele>3804.55</ele>
        <time>2020-07-21T08:00:22Z</time>
      </trkpt>
      <trkpt lat="44.88355" lon="6.35651">
        <ele>3807.92</ele>
        <time>2020-07-21T08:02:54Z</time>
      </trkpt>
      <trkpt lat="44.88359" lon="6.35653">
        <ele>3811.28</ele>
        <time>2020-07-21T08:03:30Z</time>
      </trkpt>
      <trkpt lat="44.88361" lon="6.35658">
        <ele>3814.65</ele>
        <time>2020-07-21T08:04:08Z</time>
      </trkpt>
      <trkpt lat="44.88359" lon="6.35673">
        <ele>3818.97</ele>
        <time>2020-07-21T08:06:00Z</time>
      </trkpt>
      <trkpt lat="44.8836" lon="6.35673">
        <ele>3818.97</ele>
        <time>2020-07-21T08:06:35Z</time>
      </trkpt>
      <trkpt lat="44.88363" lon="6.35675">
        <ele>3822.34</ele>
        <time>2020-07-21T08:07:36Z</time>
      </trkpt>
      <trkpt lat="44.88363" lon="6.35672">
        <ele>3822.34</ele>
        <time>2020-07-21T08:07:54Z</time>
      </trkpt>
      <trkpt lat="44.88367" lon="6.35674">
        <ele>3825.7</ele>
        <time>2020-07-21T08:09:00Z</time>
      </trkpt>
      <trkpt lat="44.8837" lon="6.35674">
        <ele>3829.55</ele>
        <time>2020-07-21T08:09:38Z</time>
      </trkpt>
      <trkpt lat="44.88374" lon="6.35677">
        <ele>3832.91</ele>
        <time>2020-07-21T08:10:44Z</time>
      </trkpt>
      <trkpt lat="44.88374" lon="6.35676">
        <ele>3836.28</ele>
        <time>2020-07-21T08:11:19Z</time>
      </trkpt>
      <trkpt lat="44.88377" lon="6.35681">
        <ele>3839.64</ele>
        <time>2020-07-21T08:12:00Z</time>
      </trkpt>
      <trkpt lat="44.88373" lon="6.35685">
        <ele>3843.01</ele>
        <time>2020-07-21T08:13:18Z</time>
      </trkpt>
      <trkpt lat="44.88379" lon="6.35688">
        <ele>3846.37</ele>
        <time>2020-07-21T08:15:21Z</time>
      </trkpt>
      <trkpt lat="44.88383" lon="6.35688">
        <ele>3850.7</ele>
        <time>2020-07-21T08:15:51Z</time>
      </trkpt>
      <trkpt lat="44.88382" lon="6.35688">
        <ele>3850.7</ele>
        <time>2020-07-21T08:15:52Z</time>
      </trkpt>
      <trkpt lat="44.88392" lon="6.35692">
        <ele>3855.02</ele>
        <time>2020-07-21T08:16:41Z</time>
      </trkpt>
      <trkpt lat="44.88392" lon="6.3569">
        <ele>3855.02</ele>
        <time>2020-07-21T08:17:03Z</time>
      </trkpt>
      <trkpt lat="44.88394" lon="6.35683">
        <ele>3858.39</ele>
        <time>2020-07-21T08:17:36Z</time>
      </trkpt>
      <trkpt lat="44.88397" lon="6.35675">
        <ele>3861.75</ele>
        <time>2020-07-21T08:18:18Z</time>
      </trkpt>
      <trkpt lat="44.884" lon="6.35667">
        <ele>3865.6</ele>
        <time>2020-07-21T08:26:25Z</time>
      </trkpt>
      <trkpt lat="44.88402" lon="6.3566">
        <ele>3865.6</ele>
        <time>2020-07-21T08:26:48Z</time>
      </trkpt>
      <trkpt lat="44.88408" lon="6.35653">
        <ele>3868.96</ele>
        <time>2020-07-21T08:27:31Z</time>
      </trkpt>
      <trkpt lat="44.8841" lon="6.35653">
        <ele>3873.29</ele>
        <time>2020-07-21T08:30:21Z</time>
      </trkpt>
      <trkpt lat="44.88413" lon="6.35654">
        <ele>3877.62</ele>
        <time>2020-07-21T08:31:02Z</time>
      </trkpt>
      <trkpt lat="44.88417" lon="6.35648">
        <ele>3880.98</ele>
        <time>2020-07-21T08:31:42Z</time>
      </trkpt>
      <trkpt lat="44.8842" lon="6.35638">
        <ele>3884.34</ele>
        <time>2020-07-21T08:32:35Z</time>
      </trkpt>
      <trkpt lat="44.88421" lon="6.35637">
        <ele>3887.71</ele>
        <time>2020-07-21T08:33:31Z</time>
      </trkpt>
      <trkpt lat="44.88424" lon="6.35637">
        <ele>3891.07</ele>
        <time>2020-07-21T08:34:37Z</time>
      </trkpt>
      <trkpt lat="44.88427" lon="6.35634">
        <ele>3894.92</ele>
        <time>2020-07-21T08:35:59Z</time>
      </trkpt>
      <trkpt lat="44.88428" lon="6.35629">
        <ele>3898.28</ele>
        <time>2020-07-21T08:36:45Z</time>
      </trkpt>
      <trkpt lat="44.88441" lon="6.35618">
        <ele>3914.15</ele>
        <time>2020-07-21T08:40:22Z</time>
      </trkpt>
      <trkpt lat="44.88444" lon="6.35617">
        <ele>3917.51</ele>
        <time>2020-07-21T08:40:57Z</time>
      </trkpt>
      <trkpt lat="44.88449" lon="6.35615">
        <ele>3921.35</ele>
        <time>2020-07-21T08:41:28Z</time>
      </trkpt>
      <trkpt lat="44.88452" lon="6.35617">
        <ele>3925.68</ele>
        <time>2020-07-21T08:41:57Z</time>
      </trkpt>
      <trkpt lat="44.88457" lon="6.35616">
        <ele>3929.53</ele>
        <time>2020-07-21T08:42:52Z</time>
      </trkpt>
      <trkpt lat="44.88461" lon="6.35608">
        <ele>3934.33</ele>
        <time>2020-07-21T08:44:00Z</time>
      </trkpt>
      <trkpt lat="44.88468" lon="6.35595">
        <ele>3942.02</ele>
        <time>2020-07-21T08:45:24Z</time>
      </trkpt>
      <trkpt lat="44.88471" lon="6.35586">
        <ele>3945.39</ele>
        <time>2020-07-21T08:46:04Z</time>
      </trkpt>
      <trkpt lat="44.88479" lon="6.35601">
        <ele>3951.16</ele>
        <time>2020-07-21T08:51:03Z</time>
      </trkpt>
      <trkpt lat="44.88471" lon="6.35593">
        <ele>3946.35</ele>
        <time>2020-07-21T09:16:53Z</time>
      </trkpt>
      <trkpt lat="44.88467" lon="6.356">
        <ele>3941.54</ele>
        <time>2020-07-21T09:17:54Z</time>
      </trkpt>
      <trkpt lat="44.88457" lon="6.35618">
        <ele>3930.97</ele>
        <time>2020-07-21T09:19:10Z</time>
      </trkpt>
      <trkpt lat="44.88433" lon="6.35619">
        <ele>3906.94</ele>
        <time>2020-07-21T09:23:03Z</time>
      </trkpt>
      <trkpt lat="44.88431" lon="6.35625">
        <ele>3903.57</ele>
        <time>2020-07-21T09:23:41Z</time>
      </trkpt>
      <trkpt lat="44.88429" lon="6.35636">
        <ele>3899.73</ele>
        <time>2020-07-21T09:24:55Z</time>
      </trkpt>
      <trkpt lat="44.88428" lon="6.35638">
        <ele>3896.36</ele>
        <time>2020-07-21T09:25:29Z</time>
      </trkpt>
      <trkpt lat="44.88423" lon="6.35636">
        <ele>3893</ele>
        <time>2020-07-21T09:26:32Z</time>
      </trkpt>
      <trkpt lat="44.88421" lon="6.35643">
        <ele>3889.63</ele>
        <time>2020-07-21T09:27:37Z</time>
      </trkpt>
      <trkpt lat="44.88419" lon="6.35647">
        <ele>3885.79</ele>
        <time>2020-07-21T09:28:17Z</time>
      </trkpt>
      <trkpt lat="44.88415" lon="6.35651">
        <ele>3880.98</ele>
        <time>2020-07-21T09:29:10Z</time>
      </trkpt>
      <trkpt lat="44.88411" lon="6.35652">
        <ele>3877.62</ele>
        <time>2020-07-21T09:29:47Z</time>
      </trkpt>
      <trkpt lat="44.88409" lon="6.35653">
        <ele>3874.25</ele>
        <time>2020-07-21T09:30:51Z</time>
      </trkpt>
      <trkpt lat="44.88402" lon="6.35658">
        <ele>3869.92</ele>
        <time>2020-07-21T09:32:07Z</time>
      </trkpt>
      <trkpt lat="44.88397" lon="6.35673">
        <ele>3866.56</ele>
        <time>2020-07-21T09:33:04Z</time>
      </trkpt>
      <trkpt lat="44.88394" lon="6.35679">
        <ele>3863.2</ele>
        <time>2020-07-21T09:33:42Z</time>
      </trkpt>
      <trkpt lat="44.88393" lon="6.35689">
        <ele>3858.87</ele>
        <time>2020-07-21T09:40:09Z</time>
      </trkpt>
      <trkpt lat="44.88384" lon="6.35688">
        <ele>3852.62</ele>
        <time>2020-07-21T09:50:04Z</time>
      </trkpt>
      <trkpt lat="44.88381" lon="6.35685">
        <ele>3848.78</ele>
        <time>2020-07-21T09:52:04Z</time>
      </trkpt>
      <trkpt lat="44.88377" lon="6.35677">
        <ele>3841.57</ele>
        <time>2020-07-21T09:53:55Z</time>
      </trkpt>
      <trkpt lat="44.88378" lon="6.35676">
        <ele>3841.57</ele>
        <time>2020-07-21T09:54:26Z</time>
      </trkpt>
      <trkpt lat="44.88373" lon="6.35672">
        <ele>3836.28</ele>
        <time>2020-07-21T09:56:46Z</time>
      </trkpt>
      <trkpt lat="44.88367" lon="6.35676">
        <ele>3830.99</ele>
        <time>2020-07-21T09:58:11Z</time>
      </trkpt>
      <trkpt lat="44.88365" lon="6.35678">
        <ele>3825.22</ele>
        <time>2020-07-21T10:00:05Z</time>
      </trkpt>
      <trkpt lat="44.88363" lon="6.3567">
        <ele>3820.9</ele>
        <time>2020-07-21T10:01:29Z</time>
      </trkpt>
      <trkpt lat="44.88359" lon="6.35654">
        <ele>3816.57</ele>
        <time>2020-07-21T10:02:49Z</time>
      </trkpt>
      <trkpt lat="44.88357" lon="6.35652">
        <ele>3812.25</ele>
        <time>2020-07-21T10:04:08Z</time>
      </trkpt>
      <trkpt lat="44.88352" lon="6.35654">
        <ele>3807.44</ele>
        <time>2020-07-21T10:06:05Z</time>
      </trkpt>
      <trkpt lat="44.88348" lon="6.35656">
        <ele>3802.63</ele>
        <time>2020-07-21T10:06:43Z</time>
      </trkpt>
      <trkpt lat="44.88343" lon="6.3566">
        <ele>3797.83</ele>
        <time>2020-07-21T10:07:19Z</time>
      </trkpt>
      <trkpt lat="44.8834" lon="6.35668">
        <ele>3793.02</ele>
        <time>2020-07-21T10:08:20Z</time>
      </trkpt>
      <trkpt lat="44.88341" lon="6.35679">
        <ele>3789.65</ele>
        <time>2020-07-21T10:09:36Z</time>
      </trkpt>
      <trkpt lat="44.88339" lon="6.35687">
        <ele>3785.33</ele>
        <time>2020-07-21T10:10:29Z</time>
      </trkpt>
      <trkpt lat="44.88337" lon="6.35694">
        <ele>3781.48</ele>
        <time>2020-07-21T10:11:07Z</time>
      </trkpt>
      <trkpt lat="44.88337" lon="6.35706">
        <ele>3777.16</ele>
        <time>2020-07-21T10:11:43Z</time>
      </trkpt>
      <trkpt lat="44.88333" lon="6.3571">
        <ele>3772.83</ele>
        <time>2020-07-21T10:12:22Z</time>
      </trkpt>
      <trkpt lat="44.88334" lon="6.35716">
        <ele>3772.83</ele>
        <time>2020-07-21T10:12:43Z</time>
      </trkpt>
      <trkpt lat="44.88329" lon="6.35736">
        <ele>3769.47</ele>
        <time>2020-07-21T10:14:43Z</time>
      </trkpt>
      <trkpt lat="44.8833" lon="6.35743">
        <ele>3765.62</ele>
        <time>2020-07-21T10:15:26Z</time>
      </trkpt>
      <trkpt lat="44.88325" lon="6.35748">
        <ele>3760.81</ele>
        <time>2020-07-21T10:17:13Z</time>
      </trkpt>
      <trkpt lat="44.88325" lon="6.35754">
        <ele>3757.45</ele>
        <time>2020-07-21T10:17:59Z</time>
      </trkpt>
      <trkpt lat="44.88321" lon="6.35749">
        <ele>3753.6</ele>
        <time>2020-07-21T10:20:03Z</time>
      </trkpt>
      <trkpt lat="44.8832" lon="6.35748">
        <ele>3753.6</ele>
        <time>2020-07-21T10:20:32Z</time>
      </trkpt>
      <trkpt lat="44.88316" lon="6.35747">
        <ele>3750.24</ele>
        <time>2020-07-21T10:21:08Z</time>
      </trkpt>
      <trkpt lat="44.8832" lon="6.35746">
        <ele>3753.6</ele>
        <time>2020-07-21T10:23:41Z</time>
      </trkpt>
      <trkpt lat="44.88314" lon="6.35737">
        <ele>3750.24</ele>
        <time>2020-07-21T10:25:17Z</time>
      </trkpt>
      <trkpt lat="44.88311" lon="6.35743">
        <ele>3744.47</ele>
        <time>2020-07-21T10:33:22Z</time>
      </trkpt>
      <trkpt lat="44.88308" lon="6.35746">
        <ele>3739.67</ele>
        <time>2020-07-21T10:35:53Z</time>
      </trkpt>
      <trkpt lat="44.88309" lon="6.35754">
        <ele>3734.38</ele>
        <time>2020-07-21T10:37:11Z</time>
      </trkpt>
      <trkpt lat="44.88306" lon="6.35757">
        <ele>3731.01</ele>
        <time>2020-07-21T10:37:49Z</time>
      </trkpt>
      <trkpt lat="44.88304" lon="6.35759">
        <ele>3727.17</ele>
        <time>2020-07-21T10:38:27Z</time>
      </trkpt>
      <trkpt lat="44.88302" lon="6.35762">
        <ele>3723.8</ele>
        <time>2020-07-21T10:39:07Z</time>
      </trkpt>
      <trkpt lat="44.88297" lon="6.35761">
        <ele>3719.96</ele>
        <time>2020-07-21T10:40:05Z</time>
      </trkpt>
      <trkpt lat="44.88295" lon="6.35767">
        <ele>3715.15</ele>
        <time>2020-07-21T10:41:05Z</time>
      </trkpt>
      <trkpt lat="44.88293" lon="6.35769">
        <ele>3711.31</ele>
        <time>2020-07-21T10:41:44Z</time>
      </trkpt>
      <trkpt lat="44.88289" lon="6.35773">
        <ele>3706.5</ele>
        <time>2020-07-21T10:42:36Z</time>
      </trkpt>
      <trkpt lat="44.88288" lon="6.35777">
        <ele>3702.66</ele>
        <time>2020-07-21T10:43:19Z</time>
      </trkpt>
      <trkpt lat="44.88284" lon="6.35782">
        <ele>3699.29</ele>
        <time>2020-07-21T10:44:19Z</time>
      </trkpt>
      <trkpt lat="44.8828" lon="6.3579">
        <ele>3694.48</ele>
        <time>2020-07-21T10:45:04Z</time>
      </trkpt>
      <trkpt lat="44.88277" lon="6.358">
        <ele>3689.2</ele>
        <time>2020-07-21T10:45:45Z</time>
      </trkpt>
      <trkpt lat="44.88274" lon="6.35809">
        <ele>3683.91</ele>
        <time>2020-07-21T10:46:21Z</time>
      </trkpt>
      <trkpt lat="44.8827" lon="6.35815">
        <ele>3679.1</ele>
        <time>2020-07-21T10:46:57Z</time>
      </trkpt>
      <trkpt lat="44.88267" lon="6.35827">
        <ele>3673.33</ele>
        <time>2020-07-21T10:47:35Z</time>
      </trkpt>
      <trkpt lat="44.88262" lon="6.35837">
        <ele>3668.05</ele>
        <time>2020-07-21T10:48:10Z</time>
      </trkpt>
      <trkpt lat="44.88256" lon="6.35849">
        <ele>3662.28</ele>
        <time>2020-07-21T10:48:41Z</time>
      </trkpt>
      <trkpt lat="44.88246" lon="6.35863">
        <ele>3656.51</ele>
        <time>2020-07-21T10:49:14Z</time>
      </trkpt>
      <trkpt lat="44.88238" lon="6.35881">
        <ele>3652.19</ele>
        <time>2020-07-21T10:49:51Z</time>
      </trkpt>
      <trkpt lat="44.88225" lon="6.35889">
        <ele>3645.46</ele>
        <time>2020-07-21T10:51:49Z</time>
      </trkpt>
      <trkpt lat="44.88215" lon="6.35897">
        <ele>3640.17</ele>
        <time>2020-07-21T10:52:15Z</time>
      </trkpt>
      <trkpt lat="44.88208" lon="6.35905">
        <ele>3635.84</ele>
        <time>2020-07-21T10:53:28Z</time>
      </trkpt>
      <trkpt lat="44.88203" lon="6.35915">
        <ele>3632.48</ele>
        <time>2020-07-21T10:53:42Z</time>
      </trkpt>
      <trkpt lat="44.88196" lon="6.35921">
        <ele>3629.11</ele>
        <time>2020-07-21T10:53:55Z</time>
      </trkpt>
      <trkpt lat="44.88181" lon="6.35918">
        <ele>3623.83</ele>
        <time>2020-07-21T11:03:19Z</time>
      </trkpt>
      <trkpt lat="44.88165" lon="6.35912">
        <ele>3617.58</ele>
        <time>2020-07-21T11:04:14Z</time>
      </trkpt>
      <trkpt lat="44.8816" lon="6.35913">
        <ele>3614.21</ele>
        <time>2020-07-21T11:04:28Z</time>
      </trkpt>
      <trkpt lat="44.88151" lon="6.35911">
        <ele>3608.93</ele>
        <time>2020-07-21T11:05:02Z</time>
      </trkpt>
      <trkpt lat="44.88149" lon="6.35923">
        <ele>3599.31</ele>
        <time>2020-07-21T11:18:55Z</time>
      </trkpt>
      <trkpt lat="44.88144" lon="6.35929">
        <ele>3594.51</ele>
        <time>2020-07-21T11:19:41Z</time>
      </trkpt>
      <trkpt lat="44.88139" lon="6.35933">
        <ele>3590.66</ele>
        <time>2020-07-21T11:20:12Z</time>
      </trkpt>
      <trkpt lat="44.88135" lon="6.35936">
        <ele>3586.34</ele>
        <time>2020-07-21T11:20:46Z</time>
      </trkpt>
      <trkpt lat="44.88131" lon="6.35928">
        <ele>3581.05</ele>
        <time>2020-07-21T11:21:41Z</time>
      </trkpt>
      <trkpt lat="44.88126" lon="6.3593">
        <ele>3576.72</ele>
        <time>2020-07-21T11:22:13Z</time>
      </trkpt>
      <trkpt lat="44.88122" lon="6.35932">
        <ele>3573.36</ele>
        <time>2020-07-21T11:22:31Z</time>
      </trkpt>
      <trkpt lat="44.8812" lon="6.35934">
        <ele>3569.51</ele>
        <time>2020-07-21T11:23:20Z</time>
      </trkpt>
      <trkpt lat="44.88117" lon="6.35937">
        <ele>3566.15</ele>
        <time>2020-07-21T11:23:54Z</time>
      </trkpt>
      <trkpt lat="44.88116" lon="6.35938">
        <ele>3562.78</ele>
        <time>2020-07-21T11:24:33Z</time>
      </trkpt>
      <trkpt lat="44.88115" lon="6.35939">
        <ele>3559.42</ele>
        <time>2020-07-21T11:26:00Z</time>
      </trkpt>
      <trkpt lat="44.88113" lon="6.35946">
        <ele>3554.13</ele>
        <time>2020-07-21T11:28:10Z</time>
      </trkpt>
      <trkpt lat="44.88106" lon="6.35961">
        <ele>3541.63</ele>
        <time>2020-07-21T11:32:13Z</time>
      </trkpt>
      <trkpt lat="44.88108" lon="6.35968">
        <ele>3538.27</ele>
        <time>2020-07-21T11:32:55Z</time>
      </trkpt>
      <trkpt lat="44.88109" lon="6.3597">
        <ele>3538.27</ele>
        <time>2020-07-21T11:33:15Z</time>
      </trkpt>
      <trkpt lat="44.88112" lon="6.35972">
        <ele>3543.56</ele>
        <time>2020-07-21T11:34:42Z</time>
      </trkpt>
      <trkpt lat="44.88115" lon="6.3597">
        <ele>3546.92</ele>
        <time>2020-07-21T11:35:43Z</time>
      </trkpt>
      <trkpt lat="44.88116" lon="6.35972">
        <ele>3543.08</ele>
        <time>2020-07-21T11:40:01Z</time>
      </trkpt>
      <trkpt lat="44.88111" lon="6.35982">
        <ele>3539.71</ele>
        <time>2020-07-21T11:41:20Z</time>
      </trkpt>
      <trkpt lat="44.88108" lon="6.35989">
        <ele>3534.42</ele>
        <time>2020-07-21T11:57:13Z</time>
      </trkpt>
      <trkpt lat="44.88108" lon="6.35993">
        <ele>3531.06</ele>
        <time>2020-07-21T11:57:36Z</time>
      </trkpt>
      <trkpt lat="44.88108" lon="6.35995">
        <ele>3527.21</ele>
        <time>2020-07-21T11:58:52Z</time>
      </trkpt>
      <trkpt lat="44.88107" lon="6.35997">
        <ele>3523.85</ele>
        <time>2020-07-21T11:59:36Z</time>
      </trkpt>
      <trkpt lat="44.88106" lon="6.36006">
        <ele>3517.12</ele>
        <time>2020-07-21T12:04:58Z</time>
      </trkpt>
      <trkpt lat="44.88104" lon="6.36014">
        <ele>3512.79</ele>
        <time>2020-07-21T12:05:34Z</time>
      </trkpt>
      <trkpt lat="44.88099" lon="6.3602">
        <ele>3507.99</ele>
        <time>2020-07-21T12:06:06Z</time>
      </trkpt>
      <trkpt lat="44.88093" lon="6.36029">
        <ele>3501.26</ele>
        <time>2020-07-21T12:08:38Z</time>
      </trkpt>
      <trkpt lat="44.88092" lon="6.36033">
        <ele>3496.45</ele>
        <time>2020-07-21T12:09:16Z</time>
      </trkpt>
      <trkpt lat="44.88096" lon="6.36037">
        <ele>3493.09</ele>
        <time>2020-07-21T12:10:28Z</time>
      </trkpt>
      <trkpt lat="44.88096" lon="6.36039">
        <ele>3488.76</ele>
        <time>2020-07-21T12:11:10Z</time>
      </trkpt>
      <trkpt lat="44.88096" lon="6.36044">
        <ele>3484.92</ele>
        <time>2020-07-21T12:11:54Z</time>
      </trkpt>
      <trkpt lat="44.88085" lon="6.36052">
        <ele>3478.67</ele>
        <time>2020-07-21T12:12:31Z</time>
      </trkpt>
      <trkpt lat="44.88081" lon="6.36061">
        <ele>3474.82</ele>
        <time>2020-07-21T12:13:06Z</time>
      </trkpt>
      <trkpt lat="44.88077" lon="6.36067">
        <ele>3469.05</ele>
        <time>2020-07-21T12:13:45Z</time>
      </trkpt>
      <trkpt lat="44.88078" lon="6.36078">
        <ele>3464.25</ele>
        <time>2020-07-21T12:14:19Z</time>
      </trkpt>
      <trkpt lat="44.88078" lon="6.36084">
        <ele>3458.96</ele>
        <time>2020-07-21T12:14:59Z</time>
      </trkpt>
      <trkpt lat="44.88077" lon="6.3609">
        <ele>3454.64</ele>
        <time>2020-07-21T12:15:19Z</time>
      </trkpt>
      <trkpt lat="44.88076" lon="6.36106">
        <ele>3450.31</ele>
        <time>2020-07-21T12:15:58Z</time>
      </trkpt>
      <trkpt lat="44.88066" lon="6.36114">
        <ele>3445.02</ele>
        <time>2020-07-21T12:16:29Z</time>
      </trkpt>
      <trkpt lat="44.88051" lon="6.36122">
        <ele>3439.25</ele>
        <time>2020-07-21T12:17:07Z</time>
      </trkpt>
      <trkpt lat="44.88045" lon="6.36127">
        <ele>3435.41</ele>
        <time>2020-07-21T12:17:41Z</time>
      </trkpt>
      <trkpt lat="44.88042" lon="6.36132">
        <ele>3431.08</ele>
        <time>2020-07-21T12:18:22Z</time>
      </trkpt>
      <trkpt lat="44.88039" lon="6.36137">
        <ele>3426.76</ele>
        <time>2020-07-21T12:19:04Z</time>
      </trkpt>
      <trkpt lat="44.88036" lon="6.36141">
        <ele>3422.43</ele>
        <time>2020-07-21T12:19:46Z</time>
      </trkpt>
      <trkpt lat="44.88033" lon="6.36143">
        <ele>3419.07</ele>
        <time>2020-07-21T12:20:10Z</time>
      </trkpt>
      <trkpt lat="44.88033" lon="6.36145">
        <ele>3419.07</ele>
        <time>2020-07-21T12:20:28Z</time>
      </trkpt>
      <trkpt lat="44.88035" lon="6.3615">
        <ele>3415.7</ele>
        <time>2020-07-21T12:20:47Z</time>
      </trkpt>
      <trkpt lat="44.88031" lon="6.36157">
        <ele>3411.86</ele>
        <time>2020-07-21T12:21:40Z</time>
      </trkpt>
      <trkpt lat="44.88029" lon="6.36159">
        <ele>3408.49</ele>
        <time>2020-07-21T12:22:27Z</time>
      </trkpt>
      <trkpt lat="44.8803" lon="6.36165">
        <ele>3405.13</ele>
        <time>2020-07-21T12:23:11Z</time>
      </trkpt>
      <trkpt lat="44.88029" lon="6.36173">
        <ele>3401.76</ele>
        <time>2020-07-21T12:23:44Z</time>
      </trkpt>
      <trkpt lat="44.88029" lon="6.36174">
        <ele>3398.4</ele>
        <time>2020-07-21T12:24:01Z</time>
      </trkpt>
      <trkpt lat="44.88023" lon="6.36181">
        <ele>3392.63</ele>
        <time>2020-07-21T12:24:35Z</time>
      </trkpt>
      <trkpt lat="44.8802" lon="6.36193">
        <ele>3386.86</ele>
        <time>2020-07-21T12:25:10Z</time>
      </trkpt>
      <trkpt lat="44.88018" lon="6.36204">
        <ele>3382.54</ele>
        <time>2020-07-21T12:25:52Z</time>
      </trkpt>
      <trkpt lat="44.88019" lon="6.36214">
        <ele>3378.69</ele>
        <time>2020-07-21T12:26:53Z</time>
      </trkpt>
      <trkpt lat="44.88016" lon="6.36216">
        <ele>3374.85</ele>
        <time>2020-07-21T12:27:10Z</time>
      </trkpt>
      <trkpt lat="44.88012" lon="6.36222">
        <ele>3371</ele>
        <time>2020-07-21T12:27:42Z</time>
      </trkpt>
      <trkpt lat="44.88011" lon="6.3623">
        <ele>3367.15</ele>
        <time>2020-07-21T12:28:27Z</time>
      </trkpt>
      <trkpt lat="44.88003" lon="6.36232">
        <ele>3361.39</ele>
        <time>2020-07-21T12:29:31Z</time>
      </trkpt>
      <trkpt lat="44.88002" lon="6.36236">
        <ele>3357.54</ele>
        <time>2020-07-21T12:29:49Z</time>
      </trkpt>
      <trkpt lat="44.87998" lon="6.36241">
        <ele>3352.74</ele>
        <time>2020-07-21T12:32:37Z</time>
      </trkpt>
      <trkpt lat="44.87998" lon="6.36247">
        <ele>3347.93</ele>
        <time>2020-07-21T12:34:36Z</time>
      </trkpt>
      <trkpt lat="44.87995" lon="6.36249">
        <ele>3343.6</ele>
        <time>2020-07-21T12:35:45Z</time>
      </trkpt>
      <trkpt lat="44.87993" lon="6.36245">
        <ele>3337.35</ele>
        <time>2020-07-21T12:38:19Z</time>
      </trkpt>
      <trkpt lat="44.87985" lon="6.36239">
        <ele>3332.07</ele>
        <time>2020-07-21T12:39:10Z</time>
      </trkpt>
      <trkpt lat="44.87983" lon="6.3624">
        <ele>3328.7</ele>
        <time>2020-07-21T12:39:25Z</time>
      </trkpt>
      <trkpt lat="44.87979" lon="6.36238">
        <ele>3325.34</ele>
        <time>2020-07-21T12:39:40Z</time>
      </trkpt>
      <trkpt lat="44.87972" lon="6.36236">
        <ele>3321.01</ele>
        <time>2020-07-21T12:41:53Z</time>
      </trkpt>
      <trkpt lat="44.87966" lon="6.36243">
        <ele>3317.65</ele>
        <time>2020-07-21T12:42:38Z</time>
      </trkpt>
      <trkpt lat="44.8796" lon="6.36243">
        <ele>3314.28</ele>
        <time>2020-07-21T12:43:48Z</time>
      </trkpt>
      <trkpt lat="44.87955" lon="6.36251">
        <ele>3314.28</ele>
        <time>2020-07-21T12:44:12Z</time>
      </trkpt>
      <trkpt lat="44.8795" lon="6.36261">
        <ele>3310.92</ele>
        <time>2020-07-21T12:45:17Z</time>
      </trkpt>
      <trkpt lat="44.87947" lon="6.36262">
        <ele>3310.92</ele>
        <time>2020-07-21T12:45:38Z</time>
      </trkpt>
      <trkpt lat="44.87932" lon="6.36303">
        <ele>3305.15</ele>
        <time>2020-07-21T12:50:10Z</time>
      </trkpt>
      <trkpt lat="44.87927" lon="6.36303">
        <ele>3301.79</ele>
        <time>2020-07-21T12:50:26Z</time>
      </trkpt>
      <trkpt lat="44.87925" lon="6.36303">
        <ele>3297.46</ele>
        <time>2020-07-21T12:51:05Z</time>
      </trkpt>
      <trkpt lat="44.87924" lon="6.36303">
        <ele>3294.09</ele>
        <time>2020-07-21T12:51:21Z</time>
      </trkpt>
      <trkpt lat="44.87923" lon="6.36298">
        <ele>3290.73</ele>
        <time>2020-07-21T12:51:42Z</time>
      </trkpt>
      <trkpt lat="44.87919" lon="6.36299">
        <ele>3285.92</ele>
        <time>2020-07-21T12:52:24Z</time>
      </trkpt>
      <trkpt lat="44.87914" lon="6.36297">
        <ele>3281.12</ele>
        <time>2020-07-21T12:53:35Z</time>
      </trkpt>
      <trkpt lat="44.87911" lon="6.36301">
        <ele>3276.79</ele>
        <time>2020-07-21T12:53:55Z</time>
      </trkpt>
      <trkpt lat="44.87908" lon="6.36303">
        <ele>3273.43</ele>
        <time>2020-07-21T12:54:07Z</time>
      </trkpt>
      <trkpt lat="44.87901" lon="6.36309">
        <ele>3267.66</ele>
        <time>2020-07-21T12:54:42Z</time>
      </trkpt>
      <trkpt lat="44.87896" lon="6.36294">
        <ele>3262.85</ele>
        <time>2020-07-21T12:55:39Z</time>
      </trkpt>
      <trkpt lat="44.87894" lon="6.36298">
        <ele>3259.49</ele>
        <time>2020-07-21T12:55:58Z</time>
      </trkpt>
      <trkpt lat="44.87891" lon="6.36306">
        <ele>3251.32</ele>
        <time>2020-07-21T12:56:51Z</time>
      </trkpt>
      <trkpt lat="44.87889" lon="6.36316">
        <ele>3246.99</ele>
        <time>2020-07-21T13:00:35Z</time>
      </trkpt>
      <trkpt lat="44.87882" lon="6.36314">
        <ele>3242.18</ele>
        <time>2020-07-21T13:01:30Z</time>
      </trkpt>
      <trkpt lat="44.87879" lon="6.36315">
        <ele>3237.86</ele>
        <time>2020-07-21T13:02:07Z</time>
      </trkpt>
      <trkpt lat="44.87876" lon="6.36314">
        <ele>3233.53</ele>
        <time>2020-07-21T13:02:35Z</time>
      </trkpt>
      <trkpt lat="44.8787" lon="6.36271">
        <ele>3227.76</ele>
        <time>2020-07-21T13:04:18Z</time>
      </trkpt>
      <trkpt lat="44.87867" lon="6.36278">
        <ele>3224.4</ele>
        <time>2020-07-21T13:04:54Z</time>
      </trkpt>
      <trkpt lat="44.87863" lon="6.36276">
        <ele>3218.15</ele>
        <time>2020-07-21T13:05:54Z</time>
      </trkpt>
      <trkpt lat="44.87862" lon="6.36283">
        <ele>3211.42</ele>
        <time>2020-07-21T13:08:14Z</time>
      </trkpt>
      <trkpt lat="44.87853" lon="6.36279">
        <ele>3206.13</ele>
        <time>2020-07-21T13:08:53Z</time>
      </trkpt>
      <trkpt lat="44.87851" lon="6.36285">
        <ele>3202.29</ele>
        <time>2020-07-21T13:09:33Z</time>
      </trkpt>
      <trkpt lat="44.87845" lon="6.36288">
        <ele>3193.16</ele>
        <time>2020-07-21T13:10:16Z</time>
      </trkpt>
      <trkpt lat="44.87843" lon="6.36289">
        <ele>3194.12</ele>
        <time>2020-07-21T13:10:35Z</time>
      </trkpt>
      <trkpt lat="44.87834" lon="6.36298">
        <ele>3180.66</ele>
        <time>2020-07-21T13:13:23Z</time>
      </trkpt>
      <trkpt lat="44.87831" lon="6.36301">
        <ele>3174.89</ele>
        <time>2020-07-21T13:14:08Z</time>
      </trkpt>
      <trkpt lat="44.87831" lon="6.36272">
        <ele>3165.76</ele>
        <time>2020-07-21T13:22:38Z</time>
      </trkpt>
      <trkpt lat="44.87832" lon="6.36264">
        <ele>3162.39</ele>
        <time>2020-07-21T13:22:51Z</time>
      </trkpt>
      <trkpt lat="44.87833" lon="6.36258">
        <ele>3159.03</ele>
        <time>2020-07-21T13:23:29Z</time>
      </trkpt>
      <trkpt lat="44.87832" lon="6.36246">
        <ele>3153.26</ele>
        <time>2020-07-21T13:24:08Z</time>
      </trkpt>
      <trkpt lat="44.87831" lon="6.36226">
        <ele>3149.9</ele>
        <time>2020-07-21T13:24:45Z</time>
      </trkpt>
      <trkpt lat="44.87828" lon="6.36223">
        <ele>3153.26</ele>
        <time>2020-07-21T13:24:59Z</time>
      </trkpt>
      <trkpt lat="44.87827" lon="6.36211">
        <ele>3149.9</ele>
        <time>2020-07-21T13:25:38Z</time>
      </trkpt>
      <trkpt lat="44.87823" lon="6.36203">
        <ele>3146.05</ele>
        <time>2020-07-21T13:25:53Z</time>
      </trkpt>
      <trkpt lat="44.87822" lon="6.36187">
        <ele>3142.69</ele>
        <time>2020-07-21T13:28:14Z</time>
      </trkpt>
      <trkpt lat="44.87825" lon="6.36182">
        <ele>3137.4</ele>
        <time>2020-07-21T13:30:03Z</time>
      </trkpt>
      <trkpt lat="44.87824" lon="6.36178">
        <ele>3133.55</ele>
        <time>2020-07-21T13:30:53Z</time>
      </trkpt>
      <trkpt lat="44.87823" lon="6.36166">
        <ele>3129.71</ele>
        <time>2020-07-21T13:31:41Z</time>
      </trkpt>
      <trkpt lat="44.87821" lon="6.36165">
        <ele>3129.71</ele>
        <time>2020-07-21T13:31:44Z</time>
      </trkpt>
      <trkpt lat="44.8782" lon="6.36161">
        <ele>3133.07</ele>
        <time>2020-07-21T13:31:59Z</time>
      </trkpt>
      <trkpt lat="44.87824" lon="6.36154">
        <ele>3132.59</ele>
        <time>2020-07-21T13:32:13Z</time>
      </trkpt>
      <trkpt lat="44.87825" lon="6.36148">
        <ele>3129.23</ele>
        <time>2020-07-21T13:32:31Z</time>
      </trkpt>
      <trkpt lat="44.87825" lon="6.36133">
        <ele>3122.98</ele>
        <time>2020-07-21T13:33:00Z</time>
      </trkpt>
      <trkpt lat="44.87826" lon="6.36127">
        <ele>3119.62</ele>
        <time>2020-07-21T13:33:14Z</time>
      </trkpt>
      <trkpt lat="44.87825" lon="6.36109">
        <ele>3114.33</ele>
        <time>2020-07-21T13:33:52Z</time>
      </trkpt>
      <trkpt lat="44.87826" lon="6.3608">
        <ele>3108.08</ele>
        <time>2020-07-21T13:35:08Z</time>
      </trkpt>
      <trkpt lat="44.87817" lon="6.36017">
        <ele>3098.47</ele>
        <time>2020-07-21T13:38:11Z</time>
      </trkpt>
      <trkpt lat="44.87811" lon="6.36021">
        <ele>3093.66</ele>
        <time>2020-07-21T13:38:49Z</time>
      </trkpt>
      <trkpt lat="44.87807" lon="6.36019">
        <ele>3089.33</ele>
        <time>2020-07-21T13:39:21Z</time>
      </trkpt>
      <trkpt lat="44.878" lon="6.36013">
        <ele>3079.72</ele>
        <time>2020-07-21T13:40:28Z</time>
      </trkpt>
      <trkpt lat="44.878" lon="6.36046">
        <ele>3074.91</ele>
        <time>2020-07-21T14:10:30Z</time>
      </trkpt>
      <trkpt lat="44.87803" lon="6.36059">
        <ele>3071.07</ele>
        <time>2020-07-21T14:11:23Z</time>
      </trkpt>
      <trkpt lat="44.87805" lon="6.36066">
        <ele>3067.22</ele>
        <time>2020-07-21T14:12:35Z</time>
      </trkpt>
      <trkpt lat="44.87802" lon="6.36074">
        <ele>3062.42</ele>
        <time>2020-07-21T14:13:15Z</time>
      </trkpt>
      <trkpt lat="44.87794" lon="6.36076">
        <ele>3058.57</ele>
        <time>2020-07-21T14:13:21Z</time>
      </trkpt>
      <trkpt lat="44.87787" lon="6.36083">
        <ele>3051.84</ele>
        <time>2020-07-21T14:13:38Z</time>
      </trkpt>
      <trkpt lat="44.87774" lon="6.36086">
        <ele>3048</ele>
        <time>2020-07-21T14:14:22Z</time>
      </trkpt>
      <trkpt lat="44.87762" lon="6.36098">
        <ele>3043.19</ele>
        <time>2020-07-21T14:14:37Z</time>
      </trkpt>
      <trkpt lat="44.87757" lon="6.36102">
        <ele>3039.83</ele>
        <time>2020-07-21T14:14:41Z</time>
      </trkpt>
      <trkpt lat="44.87752" lon="6.3611">
        <ele>3036.46</ele>
        <time>2020-07-21T14:14:46Z</time>
      </trkpt>
      <trkpt lat="44.87745" lon="6.36127">
        <ele>3031.66</ele>
        <time>2020-07-21T14:14:58Z</time>
      </trkpt>
      <trkpt lat="44.87744" lon="6.36128">
        <ele>3031.66</ele>
        <time>2020-07-21T14:14:59Z</time>
      </trkpt>
      <trkpt lat="44.8774" lon="6.36138">
        <ele>3028.29</ele>
        <time>2020-07-21T14:15:37Z</time>
      </trkpt>
      <trkpt lat="44.87734" lon="6.36179">
        <ele>3023</ele>
        <time>2020-07-21T14:16:12Z</time>
      </trkpt>
      <trkpt lat="44.8773" lon="6.36208">
        <ele>3017.23</ele>
        <time>2020-07-21T14:16:40Z</time>
      </trkpt>
      <trkpt lat="44.87724" lon="6.36224">
        <ele>3012.91</ele>
        <time>2020-07-21T14:16:51Z</time>
      </trkpt>
      <trkpt lat="44.87721" lon="6.36235">
        <ele>3008.1</ele>
        <time>2020-07-21T14:17:15Z</time>
      </trkpt>
      <trkpt lat="44.8771" lon="6.36242">
        <ele>3000.41</ele>
        <time>2020-07-21T14:17:40Z</time>
      </trkpt>
      <trkpt lat="44.87709" lon="6.36245">
        <ele>2998.97</ele>
        <time>2020-07-21T14:17:43Z</time>
      </trkpt>
      <trkpt lat="44.87704" lon="6.36248">
        <ele>2994.64</ele>
        <time>2020-07-21T14:17:47Z</time>
      </trkpt>
      <trkpt lat="44.87699" lon="6.36256">
        <ele>2989.84</ele>
        <time>2020-07-21T14:18:12Z</time>
      </trkpt>
      <trkpt lat="44.87692" lon="6.36262">
        <ele>2985.03</ele>
        <time>2020-07-21T14:18:36Z</time>
      </trkpt>
      <trkpt lat="44.87683" lon="6.36274">
        <ele>2977.82</ele>
        <time>2020-07-21T14:18:50Z</time>
      </trkpt>
      <trkpt lat="44.87678" lon="6.36279">
        <ele>2973.98</ele>
        <time>2020-07-21T14:19:09Z</time>
      </trkpt>
      <trkpt lat="44.8767" lon="6.36289">
        <ele>2967.73</ele>
        <time>2020-07-21T14:19:19Z</time>
      </trkpt>
      <trkpt lat="44.87663" lon="6.36292">
        <ele>2961.96</ele>
        <time>2020-07-21T14:19:35Z</time>
      </trkpt>
      <trkpt lat="44.87657" lon="6.36296">
        <ele>2955.71</ele>
        <time>2020-07-21T14:19:56Z</time>
      </trkpt>
      <trkpt lat="44.8765" lon="6.36299">
        <ele>2952.35</ele>
        <time>2020-07-21T14:20:08Z</time>
      </trkpt>
      <trkpt lat="44.87645" lon="6.36308">
        <ele>2948.5</ele>
        <time>2020-07-21T14:20:15Z</time>
      </trkpt>
      <trkpt lat="44.87642" lon="6.3631">
        <ele>2945.14</ele>
        <time>2020-07-21T14:20:27Z</time>
      </trkpt>
      <trkpt lat="44.87634" lon="6.36319">
        <ele>2939.37</ele>
        <time>2020-07-21T14:20:44Z</time>
      </trkpt>
      <trkpt lat="44.87629" lon="6.36326">
        <ele>2936</ele>
        <time>2020-07-21T14:21:02Z</time>
      </trkpt>
      <trkpt lat="44.87622" lon="6.36329">
        <ele>2932.16</ele>
        <time>2020-07-21T14:21:16Z</time>
      </trkpt>
      <trkpt lat="44.87612" lon="6.36338">
        <ele>2927.35</ele>
        <time>2020-07-21T14:21:30Z</time>
      </trkpt>
      <trkpt lat="44.87607" lon="6.36344">
        <ele>2923.99</ele>
        <time>2020-07-21T14:21:35Z</time>
      </trkpt>
      <trkpt lat="44.87597" lon="6.36342">
        <ele>2917.74</ele>
        <time>2020-07-21T14:21:43Z</time>
      </trkpt>
      <trkpt lat="44.87588" lon="6.36338">
        <ele>2913.41</ele>
        <time>2020-07-21T14:22:03Z</time>
      </trkpt>
      <trkpt lat="44.87579" lon="6.36348">
        <ele>2908.13</ele>
        <time>2020-07-21T14:22:14Z</time>
      </trkpt>
      <trkpt lat="44.87575" lon="6.36348">
        <ele>2904.28</ele>
        <time>2020-07-21T14:22:18Z</time>
      </trkpt>
      <trkpt lat="44.87573" lon="6.36347">
        <ele>2903.8</ele>
        <time>2020-07-21T14:22:19Z</time>
      </trkpt>
      <trkpt lat="44.87563" lon="6.36342">
        <ele>2900.44</ele>
        <time>2020-07-21T14:22:27Z</time>
      </trkpt>
      <trkpt lat="44.87562" lon="6.36341">
        <ele>2900.44</ele>
        <time>2020-07-21T14:22:28Z</time>
      </trkpt>
      <trkpt lat="44.8756" lon="6.3634">
        <ele>2899.47</ele>
        <time>2020-07-21T14:22:29Z</time>
      </trkpt>
      <trkpt lat="44.87552" lon="6.36343">
        <ele>2895.63</ele>
        <time>2020-07-21T14:22:34Z</time>
      </trkpt>
      <trkpt lat="44.87542" lon="6.36349">
        <ele>2890.82</ele>
        <time>2020-07-21T14:23:22Z</time>
      </trkpt>
      <trkpt lat="44.87524" lon="6.36359">
        <ele>2886.5</ele>
        <time>2020-07-21T14:25:04Z</time>
      </trkpt>
      <trkpt lat="44.87519" lon="6.36365">
        <ele>2883.13</ele>
        <time>2020-07-21T14:25:10Z</time>
      </trkpt>
      <trkpt lat="44.8752" lon="6.36375">
        <ele>2882.17</ele>
        <time>2020-07-21T14:25:18Z</time>
      </trkpt>
      <trkpt lat="44.87498" lon="6.36418">
        <ele>2877.36</ele>
        <time>2020-07-21T14:25:50Z</time>
      </trkpt>
      <trkpt lat="44.87487" lon="6.36447">
        <ele>2869.67</ele>
        <time>2020-07-21T14:26:11Z</time>
      </trkpt>
      <trkpt lat="44.87476" lon="6.36463">
        <ele>2866.31</ele>
        <time>2020-07-21T14:26:25Z</time>
      </trkpt>
      <trkpt lat="44.87463" lon="6.36494">
        <ele>2861.5</ele>
        <time>2020-07-21T14:26:46Z</time>
      </trkpt>
      <trkpt lat="44.87456" lon="6.36508">
        <ele>2857.66</ele>
        <time>2020-07-21T14:27:00Z</time>
      </trkpt>
      <trkpt lat="44.87455" lon="6.36539">
        <ele>2846.6</ele>
        <time>2020-07-21T14:28:22Z</time>
      </trkpt>
      <trkpt lat="44.87455" lon="6.36539">
        <ele>2853.81</ele>
        <time>2020-07-21T14:28:23Z</time>
      </trkpt>
      <trkpt lat="44.87458" lon="6.36569">
        <ele>2855.73</ele>
        <time>2020-07-21T14:30:57Z</time>
      </trkpt>
      <trkpt lat="44.87461" lon="6.36598">
        <ele>2843.24</ele>
        <time>2020-07-21T14:32:22Z</time>
      </trkpt>
      <trkpt lat="44.87471" lon="6.36635">
        <ele>2836.99</ele>
        <time>2020-07-21T14:34:18Z</time>
      </trkpt>
      <trkpt lat="44.87496" lon="6.36681">
        <ele>2828.82</ele>
        <time>2020-07-21T14:36:10Z</time>
      </trkpt>
      <trkpt lat="44.87492" lon="6.36693">
        <ele>2822.57</ele>
        <time>2020-07-21T14:36:35Z</time>
      </trkpt>
      <trkpt lat="44.87487" lon="6.36699">
        <ele>2816.8</ele>
        <time>2020-07-21T14:37:04Z</time>
      </trkpt>
      <trkpt lat="44.87488" lon="6.36711">
        <ele>2811.51</ele>
        <time>2020-07-21T14:38:09Z</time>
      </trkpt>
      <trkpt lat="44.87481" lon="6.36713">
        <ele>2807.67</ele>
        <time>2020-07-21T14:38:43Z</time>
      </trkpt>
      <trkpt lat="44.8747" lon="6.36712">
        <ele>2801.9</ele>
        <time>2020-07-21T14:39:19Z</time>
      </trkpt>
      <trkpt lat="44.87463" lon="6.36708">
        <ele>2796.13</ele>
        <time>2020-07-21T14:39:39Z</time>
      </trkpt>
      <trkpt lat="44.87452" lon="6.36715">
        <ele>2792.29</ele>
        <time>2020-07-21T14:40:05Z</time>
      </trkpt>
      <trkpt lat="44.87445" lon="6.36729">
        <ele>2784.6</ele>
        <time>2020-07-21T14:40:34Z</time>
      </trkpt>
      <trkpt lat="44.87436" lon="6.36737">
        <ele>2778.35</ele>
        <time>2020-07-21T14:41:02Z</time>
      </trkpt>
      <trkpt lat="44.87428" lon="6.36737">
        <ele>2774.98</ele>
        <time>2020-07-21T14:41:05Z</time>
      </trkpt>
      <trkpt lat="44.87417" lon="6.36734">
        <ele>2771.62</ele>
        <time>2020-07-21T14:41:09Z</time>
      </trkpt>
      <trkpt lat="44.87408" lon="6.36743">
        <ele>2767.29</ele>
        <time>2020-07-21T14:41:13Z</time>
      </trkpt>
      <trkpt lat="44.87394" lon="6.3676">
        <ele>2763.93</ele>
        <time>2020-07-21T14:41:18Z</time>
      </trkpt>
      <trkpt lat="44.87388" lon="6.3677">
        <ele>2759.6</ele>
        <time>2020-07-21T14:41:21Z</time>
      </trkpt>
      <trkpt lat="44.87386" lon="6.36774">
        <ele>2761.52</ele>
        <time>2020-07-21T14:41:22Z</time>
      </trkpt>
      <trkpt lat="44.8738" lon="6.36784">
        <ele>2756.72</ele>
        <time>2020-07-21T14:41:27Z</time>
      </trkpt>
      <trkpt lat="44.87379" lon="6.36786">
        <ele>2756.72</ele>
        <time>2020-07-21T14:41:28Z</time>
      </trkpt>
      <trkpt lat="44.87372" lon="6.36796">
        <ele>2752.87</ele>
        <time>2020-07-21T14:41:41Z</time>
      </trkpt>
      <trkpt lat="44.87365" lon="6.36809">
        <ele>2748.07</ele>
        <time>2020-07-21T14:41:54Z</time>
      </trkpt>
      <trkpt lat="44.87364" lon="6.36812">
        <ele>2748.07</ele>
        <time>2020-07-21T14:41:55Z</time>
      </trkpt>
      <trkpt lat="44.87358" lon="6.36817">
        <ele>2743.74</ele>
        <time>2020-07-21T14:42:02Z</time>
      </trkpt>
      <trkpt lat="44.87338" lon="6.36837">
        <ele>2739.41</ele>
        <time>2020-07-21T14:42:18Z</time>
      </trkpt>
      <trkpt lat="44.87332" lon="6.36848">
        <ele>2736.05</ele>
        <time>2020-07-21T14:42:25Z</time>
      </trkpt>
      <trkpt lat="44.87325" lon="6.36864">
        <ele>2732.2</ele>
        <time>2020-07-21T14:43:47Z</time>
      </trkpt>
      <trkpt lat="44.87325" lon="6.36865">
        <ele>2733.65</ele>
        <time>2020-07-21T14:43:49Z</time>
      </trkpt>
      <trkpt lat="44.87321" lon="6.36885">
        <ele>2727.88</ele>
        <time>2020-07-21T14:44:06Z</time>
      </trkpt>
      <trkpt lat="44.87317" lon="6.36897">
        <ele>2723.55</ele>
        <time>2020-07-21T14:44:17Z</time>
      </trkpt>
      <trkpt lat="44.87314" lon="6.36914">
        <ele>2719.23</ele>
        <time>2020-07-21T14:44:37Z</time>
      </trkpt>
      <trkpt lat="44.87314" lon="6.36928">
        <ele>2714.42</ele>
        <time>2020-07-21T14:44:53Z</time>
      </trkpt>
      <trkpt lat="44.87311" lon="6.36938">
        <ele>2710.57</ele>
        <time>2020-07-21T14:45:04Z</time>
      </trkpt>
      <trkpt lat="44.8731" lon="6.36938">
        <ele>2710.57</ele>
        <time>2020-07-21T14:45:05Z</time>
      </trkpt>
      <trkpt lat="44.87307" lon="6.36944">
        <ele>2704.33</ele>
        <time>2020-07-21T14:45:26Z</time>
      </trkpt>
      <trkpt lat="44.873" lon="6.36958">
        <ele>2697.6</ele>
        <time>2020-07-21T14:45:52Z</time>
      </trkpt>
      <trkpt lat="44.873" lon="6.36958">
        <ele>2697.6</ele>
        <time>2020-07-21T14:45:53Z</time>
      </trkpt>
      <trkpt lat="44.87299" lon="6.36968">
        <ele>2691.83</ele>
        <time>2020-07-21T14:46:30Z</time>
      </trkpt>
      <trkpt lat="44.87292" lon="6.36985">
        <ele>2684.14</ele>
        <time>2020-07-21T14:47:16Z</time>
      </trkpt>
      <trkpt lat="44.87289" lon="6.36993">
        <ele>2680.77</ele>
        <time>2020-07-21T14:47:29Z</time>
      </trkpt>
      <trkpt lat="44.87286" lon="6.36997">
        <ele>2677.41</ele>
        <time>2020-07-21T14:47:50Z</time>
      </trkpt>
      <trkpt lat="44.87293" lon="6.37001">
        <ele>2670.68</ele>
        <time>2020-07-21T14:48:16Z</time>
      </trkpt>
      <trkpt lat="44.87293" lon="6.37002">
        <ele>2670.68</ele>
        <time>2020-07-21T14:48:17Z</time>
      </trkpt>
      <trkpt lat="44.87288" lon="6.37012">
        <ele>2664.43</ele>
        <time>2020-07-21T14:48:54Z</time>
      </trkpt>
      <trkpt lat="44.87288" lon="6.37014">
        <ele>2666.83</ele>
        <time>2020-07-21T14:48:58Z</time>
      </trkpt>
      <trkpt lat="44.87289" lon="6.37022">
        <ele>2662.03</ele>
        <time>2020-07-21T14:49:11Z</time>
      </trkpt>
      <trkpt lat="44.87281" lon="6.37025">
        <ele>2658.66</ele>
        <time>2020-07-21T14:49:33Z</time>
      </trkpt>
      <trkpt lat="44.87278" lon="6.37029">
        <ele>2655.3</ele>
        <time>2020-07-21T14:49:57Z</time>
      </trkpt>
      <trkpt lat="44.87267" lon="6.37043">
        <ele>2648.57</ele>
        <time>2020-07-21T14:50:39Z</time>
      </trkpt>
      <trkpt lat="44.87264" lon="6.37046">
        <ele>2645.21</ele>
        <time>2020-07-21T14:50:50Z</time>
      </trkpt>
      <trkpt lat="44.87256" lon="6.37048">
        <ele>2639.44</ele>
        <time>2020-07-21T14:51:41Z</time>
      </trkpt>
      <trkpt lat="44.87246" lon="6.37052">
        <ele>2636.07</ele>
        <time>2020-07-21T14:52:01Z</time>
      </trkpt>
      <trkpt lat="44.87242" lon="6.37055">
        <ele>2632.71</ele>
        <time>2020-07-21T14:52:16Z</time>
      </trkpt>
      <trkpt lat="44.8724" lon="6.37059">
        <ele>2629.34</ele>
        <time>2020-07-21T14:52:46Z</time>
      </trkpt>
      <trkpt lat="44.87223" lon="6.37066">
        <ele>2622.61</ele>
        <time>2020-07-21T14:53:24Z</time>
      </trkpt>
      <trkpt lat="44.87216" lon="6.37068">
        <ele>2616.37</ele>
        <time>2020-07-21T14:53:42Z</time>
      </trkpt>
      <trkpt lat="44.87215" lon="6.37069">
        <ele>2616.37</ele>
        <time>2020-07-21T14:53:43Z</time>
      </trkpt>
      <trkpt lat="44.87205" lon="6.37072">
        <ele>2610.6</ele>
        <time>2020-07-21T14:54:17Z</time>
      </trkpt>
      <trkpt lat="44.87204" lon="6.37078">
        <ele>2606.27</ele>
        <time>2020-07-21T14:54:26Z</time>
      </trkpt>
      <trkpt lat="44.87203" lon="6.37079">
        <ele>2606.27</ele>
        <time>2020-07-21T14:54:27Z</time>
      </trkpt>
      <trkpt lat="44.87193" lon="6.37087">
        <ele>2601.95</ele>
        <time>2020-07-21T14:54:57Z</time>
      </trkpt>
      <trkpt lat="44.8719" lon="6.37104">
        <ele>2597.14</ele>
        <time>2020-07-21T14:58:45Z</time>
      </trkpt>
      <trkpt lat="44.87194" lon="6.37146">
        <ele>2588.97</ele>
        <time>2020-07-21T14:59:42Z</time>
      </trkpt>
      <trkpt lat="44.87193" lon="6.37169">
        <ele>2583.68</ele>
        <time>2020-07-21T15:00:10Z</time>
      </trkpt>
      <trkpt lat="44.87193" lon="6.37188">
        <ele>2577.43</ele>
        <time>2020-07-21T15:00:39Z</time>
      </trkpt>
      <trkpt lat="44.87191" lon="6.37206">
        <ele>2571.18</ele>
        <time>2020-07-21T15:01:14Z</time>
      </trkpt>
      <trkpt lat="44.87191" lon="6.37228">
        <ele>2565.42</ele>
        <time>2020-07-21T15:01:51Z</time>
      </trkpt>
      <trkpt lat="44.87187" lon="6.37262">
        <ele>2561.57</ele>
        <time>2020-07-21T15:02:28Z</time>
      </trkpt>
      <trkpt lat="44.87188" lon="6.37283">
        <ele>2558.21</ele>
        <time>2020-07-21T15:02:47Z</time>
      </trkpt>
      <trkpt lat="44.87192" lon="6.37324">
        <ele>2554.36</ele>
        <time>2020-07-21T15:03:23Z</time>
      </trkpt>
      <trkpt lat="44.87192" lon="6.37384">
        <ele>2550.03</ele>
        <time>2020-07-21T15:04:17Z</time>
      </trkpt>
      <trkpt lat="44.87207" lon="6.37423">
        <ele>2545.71</ele>
        <time>2020-07-21T15:04:58Z</time>
      </trkpt>
      <trkpt lat="44.87224" lon="6.37484">
        <ele>2541.38</ele>
        <time>2020-07-21T15:05:56Z</time>
      </trkpt>
      <trkpt lat="44.87224" lon="6.37485">
        <ele>2541.38</ele>
        <time>2020-07-21T15:05:57Z</time>
      </trkpt>
      <trkpt lat="44.87217" lon="6.37526">
        <ele>2537.54</ele>
        <time>2020-07-21T15:06:39Z</time>
      </trkpt>
      <trkpt lat="44.87236" lon="6.37572">
        <ele>2534.65</ele>
        <time>2020-07-21T15:08:52Z</time>
      </trkpt>
      <trkpt lat="44.87238" lon="6.37575">
        <ele>2534.65</ele>
        <time>2020-07-21T15:08:55Z</time>
      </trkpt>
      <trkpt lat="44.87225" lon="6.37891">
        <ele>2524.08</ele>
        <time>2020-07-21T15:13:25Z</time>
      </trkpt>
      <trkpt lat="44.87227" lon="6.37892">
        <ele>2524.08</ele>
        <time>2020-07-21T15:13:29Z</time>
      </trkpt>
      <trkpt lat="44.87205" lon="6.37996">
        <ele>2518.79</ele>
        <time>2020-07-21T15:15:28Z</time>
      </trkpt>
      <trkpt lat="44.87204" lon="6.38011">
        <ele>2515.43</ele>
        <time>2020-07-21T15:15:40Z</time>
      </trkpt>
      <trkpt lat="44.87197" lon="6.38065">
        <ele>2510.14</ele>
        <time>2020-07-21T15:16:35Z</time>
      </trkpt>
      <trkpt lat="44.87207" lon="6.38105">
        <ele>2506.77</ele>
        <time>2020-07-21T15:17:43Z</time>
      </trkpt>
      <trkpt lat="44.87221" lon="6.38153">
        <ele>2501.97</ele>
        <time>2020-07-21T15:18:45Z</time>
      </trkpt>
      <trkpt lat="44.87234" lon="6.38244">
        <ele>2494.28</ele>
        <time>2020-07-21T15:20:02Z</time>
      </trkpt>
      <trkpt lat="44.87244" lon="6.38293">
        <ele>2490.91</ele>
        <time>2020-07-21T15:20:36Z</time>
      </trkpt>
      <trkpt lat="44.87255" lon="6.38367">
        <ele>2487.55</ele>
        <time>2020-07-21T15:21:59Z</time>
      </trkpt>
      <trkpt lat="44.87267" lon="6.3847">
        <ele>2482.26</ele>
        <time>2020-07-21T15:23:13Z</time>
      </trkpt>
      <trkpt lat="44.87263" lon="6.38497">
        <ele>2478.9</ele>
        <time>2020-07-21T15:23:31Z</time>
      </trkpt>
      <trkpt lat="44.87268" lon="6.38505">
        <ele>2478.9</ele>
        <time>2020-07-21T15:23:43Z</time>
      </trkpt>
      <trkpt lat="44.87265" lon="6.38531">
        <ele>2475.05</ele>
        <time>2020-07-21T15:24:07Z</time>
      </trkpt>
      <trkpt lat="44.87261" lon="6.38562">
        <ele>2471.21</ele>
        <time>2020-07-21T15:24:37Z</time>
      </trkpt>
      <trkpt lat="44.87256" lon="6.3861">
        <ele>2467.36</ele>
        <time>2020-07-21T15:25:28Z</time>
      </trkpt>
      <trkpt lat="44.87254" lon="6.38622">
        <ele>2467.36</ele>
        <time>2020-07-21T15:25:37Z</time>
      </trkpt>
      <trkpt lat="44.87253" lon="6.38636">
        <ele>2464.96</ele>
        <time>2020-07-21T15:25:51Z</time>
      </trkpt>
      <trkpt lat="44.87261" lon="6.38653">
        <ele>2465.92</ele>
        <time>2020-07-21T15:26:05Z</time>
      </trkpt>
      <trkpt lat="44.87262" lon="6.38664">
        <ele>2465.92</ele>
        <time>2020-07-21T15:26:12Z</time>
      </trkpt>
      <trkpt lat="44.87263" lon="6.3869">
        <ele>2462.55</ele>
        <time>2020-07-21T15:26:28Z</time>
      </trkpt>
      <trkpt lat="44.87262" lon="6.38704">
        <ele>2462.55</ele>
        <time>2020-07-21T15:26:36Z</time>
      </trkpt>
      <trkpt lat="44.87283" lon="6.38816">
        <ele>2457.27</ele>
        <time>2020-07-21T15:28:25Z</time>
      </trkpt>
      <trkpt lat="44.87282" lon="6.38841">
        <ele>2458.71</ele>
        <time>2020-07-21T15:28:47Z</time>
      </trkpt>
      <trkpt lat="44.87295" lon="6.38855">
        <ele>2463.04</ele>
        <time>2020-07-21T15:29:18Z</time>
      </trkpt>
      <trkpt lat="44.87299" lon="6.3888">
        <ele>2468.32</ele>
        <time>2020-07-21T15:29:47Z</time>
      </trkpt>
      <trkpt lat="44.87302" lon="6.38891">
        <ele>2472.65</ele>
        <time>2020-07-21T15:30:15Z</time>
      </trkpt>
      <trkpt lat="44.87304" lon="6.38895">
        <ele>2476.49</ele>
        <time>2020-07-21T15:30:30Z</time>
      </trkpt>
      <trkpt lat="44.87307" lon="6.38897">
        <ele>2476.01</ele>
        <time>2020-07-21T15:30:39Z</time>
      </trkpt>
      <trkpt lat="44.8731" lon="6.38908">
        <ele>2480.34</ele>
        <time>2020-07-21T15:30:58Z</time>
      </trkpt>
      <trkpt lat="44.87327" lon="6.38897">
        <ele>2483.7</ele>
        <time>2020-07-21T15:31:33Z</time>
      </trkpt>
      <trkpt lat="44.87338" lon="6.38884">
        <ele>2488.03</ele>
        <time>2020-07-21T15:31:56Z</time>
      </trkpt>
      <trkpt lat="44.8734" lon="6.38914">
        <ele>2494.28</ele>
        <time>2020-07-21T15:32:28Z</time>
      </trkpt>
      <trkpt lat="44.87337" lon="6.38934">
        <ele>2498.12</ele>
        <time>2020-07-21T15:32:48Z</time>
      </trkpt>
      <trkpt lat="44.87327" lon="6.38971">
        <ele>2502.45</ele>
        <time>2020-07-21T15:33:22Z</time>
      </trkpt>
      <trkpt lat="44.87335" lon="6.39002">
        <ele>2507.26</ele>
        <time>2020-07-21T15:33:53Z</time>
      </trkpt>
      <trkpt lat="44.87338" lon="6.39023">
        <ele>2509.66</ele>
        <time>2020-07-21T15:34:15Z</time>
      </trkpt>
    </trkseg>
  </trk>
  <trk>
    <name><![CDATA[Ailefroide J3 22.07.20]]></name>
    <trkseg>
      <trkpt lat="44.87328" lon="6.39023">
        <ele>2513.98</ele>
        <time>2020-07-22T05:52:08Z</time>
      </trkpt>
      <trkpt lat="44.87328" lon="6.39023">
        <ele>2513.98</ele>
        <time>2020-07-22T05:52:09Z</time>
      </trkpt>
      <trkpt lat="44.8733" lon="6.39011">
        <ele>2514.47</ele>
        <time>2020-07-22T05:52:19Z</time>
      </trkpt>
      <trkpt lat="44.87329" lon="6.39005">
        <ele>2510.14</ele>
        <time>2020-07-22T05:52:24Z</time>
      </trkpt>
      <trkpt lat="44.87329" lon="6.39001">
        <ele>2513.5</ele>
        <time>2020-07-22T05:52:26Z</time>
      </trkpt>
      <trkpt lat="44.87329" lon="6.39">
        <ele>2513.5</ele>
        <time>2020-07-22T05:52:27Z</time>
      </trkpt>
      <trkpt lat="44.87331" lon="6.38995">
        <ele>2512.06</ele>
        <time>2020-07-22T05:52:29Z</time>
      </trkpt>
      <trkpt lat="44.87331" lon="6.38992">
        <ele>2509.18</ele>
        <time>2020-07-22T05:52:31Z</time>
      </trkpt>
      <trkpt lat="44.8733" lon="6.38991">
        <ele>2509.18</ele>
        <time>2020-07-22T05:52:32Z</time>
      </trkpt>
      <trkpt lat="44.8733" lon="6.38989">
        <ele>2509.18</ele>
        <time>2020-07-22T05:52:33Z</time>
      </trkpt>
      <trkpt lat="44.8733" lon="6.38986">
        <ele>2510.14</ele>
        <time>2020-07-22T05:52:35Z</time>
      </trkpt>
      <trkpt lat="44.87325" lon="6.3898">
        <ele>2508.7</ele>
        <time>2020-07-22T05:52:41Z</time>
      </trkpt>
      <trkpt lat="44.87323" lon="6.38972">
        <ele>2505.81</ele>
        <time>2020-07-22T05:52:47Z</time>
      </trkpt>
      <trkpt lat="44.87323" lon="6.38969">
        <ele>2507.74</ele>
        <time>2020-07-22T05:52:49Z</time>
      </trkpt>
      <trkpt lat="44.87322" lon="6.38963">
        <ele>2503.89</ele>
        <time>2020-07-22T05:52:54Z</time>
      </trkpt>
      <trkpt lat="44.87323" lon="6.38961">
        <ele>2503.89</ele>
        <time>2020-07-22T05:52:55Z</time>
      </trkpt>
      <trkpt lat="44.87325" lon="6.38951">
        <ele>2501.97</ele>
        <time>2020-07-22T05:53:02Z</time>
      </trkpt>
      <trkpt lat="44.87326" lon="6.38945">
        <ele>2498.6</ele>
        <time>2020-07-22T05:53:07Z</time>
      </trkpt>
      <trkpt lat="44.87329" lon="6.38919">
        <ele>2497.16</ele>
        <time>2020-07-22T05:53:24Z</time>
      </trkpt>
      <trkpt lat="44.8733" lon="6.38908">
        <ele>2496.2</ele>
        <time>2020-07-22T05:53:31Z</time>
      </trkpt>
      <trkpt lat="44.87327" lon="6.38885">
        <ele>2492.36</ele>
        <time>2020-07-22T05:53:45Z</time>
      </trkpt>
      <trkpt lat="44.87318" lon="6.38901">
        <ele>2489.47</ele>
        <time>2020-07-22T05:54:00Z</time>
      </trkpt>
      <trkpt lat="44.87309" lon="6.38913">
        <ele>2487.07</ele>
        <time>2020-07-22T05:54:15Z</time>
      </trkpt>
      <trkpt lat="44.87304" lon="6.38917">
        <ele>2484.66</ele>
        <time>2020-07-22T05:54:24Z</time>
      </trkpt>
      <trkpt lat="44.87306" lon="6.38905">
        <ele>2481.78</ele>
        <time>2020-07-22T05:54:37Z</time>
      </trkpt>
      <trkpt lat="44.87307" lon="6.38904">
        <ele>2481.78</ele>
        <time>2020-07-22T05:54:38Z</time>
      </trkpt>
      <trkpt lat="44.87303" lon="6.38887">
        <ele>2478.9</ele>
        <time>2020-07-22T05:54:56Z</time>
      </trkpt>
      <trkpt lat="44.87292" lon="6.38883">
        <ele>2476.01</ele>
        <time>2020-07-22T05:55:13Z</time>
      </trkpt>
      <trkpt lat="44.87286" lon="6.38882">
        <ele>2473.61</ele>
        <time>2020-07-22T05:55:28Z</time>
      </trkpt>
      <trkpt lat="44.87272" lon="6.38879">
        <ele>2470.73</ele>
        <time>2020-07-22T05:55:51Z</time>
      </trkpt>
      <trkpt lat="44.87273" lon="6.38874">
        <ele>2467.36</ele>
        <time>2020-07-22T05:55:58Z</time>
      </trkpt>
      <trkpt lat="44.87273" lon="6.38873">
        <ele>2466.88</ele>
        <time>2020-07-22T05:55:59Z</time>
      </trkpt>
      <trkpt lat="44.8728" lon="6.38865">
        <ele>2464.96</ele>
        <time>2020-07-22T05:56:17Z</time>
      </trkpt>
      <trkpt lat="44.87278" lon="6.38859">
        <ele>2464.96</ele>
        <time>2020-07-22T05:56:18Z</time>
      </trkpt>
      <trkpt lat="44.87267" lon="6.38855">
        <ele>2461.59</ele>
        <time>2020-07-22T05:56:31Z</time>
      </trkpt>
      <trkpt lat="44.87269" lon="6.38853">
        <ele>2460.63</ele>
        <time>2020-07-22T05:56:34Z</time>
      </trkpt>
      <trkpt lat="44.87272" lon="6.38848">
        <ele>2460.15</ele>
        <time>2020-07-22T05:56:40Z</time>
      </trkpt>
      <trkpt lat="44.87274" lon="6.38835">
        <ele>2457.27</ele>
        <time>2020-07-22T05:56:56Z</time>
      </trkpt>
      <trkpt lat="44.87266" lon="6.38814">
        <ele>2455.82</ele>
        <time>2020-07-22T05:57:27Z</time>
      </trkpt>
      <trkpt lat="44.87257" lon="6.38822">
        <ele>2453.42</ele>
        <time>2020-07-22T05:57:45Z</time>
      </trkpt>
      <trkpt lat="44.87256" lon="6.38823">
        <ele>2452.94</ele>
        <time>2020-07-22T05:57:47Z</time>
      </trkpt>
      <trkpt lat="44.87252" lon="6.38841">
        <ele>2451.02</ele>
        <time>2020-07-22T05:57:59Z</time>
      </trkpt>
      <trkpt lat="44.87246" lon="6.38857">
        <ele>2447.65</ele>
        <time>2020-07-22T05:58:14Z</time>
      </trkpt>
      <trkpt lat="44.87242" lon="6.38868">
        <ele>2446.21</ele>
        <time>2020-07-22T05:58:31Z</time>
      </trkpt>
      <trkpt lat="44.87239" lon="6.38883">
        <ele>2445.25</ele>
        <time>2020-07-22T05:58:41Z</time>
      </trkpt>
      <trkpt lat="44.8724" lon="6.38891">
        <ele>2445.25</ele>
        <time>2020-07-22T05:58:48Z</time>
      </trkpt>
      <trkpt lat="44.87239" lon="6.38906">
        <ele>2443.33</ele>
        <time>2020-07-22T05:59:01Z</time>
      </trkpt>
      <trkpt lat="44.87238" lon="6.3891">
        <ele>2442.85</ele>
        <time>2020-07-22T05:59:04Z</time>
      </trkpt>
      <trkpt lat="44.87236" lon="6.38914">
        <ele>2442.37</ele>
        <time>2020-07-22T05:59:07Z</time>
      </trkpt>
      <trkpt lat="44.87239" lon="6.38939">
        <ele>2440.44</ele>
        <time>2020-07-22T05:59:25Z</time>
      </trkpt>
      <trkpt lat="44.87241" lon="6.38942">
        <ele>2441.89</ele>
        <time>2020-07-22T05:59:27Z</time>
      </trkpt>
      <trkpt lat="44.87242" lon="6.38945">
        <ele>2442.37</ele>
        <time>2020-07-22T05:59:29Z</time>
      </trkpt>
      <trkpt lat="44.87241" lon="6.38951">
        <ele>2443.33</ele>
        <time>2020-07-22T05:59:33Z</time>
      </trkpt>
      <trkpt lat="44.87239" lon="6.38958">
        <ele>2443.81</ele>
        <time>2020-07-22T05:59:36Z</time>
      </trkpt>
      <trkpt lat="44.87235" lon="6.38979">
        <ele>2444.29</ele>
        <time>2020-07-22T05:59:47Z</time>
      </trkpt>
      <trkpt lat="44.87235" lon="6.38996">
        <ele>2443.81</ele>
        <time>2020-07-22T06:00:01Z</time>
      </trkpt>
      <trkpt lat="44.87235" lon="6.39002">
        <ele>2442.37</ele>
        <time>2020-07-22T06:00:04Z</time>
      </trkpt>
      <trkpt lat="44.87233" lon="6.39017">
        <ele>2439.96</ele>
        <time>2020-07-22T06:00:14Z</time>
      </trkpt>
      <trkpt lat="44.87234" lon="6.39021">
        <ele>2439.96</ele>
        <time>2020-07-22T06:00:16Z</time>
      </trkpt>
      <trkpt lat="44.87231" lon="6.39032">
        <ele>2439.48</ele>
        <time>2020-07-22T06:00:22Z</time>
      </trkpt>
      <trkpt lat="44.8723" lon="6.39037">
        <ele>2439</ele>
        <time>2020-07-22T06:00:25Z</time>
      </trkpt>
      <trkpt lat="44.8723" lon="6.39048">
        <ele>2437.56</ele>
        <time>2020-07-22T06:00:31Z</time>
      </trkpt>
      <trkpt lat="44.87226" lon="6.39078">
        <ele>2436.6</ele>
        <time>2020-07-22T06:00:50Z</time>
      </trkpt>
      <trkpt lat="44.87227" lon="6.39086">
        <ele>2434.68</ele>
        <time>2020-07-22T06:00:56Z</time>
      </trkpt>
      <trkpt lat="44.87226" lon="6.39088">
        <ele>2434.2</ele>
        <time>2020-07-22T06:00:58Z</time>
      </trkpt>
      <trkpt lat="44.87227" lon="6.39102">
        <ele>2430.83</ele>
        <time>2020-07-22T06:01:10Z</time>
      </trkpt>
      <trkpt lat="44.87228" lon="6.39104">
        <ele>2430.83</ele>
        <time>2020-07-22T06:01:11Z</time>
      </trkpt>
      <trkpt lat="44.87231" lon="6.39124">
        <ele>2428.43</ele>
        <time>2020-07-22T06:01:26Z</time>
      </trkpt>
      <trkpt lat="44.8723" lon="6.39129">
        <ele>2427.95</ele>
        <time>2020-07-22T06:01:29Z</time>
      </trkpt>
      <trkpt lat="44.87224" lon="6.39155">
        <ele>2424.58</ele>
        <time>2020-07-22T06:01:48Z</time>
      </trkpt>
      <trkpt lat="44.87224" lon="6.39157">
        <ele>2424.58</ele>
        <time>2020-07-22T06:01:50Z</time>
      </trkpt>
      <trkpt lat="44.87217" lon="6.39162">
        <ele>2421.22</ele>
        <time>2020-07-22T06:02:03Z</time>
      </trkpt>
      <trkpt lat="44.87218" lon="6.39175">
        <ele>2417.37</ele>
        <time>2020-07-22T06:02:15Z</time>
      </trkpt>
      <trkpt lat="44.87221" lon="6.39191">
        <ele>2414.01</ele>
        <time>2020-07-22T06:02:29Z</time>
      </trkpt>
      <trkpt lat="44.87222" lon="6.39196">
        <ele>2412.57</ele>
        <time>2020-07-22T06:02:34Z</time>
      </trkpt>
      <trkpt lat="44.87223" lon="6.39201">
        <ele>2413.05</ele>
        <time>2020-07-22T06:02:54Z</time>
      </trkpt>
      <trkpt lat="44.87224" lon="6.39201">
        <ele>2411.6</ele>
        <time>2020-07-22T06:03:15Z</time>
      </trkpt>
      <trkpt lat="44.8723" lon="6.39209">
        <ele>2408.72</ele>
        <time>2020-07-22T06:03:27Z</time>
      </trkpt>
      <trkpt lat="44.8723" lon="6.39217">
        <ele>2404.88</ele>
        <time>2020-07-22T06:03:39Z</time>
      </trkpt>
      <trkpt lat="44.87228" lon="6.3922">
        <ele>2403.91</ele>
        <time>2020-07-22T06:03:44Z</time>
      </trkpt>
      <trkpt lat="44.87225" lon="6.39227">
        <ele>2401.51</ele>
        <time>2020-07-22T06:03:54Z</time>
      </trkpt>
      <trkpt lat="44.87226" lon="6.39233">
        <ele>2399.11</ele>
        <time>2020-07-22T06:04:06Z</time>
      </trkpt>
      <trkpt lat="44.87223" lon="6.3924">
        <ele>2395.74</ele>
        <time>2020-07-22T06:04:18Z</time>
      </trkpt>
      <trkpt lat="44.87226" lon="6.39244">
        <ele>2393.34</ele>
        <time>2020-07-22T06:04:35Z</time>
      </trkpt>
      <trkpt lat="44.87227" lon="6.39248">
        <ele>2390.94</ele>
        <time>2020-07-22T06:04:41Z</time>
      </trkpt>
      <trkpt lat="44.87243" lon="6.39247">
        <ele>2388.53</ele>
        <time>2020-07-22T06:04:57Z</time>
      </trkpt>
      <trkpt lat="44.87251" lon="6.39247">
        <ele>2385.65</ele>
        <time>2020-07-22T06:05:09Z</time>
      </trkpt>
      <trkpt lat="44.8726" lon="6.39248">
        <ele>2382.28</ele>
        <time>2020-07-22T06:05:25Z</time>
      </trkpt>
      <trkpt lat="44.87267" lon="6.39244">
        <ele>2378.92</ele>
        <time>2020-07-22T06:05:40Z</time>
      </trkpt>
      <trkpt lat="44.87275" lon="6.39245">
        <ele>2375.55</ele>
        <time>2020-07-22T06:05:55Z</time>
      </trkpt>
      <trkpt lat="44.87274" lon="6.39245">
        <ele>2375.55</ele>
        <time>2020-07-22T06:05:56Z</time>
      </trkpt>
      <trkpt lat="44.87276" lon="6.39248">
        <ele>2375.55</ele>
        <time>2020-07-22T06:05:59Z</time>
      </trkpt>
      <trkpt lat="44.8728" lon="6.39258">
        <ele>2374.59</ele>
        <time>2020-07-22T06:06:04Z</time>
      </trkpt>
      <trkpt lat="44.8729" lon="6.39262">
        <ele>2373.15</ele>
        <time>2020-07-22T06:06:14Z</time>
      </trkpt>
      <trkpt lat="44.87301" lon="6.39265">
        <ele>2372.19</ele>
        <time>2020-07-22T06:06:34Z</time>
      </trkpt>
      <trkpt lat="44.87303" lon="6.39266">
        <ele>2372.19</ele>
        <time>2020-07-22T06:06:41Z</time>
      </trkpt>
      <trkpt lat="44.87303" lon="6.39269">
        <ele>2370.27</ele>
        <time>2020-07-22T06:06:46Z</time>
      </trkpt>
      <trkpt lat="44.87301" lon="6.39266">
        <ele>2370.27</ele>
        <time>2020-07-22T06:07:26Z</time>
      </trkpt>
      <trkpt lat="44.87303" lon="6.39265">
        <ele>2370.27</ele>
        <time>2020-07-22T06:08:05Z</time>
      </trkpt>
      <trkpt lat="44.87299" lon="6.39265">
        <ele>2369.79</ele>
        <time>2020-07-22T06:08:50Z</time>
      </trkpt>
      <trkpt lat="44.873" lon="6.39265">
        <ele>2369.31</ele>
        <time>2020-07-22T06:09:43Z</time>
      </trkpt>
      <trkpt lat="44.87302" lon="6.39269">
        <ele>2369.31</ele>
        <time>2020-07-22T06:10:23Z</time>
      </trkpt>
      <trkpt lat="44.87301" lon="6.39267">
        <ele>2369.31</ele>
        <time>2020-07-22T06:11:09Z</time>
      </trkpt>
      <trkpt lat="44.87298" lon="6.39266">
        <ele>2368.83</ele>
        <time>2020-07-22T06:11:59Z</time>
      </trkpt>
      <trkpt lat="44.873" lon="6.39268">
        <ele>2368.83</ele>
        <time>2020-07-22T06:12:39Z</time>
      </trkpt>
      <trkpt lat="44.87302" lon="6.39271">
        <ele>2368.83</ele>
        <time>2020-07-22T06:13:24Z</time>
      </trkpt>
      <trkpt lat="44.87299" lon="6.39268">
        <ele>2368.83</ele>
        <time>2020-07-22T06:14:16Z</time>
      </trkpt>
      <trkpt lat="44.873" lon="6.39268">
        <ele>2368.83</ele>
        <time>2020-07-22T06:14:55Z</time>
      </trkpt>
      <trkpt lat="44.87299" lon="6.3927">
        <ele>2368.83</ele>
        <time>2020-07-22T06:15:54Z</time>
      </trkpt>
      <trkpt lat="44.87299" lon="6.39274">
        <ele>2369.31</ele>
        <time>2020-07-22T06:16:48Z</time>
      </trkpt>
      <trkpt lat="44.87301" lon="6.39274">
        <ele>2369.31</ele>
        <time>2020-07-22T06:17:27Z</time>
      </trkpt>
      <trkpt lat="44.873" lon="6.39276">
        <ele>2370.75</ele>
        <time>2020-07-22T06:18:15Z</time>
      </trkpt>
      <trkpt lat="44.87302" lon="6.39276">
        <ele>2370.75</ele>
        <time>2020-07-22T06:19:03Z</time>
      </trkpt>
      <trkpt lat="44.87302" lon="6.39271">
        <ele>2371.23</ele>
        <time>2020-07-22T06:19:45Z</time>
      </trkpt>
      <trkpt lat="44.87299" lon="6.39271">
        <ele>2369.79</ele>
        <time>2020-07-22T06:20:39Z</time>
      </trkpt>
      <trkpt lat="44.87299" lon="6.39271">
        <ele>2369.79</ele>
        <time>2020-07-22T06:21:24Z</time>
      </trkpt>
      <trkpt lat="44.873" lon="6.39271">
        <ele>2369.79</ele>
        <time>2020-07-22T06:21:57Z</time>
      </trkpt>
      <trkpt lat="44.873" lon="6.39273">
        <ele>2369.79</ele>
        <time>2020-07-22T06:22:46Z</time>
      </trkpt>
      <trkpt lat="44.873" lon="6.39273">
        <ele>2370.27</ele>
        <time>2020-07-22T06:23:37Z</time>
      </trkpt>
      <trkpt lat="44.87303" lon="6.39276">
        <ele>2371.23</ele>
        <time>2020-07-22T06:24:22Z</time>
      </trkpt>
      <trkpt lat="44.87303" lon="6.39276">
        <ele>2371.71</ele>
        <time>2020-07-22T06:25:17Z</time>
      </trkpt>
      <trkpt lat="44.87303" lon="6.39277">
        <ele>2372.19</ele>
        <time>2020-07-22T06:25:57Z</time>
      </trkpt>
      <trkpt lat="44.87304" lon="6.39277">
        <ele>2372.67</ele>
        <time>2020-07-22T06:26:54Z</time>
      </trkpt>
      <trkpt lat="44.87304" lon="6.39277">
        <ele>2372.67</ele>
        <time>2020-07-22T06:27:43Z</time>
      </trkpt>
      <trkpt lat="44.87302" lon="6.39274">
        <ele>2372.19</ele>
        <time>2020-07-22T06:28:35Z</time>
      </trkpt>
      <trkpt lat="44.87304" lon="6.39273">
        <ele>2372.19</ele>
        <time>2020-07-22T06:28:52Z</time>
      </trkpt>
      <trkpt lat="44.87304" lon="6.39275">
        <ele>2373.15</ele>
        <time>2020-07-22T06:28:55Z</time>
      </trkpt>
      <trkpt lat="44.87306" lon="6.39275">
        <ele>2374.59</ele>
        <time>2020-07-22T06:29:02Z</time>
      </trkpt>
      <trkpt lat="44.87311" lon="6.39268">
        <ele>2371.71</ele>
        <time>2020-07-22T06:29:23Z</time>
      </trkpt>
      <trkpt lat="44.87322" lon="6.3927">
        <ele>2368.83</ele>
        <time>2020-07-22T06:29:37Z</time>
      </trkpt>
      <trkpt lat="44.87327" lon="6.39276">
        <ele>2366.9</ele>
        <time>2020-07-22T06:29:45Z</time>
      </trkpt>
      <trkpt lat="44.87323" lon="6.39277">
        <ele>2364.5</ele>
        <time>2020-07-22T06:30:01Z</time>
      </trkpt>
      <trkpt lat="44.87332" lon="6.39282">
        <ele>2361.14</ele>
        <time>2020-07-22T06:30:15Z</time>
      </trkpt>
      <trkpt lat="44.87336" lon="6.39284">
        <ele>2357.77</ele>
        <time>2020-07-22T06:30:31Z</time>
      </trkpt>
      <trkpt lat="44.87331" lon="6.39286">
        <ele>2354.89</ele>
        <time>2020-07-22T06:30:45Z</time>
      </trkpt>
      <trkpt lat="44.87328" lon="6.39288">
        <ele>2351.52</ele>
        <time>2020-07-22T06:30:59Z</time>
      </trkpt>
      <trkpt lat="44.87327" lon="6.393">
        <ele>2348.64</ele>
        <time>2020-07-22T06:31:12Z</time>
      </trkpt>
      <trkpt lat="44.87325" lon="6.39309">
        <ele>2345.27</ele>
        <time>2020-07-22T06:31:24Z</time>
      </trkpt>
      <trkpt lat="44.87328" lon="6.39314">
        <ele>2343.83</ele>
        <time>2020-07-22T06:31:30Z</time>
      </trkpt>
      <trkpt lat="44.87333" lon="6.39318">
        <ele>2341.91</ele>
        <time>2020-07-22T06:31:43Z</time>
      </trkpt>
      <trkpt lat="44.87334" lon="6.39319">
        <ele>2341.91</ele>
        <time>2020-07-22T06:31:44Z</time>
      </trkpt>
      <trkpt lat="44.87333" lon="6.39323">
        <ele>2339.99</ele>
        <time>2020-07-22T06:31:48Z</time>
      </trkpt>
      <trkpt lat="44.87332" lon="6.39324">
        <ele>2339.51</ele>
        <time>2020-07-22T06:31:49Z</time>
      </trkpt>
      <trkpt lat="44.87324" lon="6.39326">
        <ele>2336.14</ele>
        <time>2020-07-22T06:32:04Z</time>
      </trkpt>
      <trkpt lat="44.87318" lon="6.39325">
        <ele>2332.78</ele>
        <time>2020-07-22T06:32:15Z</time>
      </trkpt>
      <trkpt lat="44.87311" lon="6.39323">
        <ele>2329.89</ele>
        <time>2020-07-22T06:32:26Z</time>
      </trkpt>
      <trkpt lat="44.87301" lon="6.39323">
        <ele>2327.01</ele>
        <time>2020-07-22T06:32:32Z</time>
      </trkpt>
      <trkpt lat="44.873" lon="6.39322">
        <ele>2327.01</ele>
        <time>2020-07-22T06:32:33Z</time>
      </trkpt>
      <trkpt lat="44.8729" lon="6.39321">
        <ele>2323.16</ele>
        <time>2020-07-22T06:32:52Z</time>
      </trkpt>
      <trkpt lat="44.87288" lon="6.39323">
        <ele>2323.16</ele>
        <time>2020-07-22T06:32:56Z</time>
      </trkpt>
      <trkpt lat="44.87287" lon="6.39324">
        <ele>2322.2</ele>
        <time>2020-07-22T06:32:57Z</time>
      </trkpt>
      <trkpt lat="44.8728" lon="6.39332">
        <ele>2319.32</ele>
        <time>2020-07-22T06:33:11Z</time>
      </trkpt>
      <trkpt lat="44.8728" lon="6.39336">
        <ele>2315.95</ele>
        <time>2020-07-22T06:33:27Z</time>
      </trkpt>
      <trkpt lat="44.87278" lon="6.39339">
        <ele>2314.51</ele>
        <time>2020-07-22T06:33:30Z</time>
      </trkpt>
      <trkpt lat="44.87273" lon="6.39345">
        <ele>2311.15</ele>
        <time>2020-07-22T06:33:44Z</time>
      </trkpt>
      <trkpt lat="44.87271" lon="6.39347">
        <ele>2309.7</ele>
        <time>2020-07-22T06:33:48Z</time>
      </trkpt>
      <trkpt lat="44.87265" lon="6.39352">
        <ele>2306.82</ele>
        <time>2020-07-22T06:33:58Z</time>
      </trkpt>
      <trkpt lat="44.87261" lon="6.39361">
        <ele>2303.94</ele>
        <time>2020-07-22T06:34:13Z</time>
      </trkpt>
      <trkpt lat="44.8726" lon="6.39362">
        <ele>2303.46</ele>
        <time>2020-07-22T06:34:15Z</time>
      </trkpt>
      <trkpt lat="44.87254" lon="6.39357">
        <ele>2300.09</ele>
        <time>2020-07-22T06:34:27Z</time>
      </trkpt>
      <trkpt lat="44.87255" lon="6.39361">
        <ele>2297.69</ele>
        <time>2020-07-22T06:34:45Z</time>
      </trkpt>
      <trkpt lat="44.8725" lon="6.39362">
        <ele>2294.8</ele>
        <time>2020-07-22T06:34:55Z</time>
      </trkpt>
      <trkpt lat="44.87249" lon="6.39362">
        <ele>2294.8</ele>
        <time>2020-07-22T06:34:56Z</time>
      </trkpt>
      <trkpt lat="44.87236" lon="6.39355">
        <ele>2291.44</ele>
        <time>2020-07-22T06:35:14Z</time>
      </trkpt>
      <trkpt lat="44.87226" lon="6.39349">
        <ele>2288.56</ele>
        <time>2020-07-22T06:35:30Z</time>
      </trkpt>
      <trkpt lat="44.87228" lon="6.3935">
        <ele>2285.67</ele>
        <time>2020-07-22T06:35:45Z</time>
      </trkpt>
      <trkpt lat="44.87228" lon="6.3935">
        <ele>2285.19</ele>
        <time>2020-07-22T06:35:52Z</time>
      </trkpt>
      <trkpt lat="44.87227" lon="6.39351">
        <ele>2284.23</ele>
        <time>2020-07-22T06:35:53Z</time>
      </trkpt>
      <trkpt lat="44.87215" lon="6.39361">
        <ele>2282.79</ele>
        <time>2020-07-22T06:36:05Z</time>
      </trkpt>
      <trkpt lat="44.87213" lon="6.39376">
        <ele>2279.9</ele>
        <time>2020-07-22T06:36:19Z</time>
      </trkpt>
      <trkpt lat="44.8722" lon="6.39378">
        <ele>2276.06</ele>
        <time>2020-07-22T06:36:33Z</time>
      </trkpt>
      <trkpt lat="44.8722" lon="6.39383">
        <ele>2273.66</ele>
        <time>2020-07-22T06:36:44Z</time>
      </trkpt>
      <trkpt lat="44.87234" lon="6.39376">
        <ele>2270.29</ele>
        <time>2020-07-22T06:36:55Z</time>
      </trkpt>
      <trkpt lat="44.87232" lon="6.39379">
        <ele>2268.37</ele>
        <time>2020-07-22T06:37:04Z</time>
      </trkpt>
      <trkpt lat="44.87236" lon="6.39382">
        <ele>2265.48</ele>
        <time>2020-07-22T06:37:14Z</time>
      </trkpt>
      <trkpt lat="44.87241" lon="6.39388">
        <ele>2262.12</ele>
        <time>2020-07-22T06:37:22Z</time>
      </trkpt>
      <trkpt lat="44.87242" lon="6.39389">
        <ele>2261.64</ele>
        <time>2020-07-22T06:37:23Z</time>
      </trkpt>
      <trkpt lat="44.87244" lon="6.39389">
        <ele>2261.64</ele>
        <time>2020-07-22T06:37:24Z</time>
      </trkpt>
      <trkpt lat="44.87246" lon="6.39387">
        <ele>2260.68</ele>
        <time>2020-07-22T06:37:25Z</time>
      </trkpt>
      <trkpt lat="44.87247" lon="6.39386">
        <ele>2260.68</ele>
        <time>2020-07-22T06:37:26Z</time>
      </trkpt>
      <trkpt lat="44.87249" lon="6.39386">
        <ele>2260.2</ele>
        <time>2020-07-22T06:37:27Z</time>
      </trkpt>
      <trkpt lat="44.87256" lon="6.39383">
        <ele>2258.27</ele>
        <time>2020-07-22T06:37:38Z</time>
      </trkpt>
      <trkpt lat="44.87257" lon="6.39384">
        <ele>2257.79</ele>
        <time>2020-07-22T06:37:39Z</time>
      </trkpt>
      <trkpt lat="44.87259" lon="6.39384">
        <ele>2256.83</ele>
        <time>2020-07-22T06:37:40Z</time>
      </trkpt>
      <trkpt lat="44.87261" lon="6.39386">
        <ele>2255.87</ele>
        <time>2020-07-22T06:37:41Z</time>
      </trkpt>
      <trkpt lat="44.87263" lon="6.39388">
        <ele>2255.87</ele>
        <time>2020-07-22T06:37:42Z</time>
      </trkpt>
      <trkpt lat="44.87265" lon="6.39391">
        <ele>2254.43</ele>
        <time>2020-07-22T06:37:45Z</time>
      </trkpt>
      <trkpt lat="44.8726" lon="6.3939">
        <ele>2251.06</ele>
        <time>2020-07-22T06:37:51Z</time>
      </trkpt>
      <trkpt lat="44.87252" lon="6.39396">
        <ele>2248.66</ele>
        <time>2020-07-22T06:37:58Z</time>
      </trkpt>
      <trkpt lat="44.87249" lon="6.39402">
        <ele>2247.7</ele>
        <time>2020-07-22T06:38:01Z</time>
      </trkpt>
      <trkpt lat="44.87248" lon="6.39405">
        <ele>2246.74</ele>
        <time>2020-07-22T06:38:02Z</time>
      </trkpt>
      <trkpt lat="44.87248" lon="6.39407">
        <ele>2245.78</ele>
        <time>2020-07-22T06:38:03Z</time>
      </trkpt>
      <trkpt lat="44.87247" lon="6.39409">
        <ele>2245.78</ele>
        <time>2020-07-22T06:38:04Z</time>
      </trkpt>
      <trkpt lat="44.87246" lon="6.39411">
        <ele>2245.3</ele>
        <time>2020-07-22T06:38:05Z</time>
      </trkpt>
      <trkpt lat="44.87245" lon="6.39414">
        <ele>2244.33</ele>
        <time>2020-07-22T06:38:07Z</time>
      </trkpt>
      <trkpt lat="44.87245" lon="6.39426">
        <ele>2241.45</ele>
        <time>2020-07-22T06:38:17Z</time>
      </trkpt>
      <trkpt lat="44.87244" lon="6.3943">
        <ele>2240.49</ele>
        <time>2020-07-22T06:38:19Z</time>
      </trkpt>
      <trkpt lat="44.87246" lon="6.39446">
        <ele>2237.61</ele>
        <time>2020-07-22T06:38:29Z</time>
      </trkpt>
      <trkpt lat="44.87249" lon="6.39459">
        <ele>2236.16</ele>
        <time>2020-07-22T06:38:40Z</time>
      </trkpt>
      <trkpt lat="44.87253" lon="6.39478">
        <ele>2233.28</ele>
        <time>2020-07-22T06:38:54Z</time>
      </trkpt>
      <trkpt lat="44.87255" lon="6.39484">
        <ele>2232.8</ele>
        <time>2020-07-22T06:38:57Z</time>
      </trkpt>
      <trkpt lat="44.87258" lon="6.39492">
        <ele>2232.32</ele>
        <time>2020-07-22T06:39:00Z</time>
      </trkpt>
      <trkpt lat="44.87265" lon="6.39513">
        <ele>2231.36</ele>
        <time>2020-07-22T06:39:13Z</time>
      </trkpt>
      <trkpt lat="44.87268" lon="6.39527">
        <ele>2228.47</ele>
        <time>2020-07-22T06:39:23Z</time>
      </trkpt>
      <trkpt lat="44.87264" lon="6.39542">
        <ele>2226.07</ele>
        <time>2020-07-22T06:39:40Z</time>
      </trkpt>
      <trkpt lat="44.87265" lon="6.39543">
        <ele>2225.11</ele>
        <time>2020-07-22T06:39:41Z</time>
      </trkpt>
      <trkpt lat="44.87267" lon="6.3955">
        <ele>2224.63</ele>
        <time>2020-07-22T06:39:46Z</time>
      </trkpt>
      <trkpt lat="44.87269" lon="6.39554">
        <ele>2224.15</ele>
        <time>2020-07-22T06:39:48Z</time>
      </trkpt>
      <trkpt lat="44.87269" lon="6.39561">
        <ele>2222.71</ele>
        <time>2020-07-22T06:39:52Z</time>
      </trkpt>
      <trkpt lat="44.87271" lon="6.39578">
        <ele>2220.3</ele>
        <time>2020-07-22T06:40:03Z</time>
      </trkpt>
      <trkpt lat="44.87275" lon="6.39595">
        <ele>2217.9</ele>
        <time>2020-07-22T06:40:14Z</time>
      </trkpt>
      <trkpt lat="44.87275" lon="6.396">
        <ele>2217.42</ele>
        <time>2020-07-22T06:40:17Z</time>
      </trkpt>
      <trkpt lat="44.87275" lon="6.39602">
        <ele>2217.42</ele>
        <time>2020-07-22T06:40:18Z</time>
      </trkpt>
      <trkpt lat="44.87276" lon="6.39603">
        <ele>2217.42</ele>
        <time>2020-07-22T06:40:19Z</time>
      </trkpt>
      <trkpt lat="44.87275" lon="6.39606">
        <ele>2217.42</ele>
        <time>2020-07-22T06:40:21Z</time>
      </trkpt>
      <trkpt lat="44.87276" lon="6.39608">
        <ele>2216.46</ele>
        <time>2020-07-22T06:40:23Z</time>
      </trkpt>
      <trkpt lat="44.87277" lon="6.39613">
        <ele>2215.98</ele>
        <time>2020-07-22T06:40:24Z</time>
      </trkpt>
      <trkpt lat="44.87278" lon="6.39614">
        <ele>2215.98</ele>
        <time>2020-07-22T06:40:25Z</time>
      </trkpt>
      <trkpt lat="44.87279" lon="6.39617">
        <ele>2215.98</ele>
        <time>2020-07-22T06:40:26Z</time>
      </trkpt>
      <trkpt lat="44.87281" lon="6.39618">
        <ele>2215.5</ele>
        <time>2020-07-22T06:40:27Z</time>
      </trkpt>
      <trkpt lat="44.87282" lon="6.39619">
        <ele>2215.5</ele>
        <time>2020-07-22T06:40:28Z</time>
      </trkpt>
      <trkpt lat="44.87284" lon="6.39622">
        <ele>2215.01</ele>
        <time>2020-07-22T06:40:29Z</time>
      </trkpt>
      <trkpt lat="44.87287" lon="6.39625">
        <ele>2214.53</ele>
        <time>2020-07-22T06:40:32Z</time>
      </trkpt>
      <trkpt lat="44.87289" lon="6.39629">
        <ele>2213.57</ele>
        <time>2020-07-22T06:40:35Z</time>
      </trkpt>
      <trkpt lat="44.87291" lon="6.39635">
        <ele>2212.13</ele>
        <time>2020-07-22T06:40:38Z</time>
      </trkpt>
      <trkpt lat="44.87292" lon="6.39637">
        <ele>2211.17</ele>
        <time>2020-07-22T06:40:39Z</time>
      </trkpt>
      <trkpt lat="44.87293" lon="6.3964">
        <ele>2211.17</ele>
        <time>2020-07-22T06:40:40Z</time>
      </trkpt>
      <trkpt lat="44.87294" lon="6.39641">
        <ele>2211.17</ele>
        <time>2020-07-22T06:40:41Z</time>
      </trkpt>
      <trkpt lat="44.87293" lon="6.39645">
        <ele>2210.69</ele>
        <time>2020-07-22T06:40:44Z</time>
      </trkpt>
      <trkpt lat="44.87293" lon="6.39647">
        <ele>2209.73</ele>
        <time>2020-07-22T06:40:45Z</time>
      </trkpt>
      <trkpt lat="44.87295" lon="6.39664">
        <ele>2206.84</ele>
        <time>2020-07-22T06:40:55Z</time>
      </trkpt>
      <trkpt lat="44.87298" lon="6.39674">
        <ele>2204.44</ele>
        <time>2020-07-22T06:41:04Z</time>
      </trkpt>
      <trkpt lat="44.87298" lon="6.39677">
        <ele>2203.48</ele>
        <time>2020-07-22T06:41:06Z</time>
      </trkpt>
      <trkpt lat="44.87296" lon="6.39682">
        <ele>2202.52</ele>
        <time>2020-07-22T06:41:10Z</time>
      </trkpt>
      <trkpt lat="44.87292" lon="6.39688">
        <ele>2199.15</ele>
        <time>2020-07-22T06:41:17Z</time>
      </trkpt>
      <trkpt lat="44.87291" lon="6.3969">
        <ele>2199.63</ele>
        <time>2020-07-22T06:41:19Z</time>
      </trkpt>
      <trkpt lat="44.87289" lon="6.39695">
        <ele>2196.27</ele>
        <time>2020-07-22T06:41:25Z</time>
      </trkpt>
      <trkpt lat="44.87289" lon="6.39701">
        <ele>2195.31</ele>
        <time>2020-07-22T06:41:28Z</time>
      </trkpt>
      <trkpt lat="44.87286" lon="6.39708">
        <ele>2193.87</ele>
        <time>2020-07-22T06:41:34Z</time>
      </trkpt>
      <trkpt lat="44.87285" lon="6.39709">
        <ele>2193.39</ele>
        <time>2020-07-22T06:41:35Z</time>
      </trkpt>
      <trkpt lat="44.87278" lon="6.3972">
        <ele>2192.42</ele>
        <time>2020-07-22T06:41:52Z</time>
      </trkpt>
      <trkpt lat="44.87302" lon="6.3975">
        <ele>2191.94</ele>
        <time>2020-07-22T06:42:31Z</time>
      </trkpt>
      <trkpt lat="44.87308" lon="6.39757">
        <ele>2191.46</ele>
        <time>2020-07-22T06:43:20Z</time>
      </trkpt>
      <trkpt lat="44.87296" lon="6.39753">
        <ele>2191.46</ele>
        <time>2020-07-22T06:43:51Z</time>
      </trkpt>
      <trkpt lat="44.87298" lon="6.39753">
        <ele>2191.46</ele>
        <time>2020-07-22T06:44:23Z</time>
      </trkpt>
      <trkpt lat="44.87296" lon="6.3975">
        <ele>2191.46</ele>
        <time>2020-07-22T06:44:56Z</time>
      </trkpt>
      <trkpt lat="44.87299" lon="6.39753">
        <ele>2190.98</ele>
        <time>2020-07-22T06:45:33Z</time>
      </trkpt>
      <trkpt lat="44.87295" lon="6.39752">
        <ele>2190.98</ele>
        <time>2020-07-22T06:46:21Z</time>
      </trkpt>
      <trkpt lat="44.87293" lon="6.39752">
        <ele>2190.98</ele>
        <time>2020-07-22T06:46:25Z</time>
      </trkpt>
      <trkpt lat="44.87292" lon="6.3975">
        <ele>2190.98</ele>
        <time>2020-07-22T06:46:38Z</time>
      </trkpt>
      <trkpt lat="44.873" lon="6.39754">
        <ele>2190.5</ele>
        <time>2020-07-22T06:47:02Z</time>
      </trkpt>
      <trkpt lat="44.87304" lon="6.39756">
        <ele>2190.5</ele>
        <time>2020-07-22T06:47:04Z</time>
      </trkpt>
      <trkpt lat="44.87317" lon="6.39765">
        <ele>2188.58</ele>
        <time>2020-07-22T06:47:22Z</time>
      </trkpt>
      <trkpt lat="44.87324" lon="6.39778">
        <ele>2187.14</ele>
        <time>2020-07-22T06:47:37Z</time>
      </trkpt>
      <trkpt lat="44.87326" lon="6.39792">
        <ele>2186.18</ele>
        <time>2020-07-22T06:47:47Z</time>
      </trkpt>
      <trkpt lat="44.87326" lon="6.39795">
        <ele>2186.18</ele>
        <time>2020-07-22T06:47:49Z</time>
      </trkpt>
      <trkpt lat="44.87325" lon="6.39809">
        <ele>2185.69</ele>
        <time>2020-07-22T06:47:58Z</time>
      </trkpt>
      <trkpt lat="44.87327" lon="6.39814">
        <ele>2185.21</ele>
        <time>2020-07-22T06:48:02Z</time>
      </trkpt>
      <trkpt lat="44.87338" lon="6.39839">
        <ele>2183.77</ele>
        <time>2020-07-22T06:48:21Z</time>
      </trkpt>
      <trkpt lat="44.87358" lon="6.39862">
        <ele>2182.33</ele>
        <time>2020-07-22T06:48:42Z</time>
      </trkpt>
      <trkpt lat="44.87365" lon="6.39887">
        <ele>2181.37</ele>
        <time>2020-07-22T06:49:01Z</time>
      </trkpt>
      <trkpt lat="44.87366" lon="6.39914">
        <ele>2180.41</ele>
        <time>2020-07-22T06:49:20Z</time>
      </trkpt>
      <trkpt lat="44.87365" lon="6.39917">
        <ele>2179.45</ele>
        <time>2020-07-22T06:49:22Z</time>
      </trkpt>
      <trkpt lat="44.8736" lon="6.39934">
        <ele>2179.45</ele>
        <time>2020-07-22T06:49:34Z</time>
      </trkpt>
      <trkpt lat="44.87361" lon="6.39941">
        <ele>2178.97</ele>
        <time>2020-07-22T06:49:38Z</time>
      </trkpt>
      <trkpt lat="44.87361" lon="6.39969">
        <ele>2178.48</ele>
        <time>2020-07-22T06:49:58Z</time>
      </trkpt>
      <trkpt lat="44.87362" lon="6.3997">
        <ele>2178.48</ele>
        <time>2020-07-22T06:49:59Z</time>
      </trkpt>
      <trkpt lat="44.87378" lon="6.39991">
        <ele>2178.48</ele>
        <time>2020-07-22T06:50:19Z</time>
      </trkpt>
      <trkpt lat="44.87383" lon="6.39992">
        <ele>2179.93</ele>
        <time>2020-07-22T06:50:27Z</time>
      </trkpt>
      <trkpt lat="44.87388" lon="6.39998">
        <ele>2180.41</ele>
        <time>2020-07-22T06:50:33Z</time>
      </trkpt>
      <trkpt lat="44.87395" lon="6.40031">
        <ele>2178</ele>
        <time>2020-07-22T06:50:54Z</time>
      </trkpt>
      <trkpt lat="44.87395" lon="6.40032">
        <ele>2177.52</ele>
        <time>2020-07-22T06:50:55Z</time>
      </trkpt>
      <trkpt lat="44.874" lon="6.40051">
        <ele>2176.08</ele>
        <time>2020-07-22T06:51:05Z</time>
      </trkpt>
      <trkpt lat="44.87402" lon="6.40073">
        <ele>2174.64</ele>
        <time>2020-07-22T06:51:16Z</time>
      </trkpt>
      <trkpt lat="44.87415" lon="6.40105">
        <ele>2171.76</ele>
        <time>2020-07-22T06:51:36Z</time>
      </trkpt>
      <trkpt lat="44.87423" lon="6.40119">
        <ele>2169.83</ele>
        <time>2020-07-22T06:51:48Z</time>
      </trkpt>
      <trkpt lat="44.87432" lon="6.40146">
        <ele>2166.47</ele>
        <time>2020-07-22T06:52:04Z</time>
      </trkpt>
      <trkpt lat="44.87434" lon="6.4015">
        <ele>2166.47</ele>
        <time>2020-07-22T06:52:06Z</time>
      </trkpt>
      <trkpt lat="44.87448" lon="6.40179">
        <ele>2162.62</ele>
        <time>2020-07-22T06:52:22Z</time>
      </trkpt>
      <trkpt lat="44.8745" lon="6.40182">
        <ele>2162.62</ele>
        <time>2020-07-22T06:52:24Z</time>
      </trkpt>
      <trkpt lat="44.87451" lon="6.40189">
        <ele>2161.18</ele>
        <time>2020-07-22T06:52:29Z</time>
      </trkpt>
      <trkpt lat="44.87455" lon="6.40197">
        <ele>2160.22</ele>
        <time>2020-07-22T06:52:35Z</time>
      </trkpt>
      <trkpt lat="44.87465" lon="6.4021">
        <ele>2157.82</ele>
        <time>2020-07-22T06:52:44Z</time>
      </trkpt>
      <trkpt lat="44.87472" lon="6.40235">
        <ele>2154.45</ele>
        <time>2020-07-22T06:52:59Z</time>
      </trkpt>
      <trkpt lat="44.87475" lon="6.4024">
        <ele>2153.49</ele>
        <time>2020-07-22T06:53:03Z</time>
      </trkpt>
      <trkpt lat="44.87478" lon="6.40248">
        <ele>2153.01</ele>
        <time>2020-07-22T06:53:09Z</time>
      </trkpt>
      <trkpt lat="44.8748" lon="6.40268">
        <ele>2149.16</ele>
        <time>2020-07-22T06:53:21Z</time>
      </trkpt>
      <trkpt lat="44.87491" lon="6.40287">
        <ele>2145.8</ele>
        <time>2020-07-22T06:53:38Z</time>
      </trkpt>
      <trkpt lat="44.87492" lon="6.40289">
        <ele>2145.8</ele>
        <time>2020-07-22T06:53:39Z</time>
      </trkpt>
      <trkpt lat="44.87496" lon="6.40295">
        <ele>2145.32</ele>
        <time>2020-07-22T06:53:43Z</time>
      </trkpt>
      <trkpt lat="44.87506" lon="6.40318">
        <ele>2142.44</ele>
        <time>2020-07-22T06:54:01Z</time>
      </trkpt>
      <trkpt lat="44.87509" lon="6.40326">
        <ele>2140.51</ele>
        <time>2020-07-22T06:54:07Z</time>
      </trkpt>
      <trkpt lat="44.87513" lon="6.4034">
        <ele>2137.63</ele>
        <time>2020-07-22T06:54:16Z</time>
      </trkpt>
      <trkpt lat="44.87516" lon="6.40354">
        <ele>2135.23</ele>
        <time>2020-07-22T06:54:24Z</time>
      </trkpt>
      <trkpt lat="44.87523" lon="6.40378">
        <ele>2131.86</ele>
        <time>2020-07-22T06:54:38Z</time>
      </trkpt>
      <trkpt lat="44.87525" lon="6.40385">
        <ele>2130.9</ele>
        <time>2020-07-22T06:54:42Z</time>
      </trkpt>
      <trkpt lat="44.87529" lon="6.40399">
        <ele>2127.53</ele>
        <time>2020-07-22T06:54:53Z</time>
      </trkpt>
      <trkpt lat="44.87529" lon="6.40402">
        <ele>2127.53</ele>
        <time>2020-07-22T06:54:55Z</time>
      </trkpt>
      <trkpt lat="44.87535" lon="6.40413">
        <ele>2125.13</ele>
        <time>2020-07-22T06:55:07Z</time>
      </trkpt>
      <trkpt lat="44.87532" lon="6.40434">
        <ele>2121.29</ele>
        <time>2020-07-22T06:55:22Z</time>
      </trkpt>
      <trkpt lat="44.87529" lon="6.40441">
        <ele>2120.32</ele>
        <time>2020-07-22T06:55:26Z</time>
      </trkpt>
      <trkpt lat="44.87526" lon="6.40449">
        <ele>2119.84</ele>
        <time>2020-07-22T06:55:30Z</time>
      </trkpt>
      <trkpt lat="44.87524" lon="6.40456">
        <ele>2119.36</ele>
        <time>2020-07-22T06:55:33Z</time>
      </trkpt>
      <trkpt lat="44.8752" lon="6.40462">
        <ele>2118.4</ele>
        <time>2020-07-22T06:55:37Z</time>
      </trkpt>
      <trkpt lat="44.87518" lon="6.40466">
        <ele>2117.44</ele>
        <time>2020-07-22T06:55:40Z</time>
      </trkpt>
      <trkpt lat="44.87518" lon="6.405">
        <ele>2114.08</ele>
        <time>2020-07-22T06:55:52Z</time>
      </trkpt>
      <trkpt lat="44.87512" lon="6.40525">
        <ele>2111.19</ele>
        <time>2020-07-22T06:56:06Z</time>
      </trkpt>
      <trkpt lat="44.87508" lon="6.40549">
        <ele>2107.83</ele>
        <time>2020-07-22T06:56:19Z</time>
      </trkpt>
      <trkpt lat="44.87507" lon="6.40547">
        <ele>2105.42</ele>
        <time>2020-07-22T06:56:26Z</time>
      </trkpt>
      <trkpt lat="44.87502" lon="6.40536">
        <ele>2103.5</ele>
        <time>2020-07-22T06:56:34Z</time>
      </trkpt>
      <trkpt lat="44.87502" lon="6.40533">
        <ele>2103.02</ele>
        <time>2020-07-22T06:56:36Z</time>
      </trkpt>
      <trkpt lat="44.8749" lon="6.40512">
        <ele>2099.66</ele>
        <time>2020-07-22T06:56:51Z</time>
      </trkpt>
      <trkpt lat="44.87488" lon="6.40511">
        <ele>2099.66</ele>
        <time>2020-07-22T06:56:52Z</time>
      </trkpt>
      <trkpt lat="44.87474" lon="6.40485">
        <ele>2094.85</ele>
        <time>2020-07-22T06:57:11Z</time>
      </trkpt>
      <trkpt lat="44.87469" lon="6.40479">
        <ele>2093.41</ele>
        <time>2020-07-22T06:57:18Z</time>
      </trkpt>
      <trkpt lat="44.87454" lon="6.40464">
        <ele>2090.04</ele>
        <time>2020-07-22T06:57:32Z</time>
      </trkpt>
      <trkpt lat="44.8745" lon="6.40459">
        <ele>2087.16</ele>
        <time>2020-07-22T06:57:44Z</time>
      </trkpt>
      <trkpt lat="44.87458" lon="6.40475">
        <ele>2083.31</ele>
        <time>2020-07-22T06:57:55Z</time>
      </trkpt>
      <trkpt lat="44.87459" lon="6.40476">
        <ele>2083.31</ele>
        <time>2020-07-22T06:57:56Z</time>
      </trkpt>
      <trkpt lat="44.87458" lon="6.40486">
        <ele>2081.39</ele>
        <time>2020-07-22T06:58:02Z</time>
      </trkpt>
      <trkpt lat="44.8746" lon="6.40504">
        <ele>2078.03</ele>
        <time>2020-07-22T06:58:17Z</time>
      </trkpt>
      <trkpt lat="44.87457" lon="6.40519">
        <ele>2074.18</ele>
        <time>2020-07-22T06:58:30Z</time>
      </trkpt>
      <trkpt lat="44.87456" lon="6.40532">
        <ele>2071.3</ele>
        <time>2020-07-22T06:58:38Z</time>
      </trkpt>
      <trkpt lat="44.87453" lon="6.40551">
        <ele>2067.45</ele>
        <time>2020-07-22T06:58:51Z</time>
      </trkpt>
      <trkpt lat="44.87452" lon="6.40557">
        <ele>2066.49</ele>
        <time>2020-07-22T06:58:55Z</time>
      </trkpt>
      <trkpt lat="44.87451" lon="6.40579">
        <ele>2063.13</ele>
        <time>2020-07-22T06:59:07Z</time>
      </trkpt>
      <trkpt lat="44.87449" lon="6.40602">
        <ele>2059.76</ele>
        <time>2020-07-22T06:59:19Z</time>
      </trkpt>
      <trkpt lat="44.8745" lon="6.40618">
        <ele>2057.84</ele>
        <time>2020-07-22T06:59:26Z</time>
      </trkpt>
      <trkpt lat="44.87454" lon="6.40635">
        <ele>2056.4</ele>
        <time>2020-07-22T06:59:35Z</time>
      </trkpt>
      <trkpt lat="44.87453" lon="6.40649">
        <ele>2056.4</ele>
        <time>2020-07-22T06:59:47Z</time>
      </trkpt>
      <trkpt lat="44.8745" lon="6.4066">
        <ele>2053.51</ele>
        <time>2020-07-22T06:59:55Z</time>
      </trkpt>
      <trkpt lat="44.87449" lon="6.40672">
        <ele>2052.07</ele>
        <time>2020-07-22T07:00:02Z</time>
      </trkpt>
      <trkpt lat="44.87444" lon="6.40684">
        <ele>2048.23</ele>
        <time>2020-07-22T07:00:13Z</time>
      </trkpt>
      <trkpt lat="44.87443" lon="6.40685">
        <ele>2048.23</ele>
        <time>2020-07-22T07:00:14Z</time>
      </trkpt>
      <trkpt lat="44.8744" lon="6.40701">
        <ele>2044.86</ele>
        <time>2020-07-22T07:00:26Z</time>
      </trkpt>
      <trkpt lat="44.87437" lon="6.40713">
        <ele>2041.98</ele>
        <time>2020-07-22T07:00:36Z</time>
      </trkpt>
      <trkpt lat="44.87435" lon="6.40712">
        <ele>2041.5</ele>
        <time>2020-07-22T07:00:38Z</time>
      </trkpt>
      <trkpt lat="44.87428" lon="6.40703">
        <ele>2039.09</ele>
        <time>2020-07-22T07:00:47Z</time>
      </trkpt>
      <trkpt lat="44.87426" lon="6.40714">
        <ele>2037.17</ele>
        <time>2020-07-22T07:00:54Z</time>
      </trkpt>
      <trkpt lat="44.87428" lon="6.40724">
        <ele>2036.69</ele>
        <time>2020-07-22T07:00:58Z</time>
      </trkpt>
      <trkpt lat="44.87432" lon="6.40736">
        <ele>2034.29</ele>
        <time>2020-07-22T07:01:06Z</time>
      </trkpt>
      <trkpt lat="44.87433" lon="6.40744">
        <ele>2033.33</ele>
        <time>2020-07-22T07:01:12Z</time>
      </trkpt>
      <trkpt lat="44.87435" lon="6.40749">
        <ele>2031.88</ele>
        <time>2020-07-22T07:01:15Z</time>
      </trkpt>
      <trkpt lat="44.87446" lon="6.40772">
        <ele>2028.52</ele>
        <time>2020-07-22T07:01:33Z</time>
      </trkpt>
      <trkpt lat="44.87452" lon="6.40775">
        <ele>2027.56</ele>
        <time>2020-07-22T07:01:40Z</time>
      </trkpt>
      <trkpt lat="44.87467" lon="6.4077">
        <ele>2028.04</ele>
        <time>2020-07-22T07:02:00Z</time>
      </trkpt>
      <trkpt lat="44.87473" lon="6.40784">
        <ele>2029</ele>
        <time>2020-07-22T07:02:19Z</time>
      </trkpt>
      <trkpt lat="44.87473" lon="6.40787">
        <ele>2028.04</ele>
        <time>2020-07-22T07:02:22Z</time>
      </trkpt>
      <trkpt lat="44.87469" lon="6.408">
        <ele>2025.15</ele>
        <time>2020-07-22T07:02:33Z</time>
      </trkpt>
      <trkpt lat="44.87461" lon="6.40814">
        <ele>2022.27</ele>
        <time>2020-07-22T07:02:52Z</time>
      </trkpt>
      <trkpt lat="44.87461" lon="6.40807">
        <ele>2021.79</ele>
        <time>2020-07-22T07:03:29Z</time>
      </trkpt>
      <trkpt lat="44.87473" lon="6.40818">
        <ele>2021.79</ele>
        <time>2020-07-22T07:04:02Z</time>
      </trkpt>
      <trkpt lat="44.87471" lon="6.40819">
        <ele>2021.79</ele>
        <time>2020-07-22T07:04:28Z</time>
      </trkpt>
      <trkpt lat="44.87476" lon="6.40814">
        <ele>2022.75</ele>
        <time>2020-07-22T07:04:44Z</time>
      </trkpt>
      <trkpt lat="44.87479" lon="6.40811">
        <ele>2023.71</ele>
        <time>2020-07-22T07:04:48Z</time>
      </trkpt>
      <trkpt lat="44.87484" lon="6.40798">
        <ele>2027.08</ele>
        <time>2020-07-22T07:05:00Z</time>
      </trkpt>
      <trkpt lat="44.87476" lon="6.40777">
        <ele>2028.52</ele>
        <time>2020-07-22T07:05:17Z</time>
      </trkpt>
      <trkpt lat="44.87471" lon="6.40778">
        <ele>2027.08</ele>
        <time>2020-07-22T07:05:23Z</time>
      </trkpt>
      <trkpt lat="44.8747" lon="6.40778">
        <ele>2027.08</ele>
        <time>2020-07-22T07:05:24Z</time>
      </trkpt>
      <trkpt lat="44.87459" lon="6.40783">
        <ele>2026.6</ele>
        <time>2020-07-22T07:05:34Z</time>
      </trkpt>
      <trkpt lat="44.87449" lon="6.40781">
        <ele>2027.08</ele>
        <time>2020-07-22T07:05:42Z</time>
      </trkpt>
      <trkpt lat="44.87447" lon="6.40778">
        <ele>2027.56</ele>
        <time>2020-07-22T07:05:45Z</time>
      </trkpt>
      <trkpt lat="44.87438" lon="6.40753">
        <ele>2030.92</ele>
        <time>2020-07-22T07:06:02Z</time>
      </trkpt>
      <trkpt lat="44.87436" lon="6.40747">
        <ele>2031.4</ele>
        <time>2020-07-22T07:06:06Z</time>
      </trkpt>
      <trkpt lat="44.87437" lon="6.40742">
        <ele>2031.88</ele>
        <time>2020-07-22T07:06:09Z</time>
      </trkpt>
      <trkpt lat="44.87436" lon="6.40736">
        <ele>2032.84</ele>
        <time>2020-07-22T07:06:13Z</time>
      </trkpt>
      <trkpt lat="44.87431" lon="6.40726">
        <ele>2034.77</ele>
        <time>2020-07-22T07:06:20Z</time>
      </trkpt>
      <trkpt lat="44.87433" lon="6.40719">
        <ele>2035.25</ele>
        <time>2020-07-22T07:06:48Z</time>
      </trkpt>
      <trkpt lat="44.87435" lon="6.40727">
        <ele>2035.25</ele>
        <time>2020-07-22T07:07:11Z</time>
      </trkpt>
      <trkpt lat="44.87437" lon="6.40733">
        <ele>2033.81</ele>
        <time>2020-07-22T07:07:16Z</time>
      </trkpt>
      <trkpt lat="44.87439" lon="6.40753">
        <ele>2030.44</ele>
        <time>2020-07-22T07:07:29Z</time>
      </trkpt>
      <trkpt lat="44.87444" lon="6.40765">
        <ele>2029</ele>
        <time>2020-07-22T07:07:39Z</time>
      </trkpt>
      <trkpt lat="44.87454" lon="6.40782">
        <ele>2026.6</ele>
        <time>2020-07-22T07:07:52Z</time>
      </trkpt>
      <trkpt lat="44.87471" lon="6.40775">
        <ele>2027.56</ele>
        <time>2020-07-22T07:08:10Z</time>
      </trkpt>
      <trkpt lat="44.87477" lon="6.40776">
        <ele>2027.56</ele>
        <time>2020-07-22T07:08:17Z</time>
      </trkpt>
      <trkpt lat="44.87479" lon="6.40782">
        <ele>2028.04</ele>
        <time>2020-07-22T07:08:21Z</time>
      </trkpt>
      <trkpt lat="44.87478" lon="6.4079">
        <ele>2028.04</ele>
        <time>2020-07-22T07:08:26Z</time>
      </trkpt>
      <trkpt lat="44.87478" lon="6.40798">
        <ele>2026.6</ele>
        <time>2020-07-22T07:08:30Z</time>
      </trkpt>
      <trkpt lat="44.87473" lon="6.40809">
        <ele>2023.23</ele>
        <time>2020-07-22T07:08:41Z</time>
      </trkpt>
      <trkpt lat="44.87469" lon="6.40822">
        <ele>2020.35</ele>
        <time>2020-07-22T07:08:55Z</time>
      </trkpt>
      <trkpt lat="44.87467" lon="6.40828">
        <ele>2019.39</ele>
        <time>2020-07-22T07:09:00Z</time>
      </trkpt>
      <trkpt lat="44.87466" lon="6.40838">
        <ele>2017.46</ele>
        <time>2020-07-22T07:09:06Z</time>
      </trkpt>
      <trkpt lat="44.87461" lon="6.40862">
        <ele>2014.1</ele>
        <time>2020-07-22T07:09:19Z</time>
      </trkpt>
      <trkpt lat="44.87458" lon="6.40881">
        <ele>2010.25</ele>
        <time>2020-07-22T07:09:32Z</time>
      </trkpt>
      <trkpt lat="44.87459" lon="6.40893">
        <ele>2007.85</ele>
        <time>2020-07-22T07:09:39Z</time>
      </trkpt>
      <trkpt lat="44.87468" lon="6.40914">
        <ele>2004.49</ele>
        <time>2020-07-22T07:09:53Z</time>
      </trkpt>
      <trkpt lat="44.87473" lon="6.40921">
        <ele>2004.01</ele>
        <time>2020-07-22T07:10:01Z</time>
      </trkpt>
      <trkpt lat="44.87471" lon="6.40932">
        <ele>2002.56</ele>
        <time>2020-07-22T07:10:07Z</time>
      </trkpt>
      <trkpt lat="44.87471" lon="6.40939">
        <ele>2001.12</ele>
        <time>2020-07-22T07:10:13Z</time>
      </trkpt>
      <trkpt lat="44.87478" lon="6.40953">
        <ele>1999.2</ele>
        <time>2020-07-22T07:10:24Z</time>
      </trkpt>
      <trkpt lat="44.87476" lon="6.40967">
        <ele>1996.8</ele>
        <time>2020-07-22T07:10:33Z</time>
      </trkpt>
      <trkpt lat="44.87475" lon="6.40972">
        <ele>1995.35</ele>
        <time>2020-07-22T07:10:36Z</time>
      </trkpt>
      <trkpt lat="44.87474" lon="6.40995">
        <ele>1991.51</ele>
        <time>2020-07-22T07:10:48Z</time>
      </trkpt>
      <trkpt lat="44.87474" lon="6.4103">
        <ele>1988.14</ele>
        <time>2020-07-22T07:11:05Z</time>
      </trkpt>
      <trkpt lat="44.87474" lon="6.41049">
        <ele>1984.3</ele>
        <time>2020-07-22T07:11:19Z</time>
      </trkpt>
      <trkpt lat="44.87469" lon="6.41071">
        <ele>1981.41</ele>
        <time>2020-07-22T07:11:33Z</time>
      </trkpt>
      <trkpt lat="44.87466" lon="6.41087">
        <ele>1978.05</ele>
        <time>2020-07-22T07:11:45Z</time>
      </trkpt>
      <trkpt lat="44.87461" lon="6.41107">
        <ele>1974.69</ele>
        <time>2020-07-22T07:11:55Z</time>
      </trkpt>
      <trkpt lat="44.87461" lon="6.4111">
        <ele>1974.2</ele>
        <time>2020-07-22T07:11:57Z</time>
      </trkpt>
      <trkpt lat="44.87461" lon="6.41114">
        <ele>1973.72</ele>
        <time>2020-07-22T07:11:59Z</time>
      </trkpt>
      <trkpt lat="44.87457" lon="6.41122">
        <ele>1970.36</ele>
        <time>2020-07-22T07:12:13Z</time>
      </trkpt>
      <trkpt lat="44.87449" lon="6.41104">
        <ele>1967.48</ele>
        <time>2020-07-22T07:12:26Z</time>
      </trkpt>
      <trkpt lat="44.87446" lon="6.41085">
        <ele>1964.11</ele>
        <time>2020-07-22T07:12:38Z</time>
      </trkpt>
      <trkpt lat="44.87438" lon="6.41065">
        <ele>1961.23</ele>
        <time>2020-07-22T07:12:51Z</time>
      </trkpt>
      <trkpt lat="44.8743" lon="6.41046">
        <ele>1957.86</ele>
        <time>2020-07-22T07:13:04Z</time>
      </trkpt>
      <trkpt lat="44.87421" lon="6.41028">
        <ele>1954.98</ele>
        <time>2020-07-22T07:13:16Z</time>
      </trkpt>
      <trkpt lat="44.87411" lon="6.41011">
        <ele>1951.61</ele>
        <time>2020-07-22T07:13:31Z</time>
      </trkpt>
      <trkpt lat="44.87401" lon="6.41">
        <ele>1950.65</ele>
        <time>2020-07-22T07:13:42Z</time>
      </trkpt>
      <trkpt lat="44.87398" lon="6.41002">
        <ele>1950.65</ele>
        <time>2020-07-22T07:13:45Z</time>
      </trkpt>
      <trkpt lat="44.87398" lon="6.41017">
        <ele>1946.33</ele>
        <time>2020-07-22T07:13:57Z</time>
      </trkpt>
      <trkpt lat="44.87403" lon="6.41041">
        <ele>1943.92</ele>
        <time>2020-07-22T07:14:14Z</time>
      </trkpt>
      <trkpt lat="44.87404" lon="6.41047">
        <ele>1942.96</ele>
        <time>2020-07-22T07:14:18Z</time>
      </trkpt>
      <trkpt lat="44.87405" lon="6.41057">
        <ele>1942</ele>
        <time>2020-07-22T07:14:23Z</time>
      </trkpt>
      <trkpt lat="44.87406" lon="6.41082">
        <ele>1938.16</ele>
        <time>2020-07-22T07:14:37Z</time>
      </trkpt>
      <trkpt lat="44.87405" lon="6.41087">
        <ele>1937.67</ele>
        <time>2020-07-22T07:14:40Z</time>
      </trkpt>
      <trkpt lat="44.87397" lon="6.4111">
        <ele>1933.83</ele>
        <time>2020-07-22T07:14:56Z</time>
      </trkpt>
      <trkpt lat="44.87395" lon="6.41121">
        <ele>1931.43</ele>
        <time>2020-07-22T07:15:06Z</time>
      </trkpt>
      <trkpt lat="44.87397" lon="6.41131">
        <ele>1929.98</ele>
        <time>2020-07-22T07:15:13Z</time>
      </trkpt>
      <trkpt lat="44.87399" lon="6.41149">
        <ele>1927.1</ele>
        <time>2020-07-22T07:15:24Z</time>
      </trkpt>
      <trkpt lat="44.87398" lon="6.41158">
        <ele>1926.14</ele>
        <time>2020-07-22T07:15:29Z</time>
      </trkpt>
      <trkpt lat="44.87398" lon="6.41162">
        <ele>1925.66</ele>
        <time>2020-07-22T07:15:31Z</time>
      </trkpt>
      <trkpt lat="44.87398" lon="6.41179">
        <ele>1922.29</ele>
        <time>2020-07-22T07:15:43Z</time>
      </trkpt>
      <trkpt lat="44.87389" lon="6.4118">
        <ele>1919.41</ele>
        <time>2020-07-22T07:16:00Z</time>
      </trkpt>
      <trkpt lat="44.87384" lon="6.41174">
        <ele>1918.45</ele>
        <time>2020-07-22T07:16:05Z</time>
      </trkpt>
      <trkpt lat="44.87374" lon="6.41157">
        <ele>1914.12</ele>
        <time>2020-07-22T07:16:20Z</time>
      </trkpt>
      <trkpt lat="44.87357" lon="6.41129">
        <ele>1910.76</ele>
        <time>2020-07-22T07:16:39Z</time>
      </trkpt>
      <trkpt lat="44.87348" lon="6.41105">
        <ele>1908.83</ele>
        <time>2020-07-22T07:16:54Z</time>
      </trkpt>
      <trkpt lat="44.8734" lon="6.41111">
        <ele>1906.91</ele>
        <time>2020-07-22T07:17:03Z</time>
      </trkpt>
      <trkpt lat="44.87337" lon="6.41113">
        <ele>1905.95</ele>
        <time>2020-07-22T07:17:06Z</time>
      </trkpt>
      <trkpt lat="44.87327" lon="6.4112">
        <ele>1902.59</ele>
        <time>2020-07-22T07:17:22Z</time>
      </trkpt>
      <trkpt lat="44.8733" lon="6.41127">
        <ele>1901.14</ele>
        <time>2020-07-22T07:17:27Z</time>
      </trkpt>
      <trkpt lat="44.87335" lon="6.41144">
        <ele>1898.74</ele>
        <time>2020-07-22T07:17:41Z</time>
      </trkpt>
      <trkpt lat="44.87339" lon="6.41149">
        <ele>1894.9</ele>
        <time>2020-07-22T07:17:56Z</time>
      </trkpt>
      <trkpt lat="44.8734" lon="6.4116">
        <ele>1892.97</ele>
        <time>2020-07-22T07:18:07Z</time>
      </trkpt>
      <trkpt lat="44.87344" lon="6.41182">
        <ele>1889.13</ele>
        <time>2020-07-22T07:18:22Z</time>
      </trkpt>
      <trkpt lat="44.87341" lon="6.41182">
        <ele>1888.65</ele>
        <time>2020-07-22T07:18:25Z</time>
      </trkpt>
      <trkpt lat="44.87331" lon="6.41181">
        <ele>1887.69</ele>
        <time>2020-07-22T07:18:32Z</time>
      </trkpt>
      <trkpt lat="44.87327" lon="6.41184">
        <ele>1885.76</ele>
        <time>2020-07-22T07:18:41Z</time>
      </trkpt>
      <trkpt lat="44.87333" lon="6.41198">
        <ele>1883.84</ele>
        <time>2020-07-22T07:18:51Z</time>
      </trkpt>
      <trkpt lat="44.87337" lon="6.41223">
        <ele>1880</ele>
        <time>2020-07-22T07:19:10Z</time>
      </trkpt>
      <trkpt lat="44.87319" lon="6.41213">
        <ele>1877.11</ele>
        <time>2020-07-22T07:19:28Z</time>
      </trkpt>
      <trkpt lat="44.87321" lon="6.4123">
        <ele>1873.75</ele>
        <time>2020-07-22T07:19:44Z</time>
      </trkpt>
      <trkpt lat="44.87317" lon="6.41242">
        <ele>1870.38</ele>
        <time>2020-07-22T07:20:01Z</time>
      </trkpt>
      <trkpt lat="44.87319" lon="6.41258">
        <ele>1867.98</ele>
        <time>2020-07-22T07:20:21Z</time>
      </trkpt>
      <trkpt lat="44.87321" lon="6.41277">
        <ele>1865.58</ele>
        <time>2020-07-22T07:20:37Z</time>
      </trkpt>
      <trkpt lat="44.87326" lon="6.41304">
        <ele>1860.77</ele>
        <time>2020-07-22T07:20:56Z</time>
      </trkpt>
      <trkpt lat="44.87308" lon="6.41294">
        <ele>1858.37</ele>
        <time>2020-07-22T07:21:14Z</time>
      </trkpt>
      <trkpt lat="44.87298" lon="6.41305">
        <ele>1855.48</ele>
        <time>2020-07-22T07:21:31Z</time>
      </trkpt>
      <trkpt lat="44.8731" lon="6.41318">
        <ele>1852.12</ele>
        <time>2020-07-22T07:21:46Z</time>
      </trkpt>
      <trkpt lat="44.87317" lon="6.41342">
        <ele>1848.75</ele>
        <time>2020-07-22T07:22:04Z</time>
      </trkpt>
      <trkpt lat="44.87312" lon="6.41361">
        <ele>1845.39</ele>
        <time>2020-07-22T07:22:19Z</time>
      </trkpt>
      <trkpt lat="44.87308" lon="6.41362">
        <ele>1844.43</ele>
        <time>2020-07-22T07:22:23Z</time>
      </trkpt>
      <trkpt lat="44.87295" lon="6.41364">
        <ele>1842.02</ele>
        <time>2020-07-22T07:22:36Z</time>
      </trkpt>
      <trkpt lat="44.87292" lon="6.41365">
        <ele>1841.06</ele>
        <time>2020-07-22T07:22:38Z</time>
      </trkpt>
      <trkpt lat="44.87292" lon="6.41378">
        <ele>1839.14</ele>
        <time>2020-07-22T07:22:51Z</time>
      </trkpt>
      <trkpt lat="44.87291" lon="6.41387">
        <ele>1836.26</ele>
        <time>2020-07-22T07:23:06Z</time>
      </trkpt>
      <trkpt lat="44.87282" lon="6.41394">
        <ele>1833.37</ele>
        <time>2020-07-22T07:23:16Z</time>
      </trkpt>
      <trkpt lat="44.87284" lon="6.41402">
        <ele>1832.41</ele>
        <time>2020-07-22T07:23:22Z</time>
      </trkpt>
      <trkpt lat="44.87294" lon="6.41418">
        <ele>1829.53</ele>
        <time>2020-07-22T07:23:36Z</time>
      </trkpt>
      <trkpt lat="44.87295" lon="6.4142">
        <ele>1829.53</ele>
        <time>2020-07-22T07:23:38Z</time>
      </trkpt>
      <trkpt lat="44.87304" lon="6.41427">
        <ele>1827.6</ele>
        <time>2020-07-22T07:23:48Z</time>
      </trkpt>
      <trkpt lat="44.87318" lon="6.41429">
        <ele>1824.24</ele>
        <time>2020-07-22T07:24:02Z</time>
      </trkpt>
      <trkpt lat="44.8732" lon="6.41432">
        <ele>1822.8</ele>
        <time>2020-07-22T07:24:06Z</time>
      </trkpt>
      <trkpt lat="44.87315" lon="6.41447">
        <ele>1821.84</ele>
        <time>2020-07-22T07:24:16Z</time>
      </trkpt>
      <trkpt lat="44.87311" lon="6.41475">
        <ele>1818.47</ele>
        <time>2020-07-22T07:24:32Z</time>
      </trkpt>
      <trkpt lat="44.87298" lon="6.41495">
        <ele>1814.63</ele>
        <time>2020-07-22T07:24:50Z</time>
      </trkpt>
      <trkpt lat="44.87296" lon="6.41497">
        <ele>1814.15</ele>
        <time>2020-07-22T07:24:52Z</time>
      </trkpt>
      <trkpt lat="44.87297" lon="6.41523">
        <ele>1811.26</ele>
        <time>2020-07-22T07:25:11Z</time>
      </trkpt>
      <trkpt lat="44.87291" lon="6.41555">
        <ele>1807.9</ele>
        <time>2020-07-22T07:25:30Z</time>
      </trkpt>
      <trkpt lat="44.87285" lon="6.41568">
        <ele>1804.53</ele>
        <time>2020-07-22T07:25:44Z</time>
      </trkpt>
      <trkpt lat="44.87282" lon="6.4158">
        <ele>1801.65</ele>
        <time>2020-07-22T07:25:55Z</time>
      </trkpt>
      <trkpt lat="44.87272" lon="6.41594">
        <ele>1798.28</ele>
        <time>2020-07-22T07:26:09Z</time>
      </trkpt>
      <trkpt lat="44.87265" lon="6.41613">
        <ele>1794.92</ele>
        <time>2020-07-22T07:26:22Z</time>
      </trkpt>
      <trkpt lat="44.87262" lon="6.41638">
        <ele>1791.07</ele>
        <time>2020-07-22T07:26:38Z</time>
      </trkpt>
      <trkpt lat="44.87262" lon="6.41646">
        <ele>1791.07</ele>
        <time>2020-07-22T07:26:41Z</time>
      </trkpt>
      <trkpt lat="44.87266" lon="6.41655">
        <ele>1790.11</ele>
        <time>2020-07-22T07:26:47Z</time>
      </trkpt>
      <trkpt lat="44.87273" lon="6.41669">
        <ele>1786.75</ele>
        <time>2020-07-22T07:27:06Z</time>
      </trkpt>
      <trkpt lat="44.87274" lon="6.4168">
        <ele>1784.82</ele>
        <time>2020-07-22T07:27:14Z</time>
      </trkpt>
      <trkpt lat="44.87278" lon="6.41704">
        <ele>1781.94</ele>
        <time>2020-07-22T07:27:35Z</time>
      </trkpt>
      <trkpt lat="44.87278" lon="6.41708">
        <ele>1781.46</ele>
        <time>2020-07-22T07:27:38Z</time>
      </trkpt>
      <trkpt lat="44.87281" lon="6.4173">
        <ele>1778.1</ele>
        <time>2020-07-22T07:27:55Z</time>
      </trkpt>
      <trkpt lat="44.87281" lon="6.41747">
        <ele>1775.21</ele>
        <time>2020-07-22T07:28:07Z</time>
      </trkpt>
      <trkpt lat="44.87288" lon="6.41768">
        <ele>1771.37</ele>
        <time>2020-07-22T07:28:21Z</time>
      </trkpt>
      <trkpt lat="44.87287" lon="6.41801">
        <ele>1768</ele>
        <time>2020-07-22T07:28:39Z</time>
      </trkpt>
      <trkpt lat="44.87269" lon="6.41815">
        <ele>1765.6</ele>
        <time>2020-07-22T07:28:58Z</time>
      </trkpt>
      <trkpt lat="44.87263" lon="6.41831">
        <ele>1762.23</ele>
        <time>2020-07-22T07:29:12Z</time>
      </trkpt>
      <trkpt lat="44.87266" lon="6.41852">
        <ele>1758.87</ele>
        <time>2020-07-22T07:29:25Z</time>
      </trkpt>
      <trkpt lat="44.87267" lon="6.41861">
        <ele>1757.91</ele>
        <time>2020-07-22T07:29:32Z</time>
      </trkpt>
      <trkpt lat="44.87268" lon="6.41878">
        <ele>1755.02</ele>
        <time>2020-07-22T07:29:44Z</time>
      </trkpt>
      <trkpt lat="44.87268" lon="6.4188">
        <ele>1755.02</ele>
        <time>2020-07-22T07:29:45Z</time>
      </trkpt>
      <trkpt lat="44.87263" lon="6.419">
        <ele>1751.18</ele>
        <time>2020-07-22T07:30:01Z</time>
      </trkpt>
      <trkpt lat="44.87263" lon="6.41915">
        <ele>1748.78</ele>
        <time>2020-07-22T07:30:11Z</time>
      </trkpt>
      <trkpt lat="44.87263" lon="6.41937">
        <ele>1745.89</ele>
        <time>2020-07-22T07:30:23Z</time>
      </trkpt>
      <trkpt lat="44.87268" lon="6.41943">
        <ele>1745.41</ele>
        <time>2020-07-22T07:30:28Z</time>
      </trkpt>
      <trkpt lat="44.87286" lon="6.41965">
        <ele>1742.53</ele>
        <time>2020-07-22T07:30:48Z</time>
      </trkpt>
      <trkpt lat="44.87298" lon="6.41992">
        <ele>1739.64</ele>
        <time>2020-07-22T07:31:09Z</time>
      </trkpt>
      <trkpt lat="44.87308" lon="6.42015">
        <ele>1736.28</ele>
        <time>2020-07-22T07:31:25Z</time>
      </trkpt>
      <trkpt lat="44.87311" lon="6.42025">
        <ele>1735.8</ele>
        <time>2020-07-22T07:31:30Z</time>
      </trkpt>
      <trkpt lat="44.87318" lon="6.42035">
        <ele>1733.88</ele>
        <time>2020-07-22T07:31:36Z</time>
      </trkpt>
      <trkpt lat="44.87321" lon="6.42041">
        <ele>1733.39</ele>
        <time>2020-07-22T07:31:40Z</time>
      </trkpt>
      <trkpt lat="44.87329" lon="6.42063">
        <ele>1730.51</ele>
        <time>2020-07-22T07:31:54Z</time>
      </trkpt>
      <trkpt lat="44.87346" lon="6.42099">
        <ele>1727.63</ele>
        <time>2020-07-22T07:32:16Z</time>
      </trkpt>
      <trkpt lat="44.87358" lon="6.42121">
        <ele>1726.67</ele>
        <time>2020-07-22T07:32:35Z</time>
      </trkpt>
      <trkpt lat="44.87357" lon="6.4214">
        <ele>1725.7</ele>
        <time>2020-07-22T07:32:54Z</time>
      </trkpt>
      <trkpt lat="44.87358" lon="6.42171">
        <ele>1724.74</ele>
        <time>2020-07-22T07:33:13Z</time>
      </trkpt>
      <trkpt lat="44.8736" lon="6.42191">
        <ele>1724.74</ele>
        <time>2020-07-22T07:33:24Z</time>
      </trkpt>
      <trkpt lat="44.8736" lon="6.42203">
        <ele>1724.74</ele>
        <time>2020-07-22T07:33:30Z</time>
      </trkpt>
      <trkpt lat="44.87363" lon="6.42211">
        <ele>1723.78</ele>
        <time>2020-07-22T07:33:35Z</time>
      </trkpt>
      <trkpt lat="44.8737" lon="6.42237">
        <ele>1722.34</ele>
        <time>2020-07-22T07:33:51Z</time>
      </trkpt>
      <trkpt lat="44.87371" lon="6.42252">
        <ele>1719.94</ele>
        <time>2020-07-22T07:34:00Z</time>
      </trkpt>
      <trkpt lat="44.87365" lon="6.42278">
        <ele>1716.57</ele>
        <time>2020-07-22T07:34:18Z</time>
      </trkpt>
      <trkpt lat="44.8737" lon="6.42312">
        <ele>1713.21</ele>
        <time>2020-07-22T07:34:40Z</time>
      </trkpt>
      <trkpt lat="44.87375" lon="6.42338">
        <ele>1710.8</ele>
        <time>2020-07-22T07:34:53Z</time>
      </trkpt>
      <trkpt lat="44.8738" lon="6.42375">
        <ele>1706.96</ele>
        <time>2020-07-22T07:35:13Z</time>
      </trkpt>
      <trkpt lat="44.8738" lon="6.42404">
        <ele>1704.55</ele>
        <time>2020-07-22T07:35:31Z</time>
      </trkpt>
      <trkpt lat="44.87394" lon="6.42412">
        <ele>1701.67</ele>
        <time>2020-07-22T07:35:46Z</time>
      </trkpt>
      <trkpt lat="44.8741" lon="6.42424">
        <ele>1698.31</ele>
        <time>2020-07-22T07:36:04Z</time>
      </trkpt>
      <trkpt lat="44.87419" lon="6.42428">
        <ele>1695.42</ele>
        <time>2020-07-22T07:36:16Z</time>
      </trkpt>
      <trkpt lat="44.87433" lon="6.42441">
        <ele>1692.06</ele>
        <time>2020-07-22T07:36:35Z</time>
      </trkpt>
      <trkpt lat="44.87426" lon="6.42466">
        <ele>1688.69</ele>
        <time>2020-07-22T07:36:51Z</time>
      </trkpt>
      <trkpt lat="44.87428" lon="6.42468">
        <ele>1688.69</ele>
        <time>2020-07-22T07:36:52Z</time>
      </trkpt>
      <trkpt lat="44.87442" lon="6.42483">
        <ele>1685.33</ele>
        <time>2020-07-22T07:37:08Z</time>
      </trkpt>
      <trkpt lat="44.87449" lon="6.42497">
        <ele>1682.93</ele>
        <time>2020-07-22T07:37:18Z</time>
      </trkpt>
      <trkpt lat="44.87455" lon="6.42505">
        <ele>1681.48</ele>
        <time>2020-07-22T07:37:23Z</time>
      </trkpt>
      <trkpt lat="44.87462" lon="6.42526">
        <ele>1679.08</ele>
        <time>2020-07-22T07:37:42Z</time>
      </trkpt>
      <trkpt lat="44.87469" lon="6.4255">
        <ele>1675.72</ele>
        <time>2020-07-22T07:37:56Z</time>
      </trkpt>
      <trkpt lat="44.87478" lon="6.42572">
        <ele>1672.83</ele>
        <time>2020-07-22T07:38:13Z</time>
      </trkpt>
      <trkpt lat="44.87483" lon="6.42592">
        <ele>1668.99</ele>
        <time>2020-07-22T07:38:30Z</time>
      </trkpt>
      <trkpt lat="44.87485" lon="6.42609">
        <ele>1666.1</ele>
        <time>2020-07-22T07:38:45Z</time>
      </trkpt>
      <trkpt lat="44.87502" lon="6.42629">
        <ele>1664.18</ele>
        <time>2020-07-22T07:39:04Z</time>
      </trkpt>
      <trkpt lat="44.87504" lon="6.42655">
        <ele>1660.81</ele>
        <time>2020-07-22T07:39:20Z</time>
      </trkpt>
      <trkpt lat="44.87513" lon="6.42689">
        <ele>1657.45</ele>
        <time>2020-07-22T07:39:34Z</time>
      </trkpt>
      <trkpt lat="44.87519" lon="6.42699">
        <ele>1654.57</ele>
        <time>2020-07-22T07:39:49Z</time>
      </trkpt>
      <trkpt lat="44.87535" lon="6.42718">
        <ele>1651.2</ele>
        <time>2020-07-22T07:40:05Z</time>
      </trkpt>
      <trkpt lat="44.87541" lon="6.42732">
        <ele>1647.36</ele>
        <time>2020-07-22T07:40:21Z</time>
      </trkpt>
      <trkpt lat="44.87547" lon="6.42747">
        <ele>1644.47</ele>
        <time>2020-07-22T07:40:37Z</time>
      </trkpt>
      <trkpt lat="44.87549" lon="6.42754">
        <ele>1641.59</ele>
        <time>2020-07-22T07:40:47Z</time>
      </trkpt>
      <trkpt lat="44.87561" lon="6.42789">
        <ele>1638.22</ele>
        <time>2020-07-22T07:41:04Z</time>
      </trkpt>
      <trkpt lat="44.87575" lon="6.42824">
        <ele>1634.86</ele>
        <time>2020-07-22T07:41:24Z</time>
      </trkpt>
      <trkpt lat="44.87593" lon="6.42855">
        <ele>1631.98</ele>
        <time>2020-07-22T07:41:46Z</time>
      </trkpt>
      <trkpt lat="44.87617" lon="6.42887">
        <ele>1629.57</ele>
        <time>2020-07-22T07:42:10Z</time>
      </trkpt>
      <trkpt lat="44.87642" lon="6.42906">
        <ele>1626.21</ele>
        <time>2020-07-22T07:42:31Z</time>
      </trkpt>
      <trkpt lat="44.87649" lon="6.42909">
        <ele>1625.73</ele>
        <time>2020-07-22T07:42:36Z</time>
      </trkpt>
      <trkpt lat="44.87672" lon="6.42935">
        <ele>1623.32</ele>
        <time>2020-07-22T07:42:58Z</time>
      </trkpt>
      <trkpt lat="44.87695" lon="6.42966">
        <ele>1621.88</ele>
        <time>2020-07-22T07:43:21Z</time>
      </trkpt>
      <trkpt lat="44.87706" lon="6.42976">
        <ele>1620.92</ele>
        <time>2020-07-22T07:43:44Z</time>
      </trkpt>
      <trkpt lat="44.87711" lon="6.43005">
        <ele>1618.04</ele>
        <time>2020-07-22T07:44:04Z</time>
      </trkpt>
      <trkpt lat="44.87702" lon="6.43057">
        <ele>1617.07</ele>
        <time>2020-07-22T07:44:27Z</time>
      </trkpt>
      <trkpt lat="44.8771" lon="6.43102">
        <ele>1616.59</ele>
        <time>2020-07-22T07:44:52Z</time>
      </trkpt>
      <trkpt lat="44.87735" lon="6.4313">
        <ele>1613.71</ele>
        <time>2020-07-22T07:45:19Z</time>
      </trkpt>
      <trkpt lat="44.87751" lon="6.43169">
        <ele>1611.79</ele>
        <time>2020-07-22T07:45:43Z</time>
      </trkpt>
      <trkpt lat="44.87767" lon="6.43207">
        <ele>1609.86</ele>
        <time>2020-07-22T07:46:06Z</time>
      </trkpt>
      <trkpt lat="44.87781" lon="6.43244">
        <ele>1609.38</ele>
        <time>2020-07-22T07:46:31Z</time>
      </trkpt>
      <trkpt lat="44.87795" lon="6.43295">
        <ele>1606.02</ele>
        <time>2020-07-22T07:46:57Z</time>
      </trkpt>
      <trkpt lat="44.87804" lon="6.43339">
        <ele>1603.14</ele>
        <time>2020-07-22T07:47:20Z</time>
      </trkpt>
      <trkpt lat="44.87809" lon="6.43371">
        <ele>1599.77</ele>
        <time>2020-07-22T07:47:36Z</time>
      </trkpt>
      <trkpt lat="44.87818" lon="6.43395">
        <ele>1595.93</ele>
        <time>2020-07-22T07:47:52Z</time>
      </trkpt>
      <trkpt lat="44.87821" lon="6.43418">
        <ele>1595.45</ele>
        <time>2020-07-22T07:48:04Z</time>
      </trkpt>
      <trkpt lat="44.87823" lon="6.43446">
        <ele>1593.52</ele>
        <time>2020-07-22T07:48:26Z</time>
      </trkpt>
      <trkpt lat="44.87828" lon="6.43461">
        <ele>1590.16</ele>
        <time>2020-07-22T07:48:48Z</time>
      </trkpt>
      <trkpt lat="44.87829" lon="6.43464">
        <ele>1590.16</ele>
        <time>2020-07-22T07:48:50Z</time>
      </trkpt>
      <trkpt lat="44.87837" lon="6.43483">
        <ele>1589.68</ele>
        <time>2020-07-22T07:49:03Z</time>
      </trkpt>
      <trkpt lat="44.87856" lon="6.4351">
        <ele>1588.72</ele>
        <time>2020-07-22T07:49:27Z</time>
      </trkpt>
      <trkpt lat="44.87866" lon="6.43531">
        <ele>1585.83</ele>
        <time>2020-07-22T07:49:50Z</time>
      </trkpt>
      <trkpt lat="44.87867" lon="6.43548">
        <ele>1582.95</ele>
        <time>2020-07-22T07:50:00Z</time>
      </trkpt>
      <trkpt lat="44.87862" lon="6.43569">
        <ele>1579.58</ele>
        <time>2020-07-22T07:50:13Z</time>
      </trkpt>
      <trkpt lat="44.87876" lon="6.43602">
        <ele>1577.66</ele>
        <time>2020-07-22T07:50:35Z</time>
      </trkpt>
      <trkpt lat="44.8788" lon="6.43622">
        <ele>1576.22</ele>
        <time>2020-07-22T07:50:48Z</time>
      </trkpt>
      <trkpt lat="44.87895" lon="6.43651">
        <ele>1575.74</ele>
        <time>2020-07-22T07:51:05Z</time>
      </trkpt>
      <trkpt lat="44.87911" lon="6.43675">
        <ele>1574.78</ele>
        <time>2020-07-22T07:51:25Z</time>
      </trkpt>
      <trkpt lat="44.87925" lon="6.43713">
        <ele>1572.85</ele>
        <time>2020-07-22T07:51:48Z</time>
      </trkpt>
      <trkpt lat="44.87944" lon="6.43744">
        <ele>1570.45</ele>
        <time>2020-07-22T07:52:12Z</time>
      </trkpt>
      <trkpt lat="44.87963" lon="6.43778">
        <ele>1567.09</ele>
        <time>2020-07-22T07:52:33Z</time>
      </trkpt>
      <trkpt lat="44.87977" lon="6.43791">
        <ele>1566.61</ele>
        <time>2020-07-22T07:52:43Z</time>
      </trkpt>
      <trkpt lat="44.87979" lon="6.43795">
        <ele>1566.61</ele>
        <time>2020-07-22T07:52:45Z</time>
      </trkpt>
      <trkpt lat="44.87995" lon="6.43827">
        <ele>1566.12</ele>
        <time>2020-07-22T07:53:08Z</time>
      </trkpt>
      <trkpt lat="44.88002" lon="6.43833">
        <ele>1566.12</ele>
        <time>2020-07-22T07:53:15Z</time>
      </trkpt>
      <trkpt lat="44.88004" lon="6.43842">
        <ele>1566.12</ele>
        <time>2020-07-22T07:53:21Z</time>
      </trkpt>
      <trkpt lat="44.88018" lon="6.43871">
        <ele>1564.68</ele>
        <time>2020-07-22T07:53:42Z</time>
      </trkpt>
      <trkpt lat="44.88037" lon="6.43898">
        <ele>1563.72</ele>
        <time>2020-07-22T07:54:03Z</time>
      </trkpt>
      <trkpt lat="44.88052" lon="6.43941">
        <ele>1560.84</ele>
        <time>2020-07-22T07:54:27Z</time>
      </trkpt>
      <trkpt lat="44.88053" lon="6.43944">
        <ele>1560.36</ele>
        <time>2020-07-22T07:54:29Z</time>
      </trkpt>
      <trkpt lat="44.88056" lon="6.43949">
        <ele>1559.4</ele>
        <time>2020-07-22T07:54:31Z</time>
      </trkpt>
      <trkpt lat="44.88077" lon="6.43974">
        <ele>1556.51</ele>
        <time>2020-07-22T07:54:49Z</time>
      </trkpt>
      <trkpt lat="44.88097" lon="6.44005">
        <ele>1553.63</ele>
        <time>2020-07-22T07:55:12Z</time>
      </trkpt>
      <trkpt lat="44.88105" lon="6.44021">
        <ele>1553.15</ele>
        <time>2020-07-22T07:55:22Z</time>
      </trkpt>
      <trkpt lat="44.88111" lon="6.44029">
        <ele>1553.15</ele>
        <time>2020-07-22T07:55:30Z</time>
      </trkpt>
      <trkpt lat="44.88127" lon="6.44067">
        <ele>1551.71</ele>
        <time>2020-07-22T07:55:54Z</time>
      </trkpt>
      <trkpt lat="44.88148" lon="6.44099">
        <ele>1550.74</ele>
        <time>2020-07-22T07:56:19Z</time>
      </trkpt>
      <trkpt lat="44.8817" lon="6.44111">
        <ele>1549.78</ele>
        <time>2020-07-22T07:56:42Z</time>
      </trkpt>
      <trkpt lat="44.88198" lon="6.44122">
        <ele>1549.78</ele>
        <time>2020-07-22T07:57:04Z</time>
      </trkpt>
      <trkpt lat="44.88227" lon="6.44143">
        <ele>1548.34</ele>
        <time>2020-07-22T07:57:27Z</time>
      </trkpt>
      <trkpt lat="44.88251" lon="6.44169">
        <ele>1544.98</ele>
        <time>2020-07-22T07:57:45Z</time>
      </trkpt>
      <trkpt lat="44.88273" lon="6.44185">
        <ele>1541.61</ele>
        <time>2020-07-22T07:58:03Z</time>
      </trkpt>
      <trkpt lat="44.88304" lon="6.44207">
        <ele>1538.73</ele>
        <time>2020-07-22T07:58:24Z</time>
      </trkpt>
      <trkpt lat="44.88325" lon="6.44217">
        <ele>1535.36</ele>
        <time>2020-07-22T07:58:42Z</time>
      </trkpt>
      <trkpt lat="44.88333" lon="6.44224">
        <ele>1534.4</ele>
        <time>2020-07-22T07:58:48Z</time>
      </trkpt>
      <trkpt lat="44.88336" lon="6.44227">
        <ele>1532.96</ele>
        <time>2020-07-22T07:58:50Z</time>
      </trkpt>
      <trkpt lat="44.88336" lon="6.44241">
        <ele>1530.56</ele>
        <time>2020-07-22T07:59:10Z</time>
      </trkpt>
      <trkpt lat="44.88342" lon="6.44241">
        <ele>1531.04</ele>
        <time>2020-07-22T07:59:47Z</time>
      </trkpt>
      <trkpt lat="44.8834" lon="6.44239">
        <ele>1531.04</ele>
        <time>2020-07-22T08:00:28Z</time>
      </trkpt>
      <trkpt lat="44.88346" lon="6.44238">
        <ele>1530.56</ele>
        <time>2020-07-22T08:01:02Z</time>
      </trkpt>
      <trkpt lat="44.88343" lon="6.44243">
        <ele>1530.56</ele>
        <time>2020-07-22T08:01:29Z</time>
      </trkpt>
      <trkpt lat="44.88343" lon="6.44235">
        <ele>1530.56</ele>
        <time>2020-07-22T08:01:59Z</time>
      </trkpt>
      <trkpt lat="44.88333" lon="6.44239">
        <ele>1530.56</ele>
        <time>2020-07-22T08:02:26Z</time>
      </trkpt>
      <trkpt lat="44.88349" lon="6.44244">
        <ele>1531.04</ele>
        <time>2020-07-22T08:03:04Z</time>
      </trkpt>
      <trkpt lat="44.88346" lon="6.44246">
        <ele>1531.52</ele>
        <time>2020-07-22T08:03:50Z</time>
      </trkpt>
      <trkpt lat="44.8835" lon="6.44242">
        <ele>1531.52</ele>
        <time>2020-07-22T08:04:25Z</time>
      </trkpt>
      <trkpt lat="44.88341" lon="6.44242">
        <ele>1531.52</ele>
        <time>2020-07-22T08:05:04Z</time>
      </trkpt>
      <trkpt lat="44.88343" lon="6.44234">
        <ele>1532.96</ele>
        <time>2020-07-22T08:05:46Z</time>
      </trkpt>
      <trkpt lat="44.8834" lon="6.44236">
        <ele>1531.52</ele>
        <time>2020-07-22T08:05:53Z</time>
      </trkpt>
      <trkpt lat="44.88352" lon="6.4424">
        <ele>1532.48</ele>
        <time>2020-07-22T08:06:14Z</time>
      </trkpt>
      <trkpt lat="44.88351" lon="6.44239">
        <ele>1532.48</ele>
        <time>2020-07-22T08:06:45Z</time>
      </trkpt>
      <trkpt lat="44.88355" lon="6.44242">
        <ele>1532.48</ele>
        <time>2020-07-22T08:07:19Z</time>
      </trkpt>
      <trkpt lat="44.88334" lon="6.4425">
        <ele>1532.48</ele>
        <time>2020-07-22T08:08:03Z</time>
      </trkpt>
      <trkpt lat="44.88334" lon="6.4425">
        <ele>1532.48</ele>
        <time>2020-07-22T08:08:41Z</time>
      </trkpt>
      <trkpt lat="44.88336" lon="6.44244">
        <ele>1532.96</ele>
        <time>2020-07-22T08:09:10Z</time>
      </trkpt>
      <trkpt lat="44.88333" lon="6.44239">
        <ele>1532.48</ele>
        <time>2020-07-22T08:09:50Z</time>
      </trkpt>
      <trkpt lat="44.88335" lon="6.44241">
        <ele>1532.48</ele>
        <time>2020-07-22T08:10:40Z</time>
      </trkpt>
      <trkpt lat="44.88341" lon="6.44235">
        <ele>1532</ele>
        <time>2020-07-22T08:11:24Z</time>
      </trkpt>
      <trkpt lat="44.88339" lon="6.44238">
        <ele>1531.52</ele>
        <time>2020-07-22T08:12:09Z</time>
      </trkpt>
      <trkpt lat="44.88338" lon="6.4423">
        <ele>1531.52</ele>
        <time>2020-07-22T08:12:52Z</time>
      </trkpt>
      <trkpt lat="44.88339" lon="6.44235">
        <ele>1530.56</ele>
        <time>2020-07-22T08:13:47Z</time>
      </trkpt>
      <trkpt lat="44.88334" lon="6.44237">
        <ele>1530.08</ele>
        <time>2020-07-22T08:14:38Z</time>
      </trkpt>
      <trkpt lat="44.8834" lon="6.44237">
        <ele>1529.11</ele>
        <time>2020-07-22T08:15:28Z</time>
      </trkpt>
      <trkpt lat="44.88345" lon="6.44228">
        <ele>1529.11</ele>
        <time>2020-07-22T08:16:21Z</time>
      </trkpt>
      <trkpt lat="44.88354" lon="6.44216">
        <ele>1528.63</ele>
        <time>2020-07-22T08:17:13Z</time>
      </trkpt>
      <trkpt lat="44.88346" lon="6.44218">
        <ele>1527.67</ele>
        <time>2020-07-22T08:18:09Z</time>
      </trkpt>
      <trkpt lat="44.88347" lon="6.44217">
        <ele>1527.67</ele>
        <time>2020-07-22T08:19:04Z</time>
      </trkpt>
      <trkpt lat="44.88349" lon="6.44221">
        <ele>1527.19</ele>
        <time>2020-07-22T08:20:02Z</time>
      </trkpt>
      <trkpt lat="44.88345" lon="6.44224">
        <ele>1526.71</ele>
        <time>2020-07-22T08:20:55Z</time>
      </trkpt>
      <trkpt lat="44.88348" lon="6.44216">
        <ele>1526.71</ele>
        <time>2020-07-22T08:21:44Z</time>
      </trkpt>
      <trkpt lat="44.88345" lon="6.44223">
        <ele>1526.23</ele>
        <time>2020-07-22T08:22:50Z</time>
      </trkpt>
      <trkpt lat="44.88353" lon="6.44211">
        <ele>1525.75</ele>
        <time>2020-07-22T08:23:55Z</time>
      </trkpt>
      <trkpt lat="44.88348" lon="6.44239">
        <ele>1526.71</ele>
        <time>2020-07-22T08:24:17Z</time>
      </trkpt>
      <trkpt lat="44.88352" lon="6.4427">
        <ele>1523.83</ele>
        <time>2020-07-22T08:24:38Z</time>
      </trkpt>
      <trkpt lat="44.88356" lon="6.443">
        <ele>1520.94</ele>
        <time>2020-07-22T08:24:59Z</time>
      </trkpt>
      <trkpt lat="44.88348" lon="6.44331">
        <ele>1519.02</ele>
        <time>2020-07-22T08:25:24Z</time>
      </trkpt>
      <trkpt lat="44.88365" lon="6.44362">
        <ele>1517.1</ele>
        <time>2020-07-22T08:25:47Z</time>
      </trkpt>
      <trkpt lat="44.88378" lon="6.44376">
        <ele>1516.14</ele>
        <time>2020-07-22T08:26:00Z</time>
      </trkpt>
      <trkpt lat="44.88386" lon="6.44384">
        <ele>1515.18</ele>
        <time>2020-07-22T08:26:07Z</time>
      </trkpt>
      <trkpt lat="44.8839" lon="6.44387">
        <ele>1515.18</ele>
        <time>2020-07-22T08:26:10Z</time>
      </trkpt>
      <trkpt lat="44.88413" lon="6.44414">
        <ele>1512.77</ele>
        <time>2020-07-22T08:26:37Z</time>
      </trkpt>
      <trkpt lat="44.88428" lon="6.44449">
        <ele>1510.85</ele>
        <time>2020-07-22T08:26:59Z</time>
      </trkpt>
      <trkpt lat="44.88437" lon="6.44479">
        <ele>1509.41</ele>
        <time>2020-07-22T08:27:19Z</time>
      </trkpt>
      <trkpt lat="44.88449" lon="6.44519">
        <ele>1507.48</ele>
        <time>2020-07-22T08:27:43Z</time>
      </trkpt>
      <trkpt lat="44.88451" lon="6.44548">
        <ele>1506.52</ele>
        <time>2020-07-22T08:28:03Z</time>
      </trkpt>
      <trkpt lat="44.88439" lon="6.44578">
        <ele>1505.08</ele>
        <time>2020-07-22T08:28:26Z</time>
      </trkpt>
    </trkseg>
  </trk>
  <trk>
    <name><![CDATA[Ecrins J1 23.07.20]]></name>
    <trkseg>
      <trkpt lat="44.9169" lon="6.41546">
        <ele>1943.44</ele>
        <time>2020-07-23T06:35:00Z</time>
      </trkpt>
      <trkpt lat="44.9169" lon="6.41546">
        <ele>1943.44</ele>
        <time>2020-07-23T06:35:01Z</time>
      </trkpt>
      <trkpt lat="44.9169" lon="6.41546">
        <ele>1879.03</ele>
        <time>2020-07-23T06:35:04Z</time>
      </trkpt>
      <trkpt lat="44.9169" lon="6.41546">
        <ele>1879.03</ele>
        <time>2020-07-23T06:35:05Z</time>
      </trkpt>
      <trkpt lat="44.91705" lon="6.41538">
        <ele>1879.03</ele>
        <time>2020-07-23T06:40:33Z</time>
      </trkpt>
      <trkpt lat="44.91808" lon="6.41577">
        <ele>1881.44</ele>
        <time>2020-07-23T06:42:20Z</time>
      </trkpt>
      <trkpt lat="44.91897" lon="6.41474">
        <ele>1888.17</ele>
        <time>2020-07-23T06:44:02Z</time>
      </trkpt>
      <trkpt lat="44.91931" lon="6.41422">
        <ele>1891.53</ele>
        <time>2020-07-23T06:44:45Z</time>
      </trkpt>
      <trkpt lat="44.91969" lon="6.41368">
        <ele>1894.42</ele>
        <time>2020-07-23T06:46:10Z</time>
      </trkpt>
      <trkpt lat="44.92007" lon="6.41308">
        <ele>1899.22</ele>
        <time>2020-07-23T06:47:05Z</time>
      </trkpt>
      <trkpt lat="44.92008" lon="6.41306">
        <ele>1899.22</ele>
        <time>2020-07-23T06:47:07Z</time>
      </trkpt>
      <trkpt lat="44.92053" lon="6.41236">
        <ele>1904.03</ele>
        <time>2020-07-23T06:48:06Z</time>
      </trkpt>
      <trkpt lat="44.92102" lon="6.41163">
        <ele>1908.83</ele>
        <time>2020-07-23T06:49:12Z</time>
      </trkpt>
      <trkpt lat="44.92138" lon="6.411">
        <ele>1912.2</ele>
        <time>2020-07-23T06:50:03Z</time>
      </trkpt>
      <trkpt lat="44.92141" lon="6.41099">
        <ele>1912.2</ele>
        <time>2020-07-23T06:50:06Z</time>
      </trkpt>
      <trkpt lat="44.92194" lon="6.41071">
        <ele>1916.04</ele>
        <time>2020-07-23T06:50:59Z</time>
      </trkpt>
      <trkpt lat="44.92232" lon="6.41022">
        <ele>1922.29</ele>
        <time>2020-07-23T06:52:06Z</time>
      </trkpt>
      <trkpt lat="44.92235" lon="6.40964">
        <ele>1927.1</ele>
        <time>2020-07-23T06:53:01Z</time>
      </trkpt>
      <trkpt lat="44.9223" lon="6.40941">
        <ele>1930.46</ele>
        <time>2020-07-23T06:53:22Z</time>
      </trkpt>
      <trkpt lat="44.92231" lon="6.40936">
        <ele>1930.46</ele>
        <time>2020-07-23T06:53:26Z</time>
      </trkpt>
      <trkpt lat="44.92245" lon="6.40907">
        <ele>1935.75</ele>
        <time>2020-07-23T06:53:56Z</time>
      </trkpt>
      <trkpt lat="44.92251" lon="6.40875">
        <ele>1941.04</ele>
        <time>2020-07-23T06:54:28Z</time>
      </trkpt>
      <trkpt lat="44.92245" lon="6.40852">
        <ele>1945.36</ele>
        <time>2020-07-23T06:54:49Z</time>
      </trkpt>
      <trkpt lat="44.92231" lon="6.40824">
        <ele>1950.17</ele>
        <time>2020-07-23T06:55:23Z</time>
      </trkpt>
      <trkpt lat="44.92228" lon="6.40799">
        <ele>1955.94</ele>
        <time>2020-07-23T06:55:54Z</time>
      </trkpt>
      <trkpt lat="44.92227" lon="6.40783">
        <ele>1959.3</ele>
        <time>2020-07-23T06:56:08Z</time>
      </trkpt>
      <trkpt lat="44.92226" lon="6.4078">
        <ele>1959.3</ele>
        <time>2020-07-23T06:56:11Z</time>
      </trkpt>
      <trkpt lat="44.92224" lon="6.40756">
        <ele>1963.15</ele>
        <time>2020-07-23T06:56:31Z</time>
      </trkpt>
      <trkpt lat="44.92229" lon="6.40725">
        <ele>1968.44</ele>
        <time>2020-07-23T06:57:03Z</time>
      </trkpt>
      <trkpt lat="44.92239" lon="6.40713">
        <ele>1973.72</ele>
        <time>2020-07-23T06:57:30Z</time>
      </trkpt>
      <trkpt lat="44.9224" lon="6.40687">
        <ele>1978.05</ele>
        <time>2020-07-23T06:58:00Z</time>
      </trkpt>
      <trkpt lat="44.92256" lon="6.40704">
        <ele>1981.41</ele>
        <time>2020-07-23T06:58:21Z</time>
      </trkpt>
      <trkpt lat="44.92283" lon="6.40737">
        <ele>1989.1</ele>
        <time>2020-07-23T06:59:07Z</time>
      </trkpt>
      <trkpt lat="44.92307" lon="6.40775">
        <ele>1995.83</ele>
        <time>2020-07-23T06:59:52Z</time>
      </trkpt>
      <trkpt lat="44.92308" lon="6.40777">
        <ele>1995.83</ele>
        <time>2020-07-23T06:59:54Z</time>
      </trkpt>
      <trkpt lat="44.92318" lon="6.408">
        <ele>1999.2</ele>
        <time>2020-07-23T07:00:14Z</time>
      </trkpt>
      <trkpt lat="44.92344" lon="6.40846">
        <ele>2006.41</ele>
        <time>2020-07-23T07:01:01Z</time>
      </trkpt>
      <trkpt lat="44.92352" lon="6.40843">
        <ele>2011.7</ele>
        <time>2020-07-23T07:01:31Z</time>
      </trkpt>
      <trkpt lat="44.92348" lon="6.40822">
        <ele>2015.06</ele>
        <time>2020-07-23T07:01:51Z</time>
      </trkpt>
      <trkpt lat="44.92347" lon="6.40795">
        <ele>2018.91</ele>
        <time>2020-07-23T07:02:15Z</time>
      </trkpt>
      <trkpt lat="44.92347" lon="6.4076">
        <ele>2023.71</ele>
        <time>2020-07-23T07:02:47Z</time>
      </trkpt>
      <trkpt lat="44.92348" lon="6.40724">
        <ele>2029</ele>
        <time>2020-07-23T07:03:21Z</time>
      </trkpt>
      <trkpt lat="44.92355" lon="6.407">
        <ele>2032.84</ele>
        <time>2020-07-23T07:03:45Z</time>
      </trkpt>
      <trkpt lat="44.92368" lon="6.40692">
        <ele>2036.69</ele>
        <time>2020-07-23T07:04:06Z</time>
      </trkpt>
      <trkpt lat="44.92379" lon="6.40714">
        <ele>2041.02</ele>
        <time>2020-07-23T07:05:48Z</time>
      </trkpt>
      <trkpt lat="44.92392" lon="6.40735">
        <ele>2045.34</ele>
        <time>2020-07-23T07:08:55Z</time>
      </trkpt>
      <trkpt lat="44.92395" lon="6.40779">
        <ele>2050.15</ele>
        <time>2020-07-23T07:09:33Z</time>
      </trkpt>
      <trkpt lat="44.92405" lon="6.40809">
        <ele>2054.96</ele>
        <time>2020-07-23T07:10:06Z</time>
      </trkpt>
      <trkpt lat="44.92405" lon="6.40787">
        <ele>2058.32</ele>
        <time>2020-07-23T07:10:26Z</time>
      </trkpt>
      <trkpt lat="44.92409" lon="6.40765">
        <ele>2061.68</ele>
        <time>2020-07-23T07:10:47Z</time>
      </trkpt>
      <trkpt lat="44.92418" lon="6.4073">
        <ele>2065.53</ele>
        <time>2020-07-23T07:11:16Z</time>
      </trkpt>
      <trkpt lat="44.92424" lon="6.4071">
        <ele>2068.89</ele>
        <time>2020-07-23T07:11:37Z</time>
      </trkpt>
      <trkpt lat="44.92429" lon="6.40739">
        <ele>2073.22</ele>
        <time>2020-07-23T07:12:02Z</time>
      </trkpt>
      <trkpt lat="44.92431" lon="6.40737">
        <ele>2073.22</ele>
        <time>2020-07-23T07:12:04Z</time>
      </trkpt>
      <trkpt lat="44.92436" lon="6.40715">
        <ele>2079.47</ele>
        <time>2020-07-23T07:12:34Z</time>
      </trkpt>
      <trkpt lat="44.92439" lon="6.40741">
        <ele>2082.83</ele>
        <time>2020-07-23T07:12:57Z</time>
      </trkpt>
      <trkpt lat="44.92439" lon="6.40765">
        <ele>2086.2</ele>
        <time>2020-07-23T07:13:16Z</time>
      </trkpt>
      <trkpt lat="44.92452" lon="6.40796">
        <ele>2091.49</ele>
        <time>2020-07-23T07:13:50Z</time>
      </trkpt>
      <trkpt lat="44.92453" lon="6.40796">
        <ele>2091.49</ele>
        <time>2020-07-23T07:13:51Z</time>
      </trkpt>
      <trkpt lat="44.92466" lon="6.40806">
        <ele>2094.85</ele>
        <time>2020-07-23T07:14:07Z</time>
      </trkpt>
      <trkpt lat="44.92481" lon="6.40848">
        <ele>2101.58</ele>
        <time>2020-07-23T07:14:51Z</time>
      </trkpt>
      <trkpt lat="44.92487" lon="6.40871">
        <ele>2104.94</ele>
        <time>2020-07-23T07:15:13Z</time>
      </trkpt>
      <trkpt lat="44.92488" lon="6.40873">
        <ele>2104.94</ele>
        <time>2020-07-23T07:15:14Z</time>
      </trkpt>
      <trkpt lat="44.92506" lon="6.40893">
        <ele>2109.75</ele>
        <time>2020-07-23T07:15:43Z</time>
      </trkpt>
      <trkpt lat="44.92508" lon="6.40926">
        <ele>2113.12</ele>
        <time>2020-07-23T07:16:08Z</time>
      </trkpt>
      <trkpt lat="44.92514" lon="6.4095">
        <ele>2116.96</ele>
        <time>2020-07-23T07:16:33Z</time>
      </trkpt>
      <trkpt lat="44.92504" lon="6.40986">
        <ele>2120.81</ele>
        <time>2020-07-23T07:17:03Z</time>
      </trkpt>
      <trkpt lat="44.92497" lon="6.41019">
        <ele>2124.65</ele>
        <time>2020-07-23T07:17:27Z</time>
      </trkpt>
      <trkpt lat="44.92491" lon="6.41049">
        <ele>2128.5</ele>
        <time>2020-07-23T07:17:57Z</time>
      </trkpt>
      <trkpt lat="44.92522" lon="6.41068">
        <ele>2134.26</ele>
        <time>2020-07-23T07:18:37Z</time>
      </trkpt>
      <trkpt lat="44.92522" lon="6.41065">
        <ele>2134.26</ele>
        <time>2020-07-23T07:18:39Z</time>
      </trkpt>
      <trkpt lat="44.9251" lon="6.41045">
        <ele>2138.11</ele>
        <time>2020-07-23T07:19:00Z</time>
      </trkpt>
      <trkpt lat="44.92526" lon="6.41033">
        <ele>2141.47</ele>
        <time>2020-07-23T07:19:19Z</time>
      </trkpt>
      <trkpt lat="44.92532" lon="6.41012">
        <ele>2144.84</ele>
        <time>2020-07-23T07:19:38Z</time>
      </trkpt>
      <trkpt lat="44.92546" lon="6.40981">
        <ele>2150.61</ele>
        <time>2020-07-23T07:20:14Z</time>
      </trkpt>
      <trkpt lat="44.92558" lon="6.40981">
        <ele>2154.93</ele>
        <time>2020-07-23T07:20:39Z</time>
      </trkpt>
      <trkpt lat="44.92554" lon="6.41001">
        <ele>2158.3</ele>
        <time>2020-07-23T07:20:58Z</time>
      </trkpt>
      <trkpt lat="44.92556" lon="6.41004">
        <ele>2158.3</ele>
        <time>2020-07-23T07:21:01Z</time>
      </trkpt>
      <trkpt lat="44.92571" lon="6.41027">
        <ele>2163.58</ele>
        <time>2020-07-23T07:21:29Z</time>
      </trkpt>
      <trkpt lat="44.92579" lon="6.4104">
        <ele>2166.95</ele>
        <time>2020-07-23T07:21:55Z</time>
      </trkpt>
      <trkpt lat="44.92578" lon="6.41005">
        <ele>2171.76</ele>
        <time>2020-07-23T07:22:26Z</time>
      </trkpt>
      <trkpt lat="44.92579" lon="6.41003">
        <ele>2171.76</ele>
        <time>2020-07-23T07:22:28Z</time>
      </trkpt>
      <trkpt lat="44.92587" lon="6.40989">
        <ele>2175.12</ele>
        <time>2020-07-23T07:22:43Z</time>
      </trkpt>
      <trkpt lat="44.92588" lon="6.40985">
        <ele>2175.12</ele>
        <time>2020-07-23T07:22:46Z</time>
      </trkpt>
      <trkpt lat="44.926" lon="6.40938">
        <ele>2181.37</ele>
        <time>2020-07-23T07:23:27Z</time>
      </trkpt>
      <trkpt lat="44.92604" lon="6.40923">
        <ele>2184.73</ele>
        <time>2020-07-23T07:23:43Z</time>
      </trkpt>
      <trkpt lat="44.92612" lon="6.40866">
        <ele>2188.58</ele>
        <time>2020-07-23T07:24:32Z</time>
      </trkpt>
      <trkpt lat="44.9261" lon="6.40852">
        <ele>2191.94</ele>
        <time>2020-07-23T07:24:48Z</time>
      </trkpt>
      <trkpt lat="44.92608" lon="6.40819">
        <ele>2197.23</ele>
        <time>2020-07-23T07:25:19Z</time>
      </trkpt>
      <trkpt lat="44.92617" lon="6.40837">
        <ele>2199.15</ele>
        <time>2020-07-23T07:25:34Z</time>
      </trkpt>
      <trkpt lat="44.92629" lon="6.40861">
        <ele>2204.92</ele>
        <time>2020-07-23T07:26:09Z</time>
      </trkpt>
      <trkpt lat="44.92635" lon="6.40869">
        <ele>2211.17</ele>
        <time>2020-07-23T07:26:40Z</time>
      </trkpt>
      <trkpt lat="44.92642" lon="6.40874">
        <ele>2216.94</ele>
        <time>2020-07-23T07:27:09Z</time>
      </trkpt>
      <trkpt lat="44.92649" lon="6.40881">
        <ele>2222.22</ele>
        <time>2020-07-23T07:27:41Z</time>
      </trkpt>
      <trkpt lat="44.92655" lon="6.40881">
        <ele>2227.03</ele>
        <time>2020-07-23T07:28:10Z</time>
      </trkpt>
      <trkpt lat="44.92658" lon="6.40881">
        <ele>2230.4</ele>
        <time>2020-07-23T07:28:26Z</time>
      </trkpt>
      <trkpt lat="44.92663" lon="6.40896">
        <ele>2236.16</ele>
        <time>2020-07-23T07:28:56Z</time>
      </trkpt>
      <trkpt lat="44.92663" lon="6.40895">
        <ele>2236.16</ele>
        <time>2020-07-23T07:28:58Z</time>
      </trkpt>
      <trkpt lat="44.92671" lon="6.40907">
        <ele>2239.53</ele>
        <time>2020-07-23T07:29:21Z</time>
      </trkpt>
      <trkpt lat="44.92675" lon="6.40913">
        <ele>2242.89</ele>
        <time>2020-07-23T07:29:38Z</time>
      </trkpt>
      <trkpt lat="44.92681" lon="6.40904">
        <ele>2247.7</ele>
        <time>2020-07-23T07:30:05Z</time>
      </trkpt>
      <trkpt lat="44.92689" lon="6.40927">
        <ele>2251.54</ele>
        <time>2020-07-23T07:30:28Z</time>
      </trkpt>
      <trkpt lat="44.92693" lon="6.40937">
        <ele>2252.03</ele>
        <time>2020-07-23T07:30:39Z</time>
      </trkpt>
      <trkpt lat="44.92769" lon="6.40954">
        <ele>2259.24</ele>
        <time>2020-07-23T07:32:07Z</time>
      </trkpt>
      <trkpt lat="44.92782" lon="6.40954">
        <ele>2263.08</ele>
        <time>2020-07-23T07:32:29Z</time>
      </trkpt>
      <trkpt lat="44.92795" lon="6.40948">
        <ele>2266.93</ele>
        <time>2020-07-23T07:32:53Z</time>
      </trkpt>
      <trkpt lat="44.92821" lon="6.40952">
        <ele>2270.29</ele>
        <time>2020-07-23T07:33:23Z</time>
      </trkpt>
      <trkpt lat="44.92836" lon="6.40961">
        <ele>2273.66</ele>
        <time>2020-07-23T07:33:45Z</time>
      </trkpt>
      <trkpt lat="44.92837" lon="6.40961">
        <ele>2273.66</ele>
        <time>2020-07-23T07:33:46Z</time>
      </trkpt>
      <trkpt lat="44.92853" lon="6.40966">
        <ele>2272.21</ele>
        <time>2020-07-23T07:34:05Z</time>
      </trkpt>
      <trkpt lat="44.92913" lon="6.40961">
        <ele>2278.94</ele>
        <time>2020-07-23T07:35:22Z</time>
      </trkpt>
      <trkpt lat="44.92927" lon="6.40957">
        <ele>2282.79</ele>
        <time>2020-07-23T07:35:45Z</time>
      </trkpt>
      <trkpt lat="44.92949" lon="6.40939">
        <ele>2287.11</ele>
        <time>2020-07-23T07:36:15Z</time>
      </trkpt>
      <trkpt lat="44.9295" lon="6.4094">
        <ele>2287.11</ele>
        <time>2020-07-23T07:36:16Z</time>
      </trkpt>
      <trkpt lat="44.92976" lon="6.4095">
        <ele>2283.27</ele>
        <time>2020-07-23T07:36:47Z</time>
      </trkpt>
      <trkpt lat="44.9299" lon="6.40964">
        <ele>2278.94</ele>
        <time>2020-07-23T07:37:09Z</time>
      </trkpt>
      <trkpt lat="44.92993" lon="6.40966">
        <ele>2278.94</ele>
        <time>2020-07-23T07:37:11Z</time>
      </trkpt>
      <trkpt lat="44.93021" lon="6.4097">
        <ele>2282.79</ele>
        <time>2020-07-23T07:37:42Z</time>
      </trkpt>
      <trkpt lat="44.93059" lon="6.4098">
        <ele>2279.42</ele>
        <time>2020-07-23T07:38:29Z</time>
      </trkpt>
      <trkpt lat="44.93063" lon="6.40986">
        <ele>2277.5</ele>
        <time>2020-07-23T07:38:35Z</time>
      </trkpt>
      <trkpt lat="44.93064" lon="6.40987">
        <ele>2277.5</ele>
        <time>2020-07-23T07:38:36Z</time>
      </trkpt>
      <trkpt lat="44.9308" lon="6.41019">
        <ele>2273.17</ele>
        <time>2020-07-23T07:39:10Z</time>
      </trkpt>
      <trkpt lat="44.93091" lon="6.41061">
        <ele>2268.85</ele>
        <time>2020-07-23T07:40:08Z</time>
      </trkpt>
      <trkpt lat="44.93103" lon="6.41053">
        <ele>2268.85</ele>
        <time>2020-07-23T07:40:18Z</time>
      </trkpt>
      <trkpt lat="44.93127" lon="6.41063">
        <ele>2274.14</ele>
        <time>2020-07-23T07:41:16Z</time>
      </trkpt>
      <trkpt lat="44.93138" lon="6.41058">
        <ele>2280.87</ele>
        <time>2020-07-23T07:41:49Z</time>
      </trkpt>
      <trkpt lat="44.93149" lon="6.41046">
        <ele>2285.67</ele>
        <time>2020-07-23T07:42:13Z</time>
      </trkpt>
      <trkpt lat="44.93154" lon="6.41043">
        <ele>2288.56</ele>
        <time>2020-07-23T07:42:24Z</time>
      </trkpt>
      <trkpt lat="44.93155" lon="6.41041">
        <ele>2288.56</ele>
        <time>2020-07-23T07:42:25Z</time>
      </trkpt>
      <trkpt lat="44.93207" lon="6.41025">
        <ele>2293.36</ele>
        <time>2020-07-23T07:43:29Z</time>
      </trkpt>
      <trkpt lat="44.93227" lon="6.41024">
        <ele>2298.65</ele>
        <time>2020-07-23T07:44:00Z</time>
      </trkpt>
      <trkpt lat="44.9324" lon="6.41028">
        <ele>2303.94</ele>
        <time>2020-07-23T07:44:34Z</time>
      </trkpt>
      <trkpt lat="44.93244" lon="6.41034">
        <ele>2307.3</ele>
        <time>2020-07-23T07:44:49Z</time>
      </trkpt>
      <trkpt lat="44.93249" lon="6.41048">
        <ele>2313.07</ele>
        <time>2020-07-23T07:45:20Z</time>
      </trkpt>
      <trkpt lat="44.93248" lon="6.41047">
        <ele>2313.07</ele>
        <time>2020-07-23T07:45:21Z</time>
      </trkpt>
      <trkpt lat="44.93234" lon="6.41052">
        <ele>2316.43</ele>
        <time>2020-07-23T07:46:10Z</time>
      </trkpt>
      <trkpt lat="44.93252" lon="6.41059">
        <ele>2322.68</ele>
        <time>2020-07-23T07:46:40Z</time>
      </trkpt>
      <trkpt lat="44.93242" lon="6.41068">
        <ele>2326.05</ele>
        <time>2020-07-23T07:47:01Z</time>
      </trkpt>
      <trkpt lat="44.9324" lon="6.41073">
        <ele>2329.41</ele>
        <time>2020-07-23T07:47:12Z</time>
      </trkpt>
      <trkpt lat="44.93234" lon="6.41088">
        <ele>2332.78</ele>
        <time>2020-07-23T07:47:32Z</time>
      </trkpt>
      <trkpt lat="44.93232" lon="6.41095">
        <ele>2336.62</ele>
        <time>2020-07-23T07:47:56Z</time>
      </trkpt>
      <trkpt lat="44.93208" lon="6.41095">
        <ele>2342.87</ele>
        <time>2020-07-23T07:49:44Z</time>
      </trkpt>
      <trkpt lat="44.93202" lon="6.41104">
        <ele>2346.23</ele>
        <time>2020-07-23T07:50:16Z</time>
      </trkpt>
      <trkpt lat="44.93215" lon="6.4114">
        <ele>2351.04</ele>
        <time>2020-07-23T07:51:16Z</time>
      </trkpt>
      <trkpt lat="44.93195" lon="6.41162">
        <ele>2355.37</ele>
        <time>2020-07-23T07:51:47Z</time>
      </trkpt>
      <trkpt lat="44.93187" lon="6.41182">
        <ele>2359.69</ele>
        <time>2020-07-23T07:52:16Z</time>
      </trkpt>
      <trkpt lat="44.93184" lon="6.41196">
        <ele>2361.62</ele>
        <time>2020-07-23T07:52:30Z</time>
      </trkpt>
      <trkpt lat="44.93184" lon="6.41197">
        <ele>2361.62</ele>
        <time>2020-07-23T07:52:31Z</time>
      </trkpt>
      <trkpt lat="44.9319" lon="6.41208">
        <ele>2365.46</ele>
        <time>2020-07-23T07:52:58Z</time>
      </trkpt>
      <trkpt lat="44.93208" lon="6.41204">
        <ele>2370.27</ele>
        <time>2020-07-23T07:53:28Z</time>
      </trkpt>
      <trkpt lat="44.93213" lon="6.41218">
        <ele>2376.04</ele>
        <time>2020-07-23T07:54:02Z</time>
      </trkpt>
      <trkpt lat="44.93219" lon="6.41215">
        <ele>2379.4</ele>
        <time>2020-07-23T07:54:17Z</time>
      </trkpt>
      <trkpt lat="44.93238" lon="6.41206">
        <ele>2384.21</ele>
        <time>2020-07-23T07:54:50Z</time>
      </trkpt>
      <trkpt lat="44.93247" lon="6.41208">
        <ele>2387.57</ele>
        <time>2020-07-23T07:55:05Z</time>
      </trkpt>
      <trkpt lat="44.93262" lon="6.41208">
        <ele>2392.86</ele>
        <time>2020-07-23T07:55:36Z</time>
      </trkpt>
      <trkpt lat="44.93263" lon="6.41223">
        <ele>2398.15</ele>
        <time>2020-07-23T07:56:07Z</time>
      </trkpt>
      <trkpt lat="44.93253" lon="6.41236">
        <ele>2403.43</ele>
        <time>2020-07-23T07:56:38Z</time>
      </trkpt>
      <trkpt lat="44.93269" lon="6.41241">
        <ele>2408.72</ele>
        <time>2020-07-23T07:57:10Z</time>
      </trkpt>
      <trkpt lat="44.93258" lon="6.41256">
        <ele>2412.09</ele>
        <time>2020-07-23T07:57:33Z</time>
      </trkpt>
      <trkpt lat="44.9325" lon="6.41265">
        <ele>2416.89</ele>
        <time>2020-07-23T07:58:05Z</time>
      </trkpt>
      <trkpt lat="44.93268" lon="6.41269">
        <ele>2421.7</ele>
        <time>2020-07-23T07:58:38Z</time>
      </trkpt>
      <trkpt lat="44.9327" lon="6.41268">
        <ele>2421.7</ele>
        <time>2020-07-23T07:58:40Z</time>
      </trkpt>
      <trkpt lat="44.93292" lon="6.41272">
        <ele>2425.54</ele>
        <time>2020-07-23T07:59:10Z</time>
      </trkpt>
      <trkpt lat="44.93317" lon="6.41262">
        <ele>2430.83</ele>
        <time>2020-07-23T07:59:45Z</time>
      </trkpt>
      <trkpt lat="44.93338" lon="6.41265">
        <ele>2434.68</ele>
        <time>2020-07-23T08:00:18Z</time>
      </trkpt>
      <trkpt lat="44.93347" lon="6.41264">
        <ele>2434.2</ele>
        <time>2020-07-23T08:01:03Z</time>
      </trkpt>
      <trkpt lat="44.93359" lon="6.41268">
        <ele>2434.2</ele>
        <time>2020-07-23T08:01:16Z</time>
      </trkpt>
      <trkpt lat="44.93428" lon="6.41248">
        <ele>2437.56</ele>
        <time>2020-07-23T08:02:11Z</time>
      </trkpt>
      <trkpt lat="44.93429" lon="6.41247">
        <ele>2437.56</ele>
        <time>2020-07-23T08:02:12Z</time>
      </trkpt>
      <trkpt lat="44.93448" lon="6.41253">
        <ele>2438.04</ele>
        <time>2020-07-23T08:02:25Z</time>
      </trkpt>
      <trkpt lat="44.9347" lon="6.41271">
        <ele>2439.48</ele>
        <time>2020-07-23T08:02:46Z</time>
      </trkpt>
      <trkpt lat="44.93563" lon="6.41243">
        <ele>2442.85</ele>
        <time>2020-07-23T08:04:18Z</time>
      </trkpt>
      <trkpt lat="44.93565" lon="6.41241">
        <ele>2442.85</ele>
        <time>2020-07-23T08:04:20Z</time>
      </trkpt>
      <trkpt lat="44.9363" lon="6.41187">
        <ele>2449.58</ele>
        <time>2020-07-23T08:05:46Z</time>
      </trkpt>
      <trkpt lat="44.93652" lon="6.41189">
        <ele>2452.94</ele>
        <time>2020-07-23T08:06:10Z</time>
      </trkpt>
      <trkpt lat="44.93662" lon="6.41212">
        <ele>2456.79</ele>
        <time>2020-07-23T08:06:34Z</time>
      </trkpt>
      <trkpt lat="44.93668" lon="6.41222">
        <ele>2461.59</ele>
        <time>2020-07-23T08:07:05Z</time>
      </trkpt>
      <trkpt lat="44.93675" lon="6.41211">
        <ele>2467.36</ele>
        <time>2020-07-23T08:07:36Z</time>
      </trkpt>
      <trkpt lat="44.93685" lon="6.41222">
        <ele>2472.17</ele>
        <time>2020-07-23T08:08:07Z</time>
      </trkpt>
      <trkpt lat="44.93686" lon="6.41207">
        <ele>2475.53</ele>
        <time>2020-07-23T08:08:23Z</time>
      </trkpt>
      <trkpt lat="44.9369" lon="6.41181">
        <ele>2481.3</ele>
        <time>2020-07-23T08:08:49Z</time>
      </trkpt>
      <trkpt lat="44.93689" lon="6.41162">
        <ele>2485.15</ele>
        <time>2020-07-23T08:09:19Z</time>
      </trkpt>
      <trkpt lat="44.93692" lon="6.41147">
        <ele>2489.47</ele>
        <time>2020-07-23T08:09:36Z</time>
      </trkpt>
      <trkpt lat="44.93688" lon="6.41139">
        <ele>2492.84</ele>
        <time>2020-07-23T08:09:51Z</time>
      </trkpt>
      <trkpt lat="44.93703" lon="6.41099">
        <ele>2496.2</ele>
        <time>2020-07-23T08:10:27Z</time>
      </trkpt>
      <trkpt lat="44.93712" lon="6.41094">
        <ele>2499.57</ele>
        <time>2020-07-23T08:10:45Z</time>
      </trkpt>
      <trkpt lat="44.93733" lon="6.41095">
        <ele>2501.49</ele>
        <time>2020-07-23T08:11:06Z</time>
      </trkpt>
      <trkpt lat="44.93734" lon="6.41094">
        <ele>2501.49</ele>
        <time>2020-07-23T08:11:07Z</time>
      </trkpt>
      <trkpt lat="44.93745" lon="6.41093">
        <ele>2505.33</ele>
        <time>2020-07-23T08:11:25Z</time>
      </trkpt>
      <trkpt lat="44.93754" lon="6.41099">
        <ele>2510.62</ele>
        <time>2020-07-23T08:11:52Z</time>
      </trkpt>
      <trkpt lat="44.93767" lon="6.41094">
        <ele>2515.43</ele>
        <time>2020-07-23T08:12:14Z</time>
      </trkpt>
      <trkpt lat="44.93783" lon="6.41093">
        <ele>2519.75</ele>
        <time>2020-07-23T08:12:38Z</time>
      </trkpt>
      <trkpt lat="44.93792" lon="6.41097">
        <ele>2522.16</ele>
        <time>2020-07-23T08:12:48Z</time>
      </trkpt>
      <trkpt lat="44.93793" lon="6.41096">
        <ele>2522.16</ele>
        <time>2020-07-23T08:12:49Z</time>
      </trkpt>
      <trkpt lat="44.93803" lon="6.41094">
        <ele>2525.52</ele>
        <time>2020-07-23T08:13:03Z</time>
      </trkpt>
      <trkpt lat="44.93801" lon="6.41115">
        <ele>2531.29</ele>
        <time>2020-07-23T08:13:32Z</time>
      </trkpt>
      <trkpt lat="44.93791" lon="6.41128">
        <ele>2537.06</ele>
        <time>2020-07-23T08:13:55Z</time>
      </trkpt>
      <trkpt lat="44.93777" lon="6.41138">
        <ele>2541.38</ele>
        <time>2020-07-23T08:14:21Z</time>
      </trkpt>
      <trkpt lat="44.93774" lon="6.41141">
        <ele>2542.34</ele>
        <time>2020-07-23T08:14:26Z</time>
      </trkpt>
      <trkpt lat="44.93748" lon="6.41148">
        <ele>2552.44</ele>
        <time>2020-07-23T08:47:15Z</time>
      </trkpt>
      <trkpt lat="44.9375" lon="6.41153">
        <ele>2551</ele>
        <time>2020-07-23T09:00:19Z</time>
      </trkpt>
      <trkpt lat="44.93785" lon="6.41143">
        <ele>2556.76</ele>
        <time>2020-07-23T09:24:59Z</time>
      </trkpt>
      <trkpt lat="44.93806" lon="6.41146">
        <ele>2561.57</ele>
        <time>2020-07-23T09:25:32Z</time>
      </trkpt>
      <trkpt lat="44.93811" lon="6.41149">
        <ele>2564.93</ele>
        <time>2020-07-23T09:25:48Z</time>
      </trkpt>
      <trkpt lat="44.93827" lon="6.41149">
        <ele>2570.7</ele>
        <time>2020-07-23T09:26:25Z</time>
      </trkpt>
      <trkpt lat="44.93836" lon="6.41147">
        <ele>2572.63</ele>
        <time>2020-07-23T09:26:36Z</time>
      </trkpt>
      <trkpt lat="44.93837" lon="6.41146">
        <ele>2572.63</ele>
        <time>2020-07-23T09:26:37Z</time>
      </trkpt>
      <trkpt lat="44.9386" lon="6.4114">
        <ele>2570.22</ele>
        <time>2020-07-23T09:27:04Z</time>
      </trkpt>
      <trkpt lat="44.93866" lon="6.41106">
        <ele>2573.59</ele>
        <time>2020-07-23T09:27:39Z</time>
      </trkpt>
      <trkpt lat="44.93878" lon="6.41104">
        <ele>2577.91</ele>
        <time>2020-07-23T09:28:08Z</time>
      </trkpt>
      <trkpt lat="44.93878" lon="6.41096">
        <ele>2581.28</ele>
        <time>2020-07-23T09:28:24Z</time>
      </trkpt>
      <trkpt lat="44.93891" lon="6.41076">
        <ele>2586.08</ele>
        <time>2020-07-23T09:28:59Z</time>
      </trkpt>
      <trkpt lat="44.93897" lon="6.41086">
        <ele>2591.85</ele>
        <time>2020-07-23T09:29:32Z</time>
      </trkpt>
      <trkpt lat="44.93907" lon="6.41092">
        <ele>2597.62</ele>
        <time>2020-07-23T09:30:00Z</time>
      </trkpt>
      <trkpt lat="44.93912" lon="6.41092">
        <ele>2600.98</ele>
        <time>2020-07-23T09:30:16Z</time>
      </trkpt>
      <trkpt lat="44.93917" lon="6.4109">
        <ele>2604.35</ele>
        <time>2020-07-23T09:30:31Z</time>
      </trkpt>
      <trkpt lat="44.93927" lon="6.41092">
        <ele>2610.12</ele>
        <time>2020-07-23T09:31:00Z</time>
      </trkpt>
      <trkpt lat="44.93937" lon="6.41096">
        <ele>2614.92</ele>
        <time>2020-07-23T09:31:33Z</time>
      </trkpt>
      <trkpt lat="44.93946" lon="6.41097">
        <ele>2620.21</ele>
        <time>2020-07-23T09:32:05Z</time>
      </trkpt>
      <trkpt lat="44.93958" lon="6.41098">
        <ele>2625.98</ele>
        <time>2020-07-23T09:32:37Z</time>
      </trkpt>
      <trkpt lat="44.93973" lon="6.41092">
        <ele>2632.23</ele>
        <time>2020-07-23T09:33:12Z</time>
      </trkpt>
      <trkpt lat="44.93978" lon="6.41089">
        <ele>2635.59</ele>
        <time>2020-07-23T09:33:33Z</time>
      </trkpt>
      <trkpt lat="44.93994" lon="6.41089">
        <ele>2642.32</ele>
        <time>2020-07-23T09:34:10Z</time>
      </trkpt>
      <trkpt lat="44.94008" lon="6.41074">
        <ele>2647.61</ele>
        <time>2020-07-23T09:34:46Z</time>
      </trkpt>
      <trkpt lat="44.94029" lon="6.41058">
        <ele>2651.93</ele>
        <time>2020-07-23T09:35:23Z</time>
      </trkpt>
      <trkpt lat="44.94042" lon="6.41043">
        <ele>2656.74</ele>
        <time>2020-07-23T09:35:58Z</time>
      </trkpt>
      <trkpt lat="44.94046" lon="6.41037">
        <ele>2660.11</ele>
        <time>2020-07-23T09:36:14Z</time>
      </trkpt>
      <trkpt lat="44.94063" lon="6.41009">
        <ele>2664.43</ele>
        <time>2020-07-23T09:36:49Z</time>
      </trkpt>
      <trkpt lat="44.94082" lon="6.40993">
        <ele>2669.24</ele>
        <time>2020-07-23T09:37:21Z</time>
      </trkpt>
      <trkpt lat="44.94101" lon="6.40977">
        <ele>2675.01</ele>
        <time>2020-07-23T09:37:55Z</time>
      </trkpt>
      <trkpt lat="44.94112" lon="6.40961">
        <ele>2680.29</ele>
        <time>2020-07-23T09:38:25Z</time>
      </trkpt>
      <trkpt lat="44.94119" lon="6.40952">
        <ele>2684.62</ele>
        <time>2020-07-23T09:38:46Z</time>
      </trkpt>
      <trkpt lat="44.94129" lon="6.40928">
        <ele>2690.87</ele>
        <time>2020-07-23T09:39:20Z</time>
      </trkpt>
      <trkpt lat="44.94145" lon="6.40905">
        <ele>2696.64</ele>
        <time>2020-07-23T09:39:51Z</time>
      </trkpt>
      <trkpt lat="44.94164" lon="6.40896">
        <ele>2700.48</ele>
        <time>2020-07-23T09:40:22Z</time>
      </trkpt>
      <trkpt lat="44.94177" lon="6.40887">
        <ele>2703.85</ele>
        <time>2020-07-23T09:40:41Z</time>
      </trkpt>
      <trkpt lat="44.94193" lon="6.40878">
        <ele>2709.61</ele>
        <time>2020-07-23T09:41:09Z</time>
      </trkpt>
      <trkpt lat="44.94202" lon="6.40871">
        <ele>2712.98</ele>
        <time>2020-07-23T09:41:27Z</time>
      </trkpt>
      <trkpt lat="44.94211" lon="6.40862">
        <ele>2717.3</ele>
        <time>2020-07-23T09:41:45Z</time>
      </trkpt>
      <trkpt lat="44.94236" lon="6.40848">
        <ele>2722.11</ele>
        <time>2020-07-23T09:42:21Z</time>
      </trkpt>
      <trkpt lat="44.94245" lon="6.40839">
        <ele>2725.48</ele>
        <time>2020-07-23T09:42:37Z</time>
      </trkpt>
      <trkpt lat="44.94261" lon="6.4083">
        <ele>2729.32</ele>
        <time>2020-07-23T09:43:03Z</time>
      </trkpt>
      <trkpt lat="44.94277" lon="6.40823">
        <ele>2734.61</ele>
        <time>2020-07-23T09:43:37Z</time>
      </trkpt>
      <trkpt lat="44.94285" lon="6.40824">
        <ele>2737.97</ele>
        <time>2020-07-23T09:43:58Z</time>
      </trkpt>
      <trkpt lat="44.9429" lon="6.40819">
        <ele>2741.34</ele>
        <time>2020-07-23T09:44:14Z</time>
      </trkpt>
      <trkpt lat="44.94303" lon="6.40827">
        <ele>2747.59</ele>
        <time>2020-07-23T09:44:58Z</time>
      </trkpt>
      <trkpt lat="44.94305" lon="6.40832">
        <ele>2750.95</ele>
        <time>2020-07-23T09:45:15Z</time>
      </trkpt>
      <trkpt lat="44.94312" lon="6.40843">
        <ele>2755.76</ele>
        <time>2020-07-23T09:45:50Z</time>
      </trkpt>
      <trkpt lat="44.94319" lon="6.40849">
        <ele>2761.04</ele>
        <time>2020-07-23T09:46:23Z</time>
      </trkpt>
      <trkpt lat="44.94322" lon="6.40854">
        <ele>2766.33</ele>
        <time>2020-07-23T09:46:58Z</time>
      </trkpt>
      <trkpt lat="44.94326" lon="6.40857">
        <ele>2769.7</ele>
        <time>2020-07-23T09:47:22Z</time>
      </trkpt>
      <trkpt lat="44.94336" lon="6.40857">
        <ele>2774.98</ele>
        <time>2020-07-23T09:47:53Z</time>
      </trkpt>
      <trkpt lat="44.94346" lon="6.40855">
        <ele>2780.27</ele>
        <time>2020-07-23T09:48:26Z</time>
      </trkpt>
      <trkpt lat="44.94354" lon="6.4086">
        <ele>2784.6</ele>
        <time>2020-07-23T09:48:57Z</time>
      </trkpt>
      <trkpt lat="44.94358" lon="6.40866">
        <ele>2799.5</ele>
        <time>2020-07-23T09:53:37Z</time>
      </trkpt>
      <trkpt lat="44.94378" lon="6.40864">
        <ele>2820.65</ele>
        <time>2020-07-23T10:12:43Z</time>
      </trkpt>
      <trkpt lat="44.94389" lon="6.40871">
        <ele>2833.62</ele>
        <time>2020-07-23T10:16:08Z</time>
      </trkpt>
      <trkpt lat="44.94395" lon="6.40879">
        <ele>2840.35</ele>
        <time>2020-07-23T10:20:20Z</time>
      </trkpt>
      <trkpt lat="44.94398" lon="6.4088">
        <ele>2844.68</ele>
        <time>2020-07-23T10:21:59Z</time>
      </trkpt>
      <trkpt lat="44.94399" lon="6.40879">
        <ele>2844.68</ele>
        <time>2020-07-23T10:22:19Z</time>
      </trkpt>
      <trkpt lat="44.94402" lon="6.40881">
        <ele>2854.29</ele>
        <time>2020-07-23T10:38:31Z</time>
      </trkpt>
      <trkpt lat="44.94406" lon="6.40881">
        <ele>2859.1</ele>
        <time>2020-07-23T10:39:07Z</time>
      </trkpt>
      <trkpt lat="44.9441" lon="6.4088">
        <ele>2863.9</ele>
        <time>2020-07-23T10:40:49Z</time>
      </trkpt>
      <trkpt lat="44.94412" lon="6.40879">
        <ele>2863.9</ele>
        <time>2020-07-23T10:41:17Z</time>
      </trkpt>
      <trkpt lat="44.94416" lon="6.40878">
        <ele>2882.17</ele>
        <time>2020-07-23T11:05:23Z</time>
      </trkpt>
      <trkpt lat="44.9442" lon="6.40875">
        <ele>2904.76</ele>
        <time>2020-07-23T11:43:48Z</time>
      </trkpt>
      <trkpt lat="44.94422" lon="6.40869">
        <ele>2908.13</ele>
        <time>2020-07-23T11:44:50Z</time>
      </trkpt>
      <trkpt lat="44.94422" lon="6.40866">
        <ele>2908.13</ele>
        <time>2020-07-23T11:49:00Z</time>
      </trkpt>
      <trkpt lat="44.94424" lon="6.40865">
        <ele>2910.53</ele>
        <time>2020-07-23T12:01:00Z</time>
      </trkpt>
      <trkpt lat="44.94427" lon="6.40867">
        <ele>2915.34</ele>
        <time>2020-07-23T12:03:49Z</time>
      </trkpt>
      <trkpt lat="44.94431" lon="6.40867">
        <ele>2923.99</ele>
        <time>2020-07-23T12:07:06Z</time>
      </trkpt>
      <trkpt lat="44.94444" lon="6.40866">
        <ele>2928.31</ele>
        <time>2020-07-23T12:08:56Z</time>
      </trkpt>
      <trkpt lat="44.94442" lon="6.40867">
        <ele>2931.68</ele>
        <time>2020-07-23T12:25:44Z</time>
      </trkpt>
      <trkpt lat="44.94447" lon="6.40866">
        <ele>2936.48</ele>
        <time>2020-07-23T12:29:53Z</time>
      </trkpt>
      <trkpt lat="44.94449" lon="6.40869">
        <ele>2940.81</ele>
        <time>2020-07-23T12:31:00Z</time>
      </trkpt>
      <trkpt lat="44.94453" lon="6.40875">
        <ele>2945.14</ele>
        <time>2020-07-23T12:31:33Z</time>
      </trkpt>
      <trkpt lat="44.94461" lon="6.40872">
        <ele>2950.9</ele>
        <time>2020-07-23T12:32:43Z</time>
      </trkpt>
      <trkpt lat="44.94466" lon="6.40871">
        <ele>2959.56</ele>
        <time>2020-07-23T12:38:47Z</time>
      </trkpt>
      <trkpt lat="44.9447" lon="6.40876">
        <ele>2967.25</ele>
        <time>2020-07-23T12:42:28Z</time>
      </trkpt>
      <trkpt lat="44.94471" lon="6.40878">
        <ele>2971.09</ele>
        <time>2020-07-23T12:43:23Z</time>
      </trkpt>
      <trkpt lat="44.94477" lon="6.40883">
        <ele>2975.42</ele>
        <time>2020-07-23T12:55:42Z</time>
      </trkpt>
      <trkpt lat="44.94492" lon="6.40889">
        <ele>2964.84</ele>
        <time>2020-07-23T13:12:55Z</time>
      </trkpt>
      <trkpt lat="44.94489" lon="6.40909">
        <ele>2945.14</ele>
        <time>2020-07-23T13:21:36Z</time>
      </trkpt>
      <trkpt lat="44.94481" lon="6.40917">
        <ele>2938.41</ele>
        <time>2020-07-23T13:22:03Z</time>
      </trkpt>
      <trkpt lat="44.94476" lon="6.40921">
        <ele>2935.04</ele>
        <time>2020-07-23T13:22:18Z</time>
      </trkpt>
      <trkpt lat="44.9447" lon="6.40926">
        <ele>2931.2</ele>
        <time>2020-07-23T13:22:32Z</time>
      </trkpt>
      <trkpt lat="44.94471" lon="6.40937">
        <ele>2926.87</ele>
        <time>2020-07-23T13:23:10Z</time>
      </trkpt>
      <trkpt lat="44.94473" lon="6.40952">
        <ele>2922.54</ele>
        <time>2020-07-23T13:23:45Z</time>
      </trkpt>
      <trkpt lat="44.94473" lon="6.40964">
        <ele>2917.26</ele>
        <time>2020-07-23T13:24:20Z</time>
      </trkpt>
      <trkpt lat="44.94474" lon="6.40987">
        <ele>2911.49</ele>
        <time>2020-07-23T13:24:51Z</time>
      </trkpt>
      <trkpt lat="44.94478" lon="6.41003">
        <ele>2913.41</ele>
        <time>2020-07-23T13:25:10Z</time>
      </trkpt>
      <trkpt lat="44.94478" lon="6.41039">
        <ele>2907.16</ele>
        <time>2020-07-23T13:26:00Z</time>
      </trkpt>
      <trkpt lat="44.94478" lon="6.41039">
        <ele>2907.16</ele>
        <time>2020-07-23T13:26:01Z</time>
      </trkpt>
      <trkpt lat="44.94473" lon="6.41054">
        <ele>2899.47</ele>
        <time>2020-07-23T13:26:52Z</time>
      </trkpt>
      <trkpt lat="44.94469" lon="6.41066">
        <ele>2893.71</ele>
        <time>2020-07-23T13:27:27Z</time>
      </trkpt>
      <trkpt lat="44.94458" lon="6.41074">
        <ele>2886.5</ele>
        <time>2020-07-23T13:27:55Z</time>
      </trkpt>
      <trkpt lat="44.94453" lon="6.41077">
        <ele>2883.13</ele>
        <time>2020-07-23T13:28:10Z</time>
      </trkpt>
      <trkpt lat="44.94436" lon="6.41085">
        <ele>2869.67</ele>
        <time>2020-07-23T13:29:14Z</time>
      </trkpt>
      <trkpt lat="44.94425" lon="6.41085">
        <ele>2862.46</ele>
        <time>2020-07-23T13:29:35Z</time>
      </trkpt>
      <trkpt lat="44.94413" lon="6.41088">
        <ele>2857.18</ele>
        <time>2020-07-23T13:29:47Z</time>
      </trkpt>
      <trkpt lat="44.94408" lon="6.41089">
        <ele>2853.81</ele>
        <time>2020-07-23T13:29:55Z</time>
      </trkpt>
      <trkpt lat="44.94393" lon="6.41088">
        <ele>2844.2</ele>
        <time>2020-07-23T13:30:25Z</time>
      </trkpt>
      <trkpt lat="44.94383" lon="6.41097">
        <ele>2839.87</ele>
        <time>2020-07-23T13:30:57Z</time>
      </trkpt>
      <trkpt lat="44.94374" lon="6.41101">
        <ele>2833.14</ele>
        <time>2020-07-23T13:31:29Z</time>
      </trkpt>
      <trkpt lat="44.94367" lon="6.41099">
        <ele>2827.37</ele>
        <time>2020-07-23T13:31:49Z</time>
      </trkpt>
      <trkpt lat="44.94353" lon="6.41091">
        <ele>2821.13</ele>
        <time>2020-07-23T13:32:09Z</time>
      </trkpt>
      <trkpt lat="44.94341" lon="6.41088">
        <ele>2813.92</ele>
        <time>2020-07-23T13:32:35Z</time>
      </trkpt>
      <trkpt lat="44.94331" lon="6.41084">
        <ele>2806.71</ele>
        <time>2020-07-23T13:32:54Z</time>
      </trkpt>
      <trkpt lat="44.94313" lon="6.41077">
        <ele>2799.98</ele>
        <time>2020-07-23T13:33:16Z</time>
      </trkpt>
      <trkpt lat="44.94293" lon="6.41064">
        <ele>2789.88</ele>
        <time>2020-07-23T13:33:52Z</time>
      </trkpt>
      <trkpt lat="44.9428" lon="6.41053">
        <ele>2782.67</ele>
        <time>2020-07-23T13:34:22Z</time>
      </trkpt>
      <trkpt lat="44.9426" lon="6.4104">
        <ele>2773.06</ele>
        <time>2020-07-23T13:34:54Z</time>
      </trkpt>
      <trkpt lat="44.94239" lon="6.41024">
        <ele>2763.93</ele>
        <time>2020-07-23T13:35:24Z</time>
      </trkpt>
      <trkpt lat="44.94231" lon="6.41011">
        <ele>2758.64</ele>
        <time>2020-07-23T13:35:42Z</time>
      </trkpt>
      <trkpt lat="44.94224" lon="6.40987">
        <ele>2752.39</ele>
        <time>2020-07-23T13:36:06Z</time>
      </trkpt>
      <trkpt lat="44.94224" lon="6.40974">
        <ele>2748.07</ele>
        <time>2020-07-23T13:36:27Z</time>
      </trkpt>
      <trkpt lat="44.9422" lon="6.40959">
        <ele>2743.26</ele>
        <time>2020-07-23T13:36:41Z</time>
      </trkpt>
      <trkpt lat="44.94214" lon="6.40926">
        <ele>2737.97</ele>
        <time>2020-07-23T13:37:14Z</time>
      </trkpt>
      <trkpt lat="44.94212" lon="6.40901">
        <ele>2734.13</ele>
        <time>2020-07-23T13:37:34Z</time>
      </trkpt>
      <trkpt lat="44.942" lon="6.40894">
        <ele>2730.76</ele>
        <time>2020-07-23T13:37:48Z</time>
      </trkpt>
      <trkpt lat="44.94181" lon="6.40896">
        <ele>2725.48</ele>
        <time>2020-07-23T13:38:13Z</time>
      </trkpt>
      <trkpt lat="44.94158" lon="6.40902">
        <ele>2720.67</ele>
        <time>2020-07-23T13:38:49Z</time>
      </trkpt>
      <trkpt lat="44.94145" lon="6.40916">
        <ele>2716.34</ele>
        <time>2020-07-23T13:39:09Z</time>
      </trkpt>
      <trkpt lat="44.94127" lon="6.40938">
        <ele>2710.09</ele>
        <time>2020-07-23T13:39:34Z</time>
      </trkpt>
      <trkpt lat="44.94119" lon="6.40952">
        <ele>2706.73</ele>
        <time>2020-07-23T13:39:46Z</time>
      </trkpt>
      <trkpt lat="44.94112" lon="6.40964">
        <ele>2702.4</ele>
        <time>2020-07-23T13:40:02Z</time>
      </trkpt>
      <trkpt lat="44.94103" lon="6.40978">
        <ele>2697.6</ele>
        <time>2020-07-23T13:40:17Z</time>
      </trkpt>
      <trkpt lat="44.94096" lon="6.40985">
        <ele>2694.23</ele>
        <time>2020-07-23T13:40:27Z</time>
      </trkpt>
      <trkpt lat="44.94088" lon="6.40993">
        <ele>2691.83</ele>
        <time>2020-07-23T13:40:35Z</time>
      </trkpt>
      <trkpt lat="44.94075" lon="6.41004">
        <ele>2688.46</ele>
        <time>2020-07-23T13:40:48Z</time>
      </trkpt>
      <trkpt lat="44.94074" lon="6.41005">
        <ele>2688.46</ele>
        <time>2020-07-23T13:40:49Z</time>
      </trkpt>
      <trkpt lat="44.94061" lon="6.41018">
        <ele>2684.62</ele>
        <time>2020-07-23T13:41:03Z</time>
      </trkpt>
      <trkpt lat="44.9405" lon="6.41035">
        <ele>2682.7</ele>
        <time>2020-07-23T13:41:16Z</time>
      </trkpt>
      <trkpt lat="44.94039" lon="6.41046">
        <ele>2676.93</ele>
        <time>2020-07-23T13:41:36Z</time>
      </trkpt>
      <trkpt lat="44.94015" lon="6.41074">
        <ele>2671.64</ele>
        <time>2020-07-23T13:42:03Z</time>
      </trkpt>
      <trkpt lat="44.93994" lon="6.41089">
        <ele>2662.99</ele>
        <time>2020-07-23T13:42:28Z</time>
      </trkpt>
      <trkpt lat="44.93985" lon="6.41091">
        <ele>2659.14</ele>
        <time>2020-07-23T13:42:43Z</time>
      </trkpt>
      <trkpt lat="44.93973" lon="6.41092">
        <ele>2654.34</ele>
        <time>2020-07-23T13:43:01Z</time>
      </trkpt>
      <trkpt lat="44.93966" lon="6.41092">
        <ele>2650.97</ele>
        <time>2020-07-23T13:43:10Z</time>
      </trkpt>
      <trkpt lat="44.93954" lon="6.41097">
        <ele>2645.69</ele>
        <time>2020-07-23T13:43:31Z</time>
      </trkpt>
      <trkpt lat="44.93947" lon="6.41099">
        <ele>2641.36</ele>
        <time>2020-07-23T13:43:50Z</time>
      </trkpt>
      <trkpt lat="44.93943" lon="6.41095">
        <ele>2637.99</ele>
        <time>2020-07-23T13:44:01Z</time>
      </trkpt>
      <trkpt lat="44.93936" lon="6.41101">
        <ele>2634.63</ele>
        <time>2020-07-23T13:44:16Z</time>
      </trkpt>
      <trkpt lat="44.93928" lon="6.41091">
        <ele>2629.82</ele>
        <time>2020-07-23T13:44:37Z</time>
      </trkpt>
      <trkpt lat="44.93916" lon="6.41094">
        <ele>2624.06</ele>
        <time>2020-07-23T13:45:08Z</time>
      </trkpt>
      <trkpt lat="44.93911" lon="6.41092">
        <ele>2620.21</ele>
        <time>2020-07-23T13:45:16Z</time>
      </trkpt>
      <trkpt lat="44.93911" lon="6.41092">
        <ele>2620.21</ele>
        <time>2020-07-23T13:45:17Z</time>
      </trkpt>
      <trkpt lat="44.93903" lon="6.4109">
        <ele>2615.88</ele>
        <time>2020-07-23T13:45:31Z</time>
      </trkpt>
      <trkpt lat="44.939" lon="6.41087">
        <ele>2612.52</ele>
        <time>2020-07-23T13:45:39Z</time>
      </trkpt>
      <trkpt lat="44.93893" lon="6.41087">
        <ele>2608.67</ele>
        <time>2020-07-23T13:45:48Z</time>
      </trkpt>
      <trkpt lat="44.9388" lon="6.41088">
        <ele>2602.91</ele>
        <time>2020-07-23T13:46:11Z</time>
      </trkpt>
      <trkpt lat="44.93876" lon="6.41099">
        <ele>2599.54</ele>
        <time>2020-07-23T13:46:23Z</time>
      </trkpt>
      <trkpt lat="44.93874" lon="6.41107">
        <ele>2596.18</ele>
        <time>2020-07-23T13:46:38Z</time>
      </trkpt>
      <trkpt lat="44.9387" lon="6.41116">
        <ele>2591.85</ele>
        <time>2020-07-23T13:46:47Z</time>
      </trkpt>
      <trkpt lat="44.93857" lon="6.4114">
        <ele>2591.85</ele>
        <time>2020-07-23T13:47:16Z</time>
      </trkpt>
      <trkpt lat="44.93822" lon="6.41136">
        <ele>2586.08</ele>
        <time>2020-07-23T13:47:52Z</time>
      </trkpt>
      <trkpt lat="44.93813" lon="6.41144">
        <ele>2582.24</ele>
        <time>2020-07-23T13:48:04Z</time>
      </trkpt>
      <trkpt lat="44.93803" lon="6.41144">
        <ele>2577.91</ele>
        <time>2020-07-23T13:48:21Z</time>
      </trkpt>
      <trkpt lat="44.93785" lon="6.41149">
        <ele>2572.63</ele>
        <time>2020-07-23T13:48:41Z</time>
      </trkpt>
      <trkpt lat="44.93739" lon="6.41156">
        <ele>2569.26</ele>
        <time>2020-07-23T13:52:53Z</time>
      </trkpt>
      <trkpt lat="44.93745" lon="6.41156">
        <ele>2565.9</ele>
        <time>2020-07-23T13:58:06Z</time>
      </trkpt>
      <trkpt lat="44.93741" lon="6.41155">
        <ele>2560.61</ele>
        <time>2020-07-23T14:20:01Z</time>
      </trkpt>
      <trkpt lat="44.93741" lon="6.41155">
        <ele>2557.24</ele>
        <time>2020-07-23T14:41:29Z</time>
      </trkpt>
      <trkpt lat="44.93744" lon="6.41154">
        <ele>2553.4</ele>
        <time>2020-07-23T15:04:21Z</time>
      </trkpt>
      <trkpt lat="44.93764" lon="6.41151">
        <ele>2558.69</ele>
        <time>2020-07-23T15:10:59Z</time>
      </trkpt>
    </trkseg>
  </trk>
  <trk>
    <name><![CDATA[Ecrins J2 24.07.20]]></name>
    <trkseg>
      <trkpt lat="44.93746" lon="6.41159">
        <ele>2550.03</ele>
        <time>2020-07-24T04:22:56Z</time>
      </trkpt>
      <trkpt lat="44.93747" lon="6.41156">
        <ele>2549.55</ele>
        <time>2020-07-24T04:23:06Z</time>
      </trkpt>
      <trkpt lat="44.93792" lon="6.41146">
        <ele>2555.32</ele>
        <time>2020-07-24T04:25:02Z</time>
      </trkpt>
      <trkpt lat="44.93796" lon="6.41148">
        <ele>2555.32</ele>
        <time>2020-07-24T04:25:21Z</time>
      </trkpt>
      <trkpt lat="44.93809" lon="6.41148">
        <ele>2561.09</ele>
        <time>2020-07-24T04:25:54Z</time>
      </trkpt>
      <trkpt lat="44.9382" lon="6.41147">
        <ele>2565.9</ele>
        <time>2020-07-24T04:26:22Z</time>
      </trkpt>
      <trkpt lat="44.9382" lon="6.41147">
        <ele>2565.9</ele>
        <time>2020-07-24T04:26:24Z</time>
      </trkpt>
      <trkpt lat="44.93831" lon="6.41148">
        <ele>2569.74</ele>
        <time>2020-07-24T04:26:42Z</time>
      </trkpt>
      <trkpt lat="44.9386" lon="6.41139">
        <ele>2569.74</ele>
        <time>2020-07-24T04:27:21Z</time>
      </trkpt>
      <trkpt lat="44.9387" lon="6.41105">
        <ele>2574.07</ele>
        <time>2020-07-24T04:28:09Z</time>
      </trkpt>
      <trkpt lat="44.93877" lon="6.41096">
        <ele>2579.84</ele>
        <time>2020-07-24T04:28:43Z</time>
      </trkpt>
      <trkpt lat="44.93888" lon="6.41076">
        <ele>2585.12</ele>
        <time>2020-07-24T04:29:15Z</time>
      </trkpt>
      <trkpt lat="44.93895" lon="6.41086">
        <ele>2590.41</ele>
        <time>2020-07-24T04:29:49Z</time>
      </trkpt>
      <trkpt lat="44.93903" lon="6.41085">
        <ele>2593.77</ele>
        <time>2020-07-24T04:30:08Z</time>
      </trkpt>
      <trkpt lat="44.93905" lon="6.41092">
        <ele>2597.62</ele>
        <time>2020-07-24T04:30:33Z</time>
      </trkpt>
      <trkpt lat="44.93915" lon="6.41089">
        <ele>2602.43</ele>
        <time>2020-07-24T04:31:04Z</time>
      </trkpt>
      <trkpt lat="44.93922" lon="6.41087">
        <ele>2606.27</ele>
        <time>2020-07-24T04:31:41Z</time>
      </trkpt>
      <trkpt lat="44.93926" lon="6.41087">
        <ele>2609.64</ele>
        <time>2020-07-24T04:31:52Z</time>
      </trkpt>
      <trkpt lat="44.93934" lon="6.41095">
        <ele>2613.96</ele>
        <time>2020-07-24T04:32:20Z</time>
      </trkpt>
      <trkpt lat="44.93944" lon="6.411">
        <ele>2619.73</ele>
        <time>2020-07-24T04:32:53Z</time>
      </trkpt>
      <trkpt lat="44.93951" lon="6.41094">
        <ele>2624.06</ele>
        <time>2020-07-24T04:33:20Z</time>
      </trkpt>
      <trkpt lat="44.93961" lon="6.41091">
        <ele>2628.86</ele>
        <time>2020-07-24T04:33:51Z</time>
      </trkpt>
      <trkpt lat="44.93972" lon="6.41091">
        <ele>2633.67</ele>
        <time>2020-07-24T04:34:22Z</time>
      </trkpt>
      <trkpt lat="44.93978" lon="6.41086">
        <ele>2637.03</ele>
        <time>2020-07-24T04:34:40Z</time>
      </trkpt>
      <trkpt lat="44.9399" lon="6.41076">
        <ele>2641.36</ele>
        <time>2020-07-24T04:35:11Z</time>
      </trkpt>
      <trkpt lat="44.94" lon="6.4107">
        <ele>2646.65</ele>
        <time>2020-07-24T04:35:47Z</time>
      </trkpt>
      <trkpt lat="44.94014" lon="6.41072">
        <ele>2652.42</ele>
        <time>2020-07-24T04:36:20Z</time>
      </trkpt>
      <trkpt lat="44.94035" lon="6.41046">
        <ele>2656.74</ele>
        <time>2020-07-24T04:37:01Z</time>
      </trkpt>
      <trkpt lat="44.94045" lon="6.41041">
        <ele>2662.51</ele>
        <time>2020-07-24T04:37:31Z</time>
      </trkpt>
      <trkpt lat="44.94059" lon="6.41011">
        <ele>2666.83</ele>
        <time>2020-07-24T04:38:06Z</time>
      </trkpt>
      <trkpt lat="44.94074" lon="6.41">
        <ele>2670.68</ele>
        <time>2020-07-24T04:38:36Z</time>
      </trkpt>
      <trkpt lat="44.94091" lon="6.40987">
        <ele>2675.01</ele>
        <time>2020-07-24T04:39:08Z</time>
      </trkpt>
      <trkpt lat="44.94098" lon="6.40978">
        <ele>2678.37</ele>
        <time>2020-07-24T04:39:27Z</time>
      </trkpt>
      <trkpt lat="44.94107" lon="6.40971">
        <ele>2682.22</ele>
        <time>2020-07-24T04:39:50Z</time>
      </trkpt>
      <trkpt lat="44.94116" lon="6.40957">
        <ele>2686.06</ele>
        <time>2020-07-24T04:40:23Z</time>
      </trkpt>
      <trkpt lat="44.94122" lon="6.40943">
        <ele>2690.87</ele>
        <time>2020-07-24T04:40:52Z</time>
      </trkpt>
      <trkpt lat="44.9413" lon="6.40925">
        <ele>2695.19</ele>
        <time>2020-07-24T04:41:22Z</time>
      </trkpt>
      <trkpt lat="44.94145" lon="6.40904">
        <ele>2699.04</ele>
        <time>2020-07-24T04:41:56Z</time>
      </trkpt>
      <trkpt lat="44.94161" lon="6.40898">
        <ele>2703.85</ele>
        <time>2020-07-24T04:42:31Z</time>
      </trkpt>
      <trkpt lat="44.94178" lon="6.40883">
        <ele>2709.13</ele>
        <time>2020-07-24T04:43:05Z</time>
      </trkpt>
      <trkpt lat="44.94187" lon="6.40883">
        <ele>2712.5</ele>
        <time>2020-07-24T04:43:24Z</time>
      </trkpt>
      <trkpt lat="44.94201" lon="6.40874">
        <ele>2716.82</ele>
        <time>2020-07-24T04:43:54Z</time>
      </trkpt>
      <trkpt lat="44.94216" lon="6.40859">
        <ele>2722.11</ele>
        <time>2020-07-24T04:44:26Z</time>
      </trkpt>
      <trkpt lat="44.94233" lon="6.40848">
        <ele>2726.44</ele>
        <time>2020-07-24T04:44:58Z</time>
      </trkpt>
      <trkpt lat="44.94245" lon="6.40841">
        <ele>2729.8</ele>
        <time>2020-07-24T04:45:17Z</time>
      </trkpt>
      <trkpt lat="44.94261" lon="6.40833">
        <ele>2734.61</ele>
        <time>2020-07-24T04:45:48Z</time>
      </trkpt>
      <trkpt lat="44.94273" lon="6.40825">
        <ele>2738.93</ele>
        <time>2020-07-24T04:46:18Z</time>
      </trkpt>
      <trkpt lat="44.94285" lon="6.4081">
        <ele>2744.22</ele>
        <time>2020-07-24T04:46:52Z</time>
      </trkpt>
      <trkpt lat="44.943" lon="6.40806">
        <ele>2748.55</ele>
        <time>2020-07-24T04:47:23Z</time>
      </trkpt>
      <trkpt lat="44.94306" lon="6.408">
        <ele>2751.91</ele>
        <time>2020-07-24T04:47:39Z</time>
      </trkpt>
      <trkpt lat="44.9432" lon="6.40798">
        <ele>2756.72</ele>
        <time>2020-07-24T04:48:13Z</time>
      </trkpt>
      <trkpt lat="44.9433" lon="6.40795">
        <ele>2760.08</ele>
        <time>2020-07-24T04:48:40Z</time>
      </trkpt>
      <trkpt lat="44.9434" lon="6.40794">
        <ele>2764.89</ele>
        <time>2020-07-24T04:49:10Z</time>
      </trkpt>
      <trkpt lat="44.9435" lon="6.40789">
        <ele>2768.73</ele>
        <time>2020-07-24T04:49:40Z</time>
      </trkpt>
      <trkpt lat="44.94364" lon="6.40782">
        <ele>2774.02</ele>
        <time>2020-07-24T04:50:14Z</time>
      </trkpt>
      <trkpt lat="44.94372" lon="6.40779">
        <ele>2777.39</ele>
        <time>2020-07-24T04:50:31Z</time>
      </trkpt>
      <trkpt lat="44.94373" lon="6.4075">
        <ele>2780.75</ele>
        <time>2020-07-24T04:51:03Z</time>
      </trkpt>
      <trkpt lat="44.94383" lon="6.40719">
        <ele>2785.08</ele>
        <time>2020-07-24T04:51:45Z</time>
      </trkpt>
      <trkpt lat="44.94393" lon="6.40706">
        <ele>2789.88</ele>
        <time>2020-07-24T04:52:16Z</time>
      </trkpt>
      <trkpt lat="44.94403" lon="6.40681">
        <ele>2795.17</ele>
        <time>2020-07-24T04:52:51Z</time>
      </trkpt>
      <trkpt lat="44.94411" lon="6.40654">
        <ele>2799.5</ele>
        <time>2020-07-24T04:53:26Z</time>
      </trkpt>
      <trkpt lat="44.9442" lon="6.40644">
        <ele>2805.75</ele>
        <time>2020-07-24T04:54:01Z</time>
      </trkpt>
      <trkpt lat="44.94431" lon="6.40634">
        <ele>2810.07</ele>
        <time>2020-07-24T04:54:31Z</time>
      </trkpt>
      <trkpt lat="44.94442" lon="6.40618">
        <ele>2815.36</ele>
        <time>2020-07-24T04:55:06Z</time>
      </trkpt>
      <trkpt lat="44.94447" lon="6.40606">
        <ele>2820.65</ele>
        <time>2020-07-24T04:55:38Z</time>
      </trkpt>
      <trkpt lat="44.9445" lon="6.40596">
        <ele>2825.93</ele>
        <time>2020-07-24T04:56:09Z</time>
      </trkpt>
      <trkpt lat="44.94449" lon="6.40595">
        <ele>2825.93</ele>
        <time>2020-07-24T04:56:13Z</time>
      </trkpt>
      <trkpt lat="44.94456" lon="6.40594">
        <ele>2829.78</ele>
        <time>2020-07-24T04:56:28Z</time>
      </trkpt>
      <trkpt lat="44.94474" lon="6.4059">
        <ele>2835.06</ele>
        <time>2020-07-24T04:56:59Z</time>
      </trkpt>
      <trkpt lat="44.94485" lon="6.40579">
        <ele>2839.39</ele>
        <time>2020-07-24T04:57:31Z</time>
      </trkpt>
      <trkpt lat="44.94489" lon="6.4057">
        <ele>2843.24</ele>
        <time>2020-07-24T04:57:47Z</time>
      </trkpt>
      <trkpt lat="44.94515" lon="6.40536">
        <ele>2846.6</ele>
        <time>2020-07-24T04:58:45Z</time>
      </trkpt>
      <trkpt lat="44.94536" lon="6.40514">
        <ele>2850.93</ele>
        <time>2020-07-24T04:59:32Z</time>
      </trkpt>
      <trkpt lat="44.94561" lon="6.40489">
        <ele>2854.77</ele>
        <time>2020-07-24T05:00:09Z</time>
      </trkpt>
      <trkpt lat="44.94576" lon="6.40479">
        <ele>2860.54</ele>
        <time>2020-07-24T05:00:44Z</time>
      </trkpt>
      <trkpt lat="44.94592" lon="6.40472">
        <ele>2865.35</ele>
        <time>2020-07-24T05:01:14Z</time>
      </trkpt>
      <trkpt lat="44.94599" lon="6.4047">
        <ele>2864.39</ele>
        <time>2020-07-24T05:01:29Z</time>
      </trkpt>
      <trkpt lat="44.9462" lon="6.40449">
        <ele>2860.54</ele>
        <time>2020-07-24T05:02:05Z</time>
      </trkpt>
      <trkpt lat="44.94637" lon="6.40394">
        <ele>2856.69</ele>
        <time>2020-07-24T05:03:34Z</time>
      </trkpt>
      <trkpt lat="44.94651" lon="6.40267">
        <ele>2850.45</ele>
        <time>2020-07-24T05:06:09Z</time>
      </trkpt>
      <trkpt lat="44.94644" lon="6.40268">
        <ele>2849.97</ele>
        <time>2020-07-24T05:19:06Z</time>
      </trkpt>
      <trkpt lat="44.94626" lon="6.40199">
        <ele>2853.33</ele>
        <time>2020-07-24T05:22:00Z</time>
      </trkpt>
      <trkpt lat="44.94621" lon="6.40171">
        <ele>2857.66</ele>
        <time>2020-07-24T05:22:35Z</time>
      </trkpt>
      <trkpt lat="44.94623" lon="6.40146">
        <ele>2861.02</ele>
        <time>2020-07-24T05:23:11Z</time>
      </trkpt>
      <trkpt lat="44.94631" lon="6.40117">
        <ele>2865.83</ele>
        <time>2020-07-24T05:23:52Z</time>
      </trkpt>
      <trkpt lat="44.9464" lon="6.40095">
        <ele>2869.67</ele>
        <time>2020-07-24T05:24:24Z</time>
      </trkpt>
      <trkpt lat="44.94651" lon="6.40073">
        <ele>2874.48</ele>
        <time>2020-07-24T05:25:05Z</time>
      </trkpt>
      <trkpt lat="44.9466" lon="6.4005">
        <ele>2877.84</ele>
        <time>2020-07-24T05:25:37Z</time>
      </trkpt>
      <trkpt lat="44.9467" lon="6.40034">
        <ele>2881.21</ele>
        <time>2020-07-24T05:26:00Z</time>
      </trkpt>
      <trkpt lat="44.9469" lon="6.4">
        <ele>2885.05</ele>
        <time>2020-07-24T05:26:52Z</time>
      </trkpt>
      <trkpt lat="44.94697" lon="6.39975">
        <ele>2888.9</ele>
        <time>2020-07-24T05:27:32Z</time>
      </trkpt>
      <trkpt lat="44.94706" lon="6.39945">
        <ele>2894.19</ele>
        <time>2020-07-24T05:28:19Z</time>
      </trkpt>
      <trkpt lat="44.94716" lon="6.3991">
        <ele>2899.95</ele>
        <time>2020-07-24T05:29:17Z</time>
      </trkpt>
      <trkpt lat="44.94719" lon="6.39899">
        <ele>2903.32</ele>
        <time>2020-07-24T05:29:39Z</time>
      </trkpt>
      <trkpt lat="44.94722" lon="6.39884">
        <ele>2908.13</ele>
        <time>2020-07-24T05:30:09Z</time>
      </trkpt>
      <trkpt lat="44.94725" lon="6.39869">
        <ele>2914.37</ele>
        <time>2020-07-24T05:30:39Z</time>
      </trkpt>
      <trkpt lat="44.94727" lon="6.39854">
        <ele>2919.66</ele>
        <time>2020-07-24T05:31:55Z</time>
      </trkpt>
      <trkpt lat="44.94728" lon="6.39824">
        <ele>2923.51</ele>
        <time>2020-07-24T05:32:41Z</time>
      </trkpt>
      <trkpt lat="44.94727" lon="6.39804">
        <ele>2927.35</ele>
        <time>2020-07-24T05:33:08Z</time>
      </trkpt>
      <trkpt lat="44.94737" lon="6.3979">
        <ele>2931.68</ele>
        <time>2020-07-24T05:33:46Z</time>
      </trkpt>
      <trkpt lat="44.9474" lon="6.39773">
        <ele>2936.97</ele>
        <time>2020-07-24T05:34:20Z</time>
      </trkpt>
      <trkpt lat="44.94743" lon="6.39759">
        <ele>2942.25</ele>
        <time>2020-07-24T05:34:56Z</time>
      </trkpt>
      <trkpt lat="44.94748" lon="6.39743">
        <ele>2948.02</ele>
        <time>2020-07-24T05:35:28Z</time>
      </trkpt>
      <trkpt lat="44.94748" lon="6.39742">
        <ele>2948.02</ele>
        <time>2020-07-24T05:35:29Z</time>
      </trkpt>
      <trkpt lat="44.94753" lon="6.39704">
        <ele>2953.79</ele>
        <time>2020-07-24T05:36:32Z</time>
      </trkpt>
      <trkpt lat="44.94756" lon="6.39692">
        <ele>2957.15</ele>
        <time>2020-07-24T05:36:49Z</time>
      </trkpt>
      <trkpt lat="44.94761" lon="6.39665">
        <ele>2960.52</ele>
        <time>2020-07-24T05:37:24Z</time>
      </trkpt>
      <trkpt lat="44.94768" lon="6.39632">
        <ele>2964.84</ele>
        <time>2020-07-24T05:38:05Z</time>
      </trkpt>
      <trkpt lat="44.94772" lon="6.396">
        <ele>2968.21</ele>
        <time>2020-07-24T05:38:43Z</time>
      </trkpt>
      <trkpt lat="44.94772" lon="6.39593">
        <ele>2971.57</ele>
        <time>2020-07-24T05:38:52Z</time>
      </trkpt>
      <trkpt lat="44.94785" lon="6.39549">
        <ele>2971.09</ele>
        <time>2020-07-24T05:42:40Z</time>
      </trkpt>
      <trkpt lat="44.94785" lon="6.39549">
        <ele>2975.9</ele>
        <time>2020-07-24T05:42:42Z</time>
      </trkpt>
      <trkpt lat="44.94798" lon="6.39533">
        <ele>2983.59</ele>
        <time>2020-07-24T05:47:38Z</time>
      </trkpt>
      <trkpt lat="44.94802" lon="6.39533">
        <ele>2986.95</ele>
        <time>2020-07-24T05:47:55Z</time>
      </trkpt>
      <trkpt lat="44.94809" lon="6.39538">
        <ele>2993.2</ele>
        <time>2020-07-24T05:48:26Z</time>
      </trkpt>
      <trkpt lat="44.94817" lon="6.39542">
        <ele>2998.97</ele>
        <time>2020-07-24T05:49:24Z</time>
      </trkpt>
      <trkpt lat="44.94823" lon="6.39549">
        <ele>3002.33</ele>
        <time>2020-07-24T05:49:42Z</time>
      </trkpt>
      <trkpt lat="44.94832" lon="6.39555">
        <ele>3006.66</ele>
        <time>2020-07-24T05:50:11Z</time>
      </trkpt>
      <trkpt lat="44.94839" lon="6.39552">
        <ele>3012.91</ele>
        <time>2020-07-24T05:50:46Z</time>
      </trkpt>
      <trkpt lat="44.9485" lon="6.39544">
        <ele>3017.23</ele>
        <time>2020-07-24T05:51:21Z</time>
      </trkpt>
      <trkpt lat="44.94854" lon="6.39533">
        <ele>3023</ele>
        <time>2020-07-24T05:51:57Z</time>
      </trkpt>
      <trkpt lat="44.94866" lon="6.39531">
        <ele>3027.33</ele>
        <time>2020-07-24T05:52:33Z</time>
      </trkpt>
      <trkpt lat="44.94883" lon="6.39555">
        <ele>3032.14</ele>
        <time>2020-07-24T05:53:27Z</time>
      </trkpt>
      <trkpt lat="44.94899" lon="6.39582">
        <ele>3036.46</ele>
        <time>2020-07-24T05:54:11Z</time>
      </trkpt>
      <trkpt lat="44.94908" lon="6.39587">
        <ele>3040.79</ele>
        <time>2020-07-24T05:54:47Z</time>
      </trkpt>
      <trkpt lat="44.94915" lon="6.39586">
        <ele>3045.11</ele>
        <time>2020-07-24T05:55:09Z</time>
      </trkpt>
      <trkpt lat="44.94926" lon="6.39595">
        <ele>3048.96</ele>
        <time>2020-07-24T05:55:40Z</time>
      </trkpt>
      <trkpt lat="44.94934" lon="6.39602">
        <ele>3052.32</ele>
        <time>2020-07-24T05:55:58Z</time>
      </trkpt>
      <trkpt lat="44.94942" lon="6.39611">
        <ele>3057.13</ele>
        <time>2020-07-24T05:56:20Z</time>
      </trkpt>
      <trkpt lat="44.94945" lon="6.39617">
        <ele>3060.49</ele>
        <time>2020-07-24T05:56:29Z</time>
      </trkpt>
      <trkpt lat="44.94946" lon="6.39617">
        <ele>3060.49</ele>
        <time>2020-07-24T05:56:30Z</time>
      </trkpt>
      <trkpt lat="44.94952" lon="6.3962">
        <ele>3055.21</ele>
        <time>2020-07-24T05:56:57Z</time>
      </trkpt>
      <trkpt lat="44.94959" lon="6.39617">
        <ele>3055.21</ele>
        <time>2020-07-24T06:02:33Z</time>
      </trkpt>
      <trkpt lat="44.95007" lon="6.39662">
        <ele>3059.53</ele>
        <time>2020-07-24T06:05:37Z</time>
      </trkpt>
      <trkpt lat="44.95038" lon="6.39701">
        <ele>3062.9</ele>
        <time>2020-07-24T06:06:33Z</time>
      </trkpt>
      <trkpt lat="44.95052" lon="6.39712">
        <ele>3067.7</ele>
        <time>2020-07-24T06:07:13Z</time>
      </trkpt>
      <trkpt lat="44.95065" lon="6.39716">
        <ele>3073.47</ele>
        <time>2020-07-24T06:07:51Z</time>
      </trkpt>
      <trkpt lat="44.95073" lon="6.39716">
        <ele>3076.84</ele>
        <time>2020-07-24T06:08:09Z</time>
      </trkpt>
      <trkpt lat="44.95087" lon="6.39732">
        <ele>3082.6</ele>
        <time>2020-07-24T06:08:49Z</time>
      </trkpt>
      <trkpt lat="44.951" lon="6.39744">
        <ele>3088.37</ele>
        <time>2020-07-24T06:09:26Z</time>
      </trkpt>
      <trkpt lat="44.95111" lon="6.39753">
        <ele>3094.62</ele>
        <time>2020-07-24T06:10:01Z</time>
      </trkpt>
      <trkpt lat="44.95115" lon="6.39753">
        <ele>3097.99</ele>
        <time>2020-07-24T06:10:14Z</time>
      </trkpt>
      <trkpt lat="44.9512" lon="6.39754">
        <ele>3101.35</ele>
        <time>2020-07-24T06:11:48Z</time>
      </trkpt>
      <trkpt lat="44.9513" lon="6.39782">
        <ele>3107.6</ele>
        <time>2020-07-24T06:12:30Z</time>
      </trkpt>
      <trkpt lat="44.95131" lon="6.39812">
        <ele>3112.89</ele>
        <time>2020-07-24T06:13:11Z</time>
      </trkpt>
      <trkpt lat="44.95127" lon="6.39849">
        <ele>3118.17</ele>
        <time>2020-07-24T06:13:51Z</time>
      </trkpt>
      <trkpt lat="44.95122" lon="6.39863">
        <ele>3123.46</ele>
        <time>2020-07-24T06:14:24Z</time>
      </trkpt>
      <trkpt lat="44.95119" lon="6.39872">
        <ele>3126.83</ele>
        <time>2020-07-24T06:14:46Z</time>
      </trkpt>
      <trkpt lat="44.95119" lon="6.39879">
        <ele>3130.19</ele>
        <time>2020-07-24T06:15:01Z</time>
      </trkpt>
      <trkpt lat="44.95119" lon="6.39879">
        <ele>3130.19</ele>
        <time>2020-07-24T06:15:02Z</time>
      </trkpt>
      <trkpt lat="44.95126" lon="6.39892">
        <ele>3135.96</ele>
        <time>2020-07-24T06:15:38Z</time>
      </trkpt>
      <trkpt lat="44.95131" lon="6.39907">
        <ele>3141.73</ele>
        <time>2020-07-24T06:16:12Z</time>
      </trkpt>
      <trkpt lat="44.95134" lon="6.39912">
        <ele>3145.09</ele>
        <time>2020-07-24T06:16:26Z</time>
      </trkpt>
      <trkpt lat="44.95131" lon="6.39925">
        <ele>3149.9</ele>
        <time>2020-07-24T06:16:58Z</time>
      </trkpt>
      <trkpt lat="44.95129" lon="6.39932">
        <ele>3153.26</ele>
        <time>2020-07-24T06:17:13Z</time>
      </trkpt>
      <trkpt lat="44.95127" lon="6.39951">
        <ele>3158.55</ele>
        <time>2020-07-24T06:17:49Z</time>
      </trkpt>
      <trkpt lat="44.95129" lon="6.3996">
        <ele>3161.91</ele>
        <time>2020-07-24T06:18:06Z</time>
      </trkpt>
      <trkpt lat="44.95142" lon="6.3997">
        <ele>3165.76</ele>
        <time>2020-07-24T06:18:44Z</time>
      </trkpt>
      <trkpt lat="44.95156" lon="6.39966">
        <ele>3171.53</ele>
        <time>2020-07-24T06:19:20Z</time>
      </trkpt>
      <trkpt lat="44.95182" lon="6.39953">
        <ele>3177.29</ele>
        <time>2020-07-24T06:20:12Z</time>
      </trkpt>
      <trkpt lat="44.95189" lon="6.39954">
        <ele>3180.66</ele>
        <time>2020-07-24T06:20:29Z</time>
      </trkpt>
      <trkpt lat="44.95195" lon="6.39959">
        <ele>3184.02</ele>
        <time>2020-07-24T06:20:49Z</time>
      </trkpt>
      <trkpt lat="44.95204" lon="6.39955">
        <ele>3189.31</ele>
        <time>2020-07-24T06:21:23Z</time>
      </trkpt>
      <trkpt lat="44.9521" lon="6.39958">
        <ele>3192.68</ele>
        <time>2020-07-24T06:21:41Z</time>
      </trkpt>
      <trkpt lat="44.95213" lon="6.39956">
        <ele>3196.04</ele>
        <time>2020-07-24T06:21:58Z</time>
      </trkpt>
      <trkpt lat="44.95218" lon="6.39957">
        <ele>3199.4</ele>
        <time>2020-07-24T06:22:16Z</time>
      </trkpt>
      <trkpt lat="44.95223" lon="6.39962">
        <ele>3202.77</ele>
        <time>2020-07-24T06:22:33Z</time>
      </trkpt>
      <trkpt lat="44.95227" lon="6.39966">
        <ele>3206.13</ele>
        <time>2020-07-24T06:22:49Z</time>
      </trkpt>
      <trkpt lat="44.9523" lon="6.39971">
        <ele>3209.5</ele>
        <time>2020-07-24T06:23:02Z</time>
      </trkpt>
      <trkpt lat="44.95235" lon="6.39972">
        <ele>3212.86</ele>
        <time>2020-07-24T06:23:16Z</time>
      </trkpt>
      <trkpt lat="44.95264" lon="6.39982">
        <ele>3216.71</ele>
        <time>2020-07-24T06:24:32Z</time>
      </trkpt>
      <trkpt lat="44.95264" lon="6.39981">
        <ele>3216.71</ele>
        <time>2020-07-24T06:25:09Z</time>
      </trkpt>
      <trkpt lat="44.95301" lon="6.40033">
        <ele>3220.55</ele>
        <time>2020-07-24T06:27:20Z</time>
      </trkpt>
      <trkpt lat="44.95313" lon="6.40062">
        <ele>3226.32</ele>
        <time>2020-07-24T06:28:04Z</time>
      </trkpt>
      <trkpt lat="44.95321" lon="6.40077">
        <ele>3232.57</ele>
        <time>2020-07-24T06:28:42Z</time>
      </trkpt>
      <trkpt lat="44.95323" lon="6.40102">
        <ele>3237.86</ele>
        <time>2020-07-24T06:29:20Z</time>
      </trkpt>
      <trkpt lat="44.95323" lon="6.40113">
        <ele>3241.22</ele>
        <time>2020-07-24T06:29:39Z</time>
      </trkpt>
      <trkpt lat="44.95323" lon="6.40124">
        <ele>3244.59</ele>
        <time>2020-07-24T06:29:57Z</time>
      </trkpt>
      <trkpt lat="44.95319" lon="6.40145">
        <ele>3249.87</ele>
        <time>2020-07-24T06:30:42Z</time>
      </trkpt>
      <trkpt lat="44.9531" lon="6.40165">
        <ele>3254.68</ele>
        <time>2020-07-24T06:31:21Z</time>
      </trkpt>
      <trkpt lat="44.95302" lon="6.40181">
        <ele>3259.49</ele>
        <time>2020-07-24T06:32:03Z</time>
      </trkpt>
      <trkpt lat="44.953" lon="6.40188">
        <ele>3263.81</ele>
        <time>2020-07-24T06:32:43Z</time>
      </trkpt>
      <trkpt lat="44.953" lon="6.40192">
        <ele>3269.1</ele>
        <time>2020-07-24T06:33:14Z</time>
      </trkpt>
      <trkpt lat="44.95298" lon="6.40201">
        <ele>3275.83</ele>
        <time>2020-07-24T06:33:53Z</time>
      </trkpt>
      <trkpt lat="44.95298" lon="6.40201">
        <ele>3275.83</ele>
        <time>2020-07-24T06:33:54Z</time>
      </trkpt>
      <trkpt lat="44.9529" lon="6.40211">
        <ele>3280.16</ele>
        <time>2020-07-24T06:34:31Z</time>
      </trkpt>
      <trkpt lat="44.95286" lon="6.40219">
        <ele>3284</ele>
        <time>2020-07-24T06:35:40Z</time>
      </trkpt>
      <trkpt lat="44.95293" lon="6.40223">
        <ele>3288.81</ele>
        <time>2020-07-24T06:36:41Z</time>
      </trkpt>
      <trkpt lat="44.95295" lon="6.40232">
        <ele>3293.13</ele>
        <time>2020-07-24T06:37:11Z</time>
      </trkpt>
      <trkpt lat="44.95295" lon="6.40241">
        <ele>3297.94</ele>
        <time>2020-07-24T06:37:41Z</time>
      </trkpt>
      <trkpt lat="44.95296" lon="6.40252">
        <ele>3303.23</ele>
        <time>2020-07-24T06:38:12Z</time>
      </trkpt>
      <trkpt lat="44.95285" lon="6.40271">
        <ele>3308.03</ele>
        <time>2020-07-24T06:38:53Z</time>
      </trkpt>
      <trkpt lat="44.95281" lon="6.40279">
        <ele>3311.88</ele>
        <time>2020-07-24T06:39:11Z</time>
      </trkpt>
      <trkpt lat="44.95222" lon="6.40345">
        <ele>3317.17</ele>
        <time>2020-07-24T06:41:29Z</time>
      </trkpt>
      <trkpt lat="44.95218" lon="6.40354">
        <ele>3323.42</ele>
        <time>2020-07-24T06:41:54Z</time>
      </trkpt>
      <trkpt lat="44.95215" lon="6.40364">
        <ele>3327.26</ele>
        <time>2020-07-24T06:42:28Z</time>
      </trkpt>
      <trkpt lat="44.95217" lon="6.40379">
        <ele>3333.03</ele>
        <time>2020-07-24T06:43:03Z</time>
      </trkpt>
      <trkpt lat="44.95214" lon="6.40393">
        <ele>3339.28</ele>
        <time>2020-07-24T06:43:40Z</time>
      </trkpt>
      <trkpt lat="44.95213" lon="6.40407">
        <ele>3344.08</ele>
        <time>2020-07-24T06:44:16Z</time>
      </trkpt>
      <trkpt lat="44.95205" lon="6.40419">
        <ele>3347.93</ele>
        <time>2020-07-24T06:44:51Z</time>
      </trkpt>
      <trkpt lat="44.95204" lon="6.40424">
        <ele>3351.77</ele>
        <time>2020-07-24T06:45:07Z</time>
      </trkpt>
      <trkpt lat="44.95197" lon="6.40438">
        <ele>3357.54</ele>
        <time>2020-07-24T06:45:52Z</time>
      </trkpt>
      <trkpt lat="44.95197" lon="6.40438">
        <ele>3356.1</ele>
        <time>2020-07-24T06:45:55Z</time>
      </trkpt>
      <trkpt lat="44.95196" lon="6.40446">
        <ele>3360.43</ele>
        <time>2020-07-24T06:46:35Z</time>
      </trkpt>
      <trkpt lat="44.95197" lon="6.40436">
        <ele>3358.98</ele>
        <time>2020-07-24T07:00:44Z</time>
      </trkpt>
      <trkpt lat="44.95201" lon="6.40426">
        <ele>3354.66</ele>
        <time>2020-07-24T07:01:15Z</time>
      </trkpt>
      <trkpt lat="44.9521" lon="6.40416">
        <ele>3349.85</ele>
        <time>2020-07-24T07:01:46Z</time>
      </trkpt>
      <trkpt lat="44.95214" lon="6.40407">
        <ele>3346.49</ele>
        <time>2020-07-24T07:01:59Z</time>
      </trkpt>
      <trkpt lat="44.95216" lon="6.40395">
        <ele>3342.16</ele>
        <time>2020-07-24T07:02:10Z</time>
      </trkpt>
      <trkpt lat="44.95218" lon="6.40383">
        <ele>3337.35</ele>
        <time>2020-07-24T07:02:36Z</time>
      </trkpt>
      <trkpt lat="44.95217" lon="6.40373">
        <ele>3333.51</ele>
        <time>2020-07-24T07:02:54Z</time>
      </trkpt>
      <trkpt lat="44.95218" lon="6.40358">
        <ele>3327.26</ele>
        <time>2020-07-24T07:03:13Z</time>
      </trkpt>
      <trkpt lat="44.95218" lon="6.40358">
        <ele>3327.26</ele>
        <time>2020-07-24T07:03:14Z</time>
      </trkpt>
      <trkpt lat="44.95216" lon="6.40348">
        <ele>3322.45</ele>
        <time>2020-07-24T07:03:30Z</time>
      </trkpt>
      <trkpt lat="44.95216" lon="6.40341">
        <ele>3319.09</ele>
        <time>2020-07-24T07:03:48Z</time>
      </trkpt>
      <trkpt lat="44.95216" lon="6.40327">
        <ele>3312.84</ele>
        <time>2020-07-24T07:04:08Z</time>
      </trkpt>
      <trkpt lat="44.95222" lon="6.40315">
        <ele>3309</ele>
        <time>2020-07-24T07:04:31Z</time>
      </trkpt>
      <trkpt lat="44.95234" lon="6.40278">
        <ele>3304.67</ele>
        <time>2020-07-24T07:04:57Z</time>
      </trkpt>
      <trkpt lat="44.95251" lon="6.40262">
        <ele>3299.86</ele>
        <time>2020-07-24T07:05:33Z</time>
      </trkpt>
      <trkpt lat="44.95254" lon="6.40259">
        <ele>3296.5</ele>
        <time>2020-07-24T07:05:49Z</time>
      </trkpt>
      <trkpt lat="44.95258" lon="6.40249">
        <ele>3293.13</ele>
        <time>2020-07-24T07:06:22Z</time>
      </trkpt>
      <trkpt lat="44.95263" lon="6.40247">
        <ele>3293.13</ele>
        <time>2020-07-24T07:06:46Z</time>
      </trkpt>
      <trkpt lat="44.95277" lon="6.4023">
        <ele>3288.81</ele>
        <time>2020-07-24T07:07:51Z</time>
      </trkpt>
      <trkpt lat="44.95279" lon="6.40221">
        <ele>3284.48</ele>
        <time>2020-07-24T07:08:48Z</time>
      </trkpt>
      <trkpt lat="44.95278" lon="6.40217">
        <ele>3279.67</ele>
        <time>2020-07-24T07:09:22Z</time>
      </trkpt>
      <trkpt lat="44.9527" lon="6.40217">
        <ele>3274.39</ele>
        <time>2020-07-24T07:09:56Z</time>
      </trkpt>
      <trkpt lat="44.95271" lon="6.40208">
        <ele>3268.62</ele>
        <time>2020-07-24T07:10:46Z</time>
      </trkpt>
      <trkpt lat="44.9527" lon="6.40201">
        <ele>3264.29</ele>
        <time>2020-07-24T07:11:40Z</time>
      </trkpt>
      <trkpt lat="44.95267" lon="6.40198">
        <ele>3260.45</ele>
        <time>2020-07-24T07:12:14Z</time>
      </trkpt>
      <trkpt lat="44.95265" lon="6.40191">
        <ele>3256.12</ele>
        <time>2020-07-24T07:12:47Z</time>
      </trkpt>
      <trkpt lat="44.95265" lon="6.40183">
        <ele>3251.8</ele>
        <time>2020-07-24T07:12:58Z</time>
      </trkpt>
      <trkpt lat="44.95266" lon="6.40175">
        <ele>3246.51</ele>
        <time>2020-07-24T07:13:08Z</time>
      </trkpt>
      <trkpt lat="44.95263" lon="6.40169">
        <ele>3242.66</ele>
        <time>2020-07-24T07:13:18Z</time>
      </trkpt>
      <trkpt lat="44.95263" lon="6.40168">
        <ele>3242.66</ele>
        <time>2020-07-24T07:13:19Z</time>
      </trkpt>
      <trkpt lat="44.95276" lon="6.40146">
        <ele>3237.86</ele>
        <time>2020-07-24T07:16:49Z</time>
      </trkpt>
      <trkpt lat="44.95286" lon="6.40119">
        <ele>3232.09</ele>
        <time>2020-07-24T07:17:08Z</time>
      </trkpt>
      <trkpt lat="44.95291" lon="6.40084">
        <ele>3225.36</ele>
        <time>2020-07-24T07:17:30Z</time>
      </trkpt>
      <trkpt lat="44.95291" lon="6.40082">
        <ele>3225.36</ele>
        <time>2020-07-24T07:17:31Z</time>
      </trkpt>
      <trkpt lat="44.9529" lon="6.40047">
        <ele>3222</ele>
        <time>2020-07-24T07:17:49Z</time>
      </trkpt>
      <trkpt lat="44.9529" lon="6.40036">
        <ele>3222.96</ele>
        <time>2020-07-24T07:17:55Z</time>
      </trkpt>
      <trkpt lat="44.95233" lon="6.39962">
        <ele>3215.75</ele>
        <time>2020-07-24T07:22:25Z</time>
      </trkpt>
      <trkpt lat="44.95223" lon="6.39956">
        <ele>3210.46</ele>
        <time>2020-07-24T07:22:39Z</time>
      </trkpt>
      <trkpt lat="44.95215" lon="6.39955">
        <ele>3204.69</ele>
        <time>2020-07-24T07:23:35Z</time>
      </trkpt>
      <trkpt lat="44.95209" lon="6.39956">
        <ele>3201.33</ele>
        <time>2020-07-24T07:23:46Z</time>
      </trkpt>
      <trkpt lat="44.952" lon="6.39954">
        <ele>3195.08</ele>
        <time>2020-07-24T07:24:13Z</time>
      </trkpt>
      <trkpt lat="44.9519" lon="6.39951">
        <ele>3188.83</ele>
        <time>2020-07-24T07:24:33Z</time>
      </trkpt>
      <trkpt lat="44.95185" lon="6.39947">
        <ele>3185.47</ele>
        <time>2020-07-24T07:24:43Z</time>
      </trkpt>
      <trkpt lat="44.95177" lon="6.39933">
        <ele>3179.22</ele>
        <time>2020-07-24T07:25:03Z</time>
      </trkpt>
      <trkpt lat="44.95171" lon="6.39928">
        <ele>3175.37</ele>
        <time>2020-07-24T07:25:17Z</time>
      </trkpt>
      <trkpt lat="44.95167" lon="6.39919">
        <ele>3172.01</ele>
        <time>2020-07-24T07:25:25Z</time>
      </trkpt>
      <trkpt lat="44.95162" lon="6.39917">
        <ele>3168.64</ele>
        <time>2020-07-24T07:25:34Z</time>
      </trkpt>
      <trkpt lat="44.9516" lon="6.3991">
        <ele>3165.28</ele>
        <time>2020-07-24T07:25:46Z</time>
      </trkpt>
      <trkpt lat="44.9515" lon="6.39912">
        <ele>3159.99</ele>
        <time>2020-07-24T07:26:05Z</time>
      </trkpt>
      <trkpt lat="44.95141" lon="6.39913">
        <ele>3156.63</ele>
        <time>2020-07-24T07:26:21Z</time>
      </trkpt>
      <trkpt lat="44.95134" lon="6.39911">
        <ele>3153.26</ele>
        <time>2020-07-24T07:26:31Z</time>
      </trkpt>
      <trkpt lat="44.95131" lon="6.39902">
        <ele>3149.9</ele>
        <time>2020-07-24T07:26:44Z</time>
      </trkpt>
      <trkpt lat="44.95128" lon="6.39893">
        <ele>3145.09</ele>
        <time>2020-07-24T07:26:52Z</time>
      </trkpt>
      <trkpt lat="44.95123" lon="6.39881">
        <ele>3139.8</ele>
        <time>2020-07-24T07:27:03Z</time>
      </trkpt>
      <trkpt lat="44.95121" lon="6.39872">
        <ele>3136.44</ele>
        <time>2020-07-24T07:27:10Z</time>
      </trkpt>
      <trkpt lat="44.95123" lon="6.39853">
        <ele>3130.67</ele>
        <time>2020-07-24T07:27:25Z</time>
      </trkpt>
      <trkpt lat="44.95125" lon="6.39836">
        <ele>3125.86</ele>
        <time>2020-07-24T07:27:39Z</time>
      </trkpt>
      <trkpt lat="44.95126" lon="6.39823">
        <ele>3122.5</ele>
        <time>2020-07-24T07:27:53Z</time>
      </trkpt>
      <trkpt lat="44.95129" lon="6.398">
        <ele>3119.13</ele>
        <time>2020-07-24T07:28:14Z</time>
      </trkpt>
      <trkpt lat="44.95128" lon="6.39785">
        <ele>3115.77</ele>
        <time>2020-07-24T07:28:25Z</time>
      </trkpt>
      <trkpt lat="44.95127" lon="6.39772">
        <ele>3112.41</ele>
        <time>2020-07-24T07:28:36Z</time>
      </trkpt>
      <trkpt lat="44.9512" lon="6.39763">
        <ele>3108.56</ele>
        <time>2020-07-24T07:28:47Z</time>
      </trkpt>
      <trkpt lat="44.95106" lon="6.39754">
        <ele>3102.79</ele>
        <time>2020-07-24T07:29:03Z</time>
      </trkpt>
      <trkpt lat="44.95096" lon="6.39738">
        <ele>3096.54</ele>
        <time>2020-07-24T07:30:03Z</time>
      </trkpt>
      <trkpt lat="44.95085" lon="6.39732">
        <ele>3091.26</ele>
        <time>2020-07-24T07:30:16Z</time>
      </trkpt>
      <trkpt lat="44.95074" lon="6.39726">
        <ele>3086.45</ele>
        <time>2020-07-24T07:30:28Z</time>
      </trkpt>
      <trkpt lat="44.95059" lon="6.39718">
        <ele>3079.72</ele>
        <time>2020-07-24T07:30:42Z</time>
      </trkpt>
      <trkpt lat="44.95048" lon="6.39715">
        <ele>3075.4</ele>
        <time>2020-07-24T07:30:53Z</time>
      </trkpt>
      <trkpt lat="44.95039" lon="6.39704">
        <ele>3072.03</ele>
        <time>2020-07-24T07:31:03Z</time>
      </trkpt>
      <trkpt lat="44.95018" lon="6.39698">
        <ele>3067.22</ele>
        <time>2020-07-24T07:31:20Z</time>
      </trkpt>
      <trkpt lat="44.95005" lon="6.39689">
        <ele>3065.3</ele>
        <time>2020-07-24T07:31:34Z</time>
      </trkpt>
      <trkpt lat="44.94967" lon="6.3966">
        <ele>3061.46</ele>
        <time>2020-07-24T07:32:16Z</time>
      </trkpt>
      <trkpt lat="44.94948" lon="6.39645">
        <ele>3056.17</ele>
        <time>2020-07-24T07:32:39Z</time>
      </trkpt>
      <trkpt lat="44.94927" lon="6.39631">
        <ele>3049.44</ele>
        <time>2020-07-24T07:33:05Z</time>
      </trkpt>
      <trkpt lat="44.94917" lon="6.39629">
        <ele>3044.63</ele>
        <time>2020-07-24T07:33:18Z</time>
      </trkpt>
      <trkpt lat="44.94905" lon="6.39621">
        <ele>3039.83</ele>
        <time>2020-07-24T07:33:32Z</time>
      </trkpt>
      <trkpt lat="44.94894" lon="6.39609">
        <ele>3036.46</ele>
        <time>2020-07-24T07:33:44Z</time>
      </trkpt>
      <trkpt lat="44.94866" lon="6.39585">
        <ele>3028.77</ele>
        <time>2020-07-24T07:34:17Z</time>
      </trkpt>
      <trkpt lat="44.94862" lon="6.39582">
        <ele>3024.44</ele>
        <time>2020-07-24T07:37:54Z</time>
      </trkpt>
      <trkpt lat="44.94845" lon="6.39575">
        <ele>3019.64</ele>
        <time>2020-07-24T07:39:50Z</time>
      </trkpt>
      <trkpt lat="44.94837" lon="6.39563">
        <ele>3016.27</ele>
        <time>2020-07-24T07:40:02Z</time>
      </trkpt>
      <trkpt lat="44.94825" lon="6.39552">
        <ele>3012.43</ele>
        <time>2020-07-24T07:40:38Z</time>
      </trkpt>
      <trkpt lat="44.94818" lon="6.39549">
        <ele>3007.14</ele>
        <time>2020-07-24T07:40:52Z</time>
      </trkpt>
      <trkpt lat="44.94814" lon="6.39548">
        <ele>3003.78</ele>
        <time>2020-07-24T07:41:00Z</time>
      </trkpt>
      <trkpt lat="44.9481" lon="6.39546">
        <ele>3000.41</ele>
        <time>2020-07-24T07:41:10Z</time>
      </trkpt>
      <trkpt lat="44.94806" lon="6.39537">
        <ele>2997.05</ele>
        <time>2020-07-24T07:41:31Z</time>
      </trkpt>
      <trkpt lat="44.94803" lon="6.39535">
        <ele>2993.68</ele>
        <time>2020-07-24T07:41:40Z</time>
      </trkpt>
      <trkpt lat="44.9479" lon="6.39533">
        <ele>2985.03</ele>
        <time>2020-07-24T07:42:16Z</time>
      </trkpt>
      <trkpt lat="44.94773" lon="6.39589">
        <ele>2978.78</ele>
        <time>2020-07-24T07:50:44Z</time>
      </trkpt>
      <trkpt lat="44.9477" lon="6.39611">
        <ele>2975.42</ele>
        <time>2020-07-24T07:50:59Z</time>
      </trkpt>
      <trkpt lat="44.94764" lon="6.3965">
        <ele>2971.57</ele>
        <time>2020-07-24T07:51:49Z</time>
      </trkpt>
      <trkpt lat="44.94758" lon="6.39675">
        <ele>2967.73</ele>
        <time>2020-07-24T07:52:06Z</time>
      </trkpt>
      <trkpt lat="44.94754" lon="6.39694">
        <ele>2963.88</ele>
        <time>2020-07-24T07:52:19Z</time>
      </trkpt>
      <trkpt lat="44.94754" lon="6.39695">
        <ele>2963.88</ele>
        <time>2020-07-24T07:52:20Z</time>
      </trkpt>
      <trkpt lat="44.94754" lon="6.39715">
        <ele>2959.56</ele>
        <time>2020-07-24T07:52:32Z</time>
      </trkpt>
      <trkpt lat="44.94748" lon="6.39744">
        <ele>2953.31</ele>
        <time>2020-07-24T07:53:02Z</time>
      </trkpt>
      <trkpt lat="44.94743" lon="6.3976">
        <ele>2947.06</ele>
        <time>2020-07-24T07:53:33Z</time>
      </trkpt>
      <trkpt lat="44.94738" lon="6.39781">
        <ele>2941.77</ele>
        <time>2020-07-24T07:53:51Z</time>
      </trkpt>
      <trkpt lat="44.94732" lon="6.39797">
        <ele>2938.41</ele>
        <time>2020-07-24T07:54:09Z</time>
      </trkpt>
      <trkpt lat="44.94725" lon="6.39805">
        <ele>2934.56</ele>
        <time>2020-07-24T07:54:21Z</time>
      </trkpt>
      <trkpt lat="44.94718" lon="6.39835">
        <ele>2929.27</ele>
        <time>2020-07-24T07:54:45Z</time>
      </trkpt>
      <trkpt lat="44.94721" lon="6.3985">
        <ele>2925.91</ele>
        <time>2020-07-24T07:55:05Z</time>
      </trkpt>
      <trkpt lat="44.94724" lon="6.39875">
        <ele>2919.18</ele>
        <time>2020-07-24T07:55:35Z</time>
      </trkpt>
      <trkpt lat="44.94723" lon="6.39887">
        <ele>2915.82</ele>
        <time>2020-07-24T07:55:46Z</time>
      </trkpt>
      <trkpt lat="44.94721" lon="6.39896">
        <ele>2912.93</ele>
        <time>2020-07-24T07:55:53Z</time>
      </trkpt>
      <trkpt lat="44.94715" lon="6.39912">
        <ele>2909.09</ele>
        <time>2020-07-24T07:56:06Z</time>
      </trkpt>
      <trkpt lat="44.94706" lon="6.39933">
        <ele>2905.72</ele>
        <time>2020-07-24T07:56:21Z</time>
      </trkpt>
      <trkpt lat="44.94699" lon="6.39959">
        <ele>2900.92</ele>
        <time>2020-07-24T07:56:44Z</time>
      </trkpt>
      <trkpt lat="44.94694" lon="6.39986">
        <ele>2897.07</ele>
        <time>2020-07-24T07:57:13Z</time>
      </trkpt>
      <trkpt lat="44.94685" lon="6.40009">
        <ele>2893.23</ele>
        <time>2020-07-24T07:57:50Z</time>
      </trkpt>
      <trkpt lat="44.94673" lon="6.40022">
        <ele>2893.23</ele>
        <time>2020-07-24T07:58:07Z</time>
      </trkpt>
      <trkpt lat="44.94665" lon="6.40043">
        <ele>2889.86</ele>
        <time>2020-07-24T07:58:24Z</time>
      </trkpt>
      <trkpt lat="44.94665" lon="6.40044">
        <ele>2889.86</ele>
        <time>2020-07-24T07:58:25Z</time>
      </trkpt>
      <trkpt lat="44.94655" lon="6.40063">
        <ele>2885.53</ele>
        <time>2020-07-24T07:58:39Z</time>
      </trkpt>
      <trkpt lat="44.94642" lon="6.40085">
        <ele>2880.25</ele>
        <time>2020-07-24T07:58:57Z</time>
      </trkpt>
      <trkpt lat="44.94627" lon="6.40122">
        <ele>2874.48</ele>
        <time>2020-07-24T07:59:20Z</time>
      </trkpt>
      <trkpt lat="44.94615" lon="6.40165">
        <ele>2867.75</ele>
        <time>2020-07-24T07:59:46Z</time>
      </trkpt>
      <trkpt lat="44.94609" lon="6.40195">
        <ele>2864.39</ele>
        <time>2020-07-24T08:00:03Z</time>
      </trkpt>
      <trkpt lat="44.94603" lon="6.40229">
        <ele>2861.02</ele>
        <time>2020-07-24T08:00:23Z</time>
      </trkpt>
      <trkpt lat="44.94603" lon="6.40259">
        <ele>2857.66</ele>
        <time>2020-07-24T08:00:55Z</time>
      </trkpt>
      <trkpt lat="44.94603" lon="6.4026">
        <ele>2857.66</ele>
        <time>2020-07-24T08:00:56Z</time>
      </trkpt>
      <trkpt lat="44.94584" lon="6.40341">
        <ele>2849</ele>
        <time>2020-07-24T08:01:52Z</time>
      </trkpt>
      <trkpt lat="44.94568" lon="6.40373">
        <ele>2843.72</ele>
        <time>2020-07-24T08:02:15Z</time>
      </trkpt>
      <trkpt lat="44.94553" lon="6.40411">
        <ele>2839.39</ele>
        <time>2020-07-24T08:02:40Z</time>
      </trkpt>
      <trkpt lat="44.94536" lon="6.40431">
        <ele>2833.62</ele>
        <time>2020-07-24T08:03:04Z</time>
      </trkpt>
      <trkpt lat="44.9453" lon="6.40439">
        <ele>2830.26</ele>
        <time>2020-07-24T08:03:13Z</time>
      </trkpt>
      <trkpt lat="44.9452" lon="6.40448">
        <ele>2826.89</ele>
        <time>2020-07-24T08:03:26Z</time>
      </trkpt>
      <trkpt lat="44.94512" lon="6.40454">
        <ele>2823.53</ele>
        <time>2020-07-24T08:03:35Z</time>
      </trkpt>
      <trkpt lat="44.94508" lon="6.40456">
        <ele>2822.57</ele>
        <time>2020-07-24T08:03:40Z</time>
      </trkpt>
      <trkpt lat="44.94503" lon="6.40459">
        <ele>2820.65</ele>
        <time>2020-07-24T08:03:45Z</time>
      </trkpt>
      <trkpt lat="44.94488" lon="6.40468">
        <ele>2816.8</ele>
        <time>2020-07-24T08:03:58Z</time>
      </trkpt>
      <trkpt lat="44.94441" lon="6.40516">
        <ele>2813.44</ele>
        <time>2020-07-24T08:04:43Z</time>
      </trkpt>
      <trkpt lat="44.94426" lon="6.40528">
        <ele>2809.59</ele>
        <time>2020-07-24T08:08:11Z</time>
      </trkpt>
      <trkpt lat="44.94427" lon="6.40525">
        <ele>2813.92</ele>
        <time>2020-07-24T08:12:52Z</time>
      </trkpt>
      <trkpt lat="44.94438" lon="6.40553">
        <ele>2817.76</ele>
        <time>2020-07-24T08:14:37Z</time>
      </trkpt>
      <trkpt lat="44.94409" lon="6.40597">
        <ele>2812.47</ele>
        <time>2020-07-24T08:15:36Z</time>
      </trkpt>
      <trkpt lat="44.94395" lon="6.4061">
        <ele>2809.59</ele>
        <time>2020-07-24T08:16:02Z</time>
      </trkpt>
      <trkpt lat="44.9438" lon="6.40643">
        <ele>2804.78</ele>
        <time>2020-07-24T08:16:28Z</time>
      </trkpt>
      <trkpt lat="44.9438" lon="6.40652">
        <ele>2800.46</ele>
        <time>2020-07-24T08:16:39Z</time>
      </trkpt>
      <trkpt lat="44.94378" lon="6.40663">
        <ele>2795.65</ele>
        <time>2020-07-24T08:16:52Z</time>
      </trkpt>
      <trkpt lat="44.94371" lon="6.40687">
        <ele>2790.36</ele>
        <time>2020-07-24T08:17:09Z</time>
      </trkpt>
      <trkpt lat="44.94368" lon="6.40694">
        <ele>2790.36</ele>
        <time>2020-07-24T08:17:13Z</time>
      </trkpt>
      <trkpt lat="44.94362" lon="6.4072">
        <ele>2787</ele>
        <time>2020-07-24T08:17:36Z</time>
      </trkpt>
      <trkpt lat="44.94336" lon="6.40761">
        <ele>2777.87</ele>
        <time>2020-07-24T08:18:32Z</time>
      </trkpt>
      <trkpt lat="44.94331" lon="6.40771">
        <ele>2774.5</ele>
        <time>2020-07-24T08:18:46Z</time>
      </trkpt>
      <trkpt lat="44.94326" lon="6.40781">
        <ele>2771.14</ele>
        <time>2020-07-24T08:18:59Z</time>
      </trkpt>
      <trkpt lat="44.94318" lon="6.40796">
        <ele>2765.85</ele>
        <time>2020-07-24T08:19:17Z</time>
      </trkpt>
      <trkpt lat="44.94302" lon="6.40803">
        <ele>2760.08</ele>
        <time>2020-07-24T08:19:39Z</time>
      </trkpt>
      <trkpt lat="44.94292" lon="6.40805">
        <ele>2755.76</ele>
        <time>2020-07-24T08:19:54Z</time>
      </trkpt>
      <trkpt lat="44.9427" lon="6.40829">
        <ele>2748.07</ele>
        <time>2020-07-24T08:20:27Z</time>
      </trkpt>
      <trkpt lat="44.9426" lon="6.40833">
        <ele>2744.7</ele>
        <time>2020-07-24T08:20:37Z</time>
      </trkpt>
      <trkpt lat="44.94241" lon="6.40844">
        <ele>2739.89</ele>
        <time>2020-07-24T08:20:57Z</time>
      </trkpt>
      <trkpt lat="44.94231" lon="6.40849">
        <ele>2736.53</ele>
        <time>2020-07-24T08:21:07Z</time>
      </trkpt>
      <trkpt lat="44.94202" lon="6.40871">
        <ele>2730.28</ele>
        <time>2020-07-24T08:21:39Z</time>
      </trkpt>
      <trkpt lat="44.94191" lon="6.4088">
        <ele>2726.92</ele>
        <time>2020-07-24T08:21:51Z</time>
      </trkpt>
      <trkpt lat="44.94183" lon="6.40884">
        <ele>2723.07</ele>
        <time>2020-07-24T08:22:01Z</time>
      </trkpt>
      <trkpt lat="44.94169" lon="6.40894">
        <ele>2717.78</ele>
        <time>2020-07-24T08:22:16Z</time>
      </trkpt>
      <trkpt lat="44.94147" lon="6.40906">
        <ele>2711.54</ele>
        <time>2020-07-24T08:22:40Z</time>
      </trkpt>
      <trkpt lat="44.94145" lon="6.40907">
        <ele>2711.54</ele>
        <time>2020-07-24T08:22:42Z</time>
      </trkpt>
      <trkpt lat="44.94133" lon="6.40927">
        <ele>2707.21</ele>
        <time>2020-07-24T08:22:58Z</time>
      </trkpt>
      <trkpt lat="44.94118" lon="6.40947">
        <ele>2701.44</ele>
        <time>2020-07-24T08:23:18Z</time>
      </trkpt>
      <trkpt lat="44.9411" lon="6.40961">
        <ele>2695.67</ele>
        <time>2020-07-24T08:23:35Z</time>
      </trkpt>
      <trkpt lat="44.9411" lon="6.40961">
        <ele>2695.67</ele>
        <time>2020-07-24T08:23:36Z</time>
      </trkpt>
      <trkpt lat="44.94097" lon="6.40978">
        <ele>2689.43</ele>
        <time>2020-07-24T08:23:58Z</time>
      </trkpt>
      <trkpt lat="44.94084" lon="6.40992">
        <ele>2685.1</ele>
        <time>2020-07-24T08:24:12Z</time>
      </trkpt>
      <trkpt lat="44.94071" lon="6.41">
        <ele>2681.25</ele>
        <time>2020-07-24T08:24:25Z</time>
      </trkpt>
      <trkpt lat="44.94069" lon="6.41002">
        <ele>2681.73</ele>
        <time>2020-07-24T08:24:28Z</time>
      </trkpt>
      <trkpt lat="44.94058" lon="6.41013">
        <ele>2678.37</ele>
        <time>2020-07-24T08:24:40Z</time>
      </trkpt>
      <trkpt lat="44.94051" lon="6.41029">
        <ele>2675.01</ele>
        <time>2020-07-24T08:24:50Z</time>
      </trkpt>
      <trkpt lat="44.94044" lon="6.41035">
        <ele>2675.49</ele>
        <time>2020-07-24T08:24:57Z</time>
      </trkpt>
      <trkpt lat="44.94037" lon="6.41045">
        <ele>2671.64</ele>
        <time>2020-07-24T08:25:14Z</time>
      </trkpt>
      <trkpt lat="44.94037" lon="6.41046">
        <ele>2671.64</ele>
        <time>2020-07-24T08:25:15Z</time>
      </trkpt>
      <trkpt lat="44.94026" lon="6.4106">
        <ele>2665.87</ele>
        <time>2020-07-24T08:25:27Z</time>
      </trkpt>
      <trkpt lat="44.94025" lon="6.41063">
        <ele>2665.87</ele>
        <time>2020-07-24T08:25:29Z</time>
      </trkpt>
      <trkpt lat="44.94008" lon="6.41076">
        <ele>2662.51</ele>
        <time>2020-07-24T08:25:48Z</time>
      </trkpt>
      <trkpt lat="44.93994" lon="6.41091">
        <ele>2657.7</ele>
        <time>2020-07-24T08:26:08Z</time>
      </trkpt>
      <trkpt lat="44.93988" lon="6.41093">
        <ele>2654.34</ele>
        <time>2020-07-24T08:26:16Z</time>
      </trkpt>
      <trkpt lat="44.93974" lon="6.41088">
        <ele>2648.09</ele>
        <time>2020-07-24T08:26:37Z</time>
      </trkpt>
      <trkpt lat="44.93959" lon="6.41093">
        <ele>2643.28</ele>
        <time>2020-07-24T08:26:57Z</time>
      </trkpt>
      <trkpt lat="44.93951" lon="6.41103">
        <ele>2637.51</ele>
        <time>2020-07-24T08:27:14Z</time>
      </trkpt>
      <trkpt lat="44.93947" lon="6.41098">
        <ele>2633.67</ele>
        <time>2020-07-24T08:27:24Z</time>
      </trkpt>
      <trkpt lat="44.93941" lon="6.41094">
        <ele>2630.3</ele>
        <time>2020-07-24T08:27:36Z</time>
      </trkpt>
      <trkpt lat="44.93931" lon="6.41088">
        <ele>2624.54</ele>
        <time>2020-07-24T08:27:52Z</time>
      </trkpt>
      <trkpt lat="44.93924" lon="6.4109">
        <ele>2621.17</ele>
        <time>2020-07-24T08:28:05Z</time>
      </trkpt>
      <trkpt lat="44.93923" lon="6.41091">
        <ele>2621.17</ele>
        <time>2020-07-24T08:28:06Z</time>
      </trkpt>
      <trkpt lat="44.93917" lon="6.41094">
        <ele>2617.33</ele>
        <time>2020-07-24T08:28:16Z</time>
      </trkpt>
      <trkpt lat="44.93911" lon="6.41094">
        <ele>2613</ele>
        <time>2020-07-24T08:28:28Z</time>
      </trkpt>
      <trkpt lat="44.93901" lon="6.41094">
        <ele>2608.19</ele>
        <time>2020-07-24T08:28:42Z</time>
      </trkpt>
      <trkpt lat="44.93894" lon="6.41088">
        <ele>2603.87</ele>
        <time>2020-07-24T08:28:55Z</time>
      </trkpt>
      <trkpt lat="44.93886" lon="6.41089">
        <ele>2600.5</ele>
        <time>2020-07-24T08:29:06Z</time>
      </trkpt>
      <trkpt lat="44.93877" lon="6.41092">
        <ele>2594.25</ele>
        <time>2020-07-24T08:29:26Z</time>
      </trkpt>
      <trkpt lat="44.93873" lon="6.41108">
        <ele>2588.49</ele>
        <time>2020-07-24T08:29:50Z</time>
      </trkpt>
      <trkpt lat="44.93868" lon="6.41117">
        <ele>2584.64</ele>
        <time>2020-07-24T08:30:01Z</time>
      </trkpt>
      <trkpt lat="44.93868" lon="6.41118">
        <ele>2584.64</ele>
        <time>2020-07-24T08:30:02Z</time>
      </trkpt>
      <trkpt lat="44.9384" lon="6.41163">
        <ele>2580.8</ele>
        <time>2020-07-24T08:30:43Z</time>
      </trkpt>
      <trkpt lat="44.93825" lon="6.41168">
        <ele>2576.95</ele>
        <time>2020-07-24T08:31:02Z</time>
      </trkpt>
      <trkpt lat="44.93799" lon="6.41179">
        <ele>2573.11</ele>
        <time>2020-07-24T08:31:31Z</time>
      </trkpt>
      <trkpt lat="44.93805" lon="6.41173">
        <ele>2577.91</ele>
        <time>2020-07-24T08:31:48Z</time>
      </trkpt>
      <trkpt lat="44.93773" lon="6.4116">
        <ele>2570.22</ele>
        <time>2020-07-24T08:32:42Z</time>
      </trkpt>
      <trkpt lat="44.9376" lon="6.41154">
        <ele>2563.97</ele>
        <time>2020-07-24T08:33:12Z</time>
      </trkpt>
      <trkpt lat="44.93744" lon="6.41161">
        <ele>2560.61</ele>
        <time>2020-07-24T08:37:16Z</time>
      </trkpt>
      <trkpt lat="44.93735" lon="6.41119">
        <ele>2559.17</ele>
        <time>2020-07-24T08:42:47Z</time>
      </trkpt>
    </trkseg>
  </trk>
  <trk>
    <name><![CDATA[Ecrins J3 25.07.20]]></name>
    <trkseg>
      <trkpt lat="44.93789" lon="6.41145">
        <ele>2554.84</ele>
        <time>2020-07-25T01:34:09Z</time>
      </trkpt>
      <trkpt lat="44.93789" lon="6.41146">
        <ele>2554.84</ele>
        <time>2020-07-25T01:34:10Z</time>
      </trkpt>
      <trkpt lat="44.93808" lon="6.41144">
        <ele>2559.17</ele>
        <time>2020-07-25T01:34:44Z</time>
      </trkpt>
      <trkpt lat="44.93819" lon="6.41137">
        <ele>2564.45</ele>
        <time>2020-07-25T01:35:19Z</time>
      </trkpt>
      <trkpt lat="44.93833" lon="6.41135">
        <ele>2568.78</ele>
        <time>2020-07-25T01:35:53Z</time>
      </trkpt>
      <trkpt lat="44.93861" lon="6.41138">
        <ele>2568.78</ele>
        <time>2020-07-25T01:36:31Z</time>
      </trkpt>
      <trkpt lat="44.93872" lon="6.4111">
        <ele>2572.63</ele>
        <time>2020-07-25T01:37:08Z</time>
      </trkpt>
      <trkpt lat="44.93879" lon="6.41101">
        <ele>2577.43</ele>
        <time>2020-07-25T01:37:40Z</time>
      </trkpt>
      <trkpt lat="44.93883" lon="6.41078">
        <ele>2582.72</ele>
        <time>2020-07-25T01:38:16Z</time>
      </trkpt>
      <trkpt lat="44.93891" lon="6.41081">
        <ele>2587.53</ele>
        <time>2020-07-25T01:38:49Z</time>
      </trkpt>
      <trkpt lat="44.93899" lon="6.41092">
        <ele>2592.81</ele>
        <time>2020-07-25T01:39:24Z</time>
      </trkpt>
      <trkpt lat="44.93906" lon="6.41091">
        <ele>2597.14</ele>
        <time>2020-07-25T01:39:47Z</time>
      </trkpt>
      <trkpt lat="44.93919" lon="6.41089">
        <ele>2601.46</ele>
        <time>2020-07-25T01:40:18Z</time>
      </trkpt>
      <trkpt lat="44.93926" lon="6.41085">
        <ele>2607.71</ele>
        <time>2020-07-25T01:40:50Z</time>
      </trkpt>
      <trkpt lat="44.9393" lon="6.41089">
        <ele>2611.56</ele>
        <time>2020-07-25T01:41:04Z</time>
      </trkpt>
      <trkpt lat="44.93942" lon="6.41098">
        <ele>2616.85</ele>
        <time>2020-07-25T01:41:58Z</time>
      </trkpt>
      <trkpt lat="44.93949" lon="6.41096">
        <ele>2620.21</ele>
        <time>2020-07-25T01:42:15Z</time>
      </trkpt>
      <trkpt lat="44.93956" lon="6.41102">
        <ele>2625.5</ele>
        <time>2020-07-25T01:42:45Z</time>
      </trkpt>
      <trkpt lat="44.93966" lon="6.4109">
        <ele>2630.3</ele>
        <time>2020-07-25T01:43:21Z</time>
      </trkpt>
      <trkpt lat="44.93979" lon="6.41085">
        <ele>2635.11</ele>
        <time>2020-07-25T01:43:55Z</time>
      </trkpt>
      <trkpt lat="44.9399" lon="6.41075">
        <ele>2640.88</ele>
        <time>2020-07-25T01:44:33Z</time>
      </trkpt>
      <trkpt lat="44.93995" lon="6.41072">
        <ele>2644.24</ele>
        <time>2020-07-25T01:44:48Z</time>
      </trkpt>
      <trkpt lat="44.94004" lon="6.41076">
        <ele>2650.01</ele>
        <time>2020-07-25T01:45:18Z</time>
      </trkpt>
      <trkpt lat="44.9402" lon="6.41068">
        <ele>2654.34</ele>
        <time>2020-07-25T01:46:01Z</time>
      </trkpt>
      <trkpt lat="44.94042" lon="6.41041">
        <ele>2658.18</ele>
        <time>2020-07-25T01:46:52Z</time>
      </trkpt>
      <trkpt lat="44.94052" lon="6.4103">
        <ele>2663.47</ele>
        <time>2020-07-25T01:47:24Z</time>
      </trkpt>
      <trkpt lat="44.94068" lon="6.41003">
        <ele>2667.31</ele>
        <time>2020-07-25T01:48:02Z</time>
      </trkpt>
      <trkpt lat="44.94087" lon="6.40993">
        <ele>2672.6</ele>
        <time>2020-07-25T01:48:38Z</time>
      </trkpt>
      <trkpt lat="44.941" lon="6.40976">
        <ele>2677.89</ele>
        <time>2020-07-25T01:49:13Z</time>
      </trkpt>
      <trkpt lat="44.94108" lon="6.40972">
        <ele>2681.73</ele>
        <time>2020-07-25T01:49:34Z</time>
      </trkpt>
      <trkpt lat="44.94118" lon="6.40957">
        <ele>2687.02</ele>
        <time>2020-07-25T01:50:09Z</time>
      </trkpt>
      <trkpt lat="44.94124" lon="6.40938">
        <ele>2691.83</ele>
        <time>2020-07-25T01:50:41Z</time>
      </trkpt>
      <trkpt lat="44.94135" lon="6.40924">
        <ele>2698.08</ele>
        <time>2020-07-25T01:51:12Z</time>
      </trkpt>
      <trkpt lat="44.94141" lon="6.40914">
        <ele>2698.08</ele>
        <time>2020-07-25T01:51:30Z</time>
      </trkpt>
      <trkpt lat="44.94155" lon="6.409">
        <ele>2701.92</ele>
        <time>2020-07-25T01:52:05Z</time>
      </trkpt>
      <trkpt lat="44.94162" lon="6.40898">
        <ele>2705.77</ele>
        <time>2020-07-25T01:52:21Z</time>
      </trkpt>
      <trkpt lat="44.94177" lon="6.40883">
        <ele>2709.61</ele>
        <time>2020-07-25T01:52:55Z</time>
      </trkpt>
      <trkpt lat="44.94192" lon="6.4088">
        <ele>2713.46</ele>
        <time>2020-07-25T01:53:30Z</time>
      </trkpt>
      <trkpt lat="44.94208" lon="6.40871">
        <ele>2718.75</ele>
        <time>2020-07-25T01:54:06Z</time>
      </trkpt>
      <trkpt lat="44.94222" lon="6.40854">
        <ele>2723.55</ele>
        <time>2020-07-25T01:54:40Z</time>
      </trkpt>
      <trkpt lat="44.94242" lon="6.40846">
        <ele>2728.36</ele>
        <time>2020-07-25T01:55:16Z</time>
      </trkpt>
      <trkpt lat="44.9426" lon="6.40834">
        <ele>2733.17</ele>
        <time>2020-07-25T01:55:52Z</time>
      </trkpt>
      <trkpt lat="44.94273" lon="6.40828">
        <ele>2737.49</ele>
        <time>2020-07-25T01:56:26Z</time>
      </trkpt>
      <trkpt lat="44.94283" lon="6.40814">
        <ele>2741.82</ele>
        <time>2020-07-25T01:56:56Z</time>
      </trkpt>
      <trkpt lat="44.94298" lon="6.40808">
        <ele>2747.1</ele>
        <time>2020-07-25T01:57:31Z</time>
      </trkpt>
      <trkpt lat="44.94308" lon="6.40803">
        <ele>2750.95</ele>
        <time>2020-07-25T01:57:59Z</time>
      </trkpt>
      <trkpt lat="44.9432" lon="6.40796">
        <ele>2755.76</ele>
        <time>2020-07-25T01:58:30Z</time>
      </trkpt>
      <trkpt lat="44.94332" lon="6.40796">
        <ele>2761.04</ele>
        <time>2020-07-25T01:59:02Z</time>
      </trkpt>
      <trkpt lat="44.94344" lon="6.40794">
        <ele>2765.85</ele>
        <time>2020-07-25T01:59:36Z</time>
      </trkpt>
      <trkpt lat="44.94351" lon="6.40779">
        <ele>2770.18</ele>
        <time>2020-07-25T02:00:08Z</time>
      </trkpt>
      <trkpt lat="44.94367" lon="6.40782">
        <ele>2774.5</ele>
        <time>2020-07-25T02:00:42Z</time>
      </trkpt>
      <trkpt lat="44.94375" lon="6.40761">
        <ele>2778.83</ele>
        <time>2020-07-25T02:01:18Z</time>
      </trkpt>
      <trkpt lat="44.94374" lon="6.40755">
        <ele>2778.83</ele>
        <time>2020-07-25T02:01:25Z</time>
      </trkpt>
      <trkpt lat="44.94376" lon="6.40744">
        <ele>2782.19</ele>
        <time>2020-07-25T02:01:42Z</time>
      </trkpt>
      <trkpt lat="44.94377" lon="6.40743">
        <ele>2782.19</ele>
        <time>2020-07-25T02:01:43Z</time>
      </trkpt>
      <trkpt lat="44.94385" lon="6.40718">
        <ele>2786.04</ele>
        <time>2020-07-25T02:02:18Z</time>
      </trkpt>
      <trkpt lat="44.94398" lon="6.40692">
        <ele>2790.36</ele>
        <time>2020-07-25T02:02:58Z</time>
      </trkpt>
      <trkpt lat="44.94407" lon="6.40673">
        <ele>2795.65</ele>
        <time>2020-07-25T02:03:33Z</time>
      </trkpt>
      <trkpt lat="44.94412" lon="6.40646">
        <ele>2800.94</ele>
        <time>2020-07-25T02:04:10Z</time>
      </trkpt>
      <trkpt lat="44.94424" lon="6.4064">
        <ele>2805.26</ele>
        <time>2020-07-25T02:04:44Z</time>
      </trkpt>
      <trkpt lat="44.94431" lon="6.40627">
        <ele>2811.51</ele>
        <time>2020-07-25T02:05:19Z</time>
      </trkpt>
      <trkpt lat="44.94436" lon="6.40617">
        <ele>2815.36</ele>
        <time>2020-07-25T02:05:52Z</time>
      </trkpt>
      <trkpt lat="44.94439" lon="6.4061">
        <ele>2819.2</ele>
        <time>2020-07-25T02:06:07Z</time>
      </trkpt>
      <trkpt lat="44.94442" lon="6.40603">
        <ele>2822.57</ele>
        <time>2020-07-25T02:06:23Z</time>
      </trkpt>
      <trkpt lat="44.94449" lon="6.40596">
        <ele>2825.93</ele>
        <time>2020-07-25T02:06:59Z</time>
      </trkpt>
      <trkpt lat="44.94457" lon="6.40593">
        <ele>2829.78</ele>
        <time>2020-07-25T02:07:22Z</time>
      </trkpt>
      <trkpt lat="44.94474" lon="6.40589">
        <ele>2834.58</ele>
        <time>2020-07-25T02:07:57Z</time>
      </trkpt>
      <trkpt lat="44.94486" lon="6.40579">
        <ele>2839.87</ele>
        <time>2020-07-25T02:08:30Z</time>
      </trkpt>
      <trkpt lat="44.94495" lon="6.40559">
        <ele>2843.72</ele>
        <time>2020-07-25T02:09:02Z</time>
      </trkpt>
      <trkpt lat="44.94528" lon="6.40523">
        <ele>2850.45</ele>
        <time>2020-07-25T02:10:05Z</time>
      </trkpt>
      <trkpt lat="44.94554" lon="6.40498">
        <ele>2853.81</ele>
        <time>2020-07-25T02:10:44Z</time>
      </trkpt>
      <trkpt lat="44.94573" lon="6.40481">
        <ele>2860.06</ele>
        <time>2020-07-25T02:11:18Z</time>
      </trkpt>
      <trkpt lat="44.94595" lon="6.40471">
        <ele>2865.83</ele>
        <time>2020-07-25T02:11:54Z</time>
      </trkpt>
      <trkpt lat="44.94596" lon="6.40472">
        <ele>2865.83</ele>
        <time>2020-07-25T02:11:56Z</time>
      </trkpt>
      <trkpt lat="44.9462" lon="6.40455">
        <ele>2862.46</ele>
        <time>2020-07-25T02:12:23Z</time>
      </trkpt>
      <trkpt lat="44.94657" lon="6.40374">
        <ele>2865.35</ele>
        <time>2020-07-25T02:21:15Z</time>
      </trkpt>
      <trkpt lat="44.94654" lon="6.40353">
        <ele>2859.58</ele>
        <time>2020-07-25T02:21:55Z</time>
      </trkpt>
      <trkpt lat="44.94653" lon="6.40268">
        <ele>2854.29</ele>
        <time>2020-07-25T02:23:48Z</time>
      </trkpt>
      <trkpt lat="44.9464" lon="6.40261">
        <ele>2850.93</ele>
        <time>2020-07-25T02:24:04Z</time>
      </trkpt>
      <trkpt lat="44.9461" lon="6.40211">
        <ele>2858.62</ele>
        <time>2020-07-25T02:46:55Z</time>
      </trkpt>
      <trkpt lat="44.94615" lon="6.40169">
        <ele>2863.42</ele>
        <time>2020-07-25T02:47:57Z</time>
      </trkpt>
      <trkpt lat="44.94628" lon="6.40133">
        <ele>2867.75</ele>
        <time>2020-07-25T02:48:54Z</time>
      </trkpt>
      <trkpt lat="44.94634" lon="6.40111">
        <ele>2871.11</ele>
        <time>2020-07-25T02:49:28Z</time>
      </trkpt>
      <trkpt lat="44.94642" lon="6.40092">
        <ele>2874.48</ele>
        <time>2020-07-25T02:50:01Z</time>
      </trkpt>
      <trkpt lat="44.94649" lon="6.40075">
        <ele>2877.84</ele>
        <time>2020-07-25T02:50:36Z</time>
      </trkpt>
      <trkpt lat="44.94661" lon="6.40055">
        <ele>2881.69</ele>
        <time>2020-07-25T02:51:13Z</time>
      </trkpt>
      <trkpt lat="44.94671" lon="6.40034">
        <ele>2887.46</ele>
        <time>2020-07-25T02:51:50Z</time>
      </trkpt>
      <trkpt lat="44.94691" lon="6.39996">
        <ele>2890.82</ele>
        <time>2020-07-25T02:52:55Z</time>
      </trkpt>
      <trkpt lat="44.94697" lon="6.39973">
        <ele>2894.67</ele>
        <time>2020-07-25T02:53:36Z</time>
      </trkpt>
      <trkpt lat="44.94705" lon="6.39948">
        <ele>2898.03</ele>
        <time>2020-07-25T02:54:16Z</time>
      </trkpt>
      <trkpt lat="44.94717" lon="6.39906">
        <ele>2905.24</ele>
        <time>2020-07-25T02:55:47Z</time>
      </trkpt>
      <trkpt lat="44.94723" lon="6.39889">
        <ele>2909.57</ele>
        <time>2020-07-25T02:56:23Z</time>
      </trkpt>
      <trkpt lat="44.94724" lon="6.39872">
        <ele>2914.37</ele>
        <time>2020-07-25T02:56:59Z</time>
      </trkpt>
      <trkpt lat="44.94724" lon="6.39864">
        <ele>2917.74</ele>
        <time>2020-07-25T02:57:15Z</time>
      </trkpt>
      <trkpt lat="44.94719" lon="6.39846">
        <ele>2922.54</ele>
        <time>2020-07-25T02:57:48Z</time>
      </trkpt>
      <trkpt lat="44.94719" lon="6.39824">
        <ele>2925.91</ele>
        <time>2020-07-25T02:58:21Z</time>
      </trkpt>
      <trkpt lat="44.94723" lon="6.39807">
        <ele>2929.27</ele>
        <time>2020-07-25T02:58:56Z</time>
      </trkpt>
      <trkpt lat="44.94735" lon="6.39791">
        <ele>2933.6</ele>
        <time>2020-07-25T02:59:45Z</time>
      </trkpt>
      <trkpt lat="44.9474" lon="6.39777">
        <ele>2936.97</ele>
        <time>2020-07-25T03:00:24Z</time>
      </trkpt>
      <trkpt lat="44.94743" lon="6.39762">
        <ele>2940.33</ele>
        <time>2020-07-25T03:00:58Z</time>
      </trkpt>
      <trkpt lat="44.94746" lon="6.39749">
        <ele>2944.66</ele>
        <time>2020-07-25T03:01:30Z</time>
      </trkpt>
      <trkpt lat="44.94751" lon="6.39734">
        <ele>2950.42</ele>
        <time>2020-07-25T03:02:02Z</time>
      </trkpt>
      <trkpt lat="44.94755" lon="6.39702">
        <ele>2955.71</ele>
        <time>2020-07-25T03:02:56Z</time>
      </trkpt>
      <trkpt lat="44.94758" lon="6.3968">
        <ele>2960.04</ele>
        <time>2020-07-25T03:03:32Z</time>
      </trkpt>
      <trkpt lat="44.94764" lon="6.39653">
        <ele>2964.36</ele>
        <time>2020-07-25T03:04:12Z</time>
      </trkpt>
      <trkpt lat="44.9477" lon="6.3962">
        <ele>2968.21</ele>
        <time>2020-07-25T03:05:03Z</time>
      </trkpt>
      <trkpt lat="44.94774" lon="6.3959">
        <ele>2972.05</ele>
        <time>2020-07-25T03:05:40Z</time>
      </trkpt>
      <trkpt lat="44.94779" lon="6.39538">
        <ele>2975.42</ele>
        <time>2020-07-25T03:06:40Z</time>
      </trkpt>
      <trkpt lat="44.9479" lon="6.39477">
        <ele>2979.26</ele>
        <time>2020-07-25T03:07:42Z</time>
      </trkpt>
      <trkpt lat="44.94796" lon="6.3941">
        <ele>2983.11</ele>
        <time>2020-07-25T03:08:57Z</time>
      </trkpt>
      <trkpt lat="44.94795" lon="6.39345">
        <ele>2986.47</ele>
        <time>2020-07-25T03:10:12Z</time>
      </trkpt>
      <trkpt lat="44.94796" lon="6.39298">
        <ele>2991.28</ele>
        <time>2020-07-25T03:11:13Z</time>
      </trkpt>
      <trkpt lat="44.94794" lon="6.39257">
        <ele>2995.12</ele>
        <time>2020-07-25T03:12:09Z</time>
      </trkpt>
      <trkpt lat="44.94793" lon="6.39231">
        <ele>2998.49</ele>
        <time>2020-07-25T03:12:47Z</time>
      </trkpt>
      <trkpt lat="44.94791" lon="6.39201">
        <ele>3002.33</ele>
        <time>2020-07-25T03:13:28Z</time>
      </trkpt>
      <trkpt lat="44.94791" lon="6.39168">
        <ele>3007.14</ele>
        <time>2020-07-25T03:14:07Z</time>
      </trkpt>
      <trkpt lat="44.9478" lon="6.39117">
        <ele>3010.99</ele>
        <time>2020-07-25T03:15:08Z</time>
      </trkpt>
      <trkpt lat="44.94768" lon="6.39084">
        <ele>3014.35</ele>
        <time>2020-07-25T03:15:51Z</time>
      </trkpt>
      <trkpt lat="44.94761" lon="6.39012">
        <ele>3018.2</ele>
        <time>2020-07-25T03:17:12Z</time>
      </trkpt>
      <trkpt lat="44.94741" lon="6.38893">
        <ele>3022.52</ele>
        <time>2020-07-25T03:19:20Z</time>
      </trkpt>
      <trkpt lat="44.94712" lon="6.38786">
        <ele>3026.37</ele>
        <time>2020-07-25T03:21:14Z</time>
      </trkpt>
      <trkpt lat="44.9469" lon="6.38671">
        <ele>3032.62</ele>
        <time>2020-07-25T03:25:16Z</time>
      </trkpt>
      <trkpt lat="44.94681" lon="6.38626">
        <ele>3036.46</ele>
        <time>2020-07-25T03:26:15Z</time>
      </trkpt>
      <trkpt lat="44.94671" lon="6.38578">
        <ele>3041.27</ele>
        <time>2020-07-25T03:27:15Z</time>
      </trkpt>
      <trkpt lat="44.94655" lon="6.38531">
        <ele>3044.63</ele>
        <time>2020-07-25T03:28:18Z</time>
      </trkpt>
      <trkpt lat="44.94642" lon="6.38479">
        <ele>3048.48</ele>
        <time>2020-07-25T03:29:17Z</time>
      </trkpt>
      <trkpt lat="44.94618" lon="6.38413">
        <ele>3051.84</ele>
        <time>2020-07-25T03:30:37Z</time>
      </trkpt>
      <trkpt lat="44.94594" lon="6.38332">
        <ele>3055.69</ele>
        <time>2020-07-25T03:32:17Z</time>
      </trkpt>
      <trkpt lat="44.94577" lon="6.38273">
        <ele>3059.53</ele>
        <time>2020-07-25T03:33:36Z</time>
      </trkpt>
      <trkpt lat="44.94565" lon="6.38232">
        <ele>3064.34</ele>
        <time>2020-07-25T03:34:34Z</time>
      </trkpt>
      <trkpt lat="44.94556" lon="6.38204">
        <ele>3067.7</ele>
        <time>2020-07-25T03:35:15Z</time>
      </trkpt>
      <trkpt lat="44.94543" lon="6.38174">
        <ele>3072.03</ele>
        <time>2020-07-25T03:35:58Z</time>
      </trkpt>
      <trkpt lat="44.94526" lon="6.38132">
        <ele>3075.4</ele>
        <time>2020-07-25T03:36:57Z</time>
      </trkpt>
      <trkpt lat="44.94502" lon="6.38109">
        <ele>3080.2</ele>
        <time>2020-07-25T03:37:57Z</time>
      </trkpt>
      <trkpt lat="44.9449" lon="6.38094">
        <ele>3084.05</ele>
        <time>2020-07-25T03:38:38Z</time>
      </trkpt>
      <trkpt lat="44.94476" lon="6.38075">
        <ele>3088.37</ele>
        <time>2020-07-25T03:39:17Z</time>
      </trkpt>
      <trkpt lat="44.94464" lon="6.38059">
        <ele>3092.7</ele>
        <time>2020-07-25T03:39:57Z</time>
      </trkpt>
      <trkpt lat="44.94452" lon="6.38037">
        <ele>3097.99</ele>
        <time>2020-07-25T03:40:40Z</time>
      </trkpt>
      <trkpt lat="44.94442" lon="6.38023">
        <ele>3101.35</ele>
        <time>2020-07-25T03:41:13Z</time>
      </trkpt>
      <trkpt lat="44.94431" lon="6.37998">
        <ele>3106.64</ele>
        <time>2020-07-25T03:41:54Z</time>
      </trkpt>
      <trkpt lat="44.9442" lon="6.37973">
        <ele>3110.96</ele>
        <time>2020-07-25T03:42:36Z</time>
      </trkpt>
      <trkpt lat="44.94408" lon="6.37949">
        <ele>3114.81</ele>
        <time>2020-07-25T03:43:19Z</time>
      </trkpt>
      <trkpt lat="44.94396" lon="6.3792">
        <ele>3119.13</ele>
        <time>2020-07-25T03:44:04Z</time>
      </trkpt>
      <trkpt lat="44.94391" lon="6.37892">
        <ele>3122.5</ele>
        <time>2020-07-25T03:44:40Z</time>
      </trkpt>
      <trkpt lat="44.94384" lon="6.37843">
        <ele>3126.83</ele>
        <time>2020-07-25T03:45:41Z</time>
      </trkpt>
      <trkpt lat="44.94371" lon="6.37781">
        <ele>3130.67</ele>
        <time>2020-07-25T03:46:52Z</time>
      </trkpt>
      <trkpt lat="44.94354" lon="6.37709">
        <ele>3134.52</ele>
        <time>2020-07-25T03:48:17Z</time>
      </trkpt>
      <trkpt lat="44.9434" lon="6.37662">
        <ele>3138.84</ele>
        <time>2020-07-25T03:49:20Z</time>
      </trkpt>
      <trkpt lat="44.94329" lon="6.37617">
        <ele>3142.69</ele>
        <time>2020-07-25T03:50:16Z</time>
      </trkpt>
      <trkpt lat="44.94322" lon="6.37586">
        <ele>3146.05</ele>
        <time>2020-07-25T03:50:58Z</time>
      </trkpt>
      <trkpt lat="44.94314" lon="6.37554">
        <ele>3149.9</ele>
        <time>2020-07-25T03:51:38Z</time>
      </trkpt>
      <trkpt lat="44.94304" lon="6.37524">
        <ele>3153.26</ele>
        <time>2020-07-25T03:52:18Z</time>
      </trkpt>
      <trkpt lat="44.94287" lon="6.37486">
        <ele>3156.63</ele>
        <time>2020-07-25T03:53:07Z</time>
      </trkpt>
      <trkpt lat="44.94248" lon="6.37414">
        <ele>3160.47</ele>
        <time>2020-07-25T03:54:40Z</time>
      </trkpt>
      <trkpt lat="44.94206" lon="6.37341">
        <ele>3163.84</ele>
        <time>2020-07-25T03:56:14Z</time>
      </trkpt>
      <trkpt lat="44.94166" lon="6.3727">
        <ele>3167.2</ele>
        <time>2020-07-25T03:57:45Z</time>
      </trkpt>
      <trkpt lat="44.94079" lon="6.37152">
        <ele>3170.57</ele>
        <time>2020-07-25T04:00:42Z</time>
      </trkpt>
      <trkpt lat="44.94035" lon="6.37093">
        <ele>3173.93</ele>
        <time>2020-07-25T04:02:10Z</time>
      </trkpt>
      <trkpt lat="44.94012" lon="6.37058">
        <ele>3177.29</ele>
        <time>2020-07-25T04:03:06Z</time>
      </trkpt>
      <trkpt lat="44.9399" lon="6.37032">
        <ele>3180.66</ele>
        <time>2020-07-25T04:03:59Z</time>
      </trkpt>
      <trkpt lat="44.93963" lon="6.37">
        <ele>3184.5</ele>
        <time>2020-07-25T04:04:57Z</time>
      </trkpt>
      <trkpt lat="44.93935" lon="6.36969">
        <ele>3188.83</ele>
        <time>2020-07-25T04:05:55Z</time>
      </trkpt>
      <trkpt lat="44.93905" lon="6.36939">
        <ele>3192.2</ele>
        <time>2020-07-25T04:06:56Z</time>
      </trkpt>
      <trkpt lat="44.93877" lon="6.36908">
        <ele>3197</ele>
        <time>2020-07-25T04:07:55Z</time>
      </trkpt>
      <trkpt lat="44.9385" lon="6.36876">
        <ele>3200.85</ele>
        <time>2020-07-25T04:08:51Z</time>
      </trkpt>
      <trkpt lat="44.93828" lon="6.36845">
        <ele>3204.21</ele>
        <time>2020-07-25T04:09:46Z</time>
      </trkpt>
      <trkpt lat="44.93804" lon="6.36813">
        <ele>3207.58</ele>
        <time>2020-07-25T04:13:48Z</time>
      </trkpt>
      <trkpt lat="44.93791" lon="6.36792">
        <ele>3210.94</ele>
        <time>2020-07-25T04:14:26Z</time>
      </trkpt>
      <trkpt lat="44.93778" lon="6.36774">
        <ele>3214.79</ele>
        <time>2020-07-25T04:15:07Z</time>
      </trkpt>
      <trkpt lat="44.93764" lon="6.36755">
        <ele>3219.59</ele>
        <time>2020-07-25T04:15:46Z</time>
      </trkpt>
      <trkpt lat="44.93748" lon="6.36732">
        <ele>3223.92</ele>
        <time>2020-07-25T04:16:25Z</time>
      </trkpt>
      <trkpt lat="44.93727" lon="6.36706">
        <ele>3227.28</ele>
        <time>2020-07-25T04:17:07Z</time>
      </trkpt>
      <trkpt lat="44.93701" lon="6.36673">
        <ele>3230.65</ele>
        <time>2020-07-25T04:18:06Z</time>
      </trkpt>
      <trkpt lat="44.93675" lon="6.36643">
        <ele>3234.49</ele>
        <time>2020-07-25T04:19:02Z</time>
      </trkpt>
      <trkpt lat="44.9366" lon="6.36624">
        <ele>3237.86</ele>
        <time>2020-07-25T04:19:43Z</time>
      </trkpt>
      <trkpt lat="44.93646" lon="6.36605">
        <ele>3241.22</ele>
        <time>2020-07-25T04:20:24Z</time>
      </trkpt>
      <trkpt lat="44.93633" lon="6.36585">
        <ele>3245.55</ele>
        <time>2020-07-25T04:20:59Z</time>
      </trkpt>
      <trkpt lat="44.93612" lon="6.36568">
        <ele>3249.39</ele>
        <time>2020-07-25T04:21:37Z</time>
      </trkpt>
      <trkpt lat="44.93591" lon="6.3655">
        <ele>3252.76</ele>
        <time>2020-07-25T04:22:16Z</time>
      </trkpt>
      <trkpt lat="44.93511" lon="6.36476">
        <ele>3258.05</ele>
        <time>2020-07-25T04:24:32Z</time>
      </trkpt>
      <trkpt lat="44.93343" lon="6.36305">
        <ele>3261.41</ele>
        <time>2020-07-25T04:29:07Z</time>
      </trkpt>
      <trkpt lat="44.93314" lon="6.36279">
        <ele>3265.26</ele>
        <time>2020-07-25T04:30:02Z</time>
      </trkpt>
      <trkpt lat="44.93248" lon="6.36231">
        <ele>3277.75</ele>
        <time>2020-07-25T04:43:31Z</time>
      </trkpt>
      <trkpt lat="44.93236" lon="6.36224">
        <ele>3281.12</ele>
        <time>2020-07-25T04:43:58Z</time>
      </trkpt>
      <trkpt lat="44.93217" lon="6.36219">
        <ele>3285.44</ele>
        <time>2020-07-25T04:44:39Z</time>
      </trkpt>
      <trkpt lat="44.93196" lon="6.36217">
        <ele>3289.77</ele>
        <time>2020-07-25T04:45:21Z</time>
      </trkpt>
      <trkpt lat="44.93177" lon="6.36211">
        <ele>3294.09</ele>
        <time>2020-07-25T04:46:04Z</time>
      </trkpt>
      <trkpt lat="44.93165" lon="6.3621">
        <ele>3297.94</ele>
        <time>2020-07-25T04:46:44Z</time>
      </trkpt>
      <trkpt lat="44.93151" lon="6.36208">
        <ele>3301.3</ele>
        <time>2020-07-25T04:47:21Z</time>
      </trkpt>
      <trkpt lat="44.9314" lon="6.36208">
        <ele>3306.59</ele>
        <time>2020-07-25T04:48:03Z</time>
      </trkpt>
      <trkpt lat="44.9313" lon="6.36212">
        <ele>3311.4</ele>
        <time>2020-07-25T04:48:41Z</time>
      </trkpt>
      <trkpt lat="44.93121" lon="6.36217">
        <ele>3315.24</ele>
        <time>2020-07-25T04:49:19Z</time>
      </trkpt>
      <trkpt lat="44.93116" lon="6.36221">
        <ele>3319.09</ele>
        <time>2020-07-25T04:49:56Z</time>
      </trkpt>
      <trkpt lat="44.93108" lon="6.36224">
        <ele>3323.42</ele>
        <time>2020-07-25T04:50:28Z</time>
      </trkpt>
      <trkpt lat="44.93102" lon="6.36223">
        <ele>3327.74</ele>
        <time>2020-07-25T04:51:04Z</time>
      </trkpt>
      <trkpt lat="44.93096" lon="6.36225">
        <ele>3332.55</ele>
        <time>2020-07-25T04:51:40Z</time>
      </trkpt>
      <trkpt lat="44.93089" lon="6.36229">
        <ele>3336.87</ele>
        <time>2020-07-25T04:52:12Z</time>
      </trkpt>
      <trkpt lat="44.93081" lon="6.36223">
        <ele>3343.12</ele>
        <time>2020-07-25T04:52:40Z</time>
      </trkpt>
      <trkpt lat="44.93078" lon="6.36212">
        <ele>3347.45</ele>
        <time>2020-07-25T04:53:15Z</time>
      </trkpt>
      <trkpt lat="44.93076" lon="6.36198">
        <ele>3351.77</ele>
        <time>2020-07-25T04:53:55Z</time>
      </trkpt>
      <trkpt lat="44.93072" lon="6.36203">
        <ele>3356.1</ele>
        <time>2020-07-25T04:54:29Z</time>
      </trkpt>
      <trkpt lat="44.93065" lon="6.36209">
        <ele>3361.39</ele>
        <time>2020-07-25T04:55:02Z</time>
      </trkpt>
      <trkpt lat="44.93059" lon="6.36214">
        <ele>3364.75</ele>
        <time>2020-07-25T04:55:36Z</time>
      </trkpt>
      <trkpt lat="44.93055" lon="6.36212">
        <ele>3369.56</ele>
        <time>2020-07-25T04:56:15Z</time>
      </trkpt>
      <trkpt lat="44.9305" lon="6.36205">
        <ele>3374.36</ele>
        <time>2020-07-25T04:56:48Z</time>
      </trkpt>
      <trkpt lat="44.93044" lon="6.362">
        <ele>3379.65</ele>
        <time>2020-07-25T04:57:25Z</time>
      </trkpt>
      <trkpt lat="44.9304" lon="6.36191">
        <ele>3383.98</ele>
        <time>2020-07-25T04:58:00Z</time>
      </trkpt>
      <trkpt lat="44.93036" lon="6.36183">
        <ele>3389.27</ele>
        <time>2020-07-25T04:58:35Z</time>
      </trkpt>
      <trkpt lat="44.93033" lon="6.36175">
        <ele>3393.59</ele>
        <time>2020-07-25T04:59:09Z</time>
      </trkpt>
      <trkpt lat="44.93024" lon="6.36178">
        <ele>3398.88</ele>
        <time>2020-07-25T04:59:49Z</time>
      </trkpt>
      <trkpt lat="44.93019" lon="6.36167">
        <ele>3404.65</ele>
        <time>2020-07-25T05:00:26Z</time>
      </trkpt>
      <trkpt lat="44.93014" lon="6.36157">
        <ele>3408.97</ele>
        <time>2020-07-25T05:01:03Z</time>
      </trkpt>
      <trkpt lat="44.9301" lon="6.36143">
        <ele>3413.78</ele>
        <time>2020-07-25T05:01:46Z</time>
      </trkpt>
      <trkpt lat="44.93004" lon="6.36134">
        <ele>3419.07</ele>
        <time>2020-07-25T05:02:20Z</time>
      </trkpt>
      <trkpt lat="44.92995" lon="6.36145">
        <ele>3424.35</ele>
        <time>2020-07-25T05:03:00Z</time>
      </trkpt>
      <trkpt lat="44.92989" lon="6.36155">
        <ele>3428.68</ele>
        <time>2020-07-25T05:03:39Z</time>
      </trkpt>
      <trkpt lat="44.92984" lon="6.36164">
        <ele>3433.01</ele>
        <time>2020-07-25T05:04:20Z</time>
      </trkpt>
      <trkpt lat="44.9298" lon="6.36155">
        <ele>3437.33</ele>
        <time>2020-07-25T05:05:00Z</time>
      </trkpt>
      <trkpt lat="44.92972" lon="6.36148">
        <ele>3442.62</ele>
        <time>2020-07-25T05:05:36Z</time>
      </trkpt>
      <trkpt lat="44.92969" lon="6.36153">
        <ele>3448.39</ele>
        <time>2020-07-25T05:06:04Z</time>
      </trkpt>
      <trkpt lat="44.92963" lon="6.36164">
        <ele>3452.23</ele>
        <time>2020-07-25T05:06:45Z</time>
      </trkpt>
      <trkpt lat="44.92958" lon="6.36169">
        <ele>3456.08</ele>
        <time>2020-07-25T05:07:20Z</time>
      </trkpt>
      <trkpt lat="44.92956" lon="6.3617">
        <ele>3460.4</ele>
        <time>2020-07-25T05:08:01Z</time>
      </trkpt>
      <trkpt lat="44.9295" lon="6.36173">
        <ele>3465.21</ele>
        <time>2020-07-25T05:08:37Z</time>
      </trkpt>
      <trkpt lat="44.92946" lon="6.36178">
        <ele>3468.57</ele>
        <time>2020-07-25T05:09:12Z</time>
      </trkpt>
      <trkpt lat="44.92946" lon="6.36178">
        <ele>3471.94</ele>
        <time>2020-07-25T05:09:27Z</time>
      </trkpt>
      <trkpt lat="44.92939" lon="6.36168">
        <ele>3476.75</ele>
        <time>2020-07-25T05:10:09Z</time>
      </trkpt>
      <trkpt lat="44.92936" lon="6.36166">
        <ele>3481.07</ele>
        <time>2020-07-25T05:10:42Z</time>
      </trkpt>
      <trkpt lat="44.92931" lon="6.36167">
        <ele>3484.92</ele>
        <time>2020-07-25T05:11:14Z</time>
      </trkpt>
      <trkpt lat="44.92925" lon="6.36168">
        <ele>3489.72</ele>
        <time>2020-07-25T05:11:46Z</time>
      </trkpt>
      <trkpt lat="44.9292" lon="6.3617">
        <ele>3493.57</ele>
        <time>2020-07-25T05:12:16Z</time>
      </trkpt>
      <trkpt lat="44.92916" lon="6.36171">
        <ele>3499.34</ele>
        <time>2020-07-25T05:12:52Z</time>
      </trkpt>
      <trkpt lat="44.9291" lon="6.36172">
        <ele>3502.7</ele>
        <time>2020-07-25T05:13:28Z</time>
      </trkpt>
      <trkpt lat="44.92905" lon="6.36173">
        <ele>3507.99</ele>
        <time>2020-07-25T05:14:06Z</time>
      </trkpt>
      <trkpt lat="44.92899" lon="6.36176">
        <ele>3511.83</ele>
        <time>2020-07-25T05:14:36Z</time>
      </trkpt>
      <trkpt lat="44.92893" lon="6.36179">
        <ele>3517.12</ele>
        <time>2020-07-25T05:15:11Z</time>
      </trkpt>
      <trkpt lat="44.92887" lon="6.36181">
        <ele>3521.45</ele>
        <time>2020-07-25T05:15:50Z</time>
      </trkpt>
      <trkpt lat="44.92882" lon="6.36183">
        <ele>3525.77</ele>
        <time>2020-07-25T05:16:22Z</time>
      </trkpt>
      <trkpt lat="44.92875" lon="6.36182">
        <ele>3530.1</ele>
        <time>2020-07-25T05:16:54Z</time>
      </trkpt>
      <trkpt lat="44.92868" lon="6.36186">
        <ele>3534.9</ele>
        <time>2020-07-25T05:17:27Z</time>
      </trkpt>
      <trkpt lat="44.92862" lon="6.36179">
        <ele>3539.71</ele>
        <time>2020-07-25T05:18:04Z</time>
      </trkpt>
      <trkpt lat="44.92857" lon="6.36175">
        <ele>3544.04</ele>
        <time>2020-07-25T05:18:40Z</time>
      </trkpt>
      <trkpt lat="44.92848" lon="6.36176">
        <ele>3548.84</ele>
        <time>2020-07-25T05:19:20Z</time>
      </trkpt>
      <trkpt lat="44.92841" lon="6.36172">
        <ele>3553.65</ele>
        <time>2020-07-25T05:19:53Z</time>
      </trkpt>
      <trkpt lat="44.92835" lon="6.36169">
        <ele>3557.98</ele>
        <time>2020-07-25T05:20:26Z</time>
      </trkpt>
      <trkpt lat="44.92826" lon="6.36165">
        <ele>3562.78</ele>
        <time>2020-07-25T05:21:01Z</time>
      </trkpt>
      <trkpt lat="44.9282" lon="6.36165">
        <ele>3568.07</ele>
        <time>2020-07-25T05:21:36Z</time>
      </trkpt>
      <trkpt lat="44.92812" lon="6.36159">
        <ele>3572.4</ele>
        <time>2020-07-25T05:22:11Z</time>
      </trkpt>
      <trkpt lat="44.92804" lon="6.36155">
        <ele>3577.2</ele>
        <time>2020-07-25T05:22:48Z</time>
      </trkpt>
      <trkpt lat="44.92801" lon="6.36156">
        <ele>3580.57</ele>
        <time>2020-07-25T05:23:05Z</time>
      </trkpt>
      <trkpt lat="44.92794" lon="6.36152">
        <ele>3585.85</ele>
        <time>2020-07-25T05:23:40Z</time>
      </trkpt>
      <trkpt lat="44.92788" lon="6.36153">
        <ele>3589.22</ele>
        <time>2020-07-25T05:23:58Z</time>
      </trkpt>
      <trkpt lat="44.92779" lon="6.36158">
        <ele>3594.03</ele>
        <time>2020-07-25T05:24:39Z</time>
      </trkpt>
      <trkpt lat="44.92773" lon="6.36161">
        <ele>3597.39</ele>
        <time>2020-07-25T05:24:59Z</time>
      </trkpt>
      <trkpt lat="44.92765" lon="6.36163">
        <ele>3601.24</ele>
        <time>2020-07-25T05:25:49Z</time>
      </trkpt>
      <trkpt lat="44.92765" lon="6.36164">
        <ele>3601.24</ele>
        <time>2020-07-25T05:26:25Z</time>
      </trkpt>
      <trkpt lat="44.92757" lon="6.3617">
        <ele>3605.08</ele>
        <time>2020-07-25T05:29:59Z</time>
      </trkpt>
      <trkpt lat="44.92749" lon="6.36178">
        <ele>3608.45</ele>
        <time>2020-07-25T05:30:29Z</time>
      </trkpt>
      <trkpt lat="44.9274" lon="6.36193">
        <ele>3612.29</ele>
        <time>2020-07-25T05:30:57Z</time>
      </trkpt>
      <trkpt lat="44.92723" lon="6.36227">
        <ele>3616.14</ele>
        <time>2020-07-25T05:31:58Z</time>
      </trkpt>
      <trkpt lat="44.92717" lon="6.36246">
        <ele>3620.46</ele>
        <time>2020-07-25T05:32:49Z</time>
      </trkpt>
      <trkpt lat="44.92715" lon="6.36257">
        <ele>3624.31</ele>
        <time>2020-07-25T05:33:23Z</time>
      </trkpt>
      <trkpt lat="44.92713" lon="6.36267">
        <ele>3628.15</ele>
        <time>2020-07-25T05:33:43Z</time>
      </trkpt>
      <trkpt lat="44.92706" lon="6.36281">
        <ele>3632.48</ele>
        <time>2020-07-25T05:34:39Z</time>
      </trkpt>
      <trkpt lat="44.92714" lon="6.36288">
        <ele>3628.15</ele>
        <time>2020-07-25T05:35:18Z</time>
      </trkpt>
      <trkpt lat="44.92714" lon="6.36298">
        <ele>3631.52</ele>
        <time>2020-07-25T05:37:32Z</time>
      </trkpt>
      <trkpt lat="44.92711" lon="6.36304">
        <ele>3634.88</ele>
        <time>2020-07-25T05:38:31Z</time>
      </trkpt>
      <trkpt lat="44.92709" lon="6.36312">
        <ele>3639.69</ele>
        <time>2020-07-25T05:39:25Z</time>
      </trkpt>
      <trkpt lat="44.92707" lon="6.36317">
        <ele>3644.98</ele>
        <time>2020-07-25T05:40:01Z</time>
      </trkpt>
      <trkpt lat="44.92721" lon="6.36357">
        <ele>3650.26</ele>
        <time>2020-07-25T05:42:57Z</time>
      </trkpt>
      <trkpt lat="44.92758" lon="6.36487">
        <ele>3650.26</ele>
        <time>2020-07-25T05:46:46Z</time>
      </trkpt>
      <trkpt lat="44.9279" lon="6.36704">
        <ele>3654.11</ele>
        <time>2020-07-25T05:50:57Z</time>
      </trkpt>
      <trkpt lat="44.92776" lon="6.36691">
        <ele>3659.88</ele>
        <time>2020-07-25T05:54:32Z</time>
      </trkpt>
      <trkpt lat="44.92765" lon="6.36681">
        <ele>3665.64</ele>
        <time>2020-07-25T05:55:12Z</time>
      </trkpt>
      <trkpt lat="44.92755" lon="6.36667">
        <ele>3669.97</ele>
        <time>2020-07-25T05:55:53Z</time>
      </trkpt>
      <trkpt lat="44.92749" lon="6.36657">
        <ele>3673.33</ele>
        <time>2020-07-25T05:56:30Z</time>
      </trkpt>
      <trkpt lat="44.92742" lon="6.36646">
        <ele>3678.14</ele>
        <time>2020-07-25T05:57:11Z</time>
      </trkpt>
      <trkpt lat="44.92734" lon="6.3664">
        <ele>3682.47</ele>
        <time>2020-07-25T05:57:51Z</time>
      </trkpt>
      <trkpt lat="44.92732" lon="6.36639">
        <ele>3685.83</ele>
        <time>2020-07-25T05:58:07Z</time>
      </trkpt>
      <trkpt lat="44.92728" lon="6.36634">
        <ele>3689.2</ele>
        <time>2020-07-25T05:58:25Z</time>
      </trkpt>
      <trkpt lat="44.92721" lon="6.36626">
        <ele>3694</ele>
        <time>2020-07-25T05:58:57Z</time>
      </trkpt>
      <trkpt lat="44.92711" lon="6.36618">
        <ele>3698.81</ele>
        <time>2020-07-25T05:59:34Z</time>
      </trkpt>
      <trkpt lat="44.92705" lon="6.36609">
        <ele>3702.17</ele>
        <time>2020-07-25T05:59:55Z</time>
      </trkpt>
      <trkpt lat="44.92692" lon="6.36588">
        <ele>3706.98</ele>
        <time>2020-07-25T06:00:42Z</time>
      </trkpt>
      <trkpt lat="44.92683" lon="6.36575">
        <ele>3710.83</ele>
        <time>2020-07-25T06:01:18Z</time>
      </trkpt>
      <trkpt lat="44.92674" lon="6.36561">
        <ele>3715.63</ele>
        <time>2020-07-25T06:01:56Z</time>
      </trkpt>
      <trkpt lat="44.92664" lon="6.36544">
        <ele>3720.92</ele>
        <time>2020-07-25T06:02:45Z</time>
      </trkpt>
      <trkpt lat="44.92653" lon="6.3653">
        <ele>3726.21</ele>
        <time>2020-07-25T06:03:26Z</time>
      </trkpt>
      <trkpt lat="44.92642" lon="6.36523">
        <ele>3731.01</ele>
        <time>2020-07-25T06:04:02Z</time>
      </trkpt>
      <trkpt lat="44.92629" lon="6.36512">
        <ele>3736.3</ele>
        <time>2020-07-25T06:04:42Z</time>
      </trkpt>
      <trkpt lat="44.92612" lon="6.36491">
        <ele>3741.59</ele>
        <time>2020-07-25T06:05:41Z</time>
      </trkpt>
      <trkpt lat="44.92604" lon="6.36475">
        <ele>3745.91</ele>
        <time>2020-07-25T06:06:19Z</time>
      </trkpt>
      <trkpt lat="44.92597" lon="6.36462">
        <ele>3749.76</ele>
        <time>2020-07-25T06:07:00Z</time>
      </trkpt>
      <trkpt lat="44.92589" lon="6.36449">
        <ele>3753.12</ele>
        <time>2020-07-25T06:10:55Z</time>
      </trkpt>
      <trkpt lat="44.92581" lon="6.36433">
        <ele>3757.45</ele>
        <time>2020-07-25T06:11:33Z</time>
      </trkpt>
      <trkpt lat="44.92574" lon="6.36413">
        <ele>3761.3</ele>
        <time>2020-07-25T06:12:16Z</time>
      </trkpt>
      <trkpt lat="44.9257" lon="6.36404">
        <ele>3764.66</ele>
        <time>2020-07-25T06:12:38Z</time>
      </trkpt>
      <trkpt lat="44.92558" lon="6.36384">
        <ele>3768.99</ele>
        <time>2020-07-25T06:13:22Z</time>
      </trkpt>
      <trkpt lat="44.92554" lon="6.36368">
        <ele>3772.35</ele>
        <time>2020-07-25T06:14:04Z</time>
      </trkpt>
      <trkpt lat="44.92549" lon="6.36363">
        <ele>3776.68</ele>
        <time>2020-07-25T06:14:40Z</time>
      </trkpt>
      <trkpt lat="44.92544" lon="6.3636">
        <ele>3780.04</ele>
        <time>2020-07-25T06:15:16Z</time>
      </trkpt>
      <trkpt lat="44.92535" lon="6.36355">
        <ele>3784.85</ele>
        <time>2020-07-25T06:15:53Z</time>
      </trkpt>
      <trkpt lat="44.92532" lon="6.36351">
        <ele>3788.21</ele>
        <time>2020-07-25T06:16:35Z</time>
      </trkpt>
      <trkpt lat="44.9253" lon="6.3635">
        <ele>3793.98</ele>
        <time>2020-07-25T06:17:10Z</time>
      </trkpt>
      <trkpt lat="44.92519" lon="6.36351">
        <ele>3799.27</ele>
        <time>2020-07-25T06:18:18Z</time>
      </trkpt>
      <trkpt lat="44.92515" lon="6.36346">
        <ele>3805.04</ele>
        <time>2020-07-25T06:19:28Z</time>
      </trkpt>
      <trkpt lat="44.9251" lon="6.36342">
        <ele>3808.4</ele>
        <time>2020-07-25T06:20:39Z</time>
      </trkpt>
      <trkpt lat="44.92506" lon="6.36341">
        <ele>3813.21</ele>
        <time>2020-07-25T06:21:11Z</time>
      </trkpt>
      <trkpt lat="44.92503" lon="6.36339">
        <ele>3817.53</ele>
        <time>2020-07-25T06:21:47Z</time>
      </trkpt>
      <trkpt lat="44.92498" lon="6.36337">
        <ele>3820.9</ele>
        <time>2020-07-25T06:22:27Z</time>
      </trkpt>
      <trkpt lat="44.92494" lon="6.36334">
        <ele>3825.22</ele>
        <time>2020-07-25T06:23:05Z</time>
      </trkpt>
      <trkpt lat="44.92491" lon="6.36332">
        <ele>3829.07</ele>
        <time>2020-07-25T06:23:43Z</time>
      </trkpt>
      <trkpt lat="44.92486" lon="6.36329">
        <ele>3832.43</ele>
        <time>2020-07-25T06:24:22Z</time>
      </trkpt>
      <trkpt lat="44.92481" lon="6.36329">
        <ele>3838.68</ele>
        <time>2020-07-25T06:24:59Z</time>
      </trkpt>
      <trkpt lat="44.92476" lon="6.36328">
        <ele>3843.01</ele>
        <time>2020-07-25T06:25:37Z</time>
      </trkpt>
      <trkpt lat="44.92472" lon="6.36325">
        <ele>3846.37</ele>
        <time>2020-07-25T06:25:52Z</time>
      </trkpt>
      <trkpt lat="44.92468" lon="6.36319">
        <ele>3850.7</ele>
        <time>2020-07-25T06:26:29Z</time>
      </trkpt>
      <trkpt lat="44.92463" lon="6.36316">
        <ele>3854.06</ele>
        <time>2020-07-25T06:26:49Z</time>
      </trkpt>
      <trkpt lat="44.92453" lon="6.36306">
        <ele>3859.35</ele>
        <time>2020-07-25T06:27:28Z</time>
      </trkpt>
      <trkpt lat="44.92442" lon="6.36292">
        <ele>3864.64</ele>
        <time>2020-07-25T06:28:10Z</time>
      </trkpt>
      <trkpt lat="44.92431" lon="6.36288">
        <ele>3871.85</ele>
        <time>2020-07-25T06:42:08Z</time>
      </trkpt>
      <trkpt lat="44.9242" lon="6.36277">
        <ele>3877.62</ele>
        <time>2020-07-25T06:42:54Z</time>
      </trkpt>
      <trkpt lat="44.92414" lon="6.36272">
        <ele>3881.46</ele>
        <time>2020-07-25T06:43:35Z</time>
      </trkpt>
      <trkpt lat="44.92409" lon="6.36265">
        <ele>3884.82</ele>
        <time>2020-07-25T06:44:16Z</time>
      </trkpt>
      <trkpt lat="44.92403" lon="6.36257">
        <ele>3889.15</ele>
        <time>2020-07-25T06:44:56Z</time>
      </trkpt>
      <trkpt lat="44.92399" lon="6.36249">
        <ele>3893</ele>
        <time>2020-07-25T06:45:36Z</time>
      </trkpt>
      <trkpt lat="44.92388" lon="6.36226">
        <ele>3903.57</ele>
        <time>2020-07-25T07:23:26Z</time>
      </trkpt>
      <trkpt lat="44.92386" lon="6.36224">
        <ele>3906.94</ele>
        <time>2020-07-25T07:27:51Z</time>
      </trkpt>
      <trkpt lat="44.92384" lon="6.3622">
        <ele>3910.3</ele>
        <time>2020-07-25T07:31:14Z</time>
      </trkpt>
      <trkpt lat="44.92373" lon="6.36203">
        <ele>3916.55</ele>
        <time>2020-07-25T07:42:59Z</time>
      </trkpt>
      <trkpt lat="44.92369" lon="6.36198">
        <ele>3935.29</ele>
        <time>2020-07-25T08:17:31Z</time>
      </trkpt>
      <trkpt lat="44.92361" lon="6.36194">
        <ele>3942.98</ele>
        <time>2020-07-25T08:19:02Z</time>
      </trkpt>
      <trkpt lat="44.92353" lon="6.36189">
        <ele>3963.17</ele>
        <time>2020-07-25T08:55:03Z</time>
      </trkpt>
      <trkpt lat="44.92343" lon="6.36186">
        <ele>3975.67</ele>
        <time>2020-07-25T09:01:58Z</time>
      </trkpt>
      <trkpt lat="44.92338" lon="6.36189">
        <ele>3974.71</ele>
        <time>2020-07-25T09:10:33Z</time>
      </trkpt>
      <trkpt lat="44.92333" lon="6.36191">
        <ele>3980.96</ele>
        <time>2020-07-25T09:15:46Z</time>
      </trkpt>
      <trkpt lat="44.92326" lon="6.36188">
        <ele>3985.76</ele>
        <time>2020-07-25T09:17:13Z</time>
      </trkpt>
      <trkpt lat="44.92324" lon="6.36187">
        <ele>3990.57</ele>
        <time>2020-07-25T09:18:11Z</time>
      </trkpt>
      <trkpt lat="44.92317" lon="6.36155">
        <ele>3996.34</ele>
        <time>2020-07-25T09:30:09Z</time>
      </trkpt>
      <trkpt lat="44.92301" lon="6.36143">
        <ele>4012.2</ele>
        <time>2020-07-25T09:34:15Z</time>
      </trkpt>
      <trkpt lat="44.92292" lon="6.36137">
        <ele>4016.53</ele>
        <time>2020-07-25T09:35:35Z</time>
      </trkpt>
      <trkpt lat="44.92287" lon="6.36126">
        <ele>4024.7</ele>
        <time>2020-07-25T09:37:10Z</time>
      </trkpt>
      <trkpt lat="44.92277" lon="6.36098">
        <ele>4040.56</ele>
        <time>2020-07-25T09:42:14Z</time>
      </trkpt>
      <trkpt lat="44.92263" lon="6.36051">
        <ele>4057.38</ele>
        <time>2020-07-25T09:50:55Z</time>
      </trkpt>
      <trkpt lat="44.92251" lon="6.36012">
        <ele>4070.36</ele>
        <time>2020-07-25T09:59:57Z</time>
      </trkpt>
      <trkpt lat="44.92244" lon="6.35995">
        <ele>4079.49</ele>
        <time>2020-07-25T10:02:18Z</time>
      </trkpt>
      <trkpt lat="44.92232" lon="6.35977">
        <ele>4087.66</ele>
        <time>2020-07-25T10:04:57Z</time>
      </trkpt>
      <trkpt lat="44.92221" lon="6.35952">
        <ele>4094.39</ele>
        <time>2020-07-25T10:17:54Z</time>
      </trkpt>
      <trkpt lat="44.92224" lon="6.35834">
        <ele>4081.9</ele>
        <time>2020-07-25T10:38:02Z</time>
      </trkpt>
      <trkpt lat="44.92229" lon="6.35811">
        <ele>4077.57</ele>
        <time>2020-07-25T10:41:06Z</time>
      </trkpt>
      <trkpt lat="44.92226" lon="6.35787">
        <ele>4082.38</ele>
        <time>2020-07-25T10:42:38Z</time>
      </trkpt>
      <trkpt lat="44.92233" lon="6.35757">
        <ele>4085.74</ele>
        <time>2020-07-25T10:44:51Z</time>
      </trkpt>
      <trkpt lat="44.92243" lon="6.35739">
        <ele>4077.57</ele>
        <time>2020-07-25T10:46:19Z</time>
      </trkpt>
      <trkpt lat="44.92252" lon="6.35724">
        <ele>4069.88</ele>
        <time>2020-07-25T10:49:33Z</time>
      </trkpt>
      <trkpt lat="44.92259" lon="6.35706">
        <ele>4061.23</ele>
        <time>2020-07-25T10:56:00Z</time>
      </trkpt>
      <trkpt lat="44.92267" lon="6.35689">
        <ele>4055.46</ele>
        <time>2020-07-25T11:01:06Z</time>
      </trkpt>
      <trkpt lat="44.92272" lon="6.35683">
        <ele>4048.25</ele>
        <time>2020-07-25T11:04:15Z</time>
      </trkpt>
      <trkpt lat="44.92279" lon="6.35675">
        <ele>4040.56</ele>
        <time>2020-07-25T11:06:28Z</time>
      </trkpt>
      <trkpt lat="44.92286" lon="6.35664">
        <ele>4034.79</ele>
        <time>2020-07-25T11:10:02Z</time>
      </trkpt>
      <trkpt lat="44.92291" lon="6.35662">
        <ele>4030.95</ele>
        <time>2020-07-25T11:11:14Z</time>
      </trkpt>
      <trkpt lat="44.92297" lon="6.35657">
        <ele>4027.1</ele>
        <time>2020-07-25T11:12:12Z</time>
      </trkpt>
      <trkpt lat="44.92309" lon="6.35644">
        <ele>4013.64</ele>
        <time>2020-07-25T11:16:31Z</time>
      </trkpt>
      <trkpt lat="44.9232" lon="6.35624">
        <ele>4008.35</ele>
        <time>2020-07-25T11:18:12Z</time>
      </trkpt>
      <trkpt lat="44.92324" lon="6.35614">
        <ele>4008.35</ele>
        <time>2020-07-25T11:18:31Z</time>
      </trkpt>
      <trkpt lat="44.92341" lon="6.35601">
        <ele>3990.09</ele>
        <time>2020-07-25T11:37:48Z</time>
      </trkpt>
      <trkpt lat="44.92347" lon="6.35603">
        <ele>3985.28</ele>
        <time>2020-07-25T11:38:23Z</time>
      </trkpt>
      <trkpt lat="44.92354" lon="6.35606">
        <ele>3975.19</ele>
        <time>2020-07-25T11:52:29Z</time>
      </trkpt>
      <trkpt lat="44.92359" lon="6.35612">
        <ele>3969.42</ele>
        <time>2020-07-25T11:53:05Z</time>
      </trkpt>
      <trkpt lat="44.92367" lon="6.35618">
        <ele>3954.52</ele>
        <time>2020-07-25T11:54:14Z</time>
      </trkpt>
      <trkpt lat="44.92371" lon="6.35648">
        <ele>3941.54</ele>
        <time>2020-07-25T12:13:30Z</time>
      </trkpt>
      <trkpt lat="44.9237" lon="6.35668">
        <ele>3937.7</ele>
        <time>2020-07-25T12:13:47Z</time>
      </trkpt>
      <trkpt lat="44.92365" lon="6.35698">
        <ele>3933.85</ele>
        <time>2020-07-25T12:14:13Z</time>
      </trkpt>
      <trkpt lat="44.92358" lon="6.35907">
        <ele>3929.05</ele>
        <time>2020-07-25T12:16:41Z</time>
      </trkpt>
      <trkpt lat="44.92366" lon="6.3596">
        <ele>3922.8</ele>
        <time>2020-07-25T12:17:18Z</time>
      </trkpt>
      <trkpt lat="44.92368" lon="6.35981">
        <ele>3918.47</ele>
        <time>2020-07-25T12:17:34Z</time>
      </trkpt>
      <trkpt lat="44.9237" lon="6.35991">
        <ele>3914.63</ele>
        <time>2020-07-25T12:17:43Z</time>
      </trkpt>
      <trkpt lat="44.92372" lon="6.35999">
        <ele>3910.78</ele>
        <time>2020-07-25T12:17:52Z</time>
      </trkpt>
      <trkpt lat="44.92374" lon="6.36008">
        <ele>3907.42</ele>
        <time>2020-07-25T12:18:01Z</time>
      </trkpt>
      <trkpt lat="44.92377" lon="6.3602">
        <ele>3902.61</ele>
        <time>2020-07-25T12:18:14Z</time>
      </trkpt>
      <trkpt lat="44.92379" lon="6.36029">
        <ele>3899.24</ele>
        <time>2020-07-25T12:18:24Z</time>
      </trkpt>
      <trkpt lat="44.92379" lon="6.36039">
        <ele>3895.4</ele>
        <time>2020-07-25T12:18:34Z</time>
      </trkpt>
      <trkpt lat="44.92382" lon="6.3605">
        <ele>3890.59</ele>
        <time>2020-07-25T12:18:47Z</time>
      </trkpt>
      <trkpt lat="44.92385" lon="6.36065">
        <ele>3886.27</ele>
        <time>2020-07-25T12:19:02Z</time>
      </trkpt>
      <trkpt lat="44.92385" lon="6.36065">
        <ele>3886.75</ele>
        <time>2020-07-25T12:19:03Z</time>
      </trkpt>
      <trkpt lat="44.92388" lon="6.36063">
        <ele>3882.9</ele>
        <time>2020-07-25T12:19:11Z</time>
      </trkpt>
      <trkpt lat="44.92394" lon="6.36061">
        <ele>3879.54</ele>
        <time>2020-07-25T12:19:25Z</time>
      </trkpt>
      <trkpt lat="44.92395" lon="6.36067">
        <ele>3876.17</ele>
        <time>2020-07-25T12:19:34Z</time>
      </trkpt>
      <trkpt lat="44.92398" lon="6.36076">
        <ele>3872.33</ele>
        <time>2020-07-25T12:19:49Z</time>
      </trkpt>
      <trkpt lat="44.92401" lon="6.36081">
        <ele>3868.96</ele>
        <time>2020-07-25T12:19:58Z</time>
      </trkpt>
      <trkpt lat="44.92401" lon="6.36082">
        <ele>3868.96</ele>
        <time>2020-07-25T12:19:59Z</time>
      </trkpt>
      <trkpt lat="44.92407" lon="6.36084">
        <ele>3865.6</ele>
        <time>2020-07-25T12:20:09Z</time>
      </trkpt>
      <trkpt lat="44.92412" lon="6.36081">
        <ele>3860.79</ele>
        <time>2020-07-25T12:20:24Z</time>
      </trkpt>
      <trkpt lat="44.92418" lon="6.36088">
        <ele>3855.5</ele>
        <time>2020-07-25T12:20:44Z</time>
      </trkpt>
      <trkpt lat="44.92425" lon="6.36104">
        <ele>3849.26</ele>
        <time>2020-07-25T12:21:09Z</time>
      </trkpt>
      <trkpt lat="44.9243" lon="6.36114">
        <ele>3845.89</ele>
        <time>2020-07-25T12:21:20Z</time>
      </trkpt>
      <trkpt lat="44.92435" lon="6.36112">
        <ele>3842.53</ele>
        <time>2020-07-25T12:21:32Z</time>
      </trkpt>
      <trkpt lat="44.92438" lon="6.36111">
        <ele>3842.53</ele>
        <time>2020-07-25T12:21:55Z</time>
      </trkpt>
      <trkpt lat="44.92443" lon="6.36103">
        <ele>3839.16</ele>
        <time>2020-07-25T12:22:43Z</time>
      </trkpt>
      <trkpt lat="44.92447" lon="6.36097">
        <ele>3835.32</ele>
        <time>2020-07-25T12:22:55Z</time>
      </trkpt>
      <trkpt lat="44.92454" lon="6.36086">
        <ele>3830.99</ele>
        <time>2020-07-25T12:23:10Z</time>
      </trkpt>
      <trkpt lat="44.9246" lon="6.36081">
        <ele>3827.63</ele>
        <time>2020-07-25T12:23:21Z</time>
      </trkpt>
      <trkpt lat="44.92464" lon="6.36087">
        <ele>3824.26</ele>
        <time>2020-07-25T12:23:32Z</time>
      </trkpt>
      <trkpt lat="44.92472" lon="6.36093">
        <ele>3820.42</ele>
        <time>2020-07-25T12:23:46Z</time>
      </trkpt>
      <trkpt lat="44.92475" lon="6.36101">
        <ele>3817.05</ele>
        <time>2020-07-25T12:24:10Z</time>
      </trkpt>
      <trkpt lat="44.92478" lon="6.36102">
        <ele>3813.69</ele>
        <time>2020-07-25T12:24:22Z</time>
      </trkpt>
      <trkpt lat="44.92483" lon="6.36105">
        <ele>3809.84</ele>
        <time>2020-07-25T12:24:33Z</time>
      </trkpt>
      <trkpt lat="44.92492" lon="6.36112">
        <ele>3804.55</ele>
        <time>2020-07-25T12:24:57Z</time>
      </trkpt>
      <trkpt lat="44.92494" lon="6.36116">
        <ele>3801.19</ele>
        <time>2020-07-25T12:25:10Z</time>
      </trkpt>
      <trkpt lat="44.92497" lon="6.36112">
        <ele>3797.83</ele>
        <time>2020-07-25T12:25:18Z</time>
      </trkpt>
      <trkpt lat="44.92498" lon="6.36112">
        <ele>3797.83</ele>
        <time>2020-07-25T12:25:19Z</time>
      </trkpt>
      <trkpt lat="44.92504" lon="6.361">
        <ele>3793.02</ele>
        <time>2020-07-25T12:25:40Z</time>
      </trkpt>
      <trkpt lat="44.9251" lon="6.361">
        <ele>3788.21</ele>
        <time>2020-07-25T12:25:55Z</time>
      </trkpt>
      <trkpt lat="44.92511" lon="6.361">
        <ele>3788.21</ele>
        <time>2020-07-25T12:25:56Z</time>
      </trkpt>
      <trkpt lat="44.92517" lon="6.36101">
        <ele>3784.85</ele>
        <time>2020-07-25T12:26:07Z</time>
      </trkpt>
      <trkpt lat="44.9252" lon="6.36098">
        <ele>3781.48</ele>
        <time>2020-07-25T12:26:16Z</time>
      </trkpt>
      <trkpt lat="44.92521" lon="6.36098">
        <ele>3781.48</ele>
        <time>2020-07-25T12:26:17Z</time>
      </trkpt>
      <trkpt lat="44.92525" lon="6.36104">
        <ele>3778.12</ele>
        <time>2020-07-25T12:26:27Z</time>
      </trkpt>
      <trkpt lat="44.92533" lon="6.36112">
        <ele>3771.87</ele>
        <time>2020-07-25T12:26:52Z</time>
      </trkpt>
      <trkpt lat="44.92541" lon="6.3612">
        <ele>3767.54</ele>
        <time>2020-07-25T12:27:09Z</time>
      </trkpt>
      <trkpt lat="44.92547" lon="6.36125">
        <ele>3762.26</ele>
        <time>2020-07-25T12:27:28Z</time>
      </trkpt>
      <trkpt lat="44.92552" lon="6.3612">
        <ele>3757.45</ele>
        <time>2020-07-25T12:27:58Z</time>
      </trkpt>
      <trkpt lat="44.92557" lon="6.36116">
        <ele>3754.09</ele>
        <time>2020-07-25T12:28:21Z</time>
      </trkpt>
      <trkpt lat="44.92566" lon="6.36122">
        <ele>3745.91</ele>
        <time>2020-07-25T12:28:55Z</time>
      </trkpt>
      <trkpt lat="44.92571" lon="6.36123">
        <ele>3740.63</ele>
        <time>2020-07-25T12:29:12Z</time>
      </trkpt>
      <trkpt lat="44.92578" lon="6.36126">
        <ele>3735.82</ele>
        <time>2020-07-25T12:29:27Z</time>
      </trkpt>
      <trkpt lat="44.92586" lon="6.36126">
        <ele>3731.49</ele>
        <time>2020-07-25T12:29:42Z</time>
      </trkpt>
      <trkpt lat="44.92591" lon="6.3613">
        <ele>3727.65</ele>
        <time>2020-07-25T12:29:56Z</time>
      </trkpt>
      <trkpt lat="44.92592" lon="6.3613">
        <ele>3727.65</ele>
        <time>2020-07-25T12:29:57Z</time>
      </trkpt>
      <trkpt lat="44.926" lon="6.36119">
        <ele>3722.84</ele>
        <time>2020-07-25T12:30:19Z</time>
      </trkpt>
      <trkpt lat="44.92605" lon="6.36112">
        <ele>3719.48</ele>
        <time>2020-07-25T12:30:31Z</time>
      </trkpt>
      <trkpt lat="44.92615" lon="6.36098">
        <ele>3713.23</ele>
        <time>2020-07-25T12:30:52Z</time>
      </trkpt>
      <trkpt lat="44.92623" lon="6.36093">
        <ele>3709.87</ele>
        <time>2020-07-25T12:31:03Z</time>
      </trkpt>
      <trkpt lat="44.92629" lon="6.36093">
        <ele>3706.02</ele>
        <time>2020-07-25T12:31:12Z</time>
      </trkpt>
      <trkpt lat="44.92635" lon="6.36095">
        <ele>3702.66</ele>
        <time>2020-07-25T12:31:21Z</time>
      </trkpt>
      <trkpt lat="44.92646" lon="6.36111">
        <ele>3697.85</ele>
        <time>2020-07-25T12:31:48Z</time>
      </trkpt>
      <trkpt lat="44.9265" lon="6.36118">
        <ele>3694.48</ele>
        <time>2020-07-25T12:32:00Z</time>
      </trkpt>
      <trkpt lat="44.92654" lon="6.36124">
        <ele>3691.12</ele>
        <time>2020-07-25T12:32:11Z</time>
      </trkpt>
      <trkpt lat="44.92659" lon="6.3613">
        <ele>3687.75</ele>
        <time>2020-07-25T12:32:21Z</time>
      </trkpt>
      <trkpt lat="44.9267" lon="6.36135">
        <ele>3681.03</ele>
        <time>2020-07-25T12:32:39Z</time>
      </trkpt>
      <trkpt lat="44.92676" lon="6.36139">
        <ele>3675.74</ele>
        <time>2020-07-25T12:32:52Z</time>
      </trkpt>
      <trkpt lat="44.92677" lon="6.36139">
        <ele>3675.74</ele>
        <time>2020-07-25T12:32:53Z</time>
      </trkpt>
      <trkpt lat="44.92684" lon="6.36146">
        <ele>3669.01</ele>
        <time>2020-07-25T12:33:10Z</time>
      </trkpt>
      <trkpt lat="44.92685" lon="6.36147">
        <ele>3669.01</ele>
        <time>2020-07-25T12:33:11Z</time>
      </trkpt>
      <trkpt lat="44.9269" lon="6.3615">
        <ele>3665.64</ele>
        <time>2020-07-25T12:33:21Z</time>
      </trkpt>
      <trkpt lat="44.92696" lon="6.36155">
        <ele>3661.32</ele>
        <time>2020-07-25T12:33:35Z</time>
      </trkpt>
      <trkpt lat="44.92701" lon="6.36158">
        <ele>3657.47</ele>
        <time>2020-07-25T12:33:44Z</time>
      </trkpt>
      <trkpt lat="44.92706" lon="6.36162">
        <ele>3654.11</ele>
        <time>2020-07-25T12:33:54Z</time>
      </trkpt>
      <trkpt lat="44.92711" lon="6.36165">
        <ele>3650.74</ele>
        <time>2020-07-25T12:34:04Z</time>
      </trkpt>
      <trkpt lat="44.92716" lon="6.36169">
        <ele>3646.9</ele>
        <time>2020-07-25T12:34:14Z</time>
      </trkpt>
      <trkpt lat="44.92721" lon="6.36173">
        <ele>3643.53</ele>
        <time>2020-07-25T12:34:23Z</time>
      </trkpt>
      <trkpt lat="44.92726" lon="6.36177">
        <ele>3640.17</ele>
        <time>2020-07-25T12:34:33Z</time>
      </trkpt>
      <trkpt lat="44.92731" lon="6.36177">
        <ele>3636.32</ele>
        <time>2020-07-25T12:34:43Z</time>
      </trkpt>
      <trkpt lat="44.92741" lon="6.36176">
        <ele>3631.04</ele>
        <time>2020-07-25T12:35:09Z</time>
      </trkpt>
      <trkpt lat="44.92751" lon="6.36167">
        <ele>3625.27</ele>
        <time>2020-07-25T12:35:41Z</time>
      </trkpt>
      <trkpt lat="44.92764" lon="6.36162">
        <ele>3619.5</ele>
        <time>2020-07-25T12:36:13Z</time>
      </trkpt>
      <trkpt lat="44.92765" lon="6.36163">
        <ele>3619.5</ele>
        <time>2020-07-25T12:36:33Z</time>
      </trkpt>
      <trkpt lat="44.92773" lon="6.3616">
        <ele>3615.66</ele>
        <time>2020-07-25T12:36:43Z</time>
      </trkpt>
      <trkpt lat="44.9278" lon="6.36156">
        <ele>3611.33</ele>
        <time>2020-07-25T12:36:52Z</time>
      </trkpt>
      <trkpt lat="44.92787" lon="6.36151">
        <ele>3607.48</ele>
        <time>2020-07-25T12:37:00Z</time>
      </trkpt>
      <trkpt lat="44.92799" lon="6.36152">
        <ele>3601.24</ele>
        <time>2020-07-25T12:37:14Z</time>
      </trkpt>
      <trkpt lat="44.92805" lon="6.36154">
        <ele>3596.43</ele>
        <time>2020-07-25T12:37:25Z</time>
      </trkpt>
      <trkpt lat="44.92812" lon="6.36158">
        <ele>3591.62</ele>
        <time>2020-07-25T12:37:39Z</time>
      </trkpt>
      <trkpt lat="44.92821" lon="6.36163">
        <ele>3584.89</ele>
        <time>2020-07-25T12:37:53Z</time>
      </trkpt>
      <trkpt lat="44.92825" lon="6.36165">
        <ele>3582.97</ele>
        <time>2020-07-25T12:37:58Z</time>
      </trkpt>
      <trkpt lat="44.9283" lon="6.36166">
        <ele>3579.13</ele>
        <time>2020-07-25T12:38:03Z</time>
      </trkpt>
      <trkpt lat="44.92837" lon="6.36168">
        <ele>3574.32</ele>
        <time>2020-07-25T12:38:15Z</time>
      </trkpt>
      <trkpt lat="44.92842" lon="6.36172">
        <ele>3570.95</ele>
        <time>2020-07-25T12:38:28Z</time>
      </trkpt>
      <trkpt lat="44.92847" lon="6.36174">
        <ele>3567.11</ele>
        <time>2020-07-25T12:38:38Z</time>
      </trkpt>
      <trkpt lat="44.92858" lon="6.36177">
        <ele>3560.38</ele>
        <time>2020-07-25T12:38:53Z</time>
      </trkpt>
      <trkpt lat="44.92865" lon="6.3618">
        <ele>3555.57</ele>
        <time>2020-07-25T12:39:03Z</time>
      </trkpt>
      <trkpt lat="44.9287" lon="6.36184">
        <ele>3552.21</ele>
        <time>2020-07-25T12:39:12Z</time>
      </trkpt>
      <trkpt lat="44.92877" lon="6.36181">
        <ele>3546.44</ele>
        <time>2020-07-25T12:39:32Z</time>
      </trkpt>
      <trkpt lat="44.9288" lon="6.36182">
        <ele>3543.08</ele>
        <time>2020-07-25T12:39:44Z</time>
      </trkpt>
      <trkpt lat="44.9289" lon="6.36179">
        <ele>3536.35</ele>
        <time>2020-07-25T12:40:03Z</time>
      </trkpt>
      <trkpt lat="44.92894" lon="6.36177">
        <ele>3532.98</ele>
        <time>2020-07-25T12:40:13Z</time>
      </trkpt>
      <trkpt lat="44.92899" lon="6.36176">
        <ele>3529.62</ele>
        <time>2020-07-25T12:40:25Z</time>
      </trkpt>
      <trkpt lat="44.92904" lon="6.3617">
        <ele>3524.81</ele>
        <time>2020-07-25T12:40:39Z</time>
      </trkpt>
      <trkpt lat="44.92912" lon="6.36172">
        <ele>3518.08</ele>
        <time>2020-07-25T12:41:01Z</time>
      </trkpt>
      <trkpt lat="44.92917" lon="6.36168">
        <ele>3514.72</ele>
        <time>2020-07-25T12:41:13Z</time>
      </trkpt>
      <trkpt lat="44.92922" lon="6.36171">
        <ele>3511.35</ele>
        <time>2020-07-25T12:41:23Z</time>
      </trkpt>
      <trkpt lat="44.92927" lon="6.36172">
        <ele>3505.58</ele>
        <time>2020-07-25T12:41:38Z</time>
      </trkpt>
      <trkpt lat="44.92931" lon="6.36172">
        <ele>3502.22</ele>
        <time>2020-07-25T12:41:48Z</time>
      </trkpt>
      <trkpt lat="44.92935" lon="6.36175">
        <ele>3498.86</ele>
        <time>2020-07-25T12:41:59Z</time>
      </trkpt>
      <trkpt lat="44.92941" lon="6.36174">
        <ele>3494.05</ele>
        <time>2020-07-25T12:42:14Z</time>
      </trkpt>
      <trkpt lat="44.92945" lon="6.36176">
        <ele>3490.2</ele>
        <time>2020-07-25T12:42:23Z</time>
      </trkpt>
      <trkpt lat="44.92948" lon="6.36179">
        <ele>3486.84</ele>
        <time>2020-07-25T12:42:34Z</time>
      </trkpt>
      <trkpt lat="44.92953" lon="6.3617">
        <ele>3481.07</ele>
        <time>2020-07-25T12:42:49Z</time>
      </trkpt>
      <trkpt lat="44.92959" lon="6.36172">
        <ele>3475.78</ele>
        <time>2020-07-25T12:43:15Z</time>
      </trkpt>
      <trkpt lat="44.92962" lon="6.36168">
        <ele>3472.42</ele>
        <time>2020-07-25T12:43:27Z</time>
      </trkpt>
      <trkpt lat="44.92966" lon="6.36161">
        <ele>3468.57</ele>
        <time>2020-07-25T12:43:40Z</time>
      </trkpt>
      <trkpt lat="44.92973" lon="6.36156">
        <ele>3462.33</ele>
        <time>2020-07-25T12:44:06Z</time>
      </trkpt>
      <trkpt lat="44.92976" lon="6.36165">
        <ele>3458.96</ele>
        <time>2020-07-25T12:44:21Z</time>
      </trkpt>
      <trkpt lat="44.92983" lon="6.36161">
        <ele>3452.71</ele>
        <time>2020-07-25T12:44:38Z</time>
      </trkpt>
      <trkpt lat="44.92987" lon="6.36159">
        <ele>3448.87</ele>
        <time>2020-07-25T12:44:53Z</time>
      </trkpt>
      <trkpt lat="44.92996" lon="6.36144">
        <ele>3443.1</ele>
        <time>2020-07-25T12:45:21Z</time>
      </trkpt>
      <trkpt lat="44.93006" lon="6.36133">
        <ele>3436.85</ele>
        <time>2020-07-25T12:45:43Z</time>
      </trkpt>
      <trkpt lat="44.93012" lon="6.36149">
        <ele>3431.08</ele>
        <time>2020-07-25T12:46:05Z</time>
      </trkpt>
      <trkpt lat="44.93015" lon="6.36158">
        <ele>3427.72</ele>
        <time>2020-07-25T12:46:18Z</time>
      </trkpt>
      <trkpt lat="44.93018" lon="6.36168">
        <ele>3424.35</ele>
        <time>2020-07-25T12:46:30Z</time>
      </trkpt>
      <trkpt lat="44.93021" lon="6.36175">
        <ele>3420.99</ele>
        <time>2020-07-25T12:46:38Z</time>
      </trkpt>
      <trkpt lat="44.93026" lon="6.36184">
        <ele>3415.22</ele>
        <time>2020-07-25T12:46:55Z</time>
      </trkpt>
      <trkpt lat="44.93032" lon="6.3619">
        <ele>3410.41</ele>
        <time>2020-07-25T12:47:09Z</time>
      </trkpt>
      <trkpt lat="44.93037" lon="6.36191">
        <ele>3407.05</ele>
        <time>2020-07-25T12:47:22Z</time>
      </trkpt>
      <trkpt lat="44.93043" lon="6.36196">
        <ele>3400.32</ele>
        <time>2020-07-25T12:47:44Z</time>
      </trkpt>
      <trkpt lat="44.93047" lon="6.36201">
        <ele>3396.96</ele>
        <time>2020-07-25T12:47:55Z</time>
      </trkpt>
      <trkpt lat="44.93052" lon="6.36207">
        <ele>3392.15</ele>
        <time>2020-07-25T12:48:12Z</time>
      </trkpt>
      <trkpt lat="44.93054" lon="6.36211">
        <ele>3388.78</ele>
        <time>2020-07-25T12:48:27Z</time>
      </trkpt>
      <trkpt lat="44.93058" lon="6.36214">
        <ele>3385.42</ele>
        <time>2020-07-25T12:48:40Z</time>
      </trkpt>
      <trkpt lat="44.93064" lon="6.36211">
        <ele>3382.06</ele>
        <time>2020-07-25T12:48:50Z</time>
      </trkpt>
      <trkpt lat="44.9307" lon="6.36205">
        <ele>3377.73</ele>
        <time>2020-07-25T12:49:12Z</time>
      </trkpt>
      <trkpt lat="44.93074" lon="6.36197">
        <ele>3373.4</ele>
        <time>2020-07-25T12:49:29Z</time>
      </trkpt>
      <trkpt lat="44.93079" lon="6.3621">
        <ele>3368.12</ele>
        <time>2020-07-25T12:49:57Z</time>
      </trkpt>
      <trkpt lat="44.9308" lon="6.36211">
        <ele>3368.12</ele>
        <time>2020-07-25T12:49:58Z</time>
      </trkpt>
      <trkpt lat="44.93084" lon="6.36223">
        <ele>3362.35</ele>
        <time>2020-07-25T12:50:37Z</time>
      </trkpt>
      <trkpt lat="44.93087" lon="6.36227">
        <ele>3358.98</ele>
        <time>2020-07-25T12:50:48Z</time>
      </trkpt>
      <trkpt lat="44.93091" lon="6.36229">
        <ele>3355.62</ele>
        <time>2020-07-25T12:50:59Z</time>
      </trkpt>
      <trkpt lat="44.931" lon="6.36225">
        <ele>3349.37</ele>
        <time>2020-07-25T12:51:21Z</time>
      </trkpt>
      <trkpt lat="44.93108" lon="6.36224">
        <ele>3343.12</ele>
        <time>2020-07-25T12:51:38Z</time>
      </trkpt>
      <trkpt lat="44.93114" lon="6.36222">
        <ele>3339.76</ele>
        <time>2020-07-25T12:51:47Z</time>
      </trkpt>
      <trkpt lat="44.9312" lon="6.36219">
        <ele>3336.39</ele>
        <time>2020-07-25T12:51:57Z</time>
      </trkpt>
      <trkpt lat="44.93127" lon="6.36214">
        <ele>3333.03</ele>
        <time>2020-07-25T12:52:07Z</time>
      </trkpt>
      <trkpt lat="44.93136" lon="6.36208">
        <ele>3328.7</ele>
        <time>2020-07-25T12:52:19Z</time>
      </trkpt>
      <trkpt lat="44.93144" lon="6.36209">
        <ele>3325.34</ele>
        <time>2020-07-25T12:52:28Z</time>
      </trkpt>
      <trkpt lat="44.93156" lon="6.36209">
        <ele>3321.01</ele>
        <time>2020-07-25T12:52:39Z</time>
      </trkpt>
      <trkpt lat="44.93176" lon="6.3621">
        <ele>3314.76</ele>
        <time>2020-07-25T12:52:56Z</time>
      </trkpt>
      <trkpt lat="44.93211" lon="6.36219">
        <ele>3307.07</ele>
        <time>2020-07-25T12:53:22Z</time>
      </trkpt>
      <trkpt lat="44.93236" lon="6.36222">
        <ele>3301.3</ele>
        <time>2020-07-25T12:53:43Z</time>
      </trkpt>
      <trkpt lat="44.93318" lon="6.36283">
        <ele>3277.75</ele>
        <time>2020-07-25T12:55:48Z</time>
      </trkpt>
      <trkpt lat="44.93318" lon="6.36283">
        <ele>3282.08</ele>
        <time>2020-07-25T12:55:49Z</time>
      </trkpt>
      <trkpt lat="44.9335" lon="6.36311">
        <ele>3277.27</ele>
        <time>2020-07-25T13:02:01Z</time>
      </trkpt>
      <trkpt lat="44.93516" lon="6.36479">
        <ele>3272.46</ele>
        <time>2020-07-25T13:05:05Z</time>
      </trkpt>
      <trkpt lat="44.93559" lon="6.3652">
        <ele>3269.1</ele>
        <time>2020-07-25T13:05:49Z</time>
      </trkpt>
      <trkpt lat="44.93607" lon="6.36565">
        <ele>3264.29</ele>
        <time>2020-07-25T13:06:36Z</time>
      </trkpt>
      <trkpt lat="44.93625" lon="6.36578">
        <ele>3260.93</ele>
        <time>2020-07-25T13:06:52Z</time>
      </trkpt>
      <trkpt lat="44.93646" lon="6.36609">
        <ele>3254.68</ele>
        <time>2020-07-25T13:07:14Z</time>
      </trkpt>
      <trkpt lat="44.93659" lon="6.36623">
        <ele>3251.32</ele>
        <time>2020-07-25T13:07:25Z</time>
      </trkpt>
      <trkpt lat="44.93678" lon="6.36646">
        <ele>3247.95</ele>
        <time>2020-07-25T13:07:44Z</time>
      </trkpt>
      <trkpt lat="44.93697" lon="6.36668">
        <ele>3244.59</ele>
        <time>2020-07-25T13:08:02Z</time>
      </trkpt>
      <trkpt lat="44.93725" lon="6.36699">
        <ele>3240.26</ele>
        <time>2020-07-25T13:08:41Z</time>
      </trkpt>
      <trkpt lat="44.93724" lon="6.367">
        <ele>3240.26</ele>
        <time>2020-07-25T13:09:07Z</time>
      </trkpt>
      <trkpt lat="44.93755" lon="6.3674">
        <ele>3235.45</ele>
        <time>2020-07-25T13:09:54Z</time>
      </trkpt>
      <trkpt lat="44.93765" lon="6.36755">
        <ele>3232.09</ele>
        <time>2020-07-25T13:10:06Z</time>
      </trkpt>
      <trkpt lat="44.93776" lon="6.3677">
        <ele>3228.24</ele>
        <time>2020-07-25T13:10:17Z</time>
      </trkpt>
      <trkpt lat="44.93787" lon="6.36787">
        <ele>3224.88</ele>
        <time>2020-07-25T13:10:29Z</time>
      </trkpt>
      <trkpt lat="44.93797" lon="6.36802">
        <ele>3221.52</ele>
        <time>2020-07-25T13:10:39Z</time>
      </trkpt>
      <trkpt lat="44.93842" lon="6.36864">
        <ele>3215.27</ele>
        <time>2020-07-25T13:11:26Z</time>
      </trkpt>
      <trkpt lat="44.93884" lon="6.36915">
        <ele>3209.02</ele>
        <time>2020-07-25T13:12:08Z</time>
      </trkpt>
      <trkpt lat="44.93905" lon="6.36937">
        <ele>3205.65</ele>
        <time>2020-07-25T13:12:27Z</time>
      </trkpt>
      <trkpt lat="44.93939" lon="6.36972">
        <ele>3201.33</ele>
        <time>2020-07-25T13:12:59Z</time>
      </trkpt>
      <trkpt lat="44.93957" lon="6.36996">
        <ele>3197.96</ele>
        <time>2020-07-25T13:13:18Z</time>
      </trkpt>
      <trkpt lat="44.93977" lon="6.37016">
        <ele>3194.6</ele>
        <time>2020-07-25T13:13:36Z</time>
      </trkpt>
      <trkpt lat="44.94015" lon="6.37064">
        <ele>3188.35</ele>
        <time>2020-07-25T13:14:14Z</time>
      </trkpt>
      <trkpt lat="44.94056" lon="6.37116">
        <ele>3184.98</ele>
        <time>2020-07-25T13:14:58Z</time>
      </trkpt>
      <trkpt lat="44.94058" lon="6.3712">
        <ele>3184.98</ele>
        <time>2020-07-25T13:15:01Z</time>
      </trkpt>
      <trkpt lat="44.94105" lon="6.37183">
        <ele>3181.62</ele>
        <time>2020-07-25T13:15:55Z</time>
      </trkpt>
      <trkpt lat="44.94188" lon="6.3731">
        <ele>3177.29</ele>
        <time>2020-07-25T13:17:40Z</time>
      </trkpt>
      <trkpt lat="44.94269" lon="6.37454">
        <ele>3170.08</ele>
        <time>2020-07-25T13:19:27Z</time>
      </trkpt>
      <trkpt lat="44.94302" lon="6.37518">
        <ele>3165.76</ele>
        <time>2020-07-25T13:20:14Z</time>
      </trkpt>
      <trkpt lat="44.9432" lon="6.37574">
        <ele>3159.51</ele>
        <time>2020-07-25T13:20:47Z</time>
      </trkpt>
      <trkpt lat="44.94333" lon="6.37631">
        <ele>3153.26</ele>
        <time>2020-07-25T13:21:19Z</time>
      </trkpt>
      <trkpt lat="44.94334" lon="6.37634">
        <ele>3153.26</ele>
        <time>2020-07-25T13:21:21Z</time>
      </trkpt>
      <trkpt lat="44.94343" lon="6.37666">
        <ele>3149.9</ele>
        <time>2020-07-25T13:21:39Z</time>
      </trkpt>
      <trkpt lat="44.94365" lon="6.37744">
        <ele>3144.13</ele>
        <time>2020-07-25T13:22:24Z</time>
      </trkpt>
      <trkpt lat="44.94379" lon="6.37817">
        <ele>3140.28</ele>
        <time>2020-07-25T13:23:08Z</time>
      </trkpt>
      <trkpt lat="44.94391" lon="6.37886">
        <ele>3134.52</ele>
        <time>2020-07-25T13:23:50Z</time>
      </trkpt>
      <trkpt lat="44.94391" lon="6.37887">
        <ele>3134.52</ele>
        <time>2020-07-25T13:23:51Z</time>
      </trkpt>
      <trkpt lat="44.94396" lon="6.37921">
        <ele>3130.19</ele>
        <time>2020-07-25T13:24:21Z</time>
      </trkpt>
      <trkpt lat="44.94401" lon="6.37935">
        <ele>3128.27</ele>
        <time>2020-07-25T13:24:38Z</time>
      </trkpt>
      <trkpt lat="44.94412" lon="6.37955">
        <ele>3124.9</ele>
        <time>2020-07-25T13:24:54Z</time>
      </trkpt>
      <trkpt lat="44.94423" lon="6.37979">
        <ele>3121.06</ele>
        <time>2020-07-25T13:25:09Z</time>
      </trkpt>
      <trkpt lat="44.94433" lon="6.38001">
        <ele>3117.69</ele>
        <time>2020-07-25T13:25:24Z</time>
      </trkpt>
      <trkpt lat="44.9444" lon="6.38023">
        <ele>3113.37</ele>
        <time>2020-07-25T13:25:48Z</time>
      </trkpt>
      <trkpt lat="44.94452" lon="6.38039">
        <ele>3109.04</ele>
        <time>2020-07-25T13:26:18Z</time>
      </trkpt>
      <trkpt lat="44.94469" lon="6.38066">
        <ele>3102.31</ele>
        <time>2020-07-25T13:26:46Z</time>
      </trkpt>
      <trkpt lat="44.9448" lon="6.3808">
        <ele>3098.95</ele>
        <time>2020-07-25T13:26:57Z</time>
      </trkpt>
      <trkpt lat="44.94488" lon="6.3809">
        <ele>3095.58</ele>
        <time>2020-07-25T13:27:05Z</time>
      </trkpt>
      <trkpt lat="44.945" lon="6.38104">
        <ele>3091.74</ele>
        <time>2020-07-25T13:27:17Z</time>
      </trkpt>
      <trkpt lat="44.94528" lon="6.38138">
        <ele>3085.49</ele>
        <time>2020-07-25T13:27:43Z</time>
      </trkpt>
      <trkpt lat="44.94544" lon="6.38177">
        <ele>3082.12</ele>
        <time>2020-07-25T13:28:07Z</time>
      </trkpt>
      <trkpt lat="44.94554" lon="6.382">
        <ele>3078.76</ele>
        <time>2020-07-25T13:28:21Z</time>
      </trkpt>
      <trkpt lat="44.94563" lon="6.38228">
        <ele>3075.4</ele>
        <time>2020-07-25T13:28:36Z</time>
      </trkpt>
      <trkpt lat="44.94576" lon="6.38266">
        <ele>3071.07</ele>
        <time>2020-07-25T13:28:57Z</time>
      </trkpt>
      <trkpt lat="44.94586" lon="6.38302">
        <ele>3067.7</ele>
        <time>2020-07-25T13:29:18Z</time>
      </trkpt>
      <trkpt lat="44.94614" lon="6.384">
        <ele>3063.38</ele>
        <time>2020-07-25T13:30:18Z</time>
      </trkpt>
      <trkpt lat="44.94644" lon="6.38488">
        <ele>3058.57</ele>
        <time>2020-07-25T13:31:17Z</time>
      </trkpt>
      <trkpt lat="44.94645" lon="6.38495">
        <ele>3059.05</ele>
        <time>2020-07-25T13:31:21Z</time>
      </trkpt>
      <trkpt lat="44.94658" lon="6.38541">
        <ele>3055.69</ele>
        <time>2020-07-25T13:31:48Z</time>
      </trkpt>
      <trkpt lat="44.94658" lon="6.38544">
        <ele>3055.69</ele>
        <time>2020-07-25T13:31:50Z</time>
      </trkpt>
      <trkpt lat="44.94671" lon="6.38578">
        <ele>3051.84</ele>
        <time>2020-07-25T13:32:12Z</time>
      </trkpt>
      <trkpt lat="44.94679" lon="6.38612">
        <ele>3049.44</ele>
        <time>2020-07-25T13:32:32Z</time>
      </trkpt>
      <trkpt lat="44.94686" lon="6.38646">
        <ele>3045.59</ele>
        <time>2020-07-25T13:32:50Z</time>
      </trkpt>
      <trkpt lat="44.94701" lon="6.38724">
        <ele>3040.31</ele>
        <time>2020-07-25T13:33:32Z</time>
      </trkpt>
      <trkpt lat="44.94721" lon="6.38817">
        <ele>3035.98</ele>
        <time>2020-07-25T13:34:25Z</time>
      </trkpt>
      <trkpt lat="44.94748" lon="6.38928">
        <ele>3031.66</ele>
        <time>2020-07-25T13:35:33Z</time>
      </trkpt>
      <trkpt lat="44.94762" lon="6.39005">
        <ele>3028.29</ele>
        <time>2020-07-25T13:36:20Z</time>
      </trkpt>
      <trkpt lat="44.94766" lon="6.39065">
        <ele>3024.93</ele>
        <time>2020-07-25T13:36:52Z</time>
      </trkpt>
      <trkpt lat="44.94782" lon="6.39123">
        <ele>3020.12</ele>
        <time>2020-07-25T13:37:28Z</time>
      </trkpt>
      <trkpt lat="44.94794" lon="6.39186">
        <ele>3013.87</ele>
        <time>2020-07-25T13:38:03Z</time>
      </trkpt>
      <trkpt lat="44.94794" lon="6.39228">
        <ele>3008.1</ele>
        <time>2020-07-25T13:38:24Z</time>
      </trkpt>
      <trkpt lat="44.94797" lon="6.39302">
        <ele>2999.45</ele>
        <time>2020-07-25T13:39:02Z</time>
      </trkpt>
      <trkpt lat="44.94799" lon="6.39395">
        <ele>2992.72</ele>
        <time>2020-07-25T13:39:50Z</time>
      </trkpt>
      <trkpt lat="44.94789" lon="6.3949">
        <ele>2986.95</ele>
        <time>2020-07-25T13:40:51Z</time>
      </trkpt>
      <trkpt lat="44.94779" lon="6.39562">
        <ele>2981.19</ele>
        <time>2020-07-25T13:44:03Z</time>
      </trkpt>
      <trkpt lat="44.94779" lon="6.39565">
        <ele>2981.19</ele>
        <time>2020-07-25T13:44:05Z</time>
      </trkpt>
      <trkpt lat="44.94775" lon="6.39601">
        <ele>2977.34</ele>
        <time>2020-07-25T13:44:28Z</time>
      </trkpt>
      <trkpt lat="44.94775" lon="6.39604">
        <ele>2977.34</ele>
        <time>2020-07-25T13:44:29Z</time>
      </trkpt>
      <trkpt lat="44.94769" lon="6.39645">
        <ele>2971.57</ele>
        <time>2020-07-25T13:44:54Z</time>
      </trkpt>
      <trkpt lat="44.9476" lon="6.39679">
        <ele>2966.77</ele>
        <time>2020-07-25T13:45:35Z</time>
      </trkpt>
      <trkpt lat="44.94756" lon="6.39699">
        <ele>2962.92</ele>
        <time>2020-07-25T13:45:50Z</time>
      </trkpt>
      <trkpt lat="44.94754" lon="6.39728">
        <ele>2958.59</ele>
        <time>2020-07-25T13:46:05Z</time>
      </trkpt>
      <trkpt lat="44.94749" lon="6.39746">
        <ele>2953.31</ele>
        <time>2020-07-25T13:46:25Z</time>
      </trkpt>
      <trkpt lat="44.94746" lon="6.39756">
        <ele>2949.46</ele>
        <time>2020-07-25T13:46:34Z</time>
      </trkpt>
      <trkpt lat="44.94741" lon="6.39779">
        <ele>2943.21</ele>
        <time>2020-07-25T13:46:58Z</time>
      </trkpt>
      <trkpt lat="44.94731" lon="6.39799">
        <ele>2938.89</ele>
        <time>2020-07-25T13:47:24Z</time>
      </trkpt>
      <trkpt lat="44.94721" lon="6.39811">
        <ele>2934.56</ele>
        <time>2020-07-25T13:47:38Z</time>
      </trkpt>
      <trkpt lat="44.94721" lon="6.39833">
        <ele>2931.2</ele>
        <time>2020-07-25T13:47:51Z</time>
      </trkpt>
      <trkpt lat="44.94721" lon="6.39835">
        <ele>2931.2</ele>
        <time>2020-07-25T13:47:52Z</time>
      </trkpt>
      <trkpt lat="44.94726" lon="6.3986">
        <ele>2925.43</ele>
        <time>2020-07-25T13:48:22Z</time>
      </trkpt>
      <trkpt lat="44.94725" lon="6.39871">
        <ele>2922.06</ele>
        <time>2020-07-25T13:48:34Z</time>
      </trkpt>
      <trkpt lat="44.94724" lon="6.39886">
        <ele>2917.74</ele>
        <time>2020-07-25T13:48:46Z</time>
      </trkpt>
      <trkpt lat="44.94721" lon="6.39902">
        <ele>2912.93</ele>
        <time>2020-07-25T13:48:57Z</time>
      </trkpt>
      <trkpt lat="44.94713" lon="6.39919">
        <ele>2908.61</ele>
        <time>2020-07-25T13:49:09Z</time>
      </trkpt>
      <trkpt lat="44.94706" lon="6.39948">
        <ele>2904.76</ele>
        <time>2020-07-25T13:49:25Z</time>
      </trkpt>
      <trkpt lat="44.94705" lon="6.39951">
        <ele>2904.76</ele>
        <time>2020-07-25T13:49:28Z</time>
      </trkpt>
      <trkpt lat="44.94685" lon="6.40011">
        <ele>2896.11</ele>
        <time>2020-07-25T13:50:07Z</time>
      </trkpt>
      <trkpt lat="44.94666" lon="6.40041">
        <ele>2891.3</ele>
        <time>2020-07-25T13:50:37Z</time>
      </trkpt>
      <trkpt lat="44.9466" lon="6.40055">
        <ele>2887.94</ele>
        <time>2020-07-25T13:50:46Z</time>
      </trkpt>
      <trkpt lat="44.94646" lon="6.40083">
        <ele>2882.65</ele>
        <time>2020-07-25T13:51:06Z</time>
      </trkpt>
      <trkpt lat="44.94638" lon="6.40102">
        <ele>2878.81</ele>
        <time>2020-07-25T13:51:17Z</time>
      </trkpt>
      <trkpt lat="44.94632" lon="6.40124">
        <ele>2875.44</ele>
        <time>2020-07-25T13:51:30Z</time>
      </trkpt>
      <trkpt lat="44.94616" lon="6.40172">
        <ele>2868.71</ele>
        <time>2020-07-25T13:51:57Z</time>
      </trkpt>
      <trkpt lat="44.94606" lon="6.40229">
        <ele>2862.46</ele>
        <time>2020-07-25T13:52:31Z</time>
      </trkpt>
      <trkpt lat="44.94609" lon="6.40258">
        <ele>2859.1</ele>
        <time>2020-07-25T13:52:48Z</time>
      </trkpt>
      <trkpt lat="44.94598" lon="6.40307">
        <ele>2854.77</ele>
        <time>2020-07-25T13:53:21Z</time>
      </trkpt>
      <trkpt lat="44.94588" lon="6.40333">
        <ele>2851.41</ele>
        <time>2020-07-25T13:53:38Z</time>
      </trkpt>
      <trkpt lat="44.94569" lon="6.40375">
        <ele>2845.16</ele>
        <time>2020-07-25T13:54:06Z</time>
      </trkpt>
      <trkpt lat="44.94558" lon="6.40405">
        <ele>2841.31</ele>
        <time>2020-07-25T13:54:24Z</time>
      </trkpt>
      <trkpt lat="44.94552" lon="6.40412">
        <ele>2839.87</ele>
        <time>2020-07-25T13:54:30Z</time>
      </trkpt>
      <trkpt lat="44.94535" lon="6.40433">
        <ele>2833.14</ele>
        <time>2020-07-25T13:54:48Z</time>
      </trkpt>
      <trkpt lat="44.94517" lon="6.4045">
        <ele>2825.45</ele>
        <time>2020-07-25T13:55:05Z</time>
      </trkpt>
      <trkpt lat="44.94514" lon="6.40452">
        <ele>2825.45</ele>
        <time>2020-07-25T13:55:07Z</time>
      </trkpt>
      <trkpt lat="44.94507" lon="6.40457">
        <ele>2821.61</ele>
        <time>2020-07-25T13:55:13Z</time>
      </trkpt>
      <trkpt lat="44.94493" lon="6.40466">
        <ele>2817.76</ele>
        <time>2020-07-25T13:55:24Z</time>
      </trkpt>
      <trkpt lat="44.94457" lon="6.40503">
        <ele>2814.4</ele>
        <time>2020-07-25T13:56:07Z</time>
      </trkpt>
      <trkpt lat="44.94439" lon="6.40518">
        <ele>2804.78</ele>
        <time>2020-07-25T13:59:49Z</time>
      </trkpt>
      <trkpt lat="44.94439" lon="6.40519">
        <ele>2811.03</ele>
        <time>2020-07-25T13:59:50Z</time>
      </trkpt>
      <trkpt lat="44.94442" lon="6.40555">
        <ele>2814.4</ele>
        <time>2020-07-25T14:11:36Z</time>
      </trkpt>
      <trkpt lat="44.9444" lon="6.4056">
        <ele>2814.4</ele>
        <time>2020-07-25T14:11:40Z</time>
      </trkpt>
      <trkpt lat="44.94415" lon="6.40592">
        <ele>2810.55</ele>
        <time>2020-07-25T14:12:25Z</time>
      </trkpt>
      <trkpt lat="44.94403" lon="6.40601">
        <ele>2807.19</ele>
        <time>2020-07-25T14:12:57Z</time>
      </trkpt>
      <trkpt lat="44.9439" lon="6.40629">
        <ele>2801.42</ele>
        <time>2020-07-25T14:13:20Z</time>
      </trkpt>
      <trkpt lat="44.94389" lon="6.40633">
        <ele>2801.42</ele>
        <time>2020-07-25T14:13:23Z</time>
      </trkpt>
      <trkpt lat="44.94381" lon="6.40655">
        <ele>2795.17</ele>
        <time>2020-07-25T14:13:43Z</time>
      </trkpt>
      <trkpt lat="44.9438" lon="6.40655">
        <ele>2795.17</ele>
        <time>2020-07-25T14:13:44Z</time>
      </trkpt>
      <trkpt lat="44.94379" lon="6.40663">
        <ele>2793.25</ele>
        <time>2020-07-25T14:13:52Z</time>
      </trkpt>
      <trkpt lat="44.94379" lon="6.40674">
        <ele>2789.88</ele>
        <time>2020-07-25T14:14:00Z</time>
      </trkpt>
      <trkpt lat="44.94369" lon="6.4071">
        <ele>2785.08</ele>
        <time>2020-07-25T14:14:24Z</time>
      </trkpt>
      <trkpt lat="44.94366" lon="6.40727">
        <ele>2781.71</ele>
        <time>2020-07-25T14:14:36Z</time>
      </trkpt>
      <trkpt lat="44.94365" lon="6.4073">
        <ele>2781.71</ele>
        <time>2020-07-25T14:14:39Z</time>
      </trkpt>
      <trkpt lat="44.94341" lon="6.40767">
        <ele>2774.5</ele>
        <time>2020-07-25T14:15:16Z</time>
      </trkpt>
      <trkpt lat="44.94335" lon="6.40778">
        <ele>2770.18</ele>
        <time>2020-07-25T14:15:27Z</time>
      </trkpt>
      <trkpt lat="44.94328" lon="6.40789">
        <ele>2765.37</ele>
        <time>2020-07-25T14:15:38Z</time>
      </trkpt>
      <trkpt lat="44.94318" lon="6.40788">
        <ele>2761.04</ele>
        <time>2020-07-25T14:15:53Z</time>
      </trkpt>
      <trkpt lat="44.943" lon="6.40808">
        <ele>2754.8</ele>
        <time>2020-07-25T14:16:19Z</time>
      </trkpt>
      <trkpt lat="44.94284" lon="6.40815">
        <ele>2748.07</ele>
        <time>2020-07-25T14:16:35Z</time>
      </trkpt>
      <trkpt lat="44.94282" lon="6.40815">
        <ele>2750.47</ele>
        <time>2020-07-25T14:16:36Z</time>
      </trkpt>
      <trkpt lat="44.94277" lon="6.40821">
        <ele>2746.14</ele>
        <time>2020-07-25T14:16:41Z</time>
      </trkpt>
      <trkpt lat="44.94267" lon="6.40834">
        <ele>2740.86</ele>
        <time>2020-07-25T14:16:55Z</time>
      </trkpt>
      <trkpt lat="44.94267" lon="6.40835">
        <ele>2743.26</ele>
        <time>2020-07-25T14:16:56Z</time>
      </trkpt>
      <trkpt lat="44.94261" lon="6.40836">
        <ele>2739.89</ele>
        <time>2020-07-25T14:17:01Z</time>
      </trkpt>
      <trkpt lat="44.94243" lon="6.40846">
        <ele>2736.05</ele>
        <time>2020-07-25T14:17:16Z</time>
      </trkpt>
      <trkpt lat="44.94229" lon="6.40848">
        <ele>2732.68</ele>
        <time>2020-07-25T14:17:27Z</time>
      </trkpt>
      <trkpt lat="44.94213" lon="6.40867">
        <ele>2728.84</ele>
        <time>2020-07-25T14:17:43Z</time>
      </trkpt>
      <trkpt lat="44.94203" lon="6.40875">
        <ele>2725.48</ele>
        <time>2020-07-25T14:17:54Z</time>
      </trkpt>
      <trkpt lat="44.94195" lon="6.40879">
        <ele>2722.11</ele>
        <time>2020-07-25T14:18:02Z</time>
      </trkpt>
      <trkpt lat="44.94191" lon="6.40881">
        <ele>2723.07</ele>
        <time>2020-07-25T14:18:06Z</time>
      </trkpt>
      <trkpt lat="44.9418" lon="6.40886">
        <ele>2718.27</ele>
        <time>2020-07-25T14:18:15Z</time>
      </trkpt>
      <trkpt lat="44.94157" lon="6.409">
        <ele>2711.54</ele>
        <time>2020-07-25T14:18:41Z</time>
      </trkpt>
      <trkpt lat="44.94145" lon="6.40906">
        <ele>2708.17</ele>
        <time>2020-07-25T14:18:54Z</time>
      </trkpt>
      <trkpt lat="44.94136" lon="6.40923">
        <ele>2704.81</ele>
        <time>2020-07-25T14:19:06Z</time>
      </trkpt>
      <trkpt lat="44.94135" lon="6.40924">
        <ele>2704.81</ele>
        <time>2020-07-25T14:19:07Z</time>
      </trkpt>
      <trkpt lat="44.94122" lon="6.40946">
        <ele>2699.04</ele>
        <time>2020-07-25T14:19:26Z</time>
      </trkpt>
      <trkpt lat="44.94117" lon="6.40958">
        <ele>2694.71</ele>
        <time>2020-07-25T14:19:38Z</time>
      </trkpt>
      <trkpt lat="44.94108" lon="6.40972">
        <ele>2690.87</ele>
        <time>2020-07-25T14:19:51Z</time>
      </trkpt>
      <trkpt lat="44.94098" lon="6.40979">
        <ele>2687.02</ele>
        <time>2020-07-25T14:20:03Z</time>
      </trkpt>
      <trkpt lat="44.94087" lon="6.40994">
        <ele>2682.7</ele>
        <time>2020-07-25T14:20:15Z</time>
      </trkpt>
      <trkpt lat="44.94072" lon="6.41002">
        <ele>2679.33</ele>
        <time>2020-07-25T14:20:27Z</time>
      </trkpt>
      <trkpt lat="44.94055" lon="6.41028">
        <ele>2675.49</ele>
        <time>2020-07-25T14:20:48Z</time>
      </trkpt>
      <trkpt lat="44.94041" lon="6.41045">
        <ele>2669.24</ele>
        <time>2020-07-25T14:21:07Z</time>
      </trkpt>
      <trkpt lat="44.94041" lon="6.41044">
        <ele>2669.24</ele>
        <time>2020-07-25T14:21:08Z</time>
      </trkpt>
      <trkpt lat="44.94029" lon="6.41063">
        <ele>2664.43</ele>
        <time>2020-07-25T14:21:23Z</time>
      </trkpt>
      <trkpt lat="44.94019" lon="6.41072">
        <ele>2664.43</ele>
        <time>2020-07-25T14:21:31Z</time>
      </trkpt>
      <trkpt lat="44.94017" lon="6.41077">
        <ele>2662.51</ele>
        <time>2020-07-25T14:21:36Z</time>
      </trkpt>
      <trkpt lat="44.94015" lon="6.41082">
        <ele>2662.51</ele>
        <time>2020-07-25T14:21:39Z</time>
      </trkpt>
      <trkpt lat="44.94003" lon="6.41084">
        <ele>2657.7</ele>
        <time>2020-07-25T14:21:52Z</time>
      </trkpt>
      <trkpt lat="44.93986" lon="6.41093">
        <ele>2651.45</ele>
        <time>2020-07-25T14:22:13Z</time>
      </trkpt>
      <trkpt lat="44.9398" lon="6.41094">
        <ele>2648.09</ele>
        <time>2020-07-25T14:22:21Z</time>
      </trkpt>
      <trkpt lat="44.93971" lon="6.41093">
        <ele>2644.72</ele>
        <time>2020-07-25T14:22:36Z</time>
      </trkpt>
      <trkpt lat="44.93958" lon="6.41096">
        <ele>2639.44</ele>
        <time>2020-07-25T14:22:56Z</time>
      </trkpt>
      <trkpt lat="44.93952" lon="6.41099">
        <ele>2635.59</ele>
        <time>2020-07-25T14:23:08Z</time>
      </trkpt>
      <trkpt lat="44.93942" lon="6.41091">
        <ele>2628.38</ele>
        <time>2020-07-25T14:23:34Z</time>
      </trkpt>
      <trkpt lat="44.93941" lon="6.41092">
        <ele>2628.38</ele>
        <time>2020-07-25T14:23:35Z</time>
      </trkpt>
      <trkpt lat="44.93934" lon="6.41095">
        <ele>2624.54</ele>
        <time>2020-07-25T14:23:45Z</time>
      </trkpt>
      <trkpt lat="44.93925" lon="6.41096">
        <ele>2619.73</ele>
        <time>2020-07-25T14:23:58Z</time>
      </trkpt>
      <trkpt lat="44.93916" lon="6.41101">
        <ele>2616.37</ele>
        <time>2020-07-25T14:24:09Z</time>
      </trkpt>
      <trkpt lat="44.93907" lon="6.41104">
        <ele>2611.56</ele>
        <time>2020-07-25T14:24:19Z</time>
      </trkpt>
      <trkpt lat="44.93897" lon="6.41107">
        <ele>2607.71</ele>
        <time>2020-07-25T14:24:49Z</time>
      </trkpt>
      <trkpt lat="44.93894" lon="6.41092">
        <ele>2601.46</ele>
        <time>2020-07-25T14:25:08Z</time>
      </trkpt>
      <trkpt lat="44.93883" lon="6.41088">
        <ele>2596.66</ele>
        <time>2020-07-25T14:25:27Z</time>
      </trkpt>
      <trkpt lat="44.93876" lon="6.41105">
        <ele>2588.49</ele>
        <time>2020-07-25T14:25:52Z</time>
      </trkpt>
      <trkpt lat="44.93876" lon="6.41106">
        <ele>2588.49</ele>
        <time>2020-07-25T14:25:53Z</time>
      </trkpt>
      <trkpt lat="44.93871" lon="6.41109">
        <ele>2584.64</ele>
        <time>2020-07-25T14:26:10Z</time>
      </trkpt>
      <trkpt lat="44.93867" lon="6.41132">
        <ele>2580.32</ele>
        <time>2020-07-25T14:26:28Z</time>
      </trkpt>
      <trkpt lat="44.93862" lon="6.41141">
        <ele>2580.32</ele>
        <time>2020-07-25T14:26:34Z</time>
      </trkpt>
      <trkpt lat="44.93811" lon="6.41149">
        <ele>2574.07</ele>
        <time>2020-07-25T14:27:30Z</time>
      </trkpt>
      <trkpt lat="44.93803" lon="6.41144">
        <ele>2569.74</ele>
        <time>2020-07-25T14:27:42Z</time>
      </trkpt>
      <trkpt lat="44.93801" lon="6.41145">
        <ele>2569.74</ele>
        <time>2020-07-25T14:27:45Z</time>
      </trkpt>
      <trkpt lat="44.93788" lon="6.41148">
        <ele>2565.9</ele>
        <time>2020-07-25T14:27:56Z</time>
      </trkpt>
      <trkpt lat="44.93766" lon="6.41146">
        <ele>2562.53</ele>
        <time>2020-07-25T14:28:12Z</time>
      </trkpt>
      <trkpt lat="44.93737" lon="6.41154">
        <ele>2546.19</ele>
        <time>2020-07-25T15:13:41Z</time>
      </trkpt>
      <trkpt lat="44.93737" lon="6.41154">
        <ele>2551.48</ele>
        <time>2020-07-25T15:13:43Z</time>
      </trkpt>
      <trkpt lat="44.93791" lon="6.41123">
        <ele>2545.23</ele>
        <time>2020-07-25T15:32:09Z</time>
      </trkpt>
      <trkpt lat="44.93802" lon="6.41115">
        <ele>2541.38</ele>
        <time>2020-07-25T15:32:42Z</time>
      </trkpt>
      <trkpt lat="44.93806" lon="6.41107">
        <ele>2538.02</ele>
        <time>2020-07-25T15:32:50Z</time>
      </trkpt>
      <trkpt lat="44.93798" lon="6.41104">
        <ele>2534.17</ele>
        <time>2020-07-25T15:33:02Z</time>
      </trkpt>
      <trkpt lat="44.93776" lon="6.41102">
        <ele>2529.37</ele>
        <time>2020-07-25T15:34:03Z</time>
      </trkpt>
      <trkpt lat="44.93762" lon="6.41105">
        <ele>2525.04</ele>
        <time>2020-07-25T15:34:17Z</time>
      </trkpt>
      <trkpt lat="44.93751" lon="6.411">
        <ele>2519.27</ele>
        <time>2020-07-25T15:34:35Z</time>
      </trkpt>
      <trkpt lat="44.9374" lon="6.41097">
        <ele>2515.91</ele>
        <time>2020-07-25T15:34:44Z</time>
      </trkpt>
      <trkpt lat="44.93725" lon="6.41099">
        <ele>2512.54</ele>
        <time>2020-07-25T15:34:57Z</time>
      </trkpt>
      <trkpt lat="44.93701" lon="6.41102">
        <ele>2508.22</ele>
        <time>2020-07-25T15:35:20Z</time>
      </trkpt>
      <trkpt lat="44.937" lon="6.41104">
        <ele>2508.22</ele>
        <time>2020-07-25T15:35:21Z</time>
      </trkpt>
      <trkpt lat="44.93692" lon="6.4112">
        <ele>2504.37</ele>
        <time>2020-07-25T15:35:33Z</time>
      </trkpt>
      <trkpt lat="44.9369" lon="6.41137">
        <ele>2505.33</ele>
        <time>2020-07-25T15:35:43Z</time>
      </trkpt>
      <trkpt lat="44.93692" lon="6.41149">
        <ele>2501.97</ele>
        <time>2020-07-25T15:36:02Z</time>
      </trkpt>
      <trkpt lat="44.93689" lon="6.41163">
        <ele>2497.16</ele>
        <time>2020-07-25T15:36:13Z</time>
      </trkpt>
      <trkpt lat="44.93687" lon="6.41184">
        <ele>2493.8</ele>
        <time>2020-07-25T15:36:25Z</time>
      </trkpt>
      <trkpt lat="44.93684" lon="6.41204">
        <ele>2489.47</ele>
        <time>2020-07-25T15:36:39Z</time>
      </trkpt>
      <trkpt lat="44.9368" lon="6.41224">
        <ele>2484.66</ele>
        <time>2020-07-25T15:36:56Z</time>
      </trkpt>
      <trkpt lat="44.93677" lon="6.41228">
        <ele>2483.22</ele>
        <time>2020-07-25T15:37:01Z</time>
      </trkpt>
      <trkpt lat="44.93669" lon="6.41205">
        <ele>2478.9</ele>
        <time>2020-07-25T15:37:19Z</time>
      </trkpt>
      <trkpt lat="44.93668" lon="6.41218">
        <ele>2475.53</ele>
        <time>2020-07-25T15:37:31Z</time>
      </trkpt>
      <trkpt lat="44.93667" lon="6.41219">
        <ele>2475.53</ele>
        <time>2020-07-25T15:37:32Z</time>
      </trkpt>
      <trkpt lat="44.93659" lon="6.41214">
        <ele>2471.21</ele>
        <time>2020-07-25T15:37:47Z</time>
      </trkpt>
      <trkpt lat="44.93651" lon="6.41192">
        <ele>2467.36</ele>
        <time>2020-07-25T15:38:01Z</time>
      </trkpt>
      <trkpt lat="44.93626" lon="6.41184">
        <ele>2463.04</ele>
        <time>2020-07-25T15:38:22Z</time>
      </trkpt>
      <trkpt lat="44.93598" lon="6.41216">
        <ele>2459.19</ele>
        <time>2020-07-25T15:38:48Z</time>
      </trkpt>
      <trkpt lat="44.93522" lon="6.41266">
        <ele>2453.9</ele>
        <time>2020-07-25T15:39:52Z</time>
      </trkpt>
      <trkpt lat="44.93376" lon="6.41261">
        <ele>2449.1</ele>
        <time>2020-07-25T15:41:56Z</time>
      </trkpt>
      <trkpt lat="44.93362" lon="6.41267">
        <ele>2449.1</ele>
        <time>2020-07-25T15:42:09Z</time>
      </trkpt>
      <trkpt lat="44.93353" lon="6.41267">
        <ele>2449.1</ele>
        <time>2020-07-25T15:42:20Z</time>
      </trkpt>
      <trkpt lat="44.93315" lon="6.41263">
        <ele>2444.77</ele>
        <time>2020-07-25T15:42:54Z</time>
      </trkpt>
      <trkpt lat="44.93314" lon="6.41263">
        <ele>2444.77</ele>
        <time>2020-07-25T15:42:55Z</time>
      </trkpt>
      <trkpt lat="44.93279" lon="6.41276">
        <ele>2439</ele>
        <time>2020-07-25T15:43:27Z</time>
      </trkpt>
      <trkpt lat="44.93259" lon="6.41271">
        <ele>2435.64</ele>
        <time>2020-07-25T15:43:45Z</time>
      </trkpt>
      <trkpt lat="44.93248" lon="6.41268">
        <ele>2431.79</ele>
        <time>2020-07-25T15:43:57Z</time>
      </trkpt>
      <trkpt lat="44.93249" lon="6.41261">
        <ele>2430.35</ele>
        <time>2020-07-25T15:44:03Z</time>
      </trkpt>
      <trkpt lat="44.9326" lon="6.4125">
        <ele>2426.5</ele>
        <time>2020-07-25T15:44:16Z</time>
      </trkpt>
      <trkpt lat="44.93256" lon="6.41241">
        <ele>2420.74</ele>
        <time>2020-07-25T15:44:39Z</time>
      </trkpt>
      <trkpt lat="44.93254" lon="6.41232">
        <ele>2417.37</ele>
        <time>2020-07-25T15:44:50Z</time>
      </trkpt>
      <trkpt lat="44.93261" lon="6.41221">
        <ele>2413.53</ele>
        <time>2020-07-25T15:45:06Z</time>
      </trkpt>
      <trkpt lat="44.93268" lon="6.41213">
        <ele>2410.16</ele>
        <time>2020-07-25T15:45:16Z</time>
      </trkpt>
      <trkpt lat="44.93251" lon="6.41212">
        <ele>2404.39</ele>
        <time>2020-07-25T15:45:40Z</time>
      </trkpt>
      <trkpt lat="44.93241" lon="6.41214">
        <ele>2401.99</ele>
        <time>2020-07-25T15:45:54Z</time>
      </trkpt>
      <trkpt lat="44.93226" lon="6.41217">
        <ele>2397.67</ele>
        <time>2020-07-25T15:46:08Z</time>
      </trkpt>
      <trkpt lat="44.93217" lon="6.41223">
        <ele>2392.86</ele>
        <time>2020-07-25T15:46:23Z</time>
      </trkpt>
      <trkpt lat="44.9321" lon="6.41222">
        <ele>2389.49</ele>
        <time>2020-07-25T15:46:33Z</time>
      </trkpt>
      <trkpt lat="44.93209" lon="6.41222">
        <ele>2389.49</ele>
        <time>2020-07-25T15:46:34Z</time>
      </trkpt>
      <trkpt lat="44.93199" lon="6.41213">
        <ele>2382.76</ele>
        <time>2020-07-25T15:47:01Z</time>
      </trkpt>
      <trkpt lat="44.9318" lon="6.41214">
        <ele>2379.4</ele>
        <time>2020-07-25T15:47:17Z</time>
      </trkpt>
      <trkpt lat="44.93188" lon="6.4118">
        <ele>2375.07</ele>
        <time>2020-07-25T15:47:43Z</time>
      </trkpt>
      <trkpt lat="44.93191" lon="6.41173">
        <ele>2371.71</ele>
        <time>2020-07-25T15:47:53Z</time>
      </trkpt>
      <trkpt lat="44.93216" lon="6.41138">
        <ele>2366.9</ele>
        <time>2020-07-25T15:48:19Z</time>
      </trkpt>
      <trkpt lat="44.9321" lon="6.41123">
        <ele>2363.54</ele>
        <time>2020-07-25T15:48:34Z</time>
      </trkpt>
      <trkpt lat="44.93209" lon="6.41119">
        <ele>2363.54</ele>
        <time>2020-07-25T15:48:37Z</time>
      </trkpt>
      <trkpt lat="44.93208" lon="6.41093">
        <ele>2358.73</ele>
        <time>2020-07-25T15:48:54Z</time>
      </trkpt>
      <trkpt lat="44.93228" lon="6.41101">
        <ele>2354.89</ele>
        <time>2020-07-25T15:49:12Z</time>
      </trkpt>
      <trkpt lat="44.9323" lon="6.41085">
        <ele>2350.08</ele>
        <time>2020-07-25T15:49:30Z</time>
      </trkpt>
      <trkpt lat="44.93242" lon="6.41064">
        <ele>2343.83</ele>
        <time>2020-07-25T15:49:56Z</time>
      </trkpt>
      <trkpt lat="44.9325" lon="6.41055">
        <ele>2339.02</ele>
        <time>2020-07-25T15:50:22Z</time>
      </trkpt>
      <trkpt lat="44.93227" lon="6.41046">
        <ele>2330.85</ele>
        <time>2020-07-25T15:50:48Z</time>
      </trkpt>
      <trkpt lat="44.93231" lon="6.4104">
        <ele>2327.49</ele>
        <time>2020-07-25T15:50:59Z</time>
      </trkpt>
      <trkpt lat="44.93239" lon="6.41025">
        <ele>2321.72</ele>
        <time>2020-07-25T15:51:18Z</time>
      </trkpt>
      <trkpt lat="44.93227" lon="6.41022">
        <ele>2318.36</ele>
        <time>2020-07-25T15:51:44Z</time>
      </trkpt>
      <trkpt lat="44.93223" lon="6.41026">
        <ele>2316.91</ele>
        <time>2020-07-25T15:51:50Z</time>
      </trkpt>
      <trkpt lat="44.93202" lon="6.41025">
        <ele>2311.63</ele>
        <time>2020-07-25T15:52:10Z</time>
      </trkpt>
      <trkpt lat="44.93187" lon="6.41031">
        <ele>2307.78</ele>
        <time>2020-07-25T15:52:22Z</time>
      </trkpt>
      <trkpt lat="44.93183" lon="6.41034">
        <ele>2307.78</ele>
        <time>2020-07-25T15:52:26Z</time>
      </trkpt>
      <trkpt lat="44.93148" lon="6.41057">
        <ele>2303.94</ele>
        <time>2020-07-25T15:53:11Z</time>
      </trkpt>
      <trkpt lat="44.93139" lon="6.41061">
        <ele>2300.57</ele>
        <time>2020-07-25T15:53:25Z</time>
      </trkpt>
      <trkpt lat="44.9313" lon="6.41063">
        <ele>2291.44</ele>
        <time>2020-07-25T15:53:58Z</time>
      </trkpt>
      <trkpt lat="44.93047" lon="6.40978">
        <ele>2300.57</ele>
        <time>2020-07-25T15:56:21Z</time>
      </trkpt>
      <trkpt lat="44.9303" lon="6.40977">
        <ele>2303.46</ele>
        <time>2020-07-25T15:56:44Z</time>
      </trkpt>
      <trkpt lat="44.93009" lon="6.40971">
        <ele>2300.09</ele>
        <time>2020-07-25T15:57:05Z</time>
      </trkpt>
      <trkpt lat="44.92969" lon="6.40954">
        <ele>2303.94</ele>
        <time>2020-07-25T15:57:54Z</time>
      </trkpt>
      <trkpt lat="44.92945" lon="6.40944">
        <ele>2306.82</ele>
        <time>2020-07-25T15:58:20Z</time>
      </trkpt>
      <trkpt lat="44.92922" lon="6.4096">
        <ele>2302.49</ele>
        <time>2020-07-25T15:58:43Z</time>
      </trkpt>
      <trkpt lat="44.92904" lon="6.40967">
        <ele>2296.73</ele>
        <time>2020-07-25T15:59:03Z</time>
      </trkpt>
      <trkpt lat="44.92891" lon="6.40976">
        <ele>2293.36</ele>
        <time>2020-07-25T15:59:17Z</time>
      </trkpt>
      <trkpt lat="44.92876" lon="6.40976">
        <ele>2290.48</ele>
        <time>2020-07-25T15:59:33Z</time>
      </trkpt>
      <trkpt lat="44.92777" lon="6.40962">
        <ele>2283.27</ele>
        <time>2020-07-25T16:01:03Z</time>
      </trkpt>
      <trkpt lat="44.92761" lon="6.40969">
        <ele>2277.02</ele>
        <time>2020-07-25T16:01:24Z</time>
      </trkpt>
      <trkpt lat="44.92752" lon="6.40968">
        <ele>2273.66</ele>
        <time>2020-07-25T16:01:36Z</time>
      </trkpt>
      <trkpt lat="44.92732" lon="6.4097">
        <ele>2268.85</ele>
        <time>2020-07-25T16:01:58Z</time>
      </trkpt>
      <trkpt lat="44.92705" lon="6.40955">
        <ele>2268.85</ele>
        <time>2020-07-25T16:02:22Z</time>
      </trkpt>
      <trkpt lat="44.92687" lon="6.40942">
        <ele>2270.77</ele>
        <time>2020-07-25T16:02:43Z</time>
      </trkpt>
      <trkpt lat="44.92677" lon="6.40912">
        <ele>2266.93</ele>
        <time>2020-07-25T16:03:06Z</time>
      </trkpt>
      <trkpt lat="44.92671" lon="6.4092">
        <ele>2261.16</ele>
        <time>2020-07-25T16:03:37Z</time>
      </trkpt>
      <trkpt lat="44.92671" lon="6.40919">
        <ele>2261.16</ele>
        <time>2020-07-25T16:03:38Z</time>
      </trkpt>
      <trkpt lat="44.92666" lon="6.40904">
        <ele>2257.79</ele>
        <time>2020-07-25T16:03:48Z</time>
      </trkpt>
      <trkpt lat="44.92658" lon="6.40891">
        <ele>2252.51</ele>
        <time>2020-07-25T16:04:16Z</time>
      </trkpt>
      <trkpt lat="44.92655" lon="6.40886">
        <ele>2249.14</ele>
        <time>2020-07-25T16:04:25Z</time>
      </trkpt>
      <trkpt lat="44.9265" lon="6.40886">
        <ele>2245.78</ele>
        <time>2020-07-25T16:04:37Z</time>
      </trkpt>
      <trkpt lat="44.92646" lon="6.40889">
        <ele>2242.41</ele>
        <time>2020-07-25T16:04:51Z</time>
      </trkpt>
      <trkpt lat="44.92636" lon="6.40884">
        <ele>2237.61</ele>
        <time>2020-07-25T16:05:13Z</time>
      </trkpt>
      <trkpt lat="44.92637" lon="6.40875">
        <ele>2233.76</ele>
        <time>2020-07-25T16:05:24Z</time>
      </trkpt>
      <trkpt lat="44.92633" lon="6.40869">
        <ele>2227.99</ele>
        <time>2020-07-25T16:05:46Z</time>
      </trkpt>
      <trkpt lat="44.92626" lon="6.40869">
        <ele>2223.67</ele>
        <time>2020-07-25T16:06:02Z</time>
      </trkpt>
      <trkpt lat="44.9262" lon="6.40855">
        <ele>2220.3</ele>
        <time>2020-07-25T16:06:13Z</time>
      </trkpt>
      <trkpt lat="44.92605" lon="6.40826">
        <ele>2215.98</ele>
        <time>2020-07-25T16:06:40Z</time>
      </trkpt>
      <trkpt lat="44.92605" lon="6.40827">
        <ele>2215.98</ele>
        <time>2020-07-25T16:06:41Z</time>
      </trkpt>
      <trkpt lat="44.92611" lon="6.40843">
        <ele>2212.61</ele>
        <time>2020-07-25T16:06:52Z</time>
      </trkpt>
      <trkpt lat="44.92611" lon="6.40859">
        <ele>2208.77</ele>
        <time>2020-07-25T16:07:09Z</time>
      </trkpt>
      <trkpt lat="44.92617" lon="6.40888">
        <ele>2205.88</ele>
        <time>2020-07-25T16:07:25Z</time>
      </trkpt>
      <trkpt lat="44.92606" lon="6.40906">
        <ele>2206.36</ele>
        <time>2020-07-25T16:07:38Z</time>
      </trkpt>
      <trkpt lat="44.92601" lon="6.40938">
        <ele>2201.08</ele>
        <time>2020-07-25T16:08:10Z</time>
      </trkpt>
      <trkpt lat="44.926" lon="6.4094">
        <ele>2201.08</ele>
        <time>2020-07-25T16:08:11Z</time>
      </trkpt>
      <trkpt lat="44.92594" lon="6.40969">
        <ele>2197.71</ele>
        <time>2020-07-25T16:08:30Z</time>
      </trkpt>
      <trkpt lat="44.92581" lon="6.41003">
        <ele>2192.42</ele>
        <time>2020-07-25T16:08:55Z</time>
      </trkpt>
      <trkpt lat="44.92575" lon="6.4104">
        <ele>2185.69</ele>
        <time>2020-07-25T16:09:28Z</time>
      </trkpt>
      <trkpt lat="44.92555" lon="6.41011">
        <ele>2180.41</ele>
        <time>2020-07-25T16:09:50Z</time>
      </trkpt>
      <trkpt lat="44.92558" lon="6.40975">
        <ele>2174.64</ele>
        <time>2020-07-25T16:10:11Z</time>
      </trkpt>
      <trkpt lat="44.92551" lon="6.40977">
        <ele>2173.2</ele>
        <time>2020-07-25T16:10:19Z</time>
      </trkpt>
      <trkpt lat="44.92537" lon="6.40999">
        <ele>2168.87</ele>
        <time>2020-07-25T16:10:36Z</time>
      </trkpt>
      <trkpt lat="44.92527" lon="6.41029">
        <ele>2163.1</ele>
        <time>2020-07-25T16:10:55Z</time>
      </trkpt>
      <trkpt lat="44.92527" lon="6.4103">
        <ele>2163.1</ele>
        <time>2020-07-25T16:10:56Z</time>
      </trkpt>
      <trkpt lat="44.9251" lon="6.41047">
        <ele>2158.78</ele>
        <time>2020-07-25T16:11:11Z</time>
      </trkpt>
      <trkpt lat="44.92522" lon="6.41068">
        <ele>2154.45</ele>
        <time>2020-07-25T16:11:27Z</time>
      </trkpt>
      <trkpt lat="44.92489" lon="6.41045">
        <ele>2149.65</ele>
        <time>2020-07-25T16:11:53Z</time>
      </trkpt>
      <trkpt lat="44.92493" lon="6.41018">
        <ele>2146.28</ele>
        <time>2020-07-25T16:12:10Z</time>
      </trkpt>
      <trkpt lat="44.92502" lon="6.40981">
        <ele>2140.99</ele>
        <time>2020-07-25T16:12:30Z</time>
      </trkpt>
      <trkpt lat="44.92511" lon="6.4094">
        <ele>2136.19</ele>
        <time>2020-07-25T16:12:55Z</time>
      </trkpt>
      <trkpt lat="44.92503" lon="6.40905">
        <ele>2130.9</ele>
        <time>2020-07-25T16:13:17Z</time>
      </trkpt>
      <trkpt lat="44.92503" lon="6.40903">
        <ele>2130.9</ele>
        <time>2020-07-25T16:13:18Z</time>
      </trkpt>
      <trkpt lat="44.92501" lon="6.40895">
        <ele>2129.94</ele>
        <time>2020-07-25T16:13:36Z</time>
      </trkpt>
      <trkpt lat="44.92487" lon="6.40879">
        <ele>2126.09</ele>
        <time>2020-07-25T16:13:51Z</time>
      </trkpt>
      <trkpt lat="44.92479" lon="6.4085">
        <ele>2121.29</ele>
        <time>2020-07-25T16:14:11Z</time>
      </trkpt>
      <trkpt lat="44.92469" lon="6.40812">
        <ele>2116</ele>
        <time>2020-07-25T16:14:37Z</time>
      </trkpt>
      <trkpt lat="44.92449" lon="6.40797">
        <ele>2111.19</ele>
        <time>2020-07-25T16:14:54Z</time>
      </trkpt>
      <trkpt lat="44.92437" lon="6.40773">
        <ele>2107.35</ele>
        <time>2020-07-25T16:15:13Z</time>
      </trkpt>
      <trkpt lat="44.92436" lon="6.40748">
        <ele>2103.98</ele>
        <time>2020-07-25T16:15:28Z</time>
      </trkpt>
      <trkpt lat="44.92432" lon="6.40713">
        <ele>2097.73</ele>
        <time>2020-07-25T16:15:52Z</time>
      </trkpt>
      <trkpt lat="44.92432" lon="6.40714">
        <ele>2097.73</ele>
        <time>2020-07-25T16:15:53Z</time>
      </trkpt>
      <trkpt lat="44.92428" lon="6.40739">
        <ele>2092.93</ele>
        <time>2020-07-25T16:16:12Z</time>
      </trkpt>
      <trkpt lat="44.92421" lon="6.40713">
        <ele>2088.12</ele>
        <time>2020-07-25T16:16:32Z</time>
      </trkpt>
      <trkpt lat="44.92419" lon="6.40735">
        <ele>2084.76</ele>
        <time>2020-07-25T16:16:47Z</time>
      </trkpt>
      <trkpt lat="44.92414" lon="6.40765">
        <ele>2081.39</ele>
        <time>2020-07-25T16:17:03Z</time>
      </trkpt>
      <trkpt lat="44.92409" lon="6.40795">
        <ele>2077.07</ele>
        <time>2020-07-25T16:17:21Z</time>
      </trkpt>
      <trkpt lat="44.92407" lon="6.40811">
        <ele>2074.66</ele>
        <time>2020-07-25T16:17:31Z</time>
      </trkpt>
      <trkpt lat="44.92397" lon="6.40786">
        <ele>2070.82</ele>
        <time>2020-07-25T16:17:47Z</time>
      </trkpt>
      <trkpt lat="44.92392" lon="6.40754">
        <ele>2067.45</ele>
        <time>2020-07-25T16:18:04Z</time>
      </trkpt>
      <trkpt lat="44.9239" lon="6.40732">
        <ele>2064.09</ele>
        <time>2020-07-25T16:18:18Z</time>
      </trkpt>
      <trkpt lat="44.92367" lon="6.40697">
        <ele>2058.8</ele>
        <time>2020-07-25T16:18:44Z</time>
      </trkpt>
      <trkpt lat="44.92355" lon="6.40699">
        <ele>2055.92</ele>
        <time>2020-07-25T16:19:01Z</time>
      </trkpt>
      <trkpt lat="44.92352" lon="6.40736">
        <ele>2050.63</ele>
        <time>2020-07-25T16:19:24Z</time>
      </trkpt>
      <trkpt lat="44.92356" lon="6.40751">
        <ele>2046.78</ele>
        <time>2020-07-25T16:19:37Z</time>
      </trkpt>
      <trkpt lat="44.92353" lon="6.40787">
        <ele>2042.46</ele>
        <time>2020-07-25T16:19:55Z</time>
      </trkpt>
      <trkpt lat="44.92354" lon="6.40812">
        <ele>2037.65</ele>
        <time>2020-07-25T16:20:09Z</time>
      </trkpt>
      <trkpt lat="44.92353" lon="6.40816">
        <ele>2037.65</ele>
        <time>2020-07-25T16:20:11Z</time>
      </trkpt>
      <trkpt lat="44.92355" lon="6.40838">
        <ele>2034.29</ele>
        <time>2020-07-25T16:20:23Z</time>
      </trkpt>
      <trkpt lat="44.92356" lon="6.40841">
        <ele>2034.29</ele>
        <time>2020-07-25T16:20:25Z</time>
      </trkpt>
      <trkpt lat="44.92334" lon="6.40833">
        <ele>2026.6</ele>
        <time>2020-07-25T16:20:54Z</time>
      </trkpt>
      <trkpt lat="44.92309" lon="6.40795">
        <ele>2020.35</ele>
        <time>2020-07-25T16:21:21Z</time>
      </trkpt>
      <trkpt lat="44.92294" lon="6.40749">
        <ele>2014.1</ele>
        <time>2020-07-25T16:21:52Z</time>
      </trkpt>
      <trkpt lat="44.92293" lon="6.40747">
        <ele>2014.1</ele>
        <time>2020-07-25T16:21:53Z</time>
      </trkpt>
      <trkpt lat="44.9229" lon="6.4074">
        <ele>2013.62</ele>
        <time>2020-07-25T16:21:57Z</time>
      </trkpt>
      <trkpt lat="44.92263" lon="6.4073">
        <ele>2008.33</ele>
        <time>2020-07-25T16:22:24Z</time>
      </trkpt>
      <trkpt lat="44.92256" lon="6.40712">
        <ele>2004.49</ele>
        <time>2020-07-25T16:22:36Z</time>
      </trkpt>
      <trkpt lat="44.92243" lon="6.40692">
        <ele>2001.12</ele>
        <time>2020-07-25T16:22:51Z</time>
      </trkpt>
      <trkpt lat="44.9224" lon="6.4069">
        <ele>2001.12</ele>
        <time>2020-07-25T16:22:53Z</time>
      </trkpt>
      <trkpt lat="44.92241" lon="6.40714">
        <ele>1996.32</ele>
        <time>2020-07-25T16:23:12Z</time>
      </trkpt>
      <trkpt lat="44.92232" lon="6.40718">
        <ele>1992.47</ele>
        <time>2020-07-25T16:23:24Z</time>
      </trkpt>
      <trkpt lat="44.92232" lon="6.4072">
        <ele>1992.47</ele>
        <time>2020-07-25T16:23:26Z</time>
      </trkpt>
      <trkpt lat="44.92229" lon="6.40731">
        <ele>1988.62</ele>
        <time>2020-07-25T16:23:35Z</time>
      </trkpt>
      <trkpt lat="44.92228" lon="6.40733">
        <ele>1988.62</ele>
        <time>2020-07-25T16:23:37Z</time>
      </trkpt>
      <trkpt lat="44.92229" lon="6.40766">
        <ele>1983.34</ele>
        <time>2020-07-25T16:23:56Z</time>
      </trkpt>
      <trkpt lat="44.92233" lon="6.40794">
        <ele>1978.53</ele>
        <time>2020-07-25T16:24:16Z</time>
      </trkpt>
      <trkpt lat="44.92226" lon="6.40809">
        <ele>1975.17</ele>
        <time>2020-07-25T16:24:27Z</time>
      </trkpt>
      <trkpt lat="44.92227" lon="6.40816">
        <ele>1974.2</ele>
        <time>2020-07-25T16:24:33Z</time>
      </trkpt>
      <trkpt lat="44.92237" lon="6.40826">
        <ele>1970.36</ele>
        <time>2020-07-25T16:24:45Z</time>
      </trkpt>
      <trkpt lat="44.92237" lon="6.40827">
        <ele>1970.36</ele>
        <time>2020-07-25T16:24:46Z</time>
      </trkpt>
      <trkpt lat="44.9225" lon="6.40862">
        <ele>1965.07</ele>
        <time>2020-07-25T16:25:16Z</time>
      </trkpt>
      <trkpt lat="44.92253" lon="6.40873">
        <ele>1962.67</ele>
        <time>2020-07-25T16:25:23Z</time>
      </trkpt>
      <trkpt lat="44.92249" lon="6.409">
        <ele>1958.82</ele>
        <time>2020-07-25T16:25:39Z</time>
      </trkpt>
      <trkpt lat="44.92243" lon="6.40916">
        <ele>1955.46</ele>
        <time>2020-07-25T16:25:49Z</time>
      </trkpt>
      <trkpt lat="44.92242" lon="6.40918">
        <ele>1955.94</ele>
        <time>2020-07-25T16:25:50Z</time>
      </trkpt>
      <trkpt lat="44.92233" lon="6.40948">
        <ele>1950.65</ele>
        <time>2020-07-25T16:26:09Z</time>
      </trkpt>
      <trkpt lat="44.92242" lon="6.40981">
        <ele>1947.29</ele>
        <time>2020-07-25T16:26:28Z</time>
      </trkpt>
      <trkpt lat="44.92243" lon="6.40987">
        <ele>1947.29</ele>
        <time>2020-07-25T16:26:31Z</time>
      </trkpt>
      <trkpt lat="44.92234" lon="6.41033">
        <ele>1942.48</ele>
        <time>2020-07-25T16:26:54Z</time>
      </trkpt>
      <trkpt lat="44.92166" lon="6.41087">
        <ele>1935.27</ele>
        <time>2020-07-25T16:27:50Z</time>
      </trkpt>
      <trkpt lat="44.92126" lon="6.41122">
        <ele>1930.95</ele>
        <time>2020-07-25T16:28:40Z</time>
      </trkpt>
      <trkpt lat="44.9208" lon="6.41196">
        <ele>1926.62</ele>
        <time>2020-07-25T16:29:46Z</time>
      </trkpt>
      <trkpt lat="44.9204" lon="6.41261">
        <ele>1922.77</ele>
        <time>2020-07-25T16:30:41Z</time>
      </trkpt>
      <trkpt lat="44.92012" lon="6.41312">
        <ele>1918.93</ele>
        <time>2020-07-25T16:31:23Z</time>
      </trkpt>
      <trkpt lat="44.91987" lon="6.41344">
        <ele>1915.56</ele>
        <time>2020-07-25T16:31:54Z</time>
      </trkpt>
      <trkpt lat="44.91949" lon="6.41397">
        <ele>1912.2</ele>
        <time>2020-07-25T16:32:43Z</time>
      </trkpt>
      <trkpt lat="44.91902" lon="6.41461">
        <ele>1907.39</ele>
        <time>2020-07-25T16:33:42Z</time>
      </trkpt>
      <trkpt lat="44.91841" lon="6.41545">
        <ele>1901.63</ele>
        <time>2020-07-25T16:34:56Z</time>
      </trkpt>
      <trkpt lat="44.91781" lon="6.41588">
        <ele>1898.26</ele>
        <time>2020-07-25T16:35:56Z</time>
      </trkpt>
      <trkpt lat="44.91691" lon="6.41545">
        <ele>1891.53</ele>
        <time>2020-07-25T16:38:29Z</time>
      </trkpt>
    </trkseg>
  </trk>
</gpx>